<?xml version="1.0" encoding="UTF-8" standalone="no" ?>
<gpx xmlns="http://www.topografix.com/GPX/1/1" xmlns:xsi="http://www.w3.org/2001/XMLSchema-instance" xsi:schemaLocation="http://www.topografix.com/GPX/1/1 http://www.topografix.com/GPX/1/1/gpx.xsd" version="1.1" creator="VisuGPX - https://www.visugpx.com">
  <metadata>
    <name>Grande Traversée</name>
  </metadata>
  <trk>
    <name><![CDATA[Grande Traversée]]></name>
    <trkseg>
      <trkpt lat="42.54767" lon="2.38859">
        <ele>660.81</ele>
        <time>2021-10-29T16:57:58Z</time>
      </trkpt>
      <trkpt lat="42.54776" lon="2.38892">
        <ele>664.51</ele>
        <time>2021-10-29T16:57:58Z</time>
      </trkpt>
      <trkpt lat="42.54786" lon="2.38929">
        <ele>668.06</ele>
        <time>2021-10-29T16:57:58Z</time>
      </trkpt>
      <trkpt lat="42.54817" lon="2.38919">
        <ele>671.67</ele>
        <time>2021-10-29T16:57:58Z</time>
      </trkpt>
      <trkpt lat="42.54844" lon="2.38911">
        <ele>675.28</ele>
        <time>2021-10-29T16:57:58Z</time>
      </trkpt>
      <trkpt lat="42.54875" lon="2.38901">
        <ele>679.15</ele>
        <time>2021-10-29T16:57:58Z</time>
      </trkpt>
      <trkpt lat="42.54909" lon="2.38947">
        <ele>683.46</ele>
        <time>2021-10-29T16:57:58Z</time>
      </trkpt>
      <trkpt lat="42.54917" lon="2.38996">
        <ele>685.31</ele>
        <time>2021-10-29T16:57:58Z</time>
      </trkpt>
      <trkpt lat="42.54925" lon="2.39046">
        <ele>687.54</ele>
        <time>2021-10-29T16:57:58Z</time>
      </trkpt>
      <trkpt lat="42.54933" lon="2.39095">
        <ele>690.22</ele>
        <time>2021-10-29T16:57:58Z</time>
      </trkpt>
      <trkpt lat="42.54941" lon="2.39146">
        <ele>692.78</ele>
        <time>2021-10-29T16:57:58Z</time>
      </trkpt>
      <trkpt lat="42.54965" lon="2.3917">
        <ele>691.44</ele>
        <time>2021-10-29T16:57:58Z</time>
      </trkpt>
      <trkpt lat="42.55003" lon="2.39206">
        <ele>689.89</ele>
        <time>2021-10-29T16:57:58Z</time>
      </trkpt>
      <trkpt lat="42.55024" lon="2.39227">
        <ele>689.04</ele>
        <time>2021-10-29T16:57:58Z</time>
      </trkpt>
      <trkpt lat="42.55049" lon="2.39251">
        <ele>687.66</ele>
        <time>2021-10-29T16:57:58Z</time>
      </trkpt>
      <trkpt lat="42.55054" lon="2.39288">
        <ele>688.9</ele>
        <time>2021-10-29T16:57:58Z</time>
      </trkpt>
      <trkpt lat="42.55061" lon="2.39337">
        <ele>690.74</ele>
        <time>2021-10-29T16:57:58Z</time>
      </trkpt>
      <trkpt lat="42.55083" lon="2.39389">
        <ele>691.95</ele>
        <time>2021-10-29T16:57:58Z</time>
      </trkpt>
      <trkpt lat="42.55055" lon="2.39434">
        <ele>696.85</ele>
        <time>2021-10-29T16:57:58Z</time>
      </trkpt>
      <trkpt lat="42.5507" lon="2.39467">
        <ele>698.09</ele>
        <time>2021-10-29T16:57:58Z</time>
      </trkpt>
      <trkpt lat="42.55091" lon="2.39511">
        <ele>699.51</ele>
        <time>2021-10-29T16:57:58Z</time>
      </trkpt>
      <trkpt lat="42.55094" lon="2.3955">
        <ele>701.61</ele>
        <time>2021-10-29T16:57:58Z</time>
      </trkpt>
      <trkpt lat="42.55098" lon="2.39607">
        <ele>704.73</ele>
        <time>2021-10-29T16:57:58Z</time>
      </trkpt>
      <trkpt lat="42.55069" lon="2.3965">
        <ele>708.18</ele>
        <time>2021-10-29T16:57:58Z</time>
      </trkpt>
      <trkpt lat="42.55058" lon="2.39708">
        <ele>713.36</ele>
        <time>2021-10-29T16:57:58Z</time>
      </trkpt>
      <trkpt lat="42.55054" lon="2.39745">
        <ele>717.02</ele>
        <time>2021-10-29T16:57:58Z</time>
      </trkpt>
      <trkpt lat="42.5505" lon="2.39792">
        <ele>721.23</ele>
        <time>2021-10-29T16:57:58Z</time>
      </trkpt>
      <trkpt lat="42.55056" lon="2.39858">
        <ele>726.23</ele>
        <time>2021-10-29T16:57:58Z</time>
      </trkpt>
      <trkpt lat="42.55055" lon="2.39909">
        <ele>731.22</ele>
        <time>2021-10-29T16:57:58Z</time>
      </trkpt>
      <trkpt lat="42.55054" lon="2.3996">
        <ele>736.54</ele>
        <time>2021-10-29T16:57:58Z</time>
      </trkpt>
      <trkpt lat="42.55054" lon="2.40012">
        <ele>742.39</ele>
        <time>2021-10-29T16:57:58Z</time>
      </trkpt>
      <trkpt lat="42.55053" lon="2.40071">
        <ele>749.51</ele>
        <time>2021-10-29T16:57:58Z</time>
      </trkpt>
      <trkpt lat="42.55039" lon="2.40099">
        <ele>755.92</ele>
        <time>2021-10-29T16:57:58Z</time>
      </trkpt>
      <trkpt lat="42.55025" lon="2.40127">
        <ele>761.92</ele>
        <time>2021-10-29T16:57:58Z</time>
      </trkpt>
      <trkpt lat="42.5505" lon="2.4018">
        <ele>761.59</ele>
        <time>2021-10-29T16:57:58Z</time>
      </trkpt>
      <trkpt lat="42.55051" lon="2.40218">
        <ele>765.13</ele>
        <time>2021-10-29T16:57:58Z</time>
      </trkpt>
      <trkpt lat="42.55052" lon="2.4027">
        <ele>770.19</ele>
        <time>2021-10-29T16:57:58Z</time>
      </trkpt>
      <trkpt lat="42.55028" lon="2.40305">
        <ele>778.06</ele>
        <time>2021-10-29T16:57:58Z</time>
      </trkpt>
      <trkpt lat="42.55004" lon="2.4034">
        <ele>785.12</ele>
        <time>2021-10-29T16:57:58Z</time>
      </trkpt>
      <trkpt lat="42.54986" lon="2.40365">
        <ele>792.76</ele>
        <time>2021-10-29T16:57:58Z</time>
      </trkpt>
      <trkpt lat="42.54968" lon="2.40391">
        <ele>800.65</ele>
        <time>2021-10-29T16:57:58Z</time>
      </trkpt>
      <trkpt lat="42.54959" lon="2.40425">
        <ele>804.62</ele>
        <time>2021-10-29T16:57:58Z</time>
      </trkpt>
      <trkpt lat="42.54949" lon="2.40464">
        <ele>807.84</ele>
        <time>2021-10-29T16:57:58Z</time>
      </trkpt>
      <trkpt lat="42.54955" lon="2.405">
        <ele>806.99</ele>
        <time>2021-10-29T16:57:58Z</time>
      </trkpt>
      <trkpt lat="42.54963" lon="2.40543">
        <ele>807.16</ele>
        <time>2021-10-29T16:57:58Z</time>
      </trkpt>
      <trkpt lat="42.54993" lon="2.40521">
        <ele>801.66</ele>
        <time>2021-10-29T16:57:58Z</time>
      </trkpt>
      <trkpt lat="42.55024" lon="2.40544">
        <ele>801.6</ele>
        <time>2021-10-29T16:57:58Z</time>
      </trkpt>
      <trkpt lat="42.55054" lon="2.40567">
        <ele>803.37</ele>
        <time>2021-10-29T16:57:58Z</time>
      </trkpt>
      <trkpt lat="42.55098" lon="2.40599">
        <ele>811.44</ele>
        <time>2021-10-29T16:57:58Z</time>
      </trkpt>
      <trkpt lat="42.55114" lon="2.40634">
        <ele>817.69</ele>
        <time>2021-10-29T16:57:58Z</time>
      </trkpt>
      <trkpt lat="42.55139" lon="2.40689">
        <ele>824.65</ele>
        <time>2021-10-29T16:57:58Z</time>
      </trkpt>
      <trkpt lat="42.55154" lon="2.40725">
        <ele>827.8</ele>
        <time>2021-10-29T16:57:58Z</time>
      </trkpt>
      <trkpt lat="42.55177" lon="2.40783">
        <ele>833.58</ele>
        <time>2021-10-29T16:57:58Z</time>
      </trkpt>
      <trkpt lat="42.55188" lon="2.40819">
        <ele>837.24</ele>
        <time>2021-10-29T16:57:58Z</time>
      </trkpt>
      <trkpt lat="42.55205" lon="2.40871">
        <ele>844.49</ele>
        <time>2021-10-29T16:57:58Z</time>
      </trkpt>
      <trkpt lat="42.55194" lon="2.40921">
        <ele>847.21</ele>
        <time>2021-10-29T16:57:58Z</time>
      </trkpt>
      <trkpt lat="42.55209" lon="2.40956">
        <ele>852.99</ele>
        <time>2021-10-29T16:57:58Z</time>
      </trkpt>
      <trkpt lat="42.55232" lon="2.41011">
        <ele>863.81</ele>
        <time>2021-10-29T16:57:58Z</time>
      </trkpt>
      <trkpt lat="42.55265" lon="2.41034">
        <ele>873.7</ele>
        <time>2021-10-29T16:57:58Z</time>
      </trkpt>
      <trkpt lat="42.55286" lon="2.41069">
        <ele>880.73</ele>
        <time>2021-10-29T16:57:58Z</time>
      </trkpt>
      <trkpt lat="42.55307" lon="2.41104">
        <ele>889.05</ele>
        <time>2021-10-29T16:57:58Z</time>
      </trkpt>
      <trkpt lat="42.55328" lon="2.41139">
        <ele>895.45</ele>
        <time>2021-10-29T16:57:58Z</time>
      </trkpt>
      <trkpt lat="42.55332" lon="2.41172">
        <ele>898.86</ele>
        <time>2021-10-29T16:57:58Z</time>
      </trkpt>
      <trkpt lat="42.55336" lon="2.41206">
        <ele>902.09</ele>
        <time>2021-10-29T16:57:58Z</time>
      </trkpt>
      <trkpt lat="42.55355" lon="2.41245">
        <ele>904.37</ele>
        <time>2021-10-29T16:57:58Z</time>
      </trkpt>
      <trkpt lat="42.55362" lon="2.41279">
        <ele>906.01</ele>
        <time>2021-10-29T16:57:58Z</time>
      </trkpt>
      <trkpt lat="42.55369" lon="2.41315">
        <ele>908.11</ele>
        <time>2021-10-29T16:57:58Z</time>
      </trkpt>
      <trkpt lat="42.5536" lon="2.41373">
        <ele>919.46</ele>
        <time>2021-10-29T16:57:58Z</time>
      </trkpt>
      <trkpt lat="42.55375" lon="2.41417">
        <ele>919.04</ele>
        <time>2021-10-29T16:57:58Z</time>
      </trkpt>
      <trkpt lat="42.5539" lon="2.41462">
        <ele>918.79</ele>
        <time>2021-10-29T16:57:58Z</time>
      </trkpt>
      <trkpt lat="42.55401" lon="2.41495">
        <ele>918.36</ele>
        <time>2021-10-29T16:57:58Z</time>
      </trkpt>
      <trkpt lat="42.55415" lon="2.41536">
        <ele>917.77</ele>
        <time>2021-10-29T16:57:58Z</time>
      </trkpt>
      <trkpt lat="42.55444" lon="2.41561">
        <ele>913.34</ele>
        <time>2021-10-29T16:57:58Z</time>
      </trkpt>
      <trkpt lat="42.55474" lon="2.41587">
        <ele>909.16</ele>
        <time>2021-10-29T16:57:58Z</time>
      </trkpt>
      <trkpt lat="42.55515" lon="2.41622">
        <ele>900.94</ele>
        <time>2021-10-29T16:57:58Z</time>
      </trkpt>
      <trkpt lat="42.55513" lon="2.41665">
        <ele>908.02</ele>
        <time>2021-10-29T16:57:58Z</time>
      </trkpt>
      <trkpt lat="42.55532" lon="2.41712">
        <ele>909.91</ele>
        <time>2021-10-29T16:57:58Z</time>
      </trkpt>
      <trkpt lat="42.55541" lon="2.41759">
        <ele>917.66</ele>
        <time>2021-10-29T16:57:58Z</time>
      </trkpt>
      <trkpt lat="42.55549" lon="2.41807">
        <ele>928.31</ele>
        <time>2021-10-29T16:57:58Z</time>
      </trkpt>
      <trkpt lat="42.55556" lon="2.41843">
        <ele>936.59</ele>
        <time>2021-10-29T16:57:58Z</time>
      </trkpt>
      <trkpt lat="42.55564" lon="2.41886">
        <ele>948.17</ele>
        <time>2021-10-29T16:57:58Z</time>
      </trkpt>
      <trkpt lat="42.55591" lon="2.41888">
        <ele>941.44</ele>
        <time>2021-10-29T16:57:58Z</time>
      </trkpt>
      <trkpt lat="42.55622" lon="2.4189">
        <ele>933.58</ele>
        <time>2021-10-29T16:57:58Z</time>
      </trkpt>
      <trkpt lat="42.5562" lon="2.4193">
        <ele>944.66</ele>
        <time>2021-10-29T16:57:58Z</time>
      </trkpt>
      <trkpt lat="42.55618" lon="2.41989">
        <ele>958.73</ele>
        <time>2021-10-29T16:57:58Z</time>
      </trkpt>
      <trkpt lat="42.55624" lon="2.42032">
        <ele>964.61</ele>
        <time>2021-10-29T16:57:58Z</time>
      </trkpt>
      <trkpt lat="42.55631" lon="2.42067">
        <ele>969.81</ele>
        <time>2021-10-29T16:57:58Z</time>
      </trkpt>
      <trkpt lat="42.5564" lon="2.42109">
        <ele>976.25</ele>
        <time>2021-10-29T16:57:58Z</time>
      </trkpt>
      <trkpt lat="42.55669" lon="2.42134">
        <ele>972.73</ele>
        <time>2021-10-29T16:57:58Z</time>
      </trkpt>
      <trkpt lat="42.55698" lon="2.4216">
        <ele>971.15</ele>
        <time>2021-10-29T16:57:58Z</time>
      </trkpt>
      <trkpt lat="42.55736" lon="2.42193">
        <ele>972.42</ele>
        <time>2021-10-29T16:57:58Z</time>
      </trkpt>
      <trkpt lat="42.55732" lon="2.42233">
        <ele>982.34</ele>
        <time>2021-10-29T16:57:58Z</time>
      </trkpt>
      <trkpt lat="42.55725" lon="2.42294">
        <ele>993.26</ele>
        <time>2021-10-29T16:57:58Z</time>
      </trkpt>
      <trkpt lat="42.55751" lon="2.42306">
        <ele>985.8</ele>
        <time>2021-10-29T16:57:58Z</time>
      </trkpt>
      <trkpt lat="42.55782" lon="2.4232">
        <ele>976.11</ele>
        <time>2021-10-29T16:57:58Z</time>
      </trkpt>
      <trkpt lat="42.55779" lon="2.42366">
        <ele>983.4</ele>
        <time>2021-10-29T16:57:58Z</time>
      </trkpt>
      <trkpt lat="42.55775" lon="2.42413">
        <ele>989.86</ele>
        <time>2021-10-29T16:57:58Z</time>
      </trkpt>
      <trkpt lat="42.55771" lon="2.4247">
        <ele>994.96</ele>
        <time>2021-10-29T16:57:58Z</time>
      </trkpt>
      <trkpt lat="42.55759" lon="2.42515">
        <ele>1000.46</ele>
        <time>2021-10-29T16:57:58Z</time>
      </trkpt>
      <trkpt lat="42.55747" lon="2.4256">
        <ele>1005.19</ele>
        <time>2021-10-29T16:57:58Z</time>
      </trkpt>
      <trkpt lat="42.55739" lon="2.42592">
        <ele>1008.35</ele>
        <time>2021-10-29T16:57:58Z</time>
      </trkpt>
      <trkpt lat="42.5573" lon="2.42624">
        <ele>1014.38</ele>
        <time>2021-10-29T16:57:58Z</time>
      </trkpt>
      <trkpt lat="42.55763" lon="2.42674">
        <ele>1007.43</ele>
        <time>2021-10-29T16:57:58Z</time>
      </trkpt>
      <trkpt lat="42.55755" lon="2.42706">
        <ele>1010.15</ele>
        <time>2021-10-29T16:57:58Z</time>
      </trkpt>
      <trkpt lat="42.55747" lon="2.42738">
        <ele>1013.02</ele>
        <time>2021-10-29T16:57:58Z</time>
      </trkpt>
      <trkpt lat="42.5573" lon="2.42767">
        <ele>1018.1</ele>
        <time>2021-10-29T16:57:58Z</time>
      </trkpt>
      <trkpt lat="42.55709" lon="2.42802">
        <ele>1023.42</ele>
        <time>2021-10-29T16:57:58Z</time>
      </trkpt>
      <trkpt lat="42.55681" lon="2.42822">
        <ele>1032.7</ele>
        <time>2021-10-29T16:57:58Z</time>
      </trkpt>
      <trkpt lat="42.55658" lon="2.42839">
        <ele>1040.69</ele>
        <time>2021-10-29T16:57:58Z</time>
      </trkpt>
      <trkpt lat="42.55633" lon="2.42858">
        <ele>1047.11</ele>
        <time>2021-10-29T16:57:58Z</time>
      </trkpt>
      <trkpt lat="42.55663" lon="2.42895">
        <ele>1049.12</ele>
        <time>2021-10-29T16:57:58Z</time>
      </trkpt>
      <trkpt lat="42.55677" lon="2.42932">
        <ele>1059.02</ele>
        <time>2021-10-29T16:57:58Z</time>
      </trkpt>
      <trkpt lat="42.55689" lon="2.42962">
        <ele>1068.49</ele>
        <time>2021-10-29T16:57:58Z</time>
      </trkpt>
      <trkpt lat="42.55701" lon="2.42993">
        <ele>1079.11</ele>
        <time>2021-10-29T16:57:58Z</time>
      </trkpt>
      <trkpt lat="42.55728" lon="2.4298">
        <ele>1076.09</ele>
        <time>2021-10-29T16:57:58Z</time>
      </trkpt>
      <trkpt lat="42.55765" lon="2.42963">
        <ele>1071.84</ele>
        <time>2021-10-29T16:57:58Z</time>
      </trkpt>
      <trkpt lat="42.55746" lon="2.42994">
        <ele>1082.24</ele>
        <time>2021-10-29T16:57:58Z</time>
      </trkpt>
      <trkpt lat="42.5572" lon="2.43038">
        <ele>1095.88</ele>
        <time>2021-10-29T16:57:58Z</time>
      </trkpt>
      <trkpt lat="42.55692" lon="2.43045">
        <ele>1094.06</ele>
        <time>2021-10-29T16:57:58Z</time>
      </trkpt>
      <trkpt lat="42.55656" lon="2.43054">
        <ele>1090.34</ele>
        <time>2021-10-29T16:57:58Z</time>
      </trkpt>
      <trkpt lat="42.55695" lon="2.43084">
        <ele>1105.97</ele>
        <time>2021-10-29T16:57:58Z</time>
      </trkpt>
      <trkpt lat="42.5566" lon="2.43116">
        <ele>1104.7</ele>
        <time>2021-10-29T16:57:58Z</time>
      </trkpt>
      <trkpt lat="42.55664" lon="2.43157">
        <ele>1115.2</ele>
        <time>2021-10-29T16:57:58Z</time>
      </trkpt>
      <trkpt lat="42.55668" lon="2.43191">
        <ele>1125.07</ele>
        <time>2021-10-29T16:57:58Z</time>
      </trkpt>
      <trkpt lat="42.55671" lon="2.43225">
        <ele>1135.54</ele>
        <time>2021-10-29T16:57:58Z</time>
      </trkpt>
      <trkpt lat="42.55649" lon="2.43263">
        <ele>1136.72</ele>
        <time>2021-10-29T16:57:58Z</time>
      </trkpt>
      <trkpt lat="42.55628" lon="2.433">
        <ele>1139.2</ele>
        <time>2021-10-29T16:57:58Z</time>
      </trkpt>
      <trkpt lat="42.55612" lon="2.43327">
        <ele>1142.74</ele>
        <time>2021-10-29T16:57:58Z</time>
      </trkpt>
      <trkpt lat="42.55597" lon="2.43354">
        <ele>1146.37</ele>
        <time>2021-10-29T16:57:58Z</time>
      </trkpt>
      <trkpt lat="42.55574" lon="2.43384">
        <ele>1148.57</ele>
        <time>2021-10-29T16:57:58Z</time>
      </trkpt>
      <trkpt lat="42.55555" lon="2.4341">
        <ele>1149.28</ele>
        <time>2021-10-29T16:57:58Z</time>
      </trkpt>
      <trkpt lat="42.55532" lon="2.4344">
        <ele>1152.47</ele>
        <time>2021-10-29T16:57:58Z</time>
      </trkpt>
      <trkpt lat="42.55518" lon="2.43484">
        <ele>1162.6</ele>
        <time>2021-10-29T16:57:58Z</time>
      </trkpt>
      <trkpt lat="42.55504" lon="2.43528">
        <ele>1170.49</ele>
        <time>2021-10-29T16:57:58Z</time>
      </trkpt>
      <trkpt lat="42.55494" lon="2.4356">
        <ele>1176.12</ele>
        <time>2021-10-29T16:57:58Z</time>
      </trkpt>
      <trkpt lat="42.55483" lon="2.43594">
        <ele>1185.71</ele>
        <time>2021-10-29T16:57:58Z</time>
      </trkpt>
      <trkpt lat="42.55456" lon="2.43607">
        <ele>1184.19</ele>
        <time>2021-10-29T16:57:58Z</time>
      </trkpt>
      <trkpt lat="42.55418" lon="2.43626">
        <ele>1178.94</ele>
        <time>2021-10-29T16:57:58Z</time>
      </trkpt>
      <trkpt lat="42.55394" lon="2.43657">
        <ele>1191.06</ele>
        <time>2021-10-29T16:57:58Z</time>
      </trkpt>
      <trkpt lat="42.55374" lon="2.43684">
        <ele>1196.28</ele>
        <time>2021-10-29T16:57:58Z</time>
      </trkpt>
      <trkpt lat="42.55347" lon="2.43719">
        <ele>1203.03</ele>
        <time>2021-10-29T16:57:58Z</time>
      </trkpt>
      <trkpt lat="42.55327" lon="2.43745">
        <ele>1213.01</ele>
        <time>2021-10-29T16:57:58Z</time>
      </trkpt>
      <trkpt lat="42.55303" lon="2.43777">
        <ele>1222.35</ele>
        <time>2021-10-29T16:57:58Z</time>
      </trkpt>
      <trkpt lat="42.5529" lon="2.43819">
        <ele>1232.48</ele>
        <time>2021-10-29T16:57:58Z</time>
      </trkpt>
      <trkpt lat="42.55278" lon="2.43862">
        <ele>1247.51</ele>
        <time>2021-10-29T16:57:58Z</time>
      </trkpt>
      <trkpt lat="42.55264" lon="2.4391">
        <ele>1270.91</ele>
        <time>2021-10-29T16:57:58Z</time>
      </trkpt>
      <trkpt lat="42.55234" lon="2.43925">
        <ele>1277.85</ele>
        <time>2021-10-29T16:57:58Z</time>
      </trkpt>
      <trkpt lat="42.55208" lon="2.43938">
        <ele>1283.75</ele>
        <time>2021-10-29T16:57:58Z</time>
      </trkpt>
      <trkpt lat="42.55177" lon="2.43953">
        <ele>1294.63</ele>
        <time>2021-10-29T16:57:58Z</time>
      </trkpt>
      <trkpt lat="42.55153" lon="2.44004">
        <ele>1321.29</ele>
        <time>2021-10-29T16:57:58Z</time>
      </trkpt>
      <trkpt lat="42.55134" lon="2.44051">
        <ele>1345.77</ele>
        <time>2021-10-29T16:57:58Z</time>
      </trkpt>
      <trkpt lat="42.55094" lon="2.44035">
        <ele>1343.63</ele>
        <time>2021-10-29T16:57:58Z</time>
      </trkpt>
      <trkpt lat="42.55105" lon="2.44096">
        <ele>1373.19</ele>
        <time>2021-10-29T16:57:58Z</time>
      </trkpt>
      <trkpt lat="42.55077" lon="2.44081">
        <ele>1370.17</ele>
        <time>2021-10-29T16:57:58Z</time>
      </trkpt>
      <trkpt lat="42.55034" lon="2.44058">
        <ele>1356.1</ele>
        <time>2021-10-29T16:57:58Z</time>
      </trkpt>
      <trkpt lat="42.54996" lon="2.44101">
        <ele>1380.86</ele>
        <time>2021-10-29T16:57:58Z</time>
      </trkpt>
      <trkpt lat="42.55021" lon="2.44123">
        <ele>1396.21</ele>
        <time>2021-10-29T16:57:58Z</time>
      </trkpt>
      <trkpt lat="42.55061" lon="2.44159">
        <ele>1412.01</ele>
        <time>2021-10-29T16:57:58Z</time>
      </trkpt>
      <trkpt lat="42.55035" lon="2.44175">
        <ele>1425.21</ele>
        <time>2021-10-29T16:57:58Z</time>
      </trkpt>
      <trkpt lat="42.55001" lon="2.44197">
        <ele>1442.45</ele>
        <time>2021-10-29T16:57:58Z</time>
      </trkpt>
      <trkpt lat="42.55036" lon="2.44229">
        <ele>1451.69</ele>
        <time>2021-10-29T16:57:58Z</time>
      </trkpt>
      <trkpt lat="42.54988" lon="2.44227">
        <ele>1457.24</ele>
        <time>2021-10-29T16:57:58Z</time>
      </trkpt>
      <trkpt lat="42.55012" lon="2.44266">
        <ele>1476.82</ele>
        <time>2021-10-29T16:57:58Z</time>
      </trkpt>
      <trkpt lat="42.54987" lon="2.4427">
        <ele>1479.66</ele>
        <time>2021-10-29T16:57:58Z</time>
      </trkpt>
      <trkpt lat="42.5496" lon="2.44274">
        <ele>1480.46</ele>
        <time>2021-10-29T16:57:58Z</time>
      </trkpt>
      <trkpt lat="42.54944" lon="2.44304">
        <ele>1497.95</ele>
        <time>2021-10-29T16:57:58Z</time>
      </trkpt>
      <trkpt lat="42.54964" lon="2.44324">
        <ele>1507.34</ele>
        <time>2021-10-29T16:57:58Z</time>
      </trkpt>
      <trkpt lat="42.54984" lon="2.44345">
        <ele>1516.84</ele>
        <time>2021-10-29T16:57:58Z</time>
      </trkpt>
      <trkpt lat="42.54962" lon="2.44352">
        <ele>1521.03</ele>
        <time>2021-10-29T16:57:58Z</time>
      </trkpt>
      <trkpt lat="42.5496" lon="2.44395">
        <ele>1541.65</ele>
        <time>2021-10-29T16:57:58Z</time>
      </trkpt>
      <trkpt lat="42.54928" lon="2.4442">
        <ele>1550.21</ele>
        <time>2021-10-29T16:57:58Z</time>
      </trkpt>
      <trkpt lat="42.54958" lon="2.44455">
        <ele>1569.64</ele>
        <time>2021-10-29T16:57:58Z</time>
      </trkpt>
      <trkpt lat="42.54941" lon="2.44474">
        <ele>1577.48</ele>
        <time>2021-10-29T16:57:58Z</time>
      </trkpt>
      <trkpt lat="42.54963" lon="2.44493">
        <ele>1588.09</ele>
        <time>2021-10-29T16:57:58Z</time>
      </trkpt>
      <trkpt lat="42.5493" lon="2.44508">
        <ele>1591.25</ele>
        <time>2021-10-29T16:57:58Z</time>
      </trkpt>
      <trkpt lat="42.54938" lon="2.44568">
        <ele>1624.94</ele>
        <time>2021-10-29T16:57:58Z</time>
      </trkpt>
      <trkpt lat="42.54939" lon="2.44618">
        <ele>1650.68</ele>
        <time>2021-10-29T16:57:58Z</time>
      </trkpt>
      <trkpt lat="42.54908" lon="2.44628">
        <ele>1650.02</ele>
        <time>2021-10-29T16:57:58Z</time>
      </trkpt>
      <trkpt lat="42.54881" lon="2.44637">
        <ele>1649.39</ele>
        <time>2021-10-29T16:57:58Z</time>
      </trkpt>
      <trkpt lat="42.54849" lon="2.44648">
        <ele>1648.81</ele>
        <time>2021-10-29T16:57:58Z</time>
      </trkpt>
      <trkpt lat="42.54883" lon="2.44669">
        <ele>1667.67</ele>
        <time>2021-10-29T16:57:58Z</time>
      </trkpt>
      <trkpt lat="42.54857" lon="2.44686">
        <ele>1673.23</ele>
        <time>2021-10-29T16:57:58Z</time>
      </trkpt>
      <trkpt lat="42.54856" lon="2.44726">
        <ele>1697.94</ele>
        <time>2021-10-29T16:57:58Z</time>
      </trkpt>
      <trkpt lat="42.54854" lon="2.44783">
        <ele>1734.83</ele>
        <time>2021-10-29T16:57:58Z</time>
      </trkpt>
      <trkpt lat="42.54829" lon="2.44828">
        <ele>1756.48</ele>
        <time>2021-10-29T16:57:58Z</time>
      </trkpt>
      <trkpt lat="42.54805" lon="2.44841">
        <ele>1760.93</ele>
        <time>2021-10-29T16:57:58Z</time>
      </trkpt>
      <trkpt lat="42.5478" lon="2.44854">
        <ele>1767.47</ele>
        <time>2021-10-29T16:57:58Z</time>
      </trkpt>
      <trkpt lat="42.54772" lon="2.44884">
        <ele>1780.43</ele>
        <time>2021-10-29T16:57:58Z</time>
      </trkpt>
      <trkpt lat="42.54726" lon="2.44882">
        <ele>1779.94</ele>
        <time>2021-10-29T16:57:58Z</time>
      </trkpt>
      <trkpt lat="42.54723" lon="2.44907">
        <ele>1791.62</ele>
        <time>2021-10-29T16:57:58Z</time>
      </trkpt>
      <trkpt lat="42.54685" lon="2.44916">
        <ele>1794.77</ele>
        <time>2021-10-29T16:57:58Z</time>
      </trkpt>
      <trkpt lat="42.54691" lon="2.44948">
        <ele>1807.69</ele>
        <time>2021-10-29T16:57:58Z</time>
      </trkpt>
      <trkpt lat="42.54666" lon="2.44991">
        <ele>1824.9</ele>
        <time>2021-10-29T16:57:58Z</time>
      </trkpt>
      <trkpt lat="42.54641" lon="2.45033">
        <ele>1828.11</ele>
        <time>2021-10-29T16:57:58Z</time>
      </trkpt>
      <trkpt lat="42.54616" lon="2.45076">
        <ele>1836.14</ele>
        <time>2021-10-29T16:57:58Z</time>
      </trkpt>
      <trkpt lat="42.54591" lon="2.45118">
        <ele>1843.13</ele>
        <time>2021-10-29T16:57:58Z</time>
      </trkpt>
      <trkpt lat="42.54562" lon="2.45169">
        <ele>1851.69</ele>
        <time>2021-10-29T16:57:58Z</time>
      </trkpt>
      <trkpt lat="42.54541" lon="2.45201">
        <ele>1861.5</ele>
        <time>2021-10-29T16:57:58Z</time>
      </trkpt>
      <trkpt lat="42.54524" lon="2.45228">
        <ele>1867.43</ele>
        <time>2021-10-29T16:57:58Z</time>
      </trkpt>
      <trkpt lat="42.54506" lon="2.45257">
        <ele>1874.02</ele>
        <time>2021-10-29T16:57:58Z</time>
      </trkpt>
      <trkpt lat="42.5449" lon="2.45301">
        <ele>1879.11</ele>
        <time>2021-10-29T16:57:58Z</time>
      </trkpt>
      <trkpt lat="42.54474" lon="2.45345">
        <ele>1885.3</ele>
        <time>2021-10-29T16:57:58Z</time>
      </trkpt>
      <trkpt lat="42.54463" lon="2.45379">
        <ele>1889.71</ele>
        <time>2021-10-29T16:57:58Z</time>
      </trkpt>
      <trkpt lat="42.54448" lon="2.4542">
        <ele>1895.88</ele>
        <time>2021-10-29T16:57:58Z</time>
      </trkpt>
      <trkpt lat="42.54437" lon="2.4547">
        <ele>1897.67</ele>
        <time>2021-10-29T16:57:58Z</time>
      </trkpt>
      <trkpt lat="42.54427" lon="2.4552">
        <ele>1898.01</ele>
        <time>2021-10-29T16:57:58Z</time>
      </trkpt>
      <trkpt lat="42.54416" lon="2.45569">
        <ele>1897.73</ele>
        <time>2021-10-29T16:57:58Z</time>
      </trkpt>
      <trkpt lat="42.54409" lon="2.45602">
        <ele>1896.43</ele>
        <time>2021-10-29T16:57:58Z</time>
      </trkpt>
      <trkpt lat="42.54402" lon="2.45637">
        <ele>1893.04</ele>
        <time>2021-10-29T16:57:58Z</time>
      </trkpt>
      <trkpt lat="42.54375" lon="2.45653">
        <ele>1902.76</ele>
        <time>2021-10-29T16:57:58Z</time>
      </trkpt>
      <trkpt lat="42.54334" lon="2.45678">
        <ele>1912.77</ele>
        <time>2021-10-29T16:57:58Z</time>
      </trkpt>
      <trkpt lat="42.54312" lon="2.45707">
        <ele>1911.74</ele>
        <time>2021-10-29T16:57:58Z</time>
      </trkpt>
      <trkpt lat="42.54294" lon="2.45731">
        <ele>1909.42</ele>
        <time>2021-10-29T16:57:58Z</time>
      </trkpt>
      <trkpt lat="42.54276" lon="2.45755">
        <ele>1906.26</ele>
        <time>2021-10-29T16:57:58Z</time>
      </trkpt>
      <trkpt lat="42.54249" lon="2.45747">
        <ele>1917.53</ele>
        <time>2021-10-29T16:57:58Z</time>
      </trkpt>
      <trkpt lat="42.54214" lon="2.45736">
        <ele>1929.74</ele>
        <time>2021-10-29T16:57:58Z</time>
      </trkpt>
      <trkpt lat="42.5418" lon="2.45748">
        <ele>1933.1</ele>
        <time>2021-10-29T16:57:58Z</time>
      </trkpt>
      <trkpt lat="42.54147" lon="2.4576">
        <ele>1939.08</ele>
        <time>2021-10-29T16:57:58Z</time>
      </trkpt>
      <trkpt lat="42.54102" lon="2.45776">
        <ele>1948.99</ele>
        <time>2021-10-29T16:57:58Z</time>
      </trkpt>
      <trkpt lat="42.54081" lon="2.45809">
        <ele>1949.13</ele>
        <time>2021-10-29T16:57:58Z</time>
      </trkpt>
      <trkpt lat="42.54063" lon="2.45837">
        <ele>1949.45</ele>
        <time>2021-10-29T16:57:58Z</time>
      </trkpt>
      <trkpt lat="42.54042" lon="2.45871">
        <ele>1949.14</ele>
        <time>2021-10-29T16:57:58Z</time>
      </trkpt>
      <trkpt lat="42.54005" lon="2.45884">
        <ele>1957.15</ele>
        <time>2021-10-29T16:57:58Z</time>
      </trkpt>
      <trkpt lat="42.53969" lon="2.45898">
        <ele>1962.86</ele>
        <time>2021-10-29T16:57:58Z</time>
      </trkpt>
      <trkpt lat="42.53933" lon="2.45911">
        <ele>1966.93</ele>
        <time>2021-10-29T16:57:58Z</time>
      </trkpt>
      <trkpt lat="42.5389" lon="2.45927">
        <ele>1970.65</ele>
        <time>2021-10-29T16:57:58Z</time>
      </trkpt>
      <trkpt lat="42.53883" lon="2.45971">
        <ele>1966.56</ele>
        <time>2021-10-29T16:57:58Z</time>
      </trkpt>
      <trkpt lat="42.53877" lon="2.46008">
        <ele>1964.23</ele>
        <time>2021-10-29T16:57:58Z</time>
      </trkpt>
      <trkpt lat="42.53869" lon="2.46058">
        <ele>1967.45</ele>
        <time>2021-10-29T16:57:58Z</time>
      </trkpt>
      <trkpt lat="42.53851" lon="2.46097">
        <ele>1977.74</ele>
        <time>2021-10-29T16:57:58Z</time>
      </trkpt>
      <trkpt lat="42.53833" lon="2.46137">
        <ele>1989.46</ele>
        <time>2021-10-29T16:57:58Z</time>
      </trkpt>
      <trkpt lat="42.53811" lon="2.46184">
        <ele>2000.88</ele>
        <time>2021-10-29T16:57:58Z</time>
      </trkpt>
      <trkpt lat="42.53786" lon="2.4621">
        <ele>2008.5</ele>
        <time>2021-10-29T16:57:58Z</time>
      </trkpt>
      <trkpt lat="42.53765" lon="2.46232">
        <ele>2014.62</ele>
        <time>2021-10-29T16:57:58Z</time>
      </trkpt>
      <trkpt lat="42.53742" lon="2.46257">
        <ele>2019.77</ele>
        <time>2021-10-29T16:57:58Z</time>
      </trkpt>
      <trkpt lat="42.53708" lon="2.46269">
        <ele>2025.28</ele>
        <time>2021-10-29T16:57:58Z</time>
      </trkpt>
      <trkpt lat="42.53674" lon="2.4628">
        <ele>2043</ele>
        <time>2021-10-29T16:57:58Z</time>
      </trkpt>
      <trkpt lat="42.53629" lon="2.46296">
        <ele>2061.52</ele>
        <time>2021-10-29T16:57:58Z</time>
      </trkpt>
      <trkpt lat="42.53604" lon="2.46323">
        <ele>2089.34</ele>
        <time>2021-10-29T16:57:58Z</time>
      </trkpt>
      <trkpt lat="42.53583" lon="2.46345">
        <ele>2104.75</ele>
        <time>2021-10-29T16:57:58Z</time>
      </trkpt>
      <trkpt lat="42.53558" lon="2.46371">
        <ele>2126.87</ele>
        <time>2021-10-29T16:57:58Z</time>
      </trkpt>
      <trkpt lat="42.5352" lon="2.46338">
        <ele>2126.69</ele>
        <time>2021-10-29T16:57:58Z</time>
      </trkpt>
      <trkpt lat="42.53488" lon="2.46334">
        <ele>2131.03</ele>
        <time>2021-10-29T16:57:58Z</time>
      </trkpt>
      <trkpt lat="42.53462" lon="2.46331">
        <ele>2136.03</ele>
        <time>2021-10-29T16:57:58Z</time>
      </trkpt>
      <trkpt lat="42.53433" lon="2.46328">
        <ele>2139.17</ele>
        <time>2021-10-29T16:57:58Z</time>
      </trkpt>
      <trkpt lat="42.53407" lon="2.46348">
        <ele>2144.34</ele>
        <time>2021-10-29T16:57:58Z</time>
      </trkpt>
      <trkpt lat="42.53366" lon="2.46379">
        <ele>2149.39</ele>
        <time>2021-10-29T16:57:58Z</time>
      </trkpt>
      <trkpt lat="42.53346" lon="2.46387">
        <ele>2151.15</ele>
        <time>2021-10-29T16:57:58Z</time>
      </trkpt>
      <trkpt lat="42.53341" lon="2.46432">
        <ele>2152.05</ele>
        <time>2021-10-29T16:57:58Z</time>
      </trkpt>
      <trkpt lat="42.53367" lon="2.46449">
        <ele>2151.32</ele>
        <time>2021-10-29T16:57:58Z</time>
      </trkpt>
      <trkpt lat="42.53403" lon="2.46473">
        <ele>2151.24</ele>
        <time>2021-10-29T16:57:58Z</time>
      </trkpt>
      <trkpt lat="42.5342" lon="2.46496">
        <ele>2150.26</ele>
        <time>2021-10-29T16:57:58Z</time>
      </trkpt>
      <trkpt lat="42.53431" lon="2.46515">
        <ele>2149.98</ele>
        <time>2021-10-29T16:57:58Z</time>
      </trkpt>
      <trkpt lat="42.53402" lon="2.46524">
        <ele>2150.24</ele>
        <time>2021-10-29T16:57:58Z</time>
      </trkpt>
      <trkpt lat="42.53379" lon="2.46557">
        <ele>2149.66</ele>
        <time>2021-10-29T16:57:58Z</time>
      </trkpt>
      <trkpt lat="42.53343" lon="2.46595">
        <ele>2153.55</ele>
        <time>2021-10-29T16:57:58Z</time>
      </trkpt>
      <trkpt lat="42.53324" lon="2.46616">
        <ele>2158.51</ele>
        <time>2021-10-29T16:57:58Z</time>
      </trkpt>
      <trkpt lat="42.53301" lon="2.46654">
        <ele>2164.89</ele>
        <time>2021-10-29T16:57:58Z</time>
      </trkpt>
      <trkpt lat="42.53265" lon="2.46699">
        <ele>2169.82</ele>
        <time>2021-10-29T16:57:58Z</time>
      </trkpt>
      <trkpt lat="42.53245" lon="2.46734">
        <ele>2175.41</ele>
        <time>2021-10-29T16:57:58Z</time>
      </trkpt>
      <trkpt lat="42.5322" lon="2.46788">
        <ele>2180.1</ele>
        <time>2021-10-29T16:57:58Z</time>
      </trkpt>
      <trkpt lat="42.53201" lon="2.46845">
        <ele>2187.07</ele>
        <time>2021-10-29T16:57:58Z</time>
      </trkpt>
      <trkpt lat="42.532" lon="2.46882">
        <ele>2179.3</ele>
        <time>2021-10-29T16:57:58Z</time>
      </trkpt>
      <trkpt lat="42.53187" lon="2.46911">
        <ele>2177.71</ele>
        <time>2021-10-29T16:57:58Z</time>
      </trkpt>
      <trkpt lat="42.53173" lon="2.46941">
        <ele>2175.63</ele>
        <time>2021-10-29T16:57:58Z</time>
      </trkpt>
      <trkpt lat="42.53155" lon="2.46957">
        <ele>2177.57</ele>
        <time>2021-10-29T16:57:58Z</time>
      </trkpt>
      <trkpt lat="42.53133" lon="2.46965">
        <ele>2183.27</ele>
        <time>2021-10-29T16:57:58Z</time>
      </trkpt>
      <trkpt lat="42.53099" lon="2.4699">
        <ele>2187.14</ele>
        <time>2021-10-29T16:57:58Z</time>
      </trkpt>
      <trkpt lat="42.53088" lon="2.47004">
        <ele>2185.57</ele>
        <time>2021-10-29T16:57:58Z</time>
      </trkpt>
      <trkpt lat="42.53072" lon="2.47031">
        <ele>2181.44</ele>
        <time>2021-10-29T16:57:58Z</time>
      </trkpt>
      <trkpt lat="42.5306" lon="2.47046">
        <ele>2180.94</ele>
        <time>2021-10-29T16:57:58Z</time>
      </trkpt>
      <trkpt lat="42.53048" lon="2.47044">
        <ele>2187.24</ele>
        <time>2021-10-29T16:57:58Z</time>
      </trkpt>
      <trkpt lat="42.53038" lon="2.47049">
        <ele>2189.93</ele>
        <time>2021-10-29T16:57:58Z</time>
      </trkpt>
      <trkpt lat="42.53016" lon="2.47075">
        <ele>2191.16</ele>
        <time>2021-10-29T16:57:58Z</time>
      </trkpt>
      <trkpt lat="42.53007" lon="2.47111">
        <ele>2184.35</ele>
        <time>2021-10-29T16:57:58Z</time>
      </trkpt>
      <trkpt lat="42.52991" lon="2.47143">
        <ele>2184.17</ele>
        <time>2021-10-29T16:57:58Z</time>
      </trkpt>
      <trkpt lat="42.52971" lon="2.47186">
        <ele>2183.85</ele>
        <time>2021-10-29T16:57:58Z</time>
      </trkpt>
      <trkpt lat="42.52951" lon="2.47242">
        <ele>2179.67</ele>
        <time>2021-10-29T16:57:58Z</time>
      </trkpt>
      <trkpt lat="42.52941" lon="2.47273">
        <ele>2177.37</ele>
        <time>2021-10-29T16:57:58Z</time>
      </trkpt>
      <trkpt lat="42.52932" lon="2.47305">
        <ele>2174.87</ele>
        <time>2021-10-29T16:57:58Z</time>
      </trkpt>
      <trkpt lat="42.52914" lon="2.47337">
        <ele>2180.8</ele>
        <time>2021-10-29T16:57:58Z</time>
      </trkpt>
      <trkpt lat="42.52908" lon="2.47351">
        <ele>2184.63</ele>
        <time>2021-10-29T16:57:58Z</time>
      </trkpt>
      <trkpt lat="42.5292" lon="2.4736">
        <ele>2175.52</ele>
        <time>2021-10-29T16:57:58Z</time>
      </trkpt>
      <trkpt lat="42.52913" lon="2.47379">
        <ele>2179.93</ele>
        <time>2021-10-29T16:57:58Z</time>
      </trkpt>
      <trkpt lat="42.52928" lon="2.47413">
        <ele>2169.32</ele>
        <time>2021-10-29T16:57:58Z</time>
      </trkpt>
      <trkpt lat="42.5292" lon="2.47429">
        <ele>2177.01</ele>
        <time>2021-10-29T16:57:58Z</time>
      </trkpt>
      <trkpt lat="42.52928" lon="2.47449">
        <ele>2172.99</ele>
        <time>2021-10-29T16:57:58Z</time>
      </trkpt>
      <trkpt lat="42.52928" lon="2.47463">
        <ele>2174.42</ele>
        <time>2021-10-29T16:57:58Z</time>
      </trkpt>
      <trkpt lat="42.52933" lon="2.47485">
        <ele>2176.27</ele>
        <time>2021-10-29T16:57:58Z</time>
      </trkpt>
      <trkpt lat="42.52968" lon="2.47509">
        <ele>2161.76</ele>
        <time>2021-10-29T16:57:58Z</time>
      </trkpt>
      <trkpt lat="42.53002" lon="2.47541">
        <ele>2154.66</ele>
        <time>2021-10-29T16:57:58Z</time>
      </trkpt>
      <trkpt lat="42.53028" lon="2.47549">
        <ele>2143.52</ele>
        <time>2021-10-29T16:57:58Z</time>
      </trkpt>
      <trkpt lat="42.5304" lon="2.47565">
        <ele>2143.57</ele>
        <time>2021-10-29T16:57:58Z</time>
      </trkpt>
      <trkpt lat="42.53049" lon="2.47579">
        <ele>2144.4</ele>
        <time>2021-10-29T16:57:58Z</time>
      </trkpt>
      <trkpt lat="42.53069" lon="2.47596">
        <ele>2139.61</ele>
        <time>2021-10-29T16:57:58Z</time>
      </trkpt>
      <trkpt lat="42.53069" lon="2.4763">
        <ele>2152.27</ele>
        <time>2021-10-29T16:57:58Z</time>
      </trkpt>
      <trkpt lat="42.53068" lon="2.47659">
        <ele>2163.03</ele>
        <time>2021-10-29T16:57:58Z</time>
      </trkpt>
      <trkpt lat="42.53066" lon="2.47724">
        <ele>2172.77</ele>
        <time>2021-10-29T16:57:58Z</time>
      </trkpt>
      <trkpt lat="42.53074" lon="2.47785">
        <ele>2167</ele>
        <time>2021-10-29T16:57:58Z</time>
      </trkpt>
      <trkpt lat="42.53062" lon="2.4784">
        <ele>2165.31</ele>
        <time>2021-10-29T16:57:58Z</time>
      </trkpt>
      <trkpt lat="42.53054" lon="2.47874">
        <ele>2162.22</ele>
        <time>2021-10-29T16:57:58Z</time>
      </trkpt>
      <trkpt lat="42.53042" lon="2.47891">
        <ele>2162.53</ele>
        <time>2021-10-29T16:57:58Z</time>
      </trkpt>
      <trkpt lat="42.53016" lon="2.47913">
        <ele>2166.22</ele>
        <time>2021-10-29T16:57:58Z</time>
      </trkpt>
      <trkpt lat="42.52995" lon="2.4797">
        <ele>2159.82</ele>
        <time>2021-10-29T16:57:58Z</time>
      </trkpt>
      <trkpt lat="42.5298" lon="2.48006">
        <ele>2156.19</ele>
        <time>2021-10-29T16:57:58Z</time>
      </trkpt>
      <trkpt lat="42.52957" lon="2.48062">
        <ele>2150.37</ele>
        <time>2021-10-29T16:57:58Z</time>
      </trkpt>
      <trkpt lat="42.52953" lon="2.48109">
        <ele>2140.31</ele>
        <time>2021-10-29T16:57:58Z</time>
      </trkpt>
      <trkpt lat="42.52961" lon="2.48149">
        <ele>2125.12</ele>
        <time>2021-10-29T16:57:58Z</time>
      </trkpt>
      <trkpt lat="42.52961" lon="2.48187">
        <ele>2116.18</ele>
        <time>2021-10-29T16:57:58Z</time>
      </trkpt>
      <trkpt lat="42.52948" lon="2.48218">
        <ele>2114.28</ele>
        <time>2021-10-29T16:57:58Z</time>
      </trkpt>
      <trkpt lat="42.52939" lon="2.48254">
        <ele>2107.71</ele>
        <time>2021-10-29T16:57:58Z</time>
      </trkpt>
      <trkpt lat="42.52961" lon="2.48257">
        <ele>2100.36</ele>
        <time>2021-10-29T16:57:58Z</time>
      </trkpt>
      <trkpt lat="42.52959" lon="2.48297">
        <ele>2092.02</ele>
        <time>2021-10-29T16:57:58Z</time>
      </trkpt>
      <trkpt lat="42.52932" lon="2.48335">
        <ele>2085.53</ele>
        <time>2021-10-29T16:57:58Z</time>
      </trkpt>
      <trkpt lat="42.52896" lon="2.48339">
        <ele>2084.41</ele>
        <time>2021-10-29T16:57:58Z</time>
      </trkpt>
      <trkpt lat="42.52853" lon="2.48355">
        <ele>2073.72</ele>
        <time>2021-10-29T16:57:58Z</time>
      </trkpt>
      <trkpt lat="42.52825" lon="2.48345">
        <ele>2073.35</ele>
        <time>2021-10-29T16:57:58Z</time>
      </trkpt>
      <trkpt lat="42.52788" lon="2.48331">
        <ele>2073.95</ele>
        <time>2021-10-29T16:57:58Z</time>
      </trkpt>
      <trkpt lat="42.52757" lon="2.48327">
        <ele>2073.68</ele>
        <time>2021-10-29T16:57:58Z</time>
      </trkpt>
      <trkpt lat="42.52721" lon="2.48333">
        <ele>2074.11</ele>
        <time>2021-10-29T16:57:58Z</time>
      </trkpt>
      <trkpt lat="42.52698" lon="2.48358">
        <ele>2069.87</ele>
        <time>2021-10-29T16:57:58Z</time>
      </trkpt>
      <trkpt lat="42.52661" lon="2.48376">
        <ele>2073.2</ele>
        <time>2021-10-29T16:57:58Z</time>
      </trkpt>
      <trkpt lat="42.52633" lon="2.48398">
        <ele>2072.71</ele>
        <time>2021-10-29T16:57:58Z</time>
      </trkpt>
      <trkpt lat="42.52615" lon="2.48423">
        <ele>2068.26</ele>
        <time>2021-10-29T16:57:58Z</time>
      </trkpt>
      <trkpt lat="42.52602" lon="2.48437">
        <ele>2066.04</ele>
        <time>2021-10-29T16:57:58Z</time>
      </trkpt>
      <trkpt lat="42.52583" lon="2.48441">
        <ele>2064.83</ele>
        <time>2021-10-29T16:57:58Z</time>
      </trkpt>
      <trkpt lat="42.52553" lon="2.48444">
        <ele>2062.86</ele>
        <time>2021-10-29T16:57:58Z</time>
      </trkpt>
      <trkpt lat="42.52533" lon="2.48439">
        <ele>2062.46</ele>
        <time>2021-10-29T16:57:58Z</time>
      </trkpt>
      <trkpt lat="42.52521" lon="2.48433">
        <ele>2059.9</ele>
        <time>2021-10-29T16:57:58Z</time>
      </trkpt>
      <trkpt lat="42.5252" lon="2.48451">
        <ele>2053.23</ele>
        <time>2021-10-29T16:57:58Z</time>
      </trkpt>
      <trkpt lat="42.5254" lon="2.48457">
        <ele>2057.96</ele>
        <time>2021-10-29T16:57:58Z</time>
      </trkpt>
      <trkpt lat="42.5256" lon="2.48466">
        <ele>2056.43</ele>
        <time>2021-10-29T16:57:58Z</time>
      </trkpt>
      <trkpt lat="42.52581" lon="2.4847">
        <ele>2056.69</ele>
        <time>2021-10-29T16:57:58Z</time>
      </trkpt>
      <trkpt lat="42.526" lon="2.4849">
        <ele>2052.1</ele>
        <time>2021-10-29T16:57:58Z</time>
      </trkpt>
      <trkpt lat="42.52633" lon="2.48499">
        <ele>2047.55</ele>
        <time>2021-10-29T16:57:58Z</time>
      </trkpt>
      <trkpt lat="42.52655" lon="2.48499">
        <ele>2044.42</ele>
        <time>2021-10-29T16:57:58Z</time>
      </trkpt>
      <trkpt lat="42.52664" lon="2.4851">
        <ele>2041.15</ele>
        <time>2021-10-29T16:57:58Z</time>
      </trkpt>
      <trkpt lat="42.52669" lon="2.4854">
        <ele>2033.05</ele>
        <time>2021-10-29T16:57:58Z</time>
      </trkpt>
      <trkpt lat="42.52699" lon="2.48528">
        <ele>2031.29</ele>
        <time>2021-10-29T16:57:58Z</time>
      </trkpt>
      <trkpt lat="42.52689" lon="2.48586">
        <ele>2015.73</ele>
        <time>2021-10-29T16:57:58Z</time>
      </trkpt>
      <trkpt lat="42.52684" lon="2.48624">
        <ele>2002.48</ele>
        <time>2021-10-29T16:57:58Z</time>
      </trkpt>
      <trkpt lat="42.52725" lon="2.48657">
        <ele>1987.02</ele>
        <time>2021-10-29T16:57:58Z</time>
      </trkpt>
      <trkpt lat="42.52716" lon="2.48668">
        <ele>1984.58</ele>
        <time>2021-10-29T16:57:58Z</time>
      </trkpt>
      <trkpt lat="42.52729" lon="2.48693">
        <ele>1973.88</ele>
        <time>2021-10-29T16:57:58Z</time>
      </trkpt>
      <trkpt lat="42.52705" lon="2.48724">
        <ele>1966.02</ele>
        <time>2021-10-29T16:57:58Z</time>
      </trkpt>
      <trkpt lat="42.52744" lon="2.48747">
        <ele>1954.41</ele>
        <time>2021-10-29T16:57:58Z</time>
      </trkpt>
      <trkpt lat="42.5272" lon="2.48787">
        <ele>1944.02</ele>
        <time>2021-10-29T16:57:58Z</time>
      </trkpt>
      <trkpt lat="42.52748" lon="2.48821">
        <ele>1931.45</ele>
        <time>2021-10-29T16:57:58Z</time>
      </trkpt>
      <trkpt lat="42.52738" lon="2.48836">
        <ele>1929.38</ele>
        <time>2021-10-29T16:57:58Z</time>
      </trkpt>
      <trkpt lat="42.52716" lon="2.48838">
        <ele>1927.54</ele>
        <time>2021-10-29T16:57:58Z</time>
      </trkpt>
      <trkpt lat="42.52718" lon="2.48857">
        <ele>1920.17</ele>
        <time>2021-10-29T16:57:58Z</time>
      </trkpt>
      <trkpt lat="42.52758" lon="2.48894">
        <ele>1908.42</ele>
        <time>2021-10-29T16:57:58Z</time>
      </trkpt>
      <trkpt lat="42.52776" lon="2.48951">
        <ele>1888.2</ele>
        <time>2021-10-29T16:57:58Z</time>
      </trkpt>
      <trkpt lat="42.52794" lon="2.48983">
        <ele>1879.09</ele>
        <time>2021-10-29T16:57:58Z</time>
      </trkpt>
      <trkpt lat="42.52822" lon="2.49033">
        <ele>1866.62</ele>
        <time>2021-10-29T16:57:58Z</time>
      </trkpt>
      <trkpt lat="42.52829" lon="2.4908">
        <ele>1864.58</ele>
        <time>2021-10-29T16:57:58Z</time>
      </trkpt>
      <trkpt lat="42.52839" lon="2.49107">
        <ele>1863.16</ele>
        <time>2021-10-29T16:57:58Z</time>
      </trkpt>
      <trkpt lat="42.52852" lon="2.49129">
        <ele>1859.82</ele>
        <time>2021-10-29T16:57:58Z</time>
      </trkpt>
      <trkpt lat="42.52862" lon="2.49185">
        <ele>1853.16</ele>
        <time>2021-10-29T16:57:58Z</time>
      </trkpt>
      <trkpt lat="42.5288" lon="2.49212">
        <ele>1848.49</ele>
        <time>2021-10-29T16:57:58Z</time>
      </trkpt>
      <trkpt lat="42.5288" lon="2.49248">
        <ele>1841.94</ele>
        <time>2021-10-29T16:57:58Z</time>
      </trkpt>
      <trkpt lat="42.5288" lon="2.49288">
        <ele>1829.66</ele>
        <time>2021-10-29T16:57:58Z</time>
      </trkpt>
      <trkpt lat="42.52891" lon="2.49325">
        <ele>1822.83</ele>
        <time>2021-10-29T16:57:58Z</time>
      </trkpt>
      <trkpt lat="42.52884" lon="2.4935">
        <ele>1814.11</ele>
        <time>2021-10-29T16:57:58Z</time>
      </trkpt>
      <trkpt lat="42.52888" lon="2.49377">
        <ele>1808.44</ele>
        <time>2021-10-29T16:57:58Z</time>
      </trkpt>
      <trkpt lat="42.52893" lon="2.49408">
        <ele>1800.7</ele>
        <time>2021-10-29T16:57:58Z</time>
      </trkpt>
      <trkpt lat="42.52905" lon="2.49439">
        <ele>1793.09</ele>
        <time>2021-10-29T16:57:58Z</time>
      </trkpt>
      <trkpt lat="42.52911" lon="2.4946">
        <ele>1785.81</ele>
        <time>2021-10-29T16:57:58Z</time>
      </trkpt>
      <trkpt lat="42.52907" lon="2.49477">
        <ele>1779.1</ele>
        <time>2021-10-29T16:57:58Z</time>
      </trkpt>
      <trkpt lat="42.52933" lon="2.49487">
        <ele>1773.27</ele>
        <time>2021-10-29T16:57:58Z</time>
      </trkpt>
      <trkpt lat="42.52932" lon="2.49507">
        <ele>1770.82</ele>
        <time>2021-10-29T16:57:58Z</time>
      </trkpt>
      <trkpt lat="42.52959" lon="2.4952">
        <ele>1762.16</ele>
        <time>2021-10-29T16:57:58Z</time>
      </trkpt>
      <trkpt lat="42.5296" lon="2.4954">
        <ele>1756.5</ele>
        <time>2021-10-29T16:57:58Z</time>
      </trkpt>
      <trkpt lat="42.52941" lon="2.49556">
        <ele>1753.9</ele>
        <time>2021-10-29T16:57:58Z</time>
      </trkpt>
      <trkpt lat="42.52929" lon="2.49558">
        <ele>1750.19</ele>
        <time>2021-10-29T16:57:58Z</time>
      </trkpt>
      <trkpt lat="42.52879" lon="2.49556">
        <ele>1730.2</ele>
        <time>2021-10-29T16:57:58Z</time>
      </trkpt>
      <trkpt lat="42.52846" lon="2.4955">
        <ele>1726.99</ele>
        <time>2021-10-29T16:57:58Z</time>
      </trkpt>
      <trkpt lat="42.52836" lon="2.49532">
        <ele>1731.27</ele>
        <time>2021-10-29T16:57:58Z</time>
      </trkpt>
      <trkpt lat="42.5282" lon="2.49501">
        <ele>1731.47</ele>
        <time>2021-10-29T16:57:58Z</time>
      </trkpt>
      <trkpt lat="42.52813" lon="2.49465">
        <ele>1739.52</ele>
        <time>2021-10-29T16:57:58Z</time>
      </trkpt>
      <trkpt lat="42.52811" lon="2.49453">
        <ele>1738.44</ele>
        <time>2021-10-29T16:57:58Z</time>
      </trkpt>
      <trkpt lat="42.52779" lon="2.4942">
        <ele>1721.92</ele>
        <time>2021-10-29T16:57:58Z</time>
      </trkpt>
      <trkpt lat="42.52769" lon="2.49381">
        <ele>1729.25</ele>
        <time>2021-10-29T16:57:58Z</time>
      </trkpt>
      <trkpt lat="42.52748" lon="2.49356">
        <ele>1721.75</ele>
        <time>2021-10-29T16:57:58Z</time>
      </trkpt>
      <trkpt lat="42.52725" lon="2.49341">
        <ele>1718.57</ele>
        <time>2021-10-29T16:57:58Z</time>
      </trkpt>
      <trkpt lat="42.52712" lon="2.49308">
        <ele>1717.86</ele>
        <time>2021-10-29T16:57:58Z</time>
      </trkpt>
      <trkpt lat="42.52698" lon="2.49277">
        <ele>1714.76</ele>
        <time>2021-10-29T16:57:58Z</time>
      </trkpt>
      <trkpt lat="42.5269" lon="2.49255">
        <ele>1713.52</ele>
        <time>2021-10-29T16:57:58Z</time>
      </trkpt>
      <trkpt lat="42.52674" lon="2.49236">
        <ele>1709.43</ele>
        <time>2021-10-29T16:57:58Z</time>
      </trkpt>
      <trkpt lat="42.52649" lon="2.49222">
        <ele>1712.24</ele>
        <time>2021-10-29T16:57:58Z</time>
      </trkpt>
      <trkpt lat="42.5262" lon="2.49221">
        <ele>1712.51</ele>
        <time>2021-10-29T16:57:58Z</time>
      </trkpt>
      <trkpt lat="42.52579" lon="2.4922">
        <ele>1705.69</ele>
        <time>2021-10-29T16:57:58Z</time>
      </trkpt>
      <trkpt lat="42.52552" lon="2.49211">
        <ele>1703.38</ele>
        <time>2021-10-29T16:57:58Z</time>
      </trkpt>
      <trkpt lat="42.52519" lon="2.49201">
        <ele>1701.98</ele>
        <time>2021-10-29T16:57:58Z</time>
      </trkpt>
      <trkpt lat="42.52501" lon="2.49214">
        <ele>1698.04</ele>
        <time>2021-10-29T16:57:58Z</time>
      </trkpt>
      <trkpt lat="42.52489" lon="2.49228">
        <ele>1695.33</ele>
        <time>2021-10-29T16:57:58Z</time>
      </trkpt>
      <trkpt lat="42.5247" lon="2.49235">
        <ele>1695.06</ele>
        <time>2021-10-29T16:57:58Z</time>
      </trkpt>
      <trkpt lat="42.52447" lon="2.49235">
        <ele>1692.01</ele>
        <time>2021-10-29T16:57:58Z</time>
      </trkpt>
      <trkpt lat="42.52431" lon="2.49224">
        <ele>1692.79</ele>
        <time>2021-10-29T16:57:58Z</time>
      </trkpt>
      <trkpt lat="42.52389" lon="2.49184">
        <ele>1690.27</ele>
        <time>2021-10-29T16:57:58Z</time>
      </trkpt>
      <trkpt lat="42.52368" lon="2.49167">
        <ele>1690.27</ele>
        <time>2021-10-29T16:57:58Z</time>
      </trkpt>
      <trkpt lat="42.52355" lon="2.49167">
        <ele>1688.35</ele>
        <time>2021-10-29T16:57:58Z</time>
      </trkpt>
      <trkpt lat="42.52326" lon="2.49158">
        <ele>1686.42</ele>
        <time>2021-10-29T16:57:58Z</time>
      </trkpt>
      <trkpt lat="42.5231" lon="2.49151">
        <ele>1687.75</ele>
        <time>2021-10-29T16:57:58Z</time>
      </trkpt>
      <trkpt lat="42.52283" lon="2.49158">
        <ele>1677.96</ele>
        <time>2021-10-29T16:57:58Z</time>
      </trkpt>
      <trkpt lat="42.52265" lon="2.49153">
        <ele>1674.93</ele>
        <time>2021-10-29T16:57:58Z</time>
      </trkpt>
      <trkpt lat="42.52264" lon="2.49129">
        <ele>1680.55</ele>
        <time>2021-10-29T16:57:58Z</time>
      </trkpt>
      <trkpt lat="42.52264" lon="2.49113">
        <ele>1683.76</ele>
        <time>2021-10-29T16:57:58Z</time>
      </trkpt>
      <trkpt lat="42.52258" lon="2.49078">
        <ele>1686.49</ele>
        <time>2021-10-29T16:57:58Z</time>
      </trkpt>
      <trkpt lat="42.52251" lon="2.49056">
        <ele>1688.83</ele>
        <time>2021-10-29T16:57:58Z</time>
      </trkpt>
      <trkpt lat="42.52233" lon="2.49041">
        <ele>1683.73</ele>
        <time>2021-10-29T16:57:58Z</time>
      </trkpt>
      <trkpt lat="42.5222" lon="2.49018">
        <ele>1683.01</ele>
        <time>2021-10-29T16:57:58Z</time>
      </trkpt>
      <trkpt lat="42.52219" lon="2.48991">
        <ele>1689.04</ele>
        <time>2021-10-29T16:57:58Z</time>
      </trkpt>
      <trkpt lat="42.52208" lon="2.48967">
        <ele>1684.99</ele>
        <time>2021-10-29T16:57:58Z</time>
      </trkpt>
      <trkpt lat="42.52192" lon="2.48951">
        <ele>1679.83</ele>
        <time>2021-10-29T16:57:58Z</time>
      </trkpt>
      <trkpt lat="42.52187" lon="2.4893">
        <ele>1685.4</ele>
        <time>2021-10-29T16:57:58Z</time>
      </trkpt>
      <trkpt lat="42.52175" lon="2.48918">
        <ele>1682.46</ele>
        <time>2021-10-29T16:57:58Z</time>
      </trkpt>
      <trkpt lat="42.52141" lon="2.48879">
        <ele>1680.59</ele>
        <time>2021-10-29T16:57:58Z</time>
      </trkpt>
      <trkpt lat="42.52133" lon="2.48872">
        <ele>1679.74</ele>
        <time>2021-10-29T16:57:58Z</time>
      </trkpt>
      <trkpt lat="42.5212" lon="2.48872">
        <ele>1674.35</ele>
        <time>2021-10-29T16:57:58Z</time>
      </trkpt>
      <trkpt lat="42.52112" lon="2.48859">
        <ele>1676.74</ele>
        <time>2021-10-29T16:57:58Z</time>
      </trkpt>
      <trkpt lat="42.52109" lon="2.48839">
        <ele>1681.78</ele>
        <time>2021-10-29T16:57:58Z</time>
      </trkpt>
      <trkpt lat="42.5211" lon="2.48825">
        <ele>1686.47</ele>
        <time>2021-10-29T16:57:58Z</time>
      </trkpt>
      <trkpt lat="42.52108" lon="2.488">
        <ele>1692.65</ele>
        <time>2021-10-29T16:57:58Z</time>
      </trkpt>
      <trkpt lat="42.52095" lon="2.48793">
        <ele>1692.16</ele>
        <time>2021-10-29T16:57:58Z</time>
      </trkpt>
      <trkpt lat="42.5208" lon="2.48793">
        <ele>1689.86</ele>
        <time>2021-10-29T16:57:58Z</time>
      </trkpt>
      <trkpt lat="42.52052" lon="2.48806">
        <ele>1677.74</ele>
        <time>2021-10-29T16:57:58Z</time>
      </trkpt>
      <trkpt lat="42.52041" lon="2.48812">
        <ele>1671.19</ele>
        <time>2021-10-29T16:57:58Z</time>
      </trkpt>
      <trkpt lat="42.52025" lon="2.48812">
        <ele>1665.46</ele>
        <time>2021-10-29T16:57:58Z</time>
      </trkpt>
      <trkpt lat="42.52014" lon="2.48803">
        <ele>1665.71</ele>
        <time>2021-10-29T16:57:58Z</time>
      </trkpt>
      <trkpt lat="42.51999" lon="2.48784">
        <ele>1668.59</ele>
        <time>2021-10-29T16:57:58Z</time>
      </trkpt>
      <trkpt lat="42.51991" lon="2.48763">
        <ele>1674.81</ele>
        <time>2021-10-29T16:57:58Z</time>
      </trkpt>
      <trkpt lat="42.51983" lon="2.48747">
        <ele>1679.31</ele>
        <time>2021-10-29T16:57:58Z</time>
      </trkpt>
      <trkpt lat="42.51971" lon="2.48716">
        <ele>1690</ele>
        <time>2021-10-29T16:57:58Z</time>
      </trkpt>
      <trkpt lat="42.5196" lon="2.48709">
        <ele>1689.72</ele>
        <time>2021-10-29T16:57:58Z</time>
      </trkpt>
      <trkpt lat="42.5195" lon="2.4869">
        <ele>1694.62</ele>
        <time>2021-10-29T16:57:58Z</time>
      </trkpt>
      <trkpt lat="42.51944" lon="2.48659">
        <ele>1705.61</ele>
        <time>2021-10-29T16:57:58Z</time>
      </trkpt>
      <trkpt lat="42.51931" lon="2.48672">
        <ele>1696.12</ele>
        <time>2021-10-29T16:57:58Z</time>
      </trkpt>
      <trkpt lat="42.51929" lon="2.48686">
        <ele>1689.62</ele>
        <time>2021-10-29T16:57:58Z</time>
      </trkpt>
      <trkpt lat="42.51922" lon="2.48703">
        <ele>1680.25</ele>
        <time>2021-10-29T16:57:58Z</time>
      </trkpt>
      <trkpt lat="42.519" lon="2.48704">
        <ele>1680.02</ele>
        <time>2021-10-29T16:57:58Z</time>
      </trkpt>
      <trkpt lat="42.51883" lon="2.48698">
        <ele>1684.93</ele>
        <time>2021-10-29T16:57:58Z</time>
      </trkpt>
      <trkpt lat="42.5187" lon="2.48706">
        <ele>1684.31</ele>
        <time>2021-10-29T16:57:58Z</time>
      </trkpt>
      <trkpt lat="42.51864" lon="2.48728">
        <ele>1679.12</ele>
        <time>2021-10-29T16:57:58Z</time>
      </trkpt>
      <trkpt lat="42.51852" lon="2.48751">
        <ele>1676.15</ele>
        <time>2021-10-29T16:57:58Z</time>
      </trkpt>
      <trkpt lat="42.51836" lon="2.48768">
        <ele>1678.04</ele>
        <time>2021-10-29T16:57:58Z</time>
      </trkpt>
      <trkpt lat="42.51815" lon="2.48778">
        <ele>1684.95</ele>
        <time>2021-10-29T16:57:58Z</time>
      </trkpt>
      <trkpt lat="42.51803" lon="2.48792">
        <ele>1688.49</ele>
        <time>2021-10-29T16:57:58Z</time>
      </trkpt>
      <trkpt lat="42.51801" lon="2.48813">
        <ele>1687.23</ele>
        <time>2021-10-29T16:57:58Z</time>
      </trkpt>
      <trkpt lat="42.51816" lon="2.48834">
        <ele>1677.17</ele>
        <time>2021-10-29T16:57:58Z</time>
      </trkpt>
      <trkpt lat="42.51837" lon="2.48853">
        <ele>1665.62</ele>
        <time>2021-10-29T16:57:58Z</time>
      </trkpt>
      <trkpt lat="42.51843" lon="2.48894">
        <ele>1664.21</ele>
        <time>2021-10-29T16:57:58Z</time>
      </trkpt>
      <trkpt lat="42.51843" lon="2.48926">
        <ele>1664.37</ele>
        <time>2021-10-29T16:57:58Z</time>
      </trkpt>
      <trkpt lat="42.51842" lon="2.48954">
        <ele>1664.1</ele>
        <time>2021-10-29T16:57:58Z</time>
      </trkpt>
      <trkpt lat="42.51836" lon="2.48968">
        <ele>1667.01</ele>
        <time>2021-10-29T16:57:58Z</time>
      </trkpt>
      <trkpt lat="42.51825" lon="2.48971">
        <ele>1673.02</ele>
        <time>2021-10-29T16:57:58Z</time>
      </trkpt>
      <trkpt lat="42.51821" lon="2.49001">
        <ele>1673.61</ele>
        <time>2021-10-29T16:57:58Z</time>
      </trkpt>
      <trkpt lat="42.51823" lon="2.49035">
        <ele>1670.55</ele>
        <time>2021-10-29T16:57:58Z</time>
      </trkpt>
      <trkpt lat="42.51826" lon="2.49071">
        <ele>1667.21</ele>
        <time>2021-10-29T16:57:58Z</time>
      </trkpt>
      <trkpt lat="42.51822" lon="2.49108">
        <ele>1667.32</ele>
        <time>2021-10-29T16:57:58Z</time>
      </trkpt>
      <trkpt lat="42.51824" lon="2.49152">
        <ele>1664.48</ele>
        <time>2021-10-29T16:57:58Z</time>
      </trkpt>
      <trkpt lat="42.51824" lon="2.49195">
        <ele>1662.26</ele>
        <time>2021-10-29T16:57:58Z</time>
      </trkpt>
      <trkpt lat="42.51825" lon="2.49225">
        <ele>1659.73</ele>
        <time>2021-10-29T16:57:58Z</time>
      </trkpt>
      <trkpt lat="42.51821" lon="2.49245">
        <ele>1659.04</ele>
        <time>2021-10-29T16:57:58Z</time>
      </trkpt>
      <trkpt lat="42.51776" lon="2.49235">
        <ele>1669.64</ele>
        <time>2021-10-29T16:57:58Z</time>
      </trkpt>
      <trkpt lat="42.51761" lon="2.49234">
        <ele>1670.83</ele>
        <time>2021-10-29T16:57:58Z</time>
      </trkpt>
      <trkpt lat="42.51745" lon="2.49228">
        <ele>1673.2</ele>
        <time>2021-10-29T16:57:58Z</time>
      </trkpt>
      <trkpt lat="42.51728" lon="2.49217">
        <ele>1676.84</ele>
        <time>2021-10-29T16:57:58Z</time>
      </trkpt>
      <trkpt lat="42.51708" lon="2.49221">
        <ele>1677.39</ele>
        <time>2021-10-29T16:57:58Z</time>
      </trkpt>
      <trkpt lat="42.51697" lon="2.49237">
        <ele>1674.85</ele>
        <time>2021-10-29T16:57:58Z</time>
      </trkpt>
      <trkpt lat="42.51678" lon="2.49274">
        <ele>1670.22</ele>
        <time>2021-10-29T16:57:58Z</time>
      </trkpt>
      <trkpt lat="42.51674" lon="2.49298">
        <ele>1667.12</ele>
        <time>2021-10-29T16:57:58Z</time>
      </trkpt>
      <trkpt lat="42.51675" lon="2.49319">
        <ele>1663.74</ele>
        <time>2021-10-29T16:57:58Z</time>
      </trkpt>
      <trkpt lat="42.51672" lon="2.49341">
        <ele>1660.24</ele>
        <time>2021-10-29T16:57:58Z</time>
      </trkpt>
      <trkpt lat="42.51662" lon="2.49348">
        <ele>1660.93</ele>
        <time>2021-10-29T16:57:58Z</time>
      </trkpt>
      <trkpt lat="42.51637" lon="2.49347">
        <ele>1666.3</ele>
        <time>2021-10-29T16:57:58Z</time>
      </trkpt>
      <trkpt lat="42.51621" lon="2.49357">
        <ele>1668.8</ele>
        <time>2021-10-29T16:57:58Z</time>
      </trkpt>
      <trkpt lat="42.51627" lon="2.49375">
        <ele>1664.27</ele>
        <time>2021-10-29T16:57:58Z</time>
      </trkpt>
      <trkpt lat="42.5163" lon="2.49397">
        <ele>1660.27</ele>
        <time>2021-10-29T16:57:58Z</time>
      </trkpt>
      <trkpt lat="42.5162" lon="2.49414">
        <ele>1661.54</ele>
        <time>2021-10-29T16:57:58Z</time>
      </trkpt>
      <trkpt lat="42.51606" lon="2.49442">
        <ele>1663.04</ele>
        <time>2021-10-29T16:57:58Z</time>
      </trkpt>
      <trkpt lat="42.51601" lon="2.49464">
        <ele>1663.25</ele>
        <time>2021-10-29T16:57:58Z</time>
      </trkpt>
      <trkpt lat="42.51595" lon="2.4948">
        <ele>1665.8</ele>
        <time>2021-10-29T16:57:58Z</time>
      </trkpt>
      <trkpt lat="42.51599" lon="2.49502">
        <ele>1665.42</ele>
        <time>2021-10-29T16:57:58Z</time>
      </trkpt>
      <trkpt lat="42.51597" lon="2.49528">
        <ele>1667.35</ele>
        <time>2021-10-29T16:57:58Z</time>
      </trkpt>
      <trkpt lat="42.51598" lon="2.49555">
        <ele>1672.48</ele>
        <time>2021-10-29T16:57:58Z</time>
      </trkpt>
      <trkpt lat="42.51617" lon="2.49589">
        <ele>1670.73</ele>
        <time>2021-10-29T16:57:58Z</time>
      </trkpt>
      <trkpt lat="42.51633" lon="2.49618">
        <ele>1670.55</ele>
        <time>2021-10-29T16:57:58Z</time>
      </trkpt>
      <trkpt lat="42.51652" lon="2.49651">
        <ele>1669.24</ele>
        <time>2021-10-29T16:57:58Z</time>
      </trkpt>
      <trkpt lat="42.51659" lon="2.49672">
        <ele>1669.67</ele>
        <time>2021-10-29T16:57:58Z</time>
      </trkpt>
      <trkpt lat="42.51674" lon="2.49725">
        <ele>1669.61</ele>
        <time>2021-10-29T16:57:58Z</time>
      </trkpt>
      <trkpt lat="42.51686" lon="2.49759">
        <ele>1667.9</ele>
        <time>2021-10-29T16:57:58Z</time>
      </trkpt>
      <trkpt lat="42.51702" lon="2.49804">
        <ele>1664.9</ele>
        <time>2021-10-29T16:57:58Z</time>
      </trkpt>
      <trkpt lat="42.51712" lon="2.49839">
        <ele>1664.59</ele>
        <time>2021-10-29T16:57:58Z</time>
      </trkpt>
      <trkpt lat="42.51725" lon="2.49885">
        <ele>1664.12</ele>
        <time>2021-10-29T16:57:58Z</time>
      </trkpt>
      <trkpt lat="42.51736" lon="2.49922">
        <ele>1663.63</ele>
        <time>2021-10-29T16:57:58Z</time>
      </trkpt>
      <trkpt lat="42.51753" lon="2.49977">
        <ele>1661.65</ele>
        <time>2021-10-29T16:57:58Z</time>
      </trkpt>
      <trkpt lat="42.51751" lon="2.50015">
        <ele>1667.53</ele>
        <time>2021-10-29T16:57:58Z</time>
      </trkpt>
      <trkpt lat="42.51743" lon="2.50032">
        <ele>1672</ele>
        <time>2021-10-29T16:57:58Z</time>
      </trkpt>
      <trkpt lat="42.51734" lon="2.50046">
        <ele>1676.77</ele>
        <time>2021-10-29T16:57:58Z</time>
      </trkpt>
      <trkpt lat="42.51727" lon="2.5006">
        <ele>1680.22</ele>
        <time>2021-10-29T16:57:58Z</time>
      </trkpt>
      <trkpt lat="42.51712" lon="2.50073">
        <ele>1687.6</ele>
        <time>2021-10-29T16:57:58Z</time>
      </trkpt>
      <trkpt lat="42.51709" lon="2.50088">
        <ele>1690.19</ele>
        <time>2021-10-29T16:57:58Z</time>
      </trkpt>
      <trkpt lat="42.51714" lon="2.50105">
        <ele>1689.43</ele>
        <time>2021-10-29T16:57:58Z</time>
      </trkpt>
      <trkpt lat="42.51725" lon="2.50116">
        <ele>1685.15</ele>
        <time>2021-10-29T16:57:58Z</time>
      </trkpt>
      <trkpt lat="42.51739" lon="2.50121">
        <ele>1678.83</ele>
        <time>2021-10-29T16:57:58Z</time>
      </trkpt>
      <trkpt lat="42.51752" lon="2.50132">
        <ele>1673.77</ele>
        <time>2021-10-29T16:57:58Z</time>
      </trkpt>
      <trkpt lat="42.51774" lon="2.50146">
        <ele>1665.03</ele>
        <time>2021-10-29T16:57:58Z</time>
      </trkpt>
      <trkpt lat="42.51787" lon="2.50161">
        <ele>1662.66</ele>
        <time>2021-10-29T16:57:58Z</time>
      </trkpt>
      <trkpt lat="42.51803" lon="2.50192">
        <ele>1662</ele>
        <time>2021-10-29T16:57:58Z</time>
      </trkpt>
      <trkpt lat="42.51817" lon="2.50224">
        <ele>1661.19</ele>
        <time>2021-10-29T16:57:58Z</time>
      </trkpt>
      <trkpt lat="42.51834" lon="2.50264">
        <ele>1658.07</ele>
        <time>2021-10-29T16:57:58Z</time>
      </trkpt>
      <trkpt lat="42.51844" lon="2.50296">
        <ele>1656.35</ele>
        <time>2021-10-29T16:57:58Z</time>
      </trkpt>
      <trkpt lat="42.51856" lon="2.50332">
        <ele>1653.51</ele>
        <time>2021-10-29T16:57:58Z</time>
      </trkpt>
      <trkpt lat="42.51864" lon="2.50369">
        <ele>1654.33</ele>
        <time>2021-10-29T16:57:58Z</time>
      </trkpt>
      <trkpt lat="42.51875" lon="2.50419">
        <ele>1655.68</ele>
        <time>2021-10-29T16:57:58Z</time>
      </trkpt>
      <trkpt lat="42.51885" lon="2.50455">
        <ele>1655.94</ele>
        <time>2021-10-29T16:57:58Z</time>
      </trkpt>
      <trkpt lat="42.519" lon="2.50506">
        <ele>1656.08</ele>
        <time>2021-10-29T16:57:58Z</time>
      </trkpt>
      <trkpt lat="42.51914" lon="2.50545">
        <ele>1655.74</ele>
        <time>2021-10-29T16:57:59Z</time>
      </trkpt>
      <trkpt lat="42.51933" lon="2.50581">
        <ele>1650.14</ele>
        <time>2021-10-29T16:57:59Z</time>
      </trkpt>
      <trkpt lat="42.51943" lon="2.50636">
        <ele>1653.08</ele>
        <time>2021-10-29T16:57:59Z</time>
      </trkpt>
      <trkpt lat="42.51942" lon="2.50666">
        <ele>1655.69</ele>
        <time>2021-10-29T16:57:59Z</time>
      </trkpt>
      <trkpt lat="42.51936" lon="2.50702">
        <ele>1661.05</ele>
        <time>2021-10-29T16:57:59Z</time>
      </trkpt>
      <trkpt lat="42.51928" lon="2.50747">
        <ele>1663.25</ele>
        <time>2021-10-29T16:57:59Z</time>
      </trkpt>
      <trkpt lat="42.5192" lon="2.50784">
        <ele>1664.91</ele>
        <time>2021-10-29T16:57:59Z</time>
      </trkpt>
      <trkpt lat="42.51912" lon="2.50828">
        <ele>1663.97</ele>
        <time>2021-10-29T16:57:59Z</time>
      </trkpt>
      <trkpt lat="42.51903" lon="2.50879">
        <ele>1656.91</ele>
        <time>2021-10-29T16:57:59Z</time>
      </trkpt>
      <trkpt lat="42.51887" lon="2.509">
        <ele>1656</ele>
        <time>2021-10-29T16:57:59Z</time>
      </trkpt>
      <trkpt lat="42.51864" lon="2.50902">
        <ele>1660.98</ele>
        <time>2021-10-29T16:57:59Z</time>
      </trkpt>
      <trkpt lat="42.51828" lon="2.50901">
        <ele>1670.5</ele>
        <time>2021-10-29T16:57:59Z</time>
      </trkpt>
      <trkpt lat="42.51805" lon="2.50911">
        <ele>1672.45</ele>
        <time>2021-10-29T16:57:59Z</time>
      </trkpt>
      <trkpt lat="42.51788" lon="2.50926">
        <ele>1670.79</ele>
        <time>2021-10-29T16:57:59Z</time>
      </trkpt>
      <trkpt lat="42.51772" lon="2.50931">
        <ele>1673.53</ele>
        <time>2021-10-29T16:57:59Z</time>
      </trkpt>
      <trkpt lat="42.51742" lon="2.50929">
        <ele>1685.14</ele>
        <time>2021-10-29T16:57:59Z</time>
      </trkpt>
      <trkpt lat="42.51722" lon="2.50929">
        <ele>1692.35</ele>
        <time>2021-10-29T16:57:59Z</time>
      </trkpt>
      <trkpt lat="42.51719" lon="2.50957">
        <ele>1685.2</ele>
        <time>2021-10-29T16:57:59Z</time>
      </trkpt>
      <trkpt lat="42.51733" lon="2.50979">
        <ele>1674.3</ele>
        <time>2021-10-29T16:57:59Z</time>
      </trkpt>
      <trkpt lat="42.51743" lon="2.51004">
        <ele>1666.34</ele>
        <time>2021-10-29T16:57:59Z</time>
      </trkpt>
      <trkpt lat="42.51746" lon="2.51038">
        <ele>1660.22</ele>
        <time>2021-10-29T16:57:59Z</time>
      </trkpt>
      <trkpt lat="42.51746" lon="2.51068">
        <ele>1658.63</ele>
        <time>2021-10-29T16:57:59Z</time>
      </trkpt>
      <trkpt lat="42.51744" lon="2.51108">
        <ele>1657.75</ele>
        <time>2021-10-29T16:57:59Z</time>
      </trkpt>
      <trkpt lat="42.51739" lon="2.51136">
        <ele>1658.92</ele>
        <time>2021-10-29T16:57:59Z</time>
      </trkpt>
      <trkpt lat="42.5173" lon="2.51158">
        <ele>1662.69</ele>
        <time>2021-10-29T16:57:59Z</time>
      </trkpt>
      <trkpt lat="42.51724" lon="2.51169">
        <ele>1665.24</ele>
        <time>2021-10-29T16:57:59Z</time>
      </trkpt>
      <trkpt lat="42.51712" lon="2.5118">
        <ele>1670.71</ele>
        <time>2021-10-29T16:57:59Z</time>
      </trkpt>
      <trkpt lat="42.51703" lon="2.51199">
        <ele>1671.43</ele>
        <time>2021-10-29T16:57:59Z</time>
      </trkpt>
      <trkpt lat="42.51698" lon="2.5123">
        <ele>1666.62</ele>
        <time>2021-10-29T16:57:59Z</time>
      </trkpt>
      <trkpt lat="42.51697" lon="2.51246">
        <ele>1663.12</ele>
        <time>2021-10-29T16:57:59Z</time>
      </trkpt>
      <trkpt lat="42.51689" lon="2.51272">
        <ele>1659.17</ele>
        <time>2021-10-29T16:57:59Z</time>
      </trkpt>
      <trkpt lat="42.51676" lon="2.51289">
        <ele>1659.15</ele>
        <time>2021-10-29T16:57:59Z</time>
      </trkpt>
      <trkpt lat="42.51667" lon="2.51295">
        <ele>1660.38</ele>
        <time>2021-10-29T16:57:59Z</time>
      </trkpt>
      <trkpt lat="42.51636" lon="2.51294">
        <ele>1670.16</ele>
        <time>2021-10-29T16:57:59Z</time>
      </trkpt>
      <trkpt lat="42.5161" lon="2.51293">
        <ele>1675.26</ele>
        <time>2021-10-29T16:57:59Z</time>
      </trkpt>
      <trkpt lat="42.51584" lon="2.51292">
        <ele>1680.46</ele>
        <time>2021-10-29T16:57:59Z</time>
      </trkpt>
      <trkpt lat="42.51569" lon="2.51302">
        <ele>1678.71</ele>
        <time>2021-10-29T16:57:59Z</time>
      </trkpt>
      <trkpt lat="42.51543" lon="2.51327">
        <ele>1673.83</ele>
        <time>2021-10-29T16:57:59Z</time>
      </trkpt>
      <trkpt lat="42.51525" lon="2.51342">
        <ele>1671.43</ele>
        <time>2021-10-29T16:57:59Z</time>
      </trkpt>
      <trkpt lat="42.51514" lon="2.51349">
        <ele>1671.06</ele>
        <time>2021-10-29T16:57:59Z</time>
      </trkpt>
      <trkpt lat="42.51499" lon="2.5135">
        <ele>1674.99</ele>
        <time>2021-10-29T16:57:59Z</time>
      </trkpt>
      <trkpt lat="42.51483" lon="2.51355">
        <ele>1677.4</ele>
        <time>2021-10-29T16:57:59Z</time>
      </trkpt>
      <trkpt lat="42.51464" lon="2.51373">
        <ele>1674.4</ele>
        <time>2021-10-29T16:57:59Z</time>
      </trkpt>
      <trkpt lat="42.51456" lon="2.51387">
        <ele>1671.29</ele>
        <time>2021-10-29T16:57:59Z</time>
      </trkpt>
      <trkpt lat="42.51437" lon="2.51406">
        <ele>1672.48</ele>
        <time>2021-10-29T16:57:59Z</time>
      </trkpt>
      <trkpt lat="42.51423" lon="2.51418">
        <ele>1675.31</ele>
        <time>2021-10-29T16:57:59Z</time>
      </trkpt>
      <trkpt lat="42.51408" lon="2.51424">
        <ele>1680.8</ele>
        <time>2021-10-29T16:57:59Z</time>
      </trkpt>
      <trkpt lat="42.51395" lon="2.51435">
        <ele>1684.98</ele>
        <time>2021-10-29T16:57:59Z</time>
      </trkpt>
      <trkpt lat="42.51386" lon="2.51453">
        <ele>1687.5</ele>
        <time>2021-10-29T16:57:59Z</time>
      </trkpt>
      <trkpt lat="42.51393" lon="2.51473">
        <ele>1684.56</ele>
        <time>2021-10-29T16:57:59Z</time>
      </trkpt>
      <trkpt lat="42.51402" lon="2.5149">
        <ele>1680.02</ele>
        <time>2021-10-29T16:57:59Z</time>
      </trkpt>
      <trkpt lat="42.51424" lon="2.51509">
        <ele>1667.33</ele>
        <time>2021-10-29T16:57:59Z</time>
      </trkpt>
      <trkpt lat="42.51448" lon="2.51509">
        <ele>1654.52</ele>
        <time>2021-10-29T16:57:59Z</time>
      </trkpt>
      <trkpt lat="42.51457" lon="2.51522">
        <ele>1650.37</ele>
        <time>2021-10-29T16:57:59Z</time>
      </trkpt>
      <trkpt lat="42.5146" lon="2.51547">
        <ele>1652.79</ele>
        <time>2021-10-29T16:57:59Z</time>
      </trkpt>
      <trkpt lat="42.51462" lon="2.51563">
        <ele>1654.19</ele>
        <time>2021-10-29T16:57:59Z</time>
      </trkpt>
      <trkpt lat="42.51472" lon="2.5159">
        <ele>1652.75</ele>
        <time>2021-10-29T16:57:59Z</time>
      </trkpt>
      <trkpt lat="42.51483" lon="2.51599">
        <ele>1648.34</ele>
        <time>2021-10-29T16:57:59Z</time>
      </trkpt>
      <trkpt lat="42.51483" lon="2.51619">
        <ele>1652.79</ele>
        <time>2021-10-29T16:57:59Z</time>
      </trkpt>
      <trkpt lat="42.51497" lon="2.51646">
        <ele>1650.47</ele>
        <time>2021-10-29T16:57:59Z</time>
      </trkpt>
      <trkpt lat="42.5152" lon="2.51669">
        <ele>1643.5</ele>
        <time>2021-10-29T16:57:59Z</time>
      </trkpt>
      <trkpt lat="42.51551" lon="2.517">
        <ele>1633.44</ele>
        <time>2021-10-29T16:57:59Z</time>
      </trkpt>
      <trkpt lat="42.51566" lon="2.51762">
        <ele>1632.26</ele>
        <time>2021-10-29T16:57:59Z</time>
      </trkpt>
      <trkpt lat="42.5157" lon="2.51812">
        <ele>1631.27</ele>
        <time>2021-10-29T16:57:59Z</time>
      </trkpt>
      <trkpt lat="42.51567" lon="2.5185">
        <ele>1633.64</ele>
        <time>2021-10-29T16:57:59Z</time>
      </trkpt>
      <trkpt lat="42.51561" lon="2.51877">
        <ele>1639.62</ele>
        <time>2021-10-29T16:57:59Z</time>
      </trkpt>
      <trkpt lat="42.51567" lon="2.51904">
        <ele>1637.24</ele>
        <time>2021-10-29T16:57:59Z</time>
      </trkpt>
      <trkpt lat="42.51598" lon="2.51936">
        <ele>1619.89</ele>
        <time>2021-10-29T16:57:59Z</time>
      </trkpt>
      <trkpt lat="42.51621" lon="2.51956">
        <ele>1610.56</ele>
        <time>2021-10-29T16:57:59Z</time>
      </trkpt>
      <trkpt lat="42.51649" lon="2.51981">
        <ele>1601.24</ele>
        <time>2021-10-29T16:57:59Z</time>
      </trkpt>
      <trkpt lat="42.51667" lon="2.51999">
        <ele>1596.87</ele>
        <time>2021-10-29T16:57:59Z</time>
      </trkpt>
      <trkpt lat="42.51691" lon="2.52055">
        <ele>1594.48</ele>
        <time>2021-10-29T16:57:59Z</time>
      </trkpt>
      <trkpt lat="42.51701" lon="2.52102">
        <ele>1590.5</ele>
        <time>2021-10-29T16:57:59Z</time>
      </trkpt>
      <trkpt lat="42.51707" lon="2.52135">
        <ele>1586.29</ele>
        <time>2021-10-29T16:57:59Z</time>
      </trkpt>
      <trkpt lat="42.51713" lon="2.52168">
        <ele>1579.71</ele>
        <time>2021-10-29T16:57:59Z</time>
      </trkpt>
      <trkpt lat="42.51713" lon="2.52206">
        <ele>1577.76</ele>
        <time>2021-10-29T16:57:59Z</time>
      </trkpt>
      <trkpt lat="42.51712" lon="2.52258">
        <ele>1574.91</ele>
        <time>2021-10-29T16:57:59Z</time>
      </trkpt>
      <trkpt lat="42.51707" lon="2.52319">
        <ele>1573.37</ele>
        <time>2021-10-29T16:57:59Z</time>
      </trkpt>
      <trkpt lat="42.51707" lon="2.52359">
        <ele>1568.08</ele>
        <time>2021-10-29T16:57:59Z</time>
      </trkpt>
      <trkpt lat="42.51702" lon="2.52407">
        <ele>1564.59</ele>
        <time>2021-10-29T16:57:59Z</time>
      </trkpt>
      <trkpt lat="42.517" lon="2.52451">
        <ele>1558.3</ele>
        <time>2021-10-29T16:57:59Z</time>
      </trkpt>
      <trkpt lat="42.51697" lon="2.52475">
        <ele>1554.86</ele>
        <time>2021-10-29T16:57:59Z</time>
      </trkpt>
      <trkpt lat="42.517" lon="2.52498">
        <ele>1546.94</ele>
        <time>2021-10-29T16:57:59Z</time>
      </trkpt>
      <trkpt lat="42.5171" lon="2.52484">
        <ele>1546.5</ele>
        <time>2021-10-29T16:57:59Z</time>
      </trkpt>
      <trkpt lat="42.51725" lon="2.52449">
        <ele>1543.54</ele>
        <time>2021-10-29T16:57:59Z</time>
      </trkpt>
      <trkpt lat="42.51731" lon="2.52427">
        <ele>1542.51</ele>
        <time>2021-10-29T16:57:59Z</time>
      </trkpt>
      <trkpt lat="42.51753" lon="2.52362">
        <ele>1538.72</ele>
        <time>2021-10-29T16:57:59Z</time>
      </trkpt>
      <trkpt lat="42.51764" lon="2.52318">
        <ele>1536.28</ele>
        <time>2021-10-29T16:57:59Z</time>
      </trkpt>
      <trkpt lat="42.51772" lon="2.52274">
        <ele>1534.85</ele>
        <time>2021-10-29T16:57:59Z</time>
      </trkpt>
      <trkpt lat="42.51788" lon="2.5224">
        <ele>1527.14</ele>
        <time>2021-10-29T16:57:59Z</time>
      </trkpt>
      <trkpt lat="42.51796" lon="2.52245">
        <ele>1521.9</ele>
        <time>2021-10-29T16:57:59Z</time>
      </trkpt>
      <trkpt lat="42.51803" lon="2.52264">
        <ele>1515.7</ele>
        <time>2021-10-29T16:57:59Z</time>
      </trkpt>
      <trkpt lat="42.51807" lon="2.52294">
        <ele>1509.89</ele>
        <time>2021-10-29T16:57:59Z</time>
      </trkpt>
      <trkpt lat="42.51805" lon="2.52345">
        <ele>1505.24</ele>
        <time>2021-10-29T16:57:59Z</time>
      </trkpt>
      <trkpt lat="42.51799" lon="2.52398">
        <ele>1503</ele>
        <time>2021-10-29T16:57:59Z</time>
      </trkpt>
      <trkpt lat="42.51796" lon="2.52436">
        <ele>1492.12</ele>
        <time>2021-10-29T16:57:59Z</time>
      </trkpt>
      <trkpt lat="42.51793" lon="2.52486">
        <ele>1482.76</ele>
        <time>2021-10-29T16:57:59Z</time>
      </trkpt>
      <trkpt lat="42.51788" lon="2.52542">
        <ele>1478.94</ele>
        <time>2021-10-29T16:57:59Z</time>
      </trkpt>
      <trkpt lat="42.51786" lon="2.52562">
        <ele>1476.44</ele>
        <time>2021-10-29T16:57:59Z</time>
      </trkpt>
      <trkpt lat="42.51783" lon="2.52597">
        <ele>1475.18</ele>
        <time>2021-10-29T16:57:59Z</time>
      </trkpt>
      <trkpt lat="42.51768" lon="2.52608">
        <ele>1476.15</ele>
        <time>2021-10-29T16:57:59Z</time>
      </trkpt>
      <trkpt lat="42.51756" lon="2.52612">
        <ele>1476.12</ele>
        <time>2021-10-29T16:57:59Z</time>
      </trkpt>
      <trkpt lat="42.51712" lon="2.52615">
        <ele>1483.94</ele>
        <time>2021-10-29T16:57:59Z</time>
      </trkpt>
      <trkpt lat="42.51681" lon="2.5263">
        <ele>1482.94</ele>
        <time>2021-10-29T16:57:59Z</time>
      </trkpt>
      <trkpt lat="42.51661" lon="2.52645">
        <ele>1480.06</ele>
        <time>2021-10-29T16:57:59Z</time>
      </trkpt>
      <trkpt lat="42.51629" lon="2.52652">
        <ele>1480.92</ele>
        <time>2021-10-29T16:57:59Z</time>
      </trkpt>
      <trkpt lat="42.51583" lon="2.52643">
        <ele>1514.48</ele>
        <time>2021-10-29T16:57:59Z</time>
      </trkpt>
      <trkpt lat="42.51552" lon="2.52641">
        <ele>1525.77</ele>
        <time>2021-10-29T16:57:59Z</time>
      </trkpt>
      <trkpt lat="42.51505" lon="2.52647">
        <ele>1541.58</ele>
        <time>2021-10-29T16:57:59Z</time>
      </trkpt>
      <trkpt lat="42.51472" lon="2.52641">
        <ele>1540.55</ele>
        <time>2021-10-29T16:57:59Z</time>
      </trkpt>
      <trkpt lat="42.51447" lon="2.5262">
        <ele>1544.65</ele>
        <time>2021-10-29T16:57:59Z</time>
      </trkpt>
      <trkpt lat="42.51425" lon="2.52584">
        <ele>1553.67</ele>
        <time>2021-10-29T16:57:59Z</time>
      </trkpt>
      <trkpt lat="42.51408" lon="2.52573">
        <ele>1553.91</ele>
        <time>2021-10-29T16:57:59Z</time>
      </trkpt>
      <trkpt lat="42.51375" lon="2.52554">
        <ele>1560.25</ele>
        <time>2021-10-29T16:57:59Z</time>
      </trkpt>
      <trkpt lat="42.51352" lon="2.5253">
        <ele>1563.89</ele>
        <time>2021-10-29T16:57:59Z</time>
      </trkpt>
      <trkpt lat="42.51328" lon="2.52526">
        <ele>1558.13</ele>
        <time>2021-10-29T16:57:59Z</time>
      </trkpt>
      <trkpt lat="42.51309" lon="2.5253">
        <ele>1554.58</ele>
        <time>2021-10-29T16:57:59Z</time>
      </trkpt>
      <trkpt lat="42.51283" lon="2.5254">
        <ele>1557.46</ele>
        <time>2021-10-29T16:57:59Z</time>
      </trkpt>
      <trkpt lat="42.51267" lon="2.5253">
        <ele>1565.58</ele>
        <time>2021-10-29T16:57:59Z</time>
      </trkpt>
      <trkpt lat="42.51274" lon="2.52518">
        <ele>1568.4</ele>
        <time>2021-10-29T16:57:59Z</time>
      </trkpt>
      <trkpt lat="42.51253" lon="2.52512">
        <ele>1576.14</ele>
        <time>2021-10-29T16:57:59Z</time>
      </trkpt>
      <trkpt lat="42.51261" lon="2.52495">
        <ele>1580.58</ele>
        <time>2021-10-29T16:57:59Z</time>
      </trkpt>
      <trkpt lat="42.51222" lon="2.52483">
        <ele>1589.36</ele>
        <time>2021-10-29T16:57:59Z</time>
      </trkpt>
      <trkpt lat="42.51178" lon="2.52452">
        <ele>1604.5</ele>
        <time>2021-10-29T16:57:59Z</time>
      </trkpt>
      <trkpt lat="42.51139" lon="2.52428">
        <ele>1609.08</ele>
        <time>2021-10-29T16:57:59Z</time>
      </trkpt>
      <trkpt lat="42.51115" lon="2.52394">
        <ele>1619.36</ele>
        <time>2021-10-29T16:57:59Z</time>
      </trkpt>
      <trkpt lat="42.51103" lon="2.52393">
        <ele>1619.39</ele>
        <time>2021-10-29T16:57:59Z</time>
      </trkpt>
      <trkpt lat="42.51093" lon="2.52388">
        <ele>1620.95</ele>
        <time>2021-10-29T16:57:59Z</time>
      </trkpt>
      <trkpt lat="42.51069" lon="2.52389">
        <ele>1629.39</ele>
        <time>2021-10-29T16:57:59Z</time>
      </trkpt>
      <trkpt lat="42.51079" lon="2.52408">
        <ele>1615.12</ele>
        <time>2021-10-29T16:57:59Z</time>
      </trkpt>
      <trkpt lat="42.51084" lon="2.52455">
        <ele>1607.35</ele>
        <time>2021-10-29T16:57:59Z</time>
      </trkpt>
      <trkpt lat="42.51066" lon="2.52429">
        <ele>1618.69</ele>
        <time>2021-10-29T16:57:59Z</time>
      </trkpt>
      <trkpt lat="42.51061" lon="2.52466">
        <ele>1619.95</ele>
        <time>2021-10-29T16:57:59Z</time>
      </trkpt>
      <trkpt lat="42.51055" lon="2.52474">
        <ele>1623.65</ele>
        <time>2021-10-29T16:57:59Z</time>
      </trkpt>
      <trkpt lat="42.51046" lon="2.52431">
        <ele>1628.51</ele>
        <time>2021-10-29T16:57:59Z</time>
      </trkpt>
      <trkpt lat="42.51039" lon="2.5242">
        <ele>1631.38</ele>
        <time>2021-10-29T16:57:59Z</time>
      </trkpt>
      <trkpt lat="42.51034" lon="2.52466">
        <ele>1636.59</ele>
        <time>2021-10-29T16:57:59Z</time>
      </trkpt>
      <trkpt lat="42.51033" lon="2.52497">
        <ele>1638.71</ele>
        <time>2021-10-29T16:57:59Z</time>
      </trkpt>
      <trkpt lat="42.51019" lon="2.52556">
        <ele>1651.76</ele>
        <time>2021-10-29T16:57:59Z</time>
      </trkpt>
      <trkpt lat="42.51016" lon="2.5259">
        <ele>1654.76</ele>
        <time>2021-10-29T16:57:59Z</time>
      </trkpt>
      <trkpt lat="42.51013" lon="2.52625">
        <ele>1657.82</ele>
        <time>2021-10-29T16:57:59Z</time>
      </trkpt>
      <trkpt lat="42.51015" lon="2.52669">
        <ele>1656.61</ele>
        <time>2021-10-29T16:57:59Z</time>
      </trkpt>
      <trkpt lat="42.51017" lon="2.52706">
        <ele>1655.04</ele>
        <time>2021-10-29T16:57:59Z</time>
      </trkpt>
      <trkpt lat="42.5102" lon="2.52752">
        <ele>1652.61</ele>
        <time>2021-10-29T16:57:59Z</time>
      </trkpt>
      <trkpt lat="42.51015" lon="2.52773">
        <ele>1653.45</ele>
        <time>2021-10-29T16:57:59Z</time>
      </trkpt>
      <trkpt lat="42.51001" lon="2.52755">
        <ele>1665.47</ele>
        <time>2021-10-29T16:57:59Z</time>
      </trkpt>
      <trkpt lat="42.50981" lon="2.52813">
        <ele>1665.75</ele>
        <time>2021-10-29T16:57:59Z</time>
      </trkpt>
      <trkpt lat="42.50958" lon="2.52838">
        <ele>1668.57</ele>
        <time>2021-10-29T16:57:59Z</time>
      </trkpt>
      <trkpt lat="42.50931" lon="2.52851">
        <ele>1674.49</ele>
        <time>2021-10-29T16:57:59Z</time>
      </trkpt>
      <trkpt lat="42.50893" lon="2.52869">
        <ele>1681.65</ele>
        <time>2021-10-29T16:57:59Z</time>
      </trkpt>
      <trkpt lat="42.50869" lon="2.52878">
        <ele>1687.41</ele>
        <time>2021-10-29T16:57:59Z</time>
      </trkpt>
      <trkpt lat="42.50845" lon="2.52888">
        <ele>1693.12</ele>
        <time>2021-10-29T16:57:59Z</time>
      </trkpt>
      <trkpt lat="42.50818" lon="2.52897">
        <ele>1701.05</ele>
        <time>2021-10-29T16:57:59Z</time>
      </trkpt>
      <trkpt lat="42.50782" lon="2.52908">
        <ele>1713.67</ele>
        <time>2021-10-29T16:57:59Z</time>
      </trkpt>
      <trkpt lat="42.50751" lon="2.52927">
        <ele>1720.45</ele>
        <time>2021-10-29T16:57:59Z</time>
      </trkpt>
      <trkpt lat="42.50729" lon="2.52945">
        <ele>1723.62</ele>
        <time>2021-10-29T16:57:59Z</time>
      </trkpt>
      <trkpt lat="42.50707" lon="2.52963">
        <ele>1727.45</ele>
        <time>2021-10-29T16:57:59Z</time>
      </trkpt>
      <trkpt lat="42.50687" lon="2.52971">
        <ele>1734.43</ele>
        <time>2021-10-29T16:57:59Z</time>
      </trkpt>
      <trkpt lat="42.50662" lon="2.53011">
        <ele>1733.07</ele>
        <time>2021-10-29T16:57:59Z</time>
      </trkpt>
      <trkpt lat="42.50669" lon="2.53024">
        <ele>1725.01</ele>
        <time>2021-10-29T16:57:59Z</time>
      </trkpt>
      <trkpt lat="42.50628" lon="2.531">
        <ele>1726.3</ele>
        <time>2021-10-29T16:57:59Z</time>
      </trkpt>
      <trkpt lat="42.50612" lon="2.53105">
        <ele>1734.66</ele>
        <time>2021-10-29T16:57:59Z</time>
      </trkpt>
      <trkpt lat="42.50617" lon="2.53157">
        <ele>1728.53</ele>
        <time>2021-10-29T16:57:59Z</time>
      </trkpt>
      <trkpt lat="42.50632" lon="2.53206">
        <ele>1727.82</ele>
        <time>2021-10-29T16:57:59Z</time>
      </trkpt>
      <trkpt lat="42.50662" lon="2.53245">
        <ele>1719.83</ele>
        <time>2021-10-29T16:57:59Z</time>
      </trkpt>
      <trkpt lat="42.50681" lon="2.53276">
        <ele>1718.49</ele>
        <time>2021-10-29T16:57:59Z</time>
      </trkpt>
      <trkpt lat="42.50708" lon="2.53305">
        <ele>1711.9</ele>
        <time>2021-10-29T16:57:59Z</time>
      </trkpt>
      <trkpt lat="42.50718" lon="2.53335">
        <ele>1713.65</ele>
        <time>2021-10-29T16:57:59Z</time>
      </trkpt>
      <trkpt lat="42.50725" lon="2.53384">
        <ele>1721.18</ele>
        <time>2021-10-29T16:57:59Z</time>
      </trkpt>
      <trkpt lat="42.50737" lon="2.53429">
        <ele>1725</ele>
        <time>2021-10-29T16:57:59Z</time>
      </trkpt>
      <trkpt lat="42.50761" lon="2.5346">
        <ele>1719.91</ele>
        <time>2021-10-29T16:57:59Z</time>
      </trkpt>
      <trkpt lat="42.50768" lon="2.53486">
        <ele>1723.36</ele>
        <time>2021-10-29T16:57:59Z</time>
      </trkpt>
      <trkpt lat="42.50776" lon="2.53521">
        <ele>1726.58</ele>
        <time>2021-10-29T16:57:59Z</time>
      </trkpt>
      <trkpt lat="42.50777" lon="2.53556">
        <ele>1730.88</ele>
        <time>2021-10-29T16:57:59Z</time>
      </trkpt>
      <trkpt lat="42.50779" lon="2.53594">
        <ele>1731.16</ele>
        <time>2021-10-29T16:57:59Z</time>
      </trkpt>
      <trkpt lat="42.50771" lon="2.53628">
        <ele>1733.79</ele>
        <time>2021-10-29T16:57:59Z</time>
      </trkpt>
      <trkpt lat="42.50762" lon="2.53666">
        <ele>1734.24</ele>
        <time>2021-10-29T16:57:59Z</time>
      </trkpt>
      <trkpt lat="42.5075" lon="2.53702">
        <ele>1734.79</ele>
        <time>2021-10-29T16:57:59Z</time>
      </trkpt>
      <trkpt lat="42.50734" lon="2.53753">
        <ele>1732.67</ele>
        <time>2021-10-29T16:57:59Z</time>
      </trkpt>
      <trkpt lat="42.50723" lon="2.53784">
        <ele>1735.53</ele>
        <time>2021-10-29T16:57:59Z</time>
      </trkpt>
      <trkpt lat="42.50713" lon="2.53815">
        <ele>1736.76</ele>
        <time>2021-10-29T16:57:59Z</time>
      </trkpt>
      <trkpt lat="42.50699" lon="2.53853">
        <ele>1736.28</ele>
        <time>2021-10-29T16:57:59Z</time>
      </trkpt>
      <trkpt lat="42.50687" lon="2.53885">
        <ele>1734.79</ele>
        <time>2021-10-29T16:57:59Z</time>
      </trkpt>
      <trkpt lat="42.50674" lon="2.5392">
        <ele>1730.96</ele>
        <time>2021-10-29T16:57:59Z</time>
      </trkpt>
      <trkpt lat="42.50658" lon="2.53961">
        <ele>1732.23</ele>
        <time>2021-10-29T16:57:59Z</time>
      </trkpt>
      <trkpt lat="42.50652" lon="2.53987">
        <ele>1731.62</ele>
        <time>2021-10-29T16:57:59Z</time>
      </trkpt>
      <trkpt lat="42.50636" lon="2.54011">
        <ele>1726.68</ele>
        <time>2021-10-29T16:57:59Z</time>
      </trkpt>
      <trkpt lat="42.50611" lon="2.5403">
        <ele>1715.2</ele>
        <time>2021-10-29T16:57:59Z</time>
      </trkpt>
      <trkpt lat="42.50576" lon="2.54069">
        <ele>1700.17</ele>
        <time>2021-10-29T16:57:59Z</time>
      </trkpt>
      <trkpt lat="42.50561" lon="2.54119">
        <ele>1689.55</ele>
        <time>2021-10-29T16:57:59Z</time>
      </trkpt>
      <trkpt lat="42.50542" lon="2.54142">
        <ele>1690.63</ele>
        <time>2021-10-29T16:57:59Z</time>
      </trkpt>
      <trkpt lat="42.50522" lon="2.54166">
        <ele>1683.63</ele>
        <time>2021-10-29T16:57:59Z</time>
      </trkpt>
      <trkpt lat="42.50488" lon="2.54198">
        <ele>1675.26</ele>
        <time>2021-10-29T16:57:59Z</time>
      </trkpt>
      <trkpt lat="42.50464" lon="2.54233">
        <ele>1672.53</ele>
        <time>2021-10-29T16:57:59Z</time>
      </trkpt>
      <trkpt lat="42.50449" lon="2.54271">
        <ele>1669.52</ele>
        <time>2021-10-29T16:57:59Z</time>
      </trkpt>
      <trkpt lat="42.50422" lon="2.54324">
        <ele>1659.48</ele>
        <time>2021-10-29T16:57:59Z</time>
      </trkpt>
      <trkpt lat="42.5042" lon="2.54373">
        <ele>1655.17</ele>
        <time>2021-10-29T16:57:59Z</time>
      </trkpt>
      <trkpt lat="42.50427" lon="2.54439">
        <ele>1648.16</ele>
        <time>2021-10-29T16:57:59Z</time>
      </trkpt>
      <trkpt lat="42.50433" lon="2.54472">
        <ele>1644.82</ele>
        <time>2021-10-29T16:57:59Z</time>
      </trkpt>
      <trkpt lat="42.50439" lon="2.54507">
        <ele>1639.99</ele>
        <time>2021-10-29T16:57:59Z</time>
      </trkpt>
      <trkpt lat="42.50439" lon="2.54544">
        <ele>1633.02</ele>
        <time>2021-10-29T16:57:59Z</time>
      </trkpt>
      <trkpt lat="42.5044" lon="2.5459">
        <ele>1627.75</ele>
        <time>2021-10-29T16:57:59Z</time>
      </trkpt>
      <trkpt lat="42.5044" lon="2.54626">
        <ele>1622.25</ele>
        <time>2021-10-29T16:57:59Z</time>
      </trkpt>
      <trkpt lat="42.50439" lon="2.5467">
        <ele>1615.28</ele>
        <time>2021-10-29T16:57:59Z</time>
      </trkpt>
      <trkpt lat="42.50444" lon="2.54703">
        <ele>1612.87</ele>
        <time>2021-10-29T16:57:59Z</time>
      </trkpt>
      <trkpt lat="42.5045" lon="2.54738">
        <ele>1609.79</ele>
        <time>2021-10-29T16:57:59Z</time>
      </trkpt>
      <trkpt lat="42.50447" lon="2.548">
        <ele>1597.4</ele>
        <time>2021-10-29T16:57:59Z</time>
      </trkpt>
      <trkpt lat="42.50461" lon="2.54835">
        <ele>1592.86</ele>
        <time>2021-10-29T16:57:59Z</time>
      </trkpt>
      <trkpt lat="42.50481" lon="2.54886">
        <ele>1584.24</ele>
        <time>2021-10-29T16:57:59Z</time>
      </trkpt>
      <trkpt lat="42.50501" lon="2.54906">
        <ele>1580.68</ele>
        <time>2021-10-29T16:57:59Z</time>
      </trkpt>
      <trkpt lat="42.50495" lon="2.54933">
        <ele>1572.03</ele>
        <time>2021-10-29T16:57:59Z</time>
      </trkpt>
      <trkpt lat="42.50479" lon="2.54953">
        <ele>1565.3</ele>
        <time>2021-10-29T16:57:59Z</time>
      </trkpt>
      <trkpt lat="42.50468" lon="2.54972">
        <ele>1561.62</ele>
        <time>2021-10-29T16:57:59Z</time>
      </trkpt>
      <trkpt lat="42.50429" lon="2.54995">
        <ele>1552.56</ele>
        <time>2021-10-29T16:57:59Z</time>
      </trkpt>
      <trkpt lat="42.50396" lon="2.55004">
        <ele>1546.49</ele>
        <time>2021-10-29T16:57:59Z</time>
      </trkpt>
      <trkpt lat="42.5037" lon="2.55017">
        <ele>1540.5</ele>
        <time>2021-10-29T16:57:59Z</time>
      </trkpt>
      <trkpt lat="42.50347" lon="2.55049">
        <ele>1534.58</ele>
        <time>2021-10-29T16:57:59Z</time>
      </trkpt>
      <trkpt lat="42.50332" lon="2.55075">
        <ele>1530.2</ele>
        <time>2021-10-29T16:57:59Z</time>
      </trkpt>
      <trkpt lat="42.50306" lon="2.55112">
        <ele>1524.31</ele>
        <time>2021-10-29T16:57:59Z</time>
      </trkpt>
      <trkpt lat="42.5029" lon="2.55117">
        <ele>1522.47</ele>
        <time>2021-10-29T16:57:59Z</time>
      </trkpt>
      <trkpt lat="42.50272" lon="2.55117">
        <ele>1519.56</ele>
        <time>2021-10-29T16:57:59Z</time>
      </trkpt>
      <trkpt lat="42.50268" lon="2.55086">
        <ele>1517.72</ele>
        <time>2021-10-29T16:57:59Z</time>
      </trkpt>
      <trkpt lat="42.50262" lon="2.55047">
        <ele>1514.18</ele>
        <time>2021-10-29T16:57:59Z</time>
      </trkpt>
      <trkpt lat="42.50262" lon="2.55009">
        <ele>1513.29</ele>
        <time>2021-10-29T16:57:59Z</time>
      </trkpt>
      <trkpt lat="42.5026" lon="2.54974">
        <ele>1510.22</ele>
        <time>2021-10-29T16:57:59Z</time>
      </trkpt>
      <trkpt lat="42.50259" lon="2.54938">
        <ele>1507.28</ele>
        <time>2021-10-29T16:57:59Z</time>
      </trkpt>
      <trkpt lat="42.50253" lon="2.54904">
        <ele>1505.62</ele>
        <time>2021-10-29T16:57:59Z</time>
      </trkpt>
      <trkpt lat="42.50253" lon="2.54864">
        <ele>1506.04</ele>
        <time>2021-10-29T16:57:59Z</time>
      </trkpt>
      <trkpt lat="42.50246" lon="2.54824">
        <ele>1505.47</ele>
        <time>2021-10-29T16:57:59Z</time>
      </trkpt>
      <trkpt lat="42.50232" lon="2.54856">
        <ele>1495.05</ele>
        <time>2021-10-29T16:57:59Z</time>
      </trkpt>
      <trkpt lat="42.50239" lon="2.549">
        <ele>1496.64</ele>
        <time>2021-10-29T16:57:59Z</time>
      </trkpt>
      <trkpt lat="42.50231" lon="2.54947">
        <ele>1494.35</ele>
        <time>2021-10-29T16:57:59Z</time>
      </trkpt>
      <trkpt lat="42.5022" lon="2.54979">
        <ele>1490.47</ele>
        <time>2021-10-29T16:57:59Z</time>
      </trkpt>
      <trkpt lat="42.50209" lon="2.55014">
        <ele>1486.92</ele>
        <time>2021-10-29T16:57:59Z</time>
      </trkpt>
      <trkpt lat="42.5021" lon="2.55075">
        <ele>1489.29</ele>
        <time>2021-10-29T16:57:59Z</time>
      </trkpt>
      <trkpt lat="42.50196" lon="2.55083">
        <ele>1479.23</ele>
        <time>2021-10-29T16:57:59Z</time>
      </trkpt>
      <trkpt lat="42.50197" lon="2.5497">
        <ele>1477.88</ele>
        <time>2021-10-29T16:57:59Z</time>
      </trkpt>
      <trkpt lat="42.50201" lon="2.54912">
        <ele>1475.29</ele>
        <time>2021-10-29T16:57:59Z</time>
      </trkpt>
      <trkpt lat="42.50195" lon="2.54877">
        <ele>1473.55</ele>
        <time>2021-10-29T16:57:59Z</time>
      </trkpt>
      <trkpt lat="42.50188" lon="2.54839">
        <ele>1472.16</ele>
        <time>2021-10-29T16:57:59Z</time>
      </trkpt>
      <trkpt lat="42.50188" lon="2.54801">
        <ele>1472.81</ele>
        <time>2021-10-29T16:57:59Z</time>
      </trkpt>
      <trkpt lat="42.50188" lon="2.54754">
        <ele>1476.32</ele>
        <time>2021-10-29T16:57:59Z</time>
      </trkpt>
      <trkpt lat="42.50175" lon="2.5475">
        <ele>1466.27</ele>
        <time>2021-10-29T16:57:59Z</time>
      </trkpt>
      <trkpt lat="42.50164" lon="2.54812">
        <ele>1458.65</ele>
        <time>2021-10-29T16:57:59Z</time>
      </trkpt>
      <trkpt lat="42.50161" lon="2.54852">
        <ele>1456.85</ele>
        <time>2021-10-29T16:57:59Z</time>
      </trkpt>
      <trkpt lat="42.50157" lon="2.5491">
        <ele>1453.01</ele>
        <time>2021-10-29T16:57:59Z</time>
      </trkpt>
      <trkpt lat="42.50152" lon="2.54949">
        <ele>1448.2</ele>
        <time>2021-10-29T16:57:59Z</time>
      </trkpt>
      <trkpt lat="42.50146" lon="2.55006">
        <ele>1445.13</ele>
        <time>2021-10-29T16:57:59Z</time>
      </trkpt>
      <trkpt lat="42.50138" lon="2.55042">
        <ele>1441.5</ele>
        <time>2021-10-29T16:57:59Z</time>
      </trkpt>
      <trkpt lat="42.50129" lon="2.55089">
        <ele>1441.25</ele>
        <time>2021-10-29T16:57:59Z</time>
      </trkpt>
      <trkpt lat="42.50122" lon="2.55135">
        <ele>1438.73</ele>
        <time>2021-10-29T16:57:59Z</time>
      </trkpt>
      <trkpt lat="42.50114" lon="2.5518">
        <ele>1430.71</ele>
        <time>2021-10-29T16:57:59Z</time>
      </trkpt>
      <trkpt lat="42.50105" lon="2.55238">
        <ele>1418.71</ele>
        <time>2021-10-29T16:57:59Z</time>
      </trkpt>
      <trkpt lat="42.50112" lon="2.55273">
        <ele>1418.52</ele>
        <time>2021-10-29T16:57:59Z</time>
      </trkpt>
      <trkpt lat="42.50121" lon="2.55315">
        <ele>1416.64</ele>
        <time>2021-10-29T16:57:59Z</time>
      </trkpt>
      <trkpt lat="42.50134" lon="2.55344">
        <ele>1419.25</ele>
        <time>2021-10-29T16:57:59Z</time>
      </trkpt>
      <trkpt lat="42.50147" lon="2.55374">
        <ele>1420.17</ele>
        <time>2021-10-29T16:57:59Z</time>
      </trkpt>
      <trkpt lat="42.50149" lon="2.55398">
        <ele>1419.47</ele>
        <time>2021-10-29T16:57:59Z</time>
      </trkpt>
      <trkpt lat="42.50136" lon="2.55483">
        <ele>1409.73</ele>
        <time>2021-10-29T16:57:59Z</time>
      </trkpt>
      <trkpt lat="42.50138" lon="2.55518">
        <ele>1406.39</ele>
        <time>2021-10-29T16:57:59Z</time>
      </trkpt>
      <trkpt lat="42.50141" lon="2.55557">
        <ele>1404.35</ele>
        <time>2021-10-29T16:57:59Z</time>
      </trkpt>
      <trkpt lat="42.50156" lon="2.55596">
        <ele>1394.11</ele>
        <time>2021-10-29T16:57:59Z</time>
      </trkpt>
      <trkpt lat="42.5018" lon="2.55628">
        <ele>1389.34</ele>
        <time>2021-10-29T16:57:59Z</time>
      </trkpt>
      <trkpt lat="42.50214" lon="2.55659">
        <ele>1376.13</ele>
        <time>2021-10-29T16:57:59Z</time>
      </trkpt>
      <trkpt lat="42.50237" lon="2.55684">
        <ele>1369.31</ele>
        <time>2021-10-29T16:57:59Z</time>
      </trkpt>
      <trkpt lat="42.50253" lon="2.55734">
        <ele>1357.99</ele>
        <time>2021-10-29T16:57:59Z</time>
      </trkpt>
      <trkpt lat="42.50258" lon="2.55779">
        <ele>1354.93</ele>
        <time>2021-10-29T16:57:59Z</time>
      </trkpt>
      <trkpt lat="42.50258" lon="2.55816">
        <ele>1347.97</ele>
        <time>2021-10-29T16:57:59Z</time>
      </trkpt>
      <trkpt lat="42.50262" lon="2.55852">
        <ele>1344.94</ele>
        <time>2021-10-29T16:57:59Z</time>
      </trkpt>
      <trkpt lat="42.5025" lon="2.55861">
        <ele>1347.88</ele>
        <time>2021-10-29T16:57:59Z</time>
      </trkpt>
      <trkpt lat="42.50268" lon="2.55879">
        <ele>1342.25</ele>
        <time>2021-10-29T16:57:59Z</time>
      </trkpt>
      <trkpt lat="42.50273" lon="2.55913">
        <ele>1339.71</ele>
        <time>2021-10-29T16:57:59Z</time>
      </trkpt>
      <trkpt lat="42.50279" lon="2.5595">
        <ele>1335.28</ele>
        <time>2021-10-29T16:57:59Z</time>
      </trkpt>
      <trkpt lat="42.5027" lon="2.55996">
        <ele>1336.89</ele>
        <time>2021-10-29T16:57:59Z</time>
      </trkpt>
      <trkpt lat="42.50272" lon="2.56051">
        <ele>1333.6</ele>
        <time>2021-10-29T16:57:59Z</time>
      </trkpt>
      <trkpt lat="42.50268" lon="2.56086">
        <ele>1329.69</ele>
        <time>2021-10-29T16:57:59Z</time>
      </trkpt>
      <trkpt lat="42.50263" lon="2.56125">
        <ele>1326.03</ele>
        <time>2021-10-29T16:57:59Z</time>
      </trkpt>
      <trkpt lat="42.50247" lon="2.5615">
        <ele>1327.67</ele>
        <time>2021-10-29T16:57:59Z</time>
      </trkpt>
      <trkpt lat="42.5023" lon="2.56163">
        <ele>1328.61</ele>
        <time>2021-10-29T16:57:59Z</time>
      </trkpt>
      <trkpt lat="42.50196" lon="2.56155">
        <ele>1324.85</ele>
        <time>2021-10-29T16:57:59Z</time>
      </trkpt>
      <trkpt lat="42.50169" lon="2.56144">
        <ele>1323.82</ele>
        <time>2021-10-29T16:57:59Z</time>
      </trkpt>
      <trkpt lat="42.50135" lon="2.56131">
        <ele>1321.9</ele>
        <time>2021-10-29T16:57:59Z</time>
      </trkpt>
      <trkpt lat="42.50105" lon="2.5613">
        <ele>1317.48</ele>
        <time>2021-10-29T16:57:59Z</time>
      </trkpt>
      <trkpt lat="42.50061" lon="2.56129">
        <ele>1309.63</ele>
        <time>2021-10-29T16:57:59Z</time>
      </trkpt>
      <trkpt lat="42.50036" lon="2.5614">
        <ele>1299.02</ele>
        <time>2021-10-29T16:57:59Z</time>
      </trkpt>
      <trkpt lat="42.50007" lon="2.56137">
        <ele>1292.77</ele>
        <time>2021-10-29T16:57:59Z</time>
      </trkpt>
      <trkpt lat="42.49965" lon="2.56132">
        <ele>1283.07</ele>
        <time>2021-10-29T16:57:59Z</time>
      </trkpt>
      <trkpt lat="42.49945" lon="2.56153">
        <ele>1270.78</ele>
        <time>2021-10-29T16:57:59Z</time>
      </trkpt>
      <trkpt lat="42.49922" lon="2.56153">
        <ele>1265.67</ele>
        <time>2021-10-29T16:57:59Z</time>
      </trkpt>
      <trkpt lat="42.49901" lon="2.56137">
        <ele>1264.05</ele>
        <time>2021-10-29T16:57:59Z</time>
      </trkpt>
      <trkpt lat="42.49882" lon="2.56137">
        <ele>1259.77</ele>
        <time>2021-10-29T16:57:59Z</time>
      </trkpt>
      <trkpt lat="42.49868" lon="2.56168">
        <ele>1249.52</ele>
        <time>2021-10-29T16:57:59Z</time>
      </trkpt>
      <trkpt lat="42.49837" lon="2.56201">
        <ele>1231.56</ele>
        <time>2021-10-29T16:57:59Z</time>
      </trkpt>
      <trkpt lat="42.49806" lon="2.56222">
        <ele>1216.72</ele>
        <time>2021-10-29T16:57:59Z</time>
      </trkpt>
      <trkpt lat="42.49776" lon="2.56229">
        <ele>1203.85</ele>
        <time>2021-10-29T16:57:59Z</time>
      </trkpt>
      <trkpt lat="42.49731" lon="2.56241">
        <ele>1181.9</ele>
        <time>2021-10-29T16:57:59Z</time>
      </trkpt>
      <trkpt lat="42.49693" lon="2.5626">
        <ele>1165.18</ele>
        <time>2021-10-29T16:57:59Z</time>
      </trkpt>
      <trkpt lat="42.4967" lon="2.56278">
        <ele>1156.12</ele>
        <time>2021-10-29T16:57:59Z</time>
      </trkpt>
      <trkpt lat="42.49637" lon="2.56288">
        <ele>1147.25</ele>
        <time>2021-10-29T16:57:59Z</time>
      </trkpt>
      <trkpt lat="42.4962" lon="2.56304">
        <ele>1141.3</ele>
        <time>2021-10-29T16:57:59Z</time>
      </trkpt>
      <trkpt lat="42.49609" lon="2.56322">
        <ele>1139.43</ele>
        <time>2021-10-29T16:57:59Z</time>
      </trkpt>
      <trkpt lat="42.49584" lon="2.56338">
        <ele>1134.42</ele>
        <time>2021-10-29T16:57:59Z</time>
      </trkpt>
      <trkpt lat="42.49568" lon="2.56346">
        <ele>1132.76</ele>
        <time>2021-10-29T16:57:59Z</time>
      </trkpt>
      <trkpt lat="42.49543" lon="2.56364">
        <ele>1123.7</ele>
        <time>2021-10-29T16:57:59Z</time>
      </trkpt>
      <trkpt lat="42.49525" lon="2.56388">
        <ele>1115.91</ele>
        <time>2021-10-29T16:57:59Z</time>
      </trkpt>
      <trkpt lat="42.49502" lon="2.56396">
        <ele>1100.53</ele>
        <time>2021-10-29T16:57:59Z</time>
      </trkpt>
      <trkpt lat="42.4948" lon="2.56414">
        <ele>1085.5</ele>
        <time>2021-10-29T16:57:59Z</time>
      </trkpt>
      <trkpt lat="42.49455" lon="2.56465">
        <ele>1070.25</ele>
        <time>2021-10-29T16:57:59Z</time>
      </trkpt>
      <trkpt lat="42.49441" lon="2.56496">
        <ele>1065.81</ele>
        <time>2021-10-29T16:57:59Z</time>
      </trkpt>
      <trkpt lat="42.49417" lon="2.56509">
        <ele>1065.36</ele>
        <time>2021-10-29T16:57:59Z</time>
      </trkpt>
      <trkpt lat="42.49393" lon="2.56522">
        <ele>1065.51</ele>
        <time>2021-10-29T16:57:59Z</time>
      </trkpt>
      <trkpt lat="42.49364" lon="2.56545">
        <ele>1062.31</ele>
        <time>2021-10-29T16:57:59Z</time>
      </trkpt>
      <trkpt lat="42.49344" lon="2.56576">
        <ele>1060.92</ele>
        <time>2021-10-29T16:57:59Z</time>
      </trkpt>
      <trkpt lat="42.49335" lon="2.56654">
        <ele>1051.42</ele>
        <time>2021-10-29T16:57:59Z</time>
      </trkpt>
      <trkpt lat="42.49329" lon="2.56665">
        <ele>1049.31</ele>
        <time>2021-10-29T16:57:59Z</time>
      </trkpt>
      <trkpt lat="42.49318" lon="2.5667">
        <ele>1047.27</ele>
        <time>2021-10-29T16:57:59Z</time>
      </trkpt>
      <trkpt lat="42.49293" lon="2.56668">
        <ele>1042.55</ele>
        <time>2021-10-29T16:57:59Z</time>
      </trkpt>
      <trkpt lat="42.49266" lon="2.56667">
        <ele>1036.85</ele>
        <time>2021-10-29T16:57:59Z</time>
      </trkpt>
      <trkpt lat="42.49251" lon="2.56675">
        <ele>1033.84</ele>
        <time>2021-10-29T16:57:59Z</time>
      </trkpt>
      <trkpt lat="42.49229" lon="2.56682">
        <ele>1031.27</ele>
        <time>2021-10-29T16:57:59Z</time>
      </trkpt>
      <trkpt lat="42.49183" lon="2.56671">
        <ele>1032.03</ele>
        <time>2021-10-29T16:57:59Z</time>
      </trkpt>
      <trkpt lat="42.49162" lon="2.5669">
        <ele>1027.39</ele>
        <time>2021-10-29T16:57:59Z</time>
      </trkpt>
      <trkpt lat="42.49139" lon="2.5671">
        <ele>1027.54</ele>
        <time>2021-10-29T16:57:59Z</time>
      </trkpt>
      <trkpt lat="42.49119" lon="2.56715">
        <ele>1026.83</ele>
        <time>2021-10-29T16:57:59Z</time>
      </trkpt>
      <trkpt lat="42.491" lon="2.56714">
        <ele>1025.55</ele>
        <time>2021-10-29T16:57:59Z</time>
      </trkpt>
      <trkpt lat="42.49087" lon="2.56706">
        <ele>1023.21</ele>
        <time>2021-10-29T16:57:59Z</time>
      </trkpt>
      <trkpt lat="42.49065" lon="2.56712">
        <ele>1022.47</ele>
        <time>2021-10-29T16:57:59Z</time>
      </trkpt>
      <trkpt lat="42.49043" lon="2.56743">
        <ele>1020.01</ele>
        <time>2021-10-29T16:57:59Z</time>
      </trkpt>
      <trkpt lat="42.49017" lon="2.56796">
        <ele>1015.91</ele>
        <time>2021-10-29T16:57:59Z</time>
      </trkpt>
      <trkpt lat="42.49007" lon="2.56831">
        <ele>1012.81</ele>
        <time>2021-10-29T16:57:59Z</time>
      </trkpt>
      <trkpt lat="42.48996" lon="2.56873">
        <ele>1008.51</ele>
        <time>2021-10-29T16:57:59Z</time>
      </trkpt>
      <trkpt lat="42.48975" lon="2.56922">
        <ele>1002.06</ele>
        <time>2021-10-29T16:57:59Z</time>
      </trkpt>
      <trkpt lat="42.48947" lon="2.56972">
        <ele>994.98</ele>
        <time>2021-10-29T16:57:59Z</time>
      </trkpt>
      <trkpt lat="42.48925" lon="2.5699">
        <ele>991.44</ele>
        <time>2021-10-29T16:57:59Z</time>
      </trkpt>
      <trkpt lat="42.489" lon="2.57003">
        <ele>989.71</ele>
        <time>2021-10-29T16:57:59Z</time>
      </trkpt>
      <trkpt lat="42.48869" lon="2.57019">
        <ele>989.38</ele>
        <time>2021-10-29T16:57:59Z</time>
      </trkpt>
      <trkpt lat="42.48861" lon="2.57048">
        <ele>986.09</ele>
        <time>2021-10-29T16:57:59Z</time>
      </trkpt>
      <trkpt lat="42.48868" lon="2.57058">
        <ele>985.63</ele>
        <time>2021-10-29T16:57:59Z</time>
      </trkpt>
      <trkpt lat="42.48919" lon="2.57051">
        <ele>985.35</ele>
        <time>2021-10-29T16:57:59Z</time>
      </trkpt>
      <trkpt lat="42.48945" lon="2.57038">
        <ele>982.34</ele>
        <time>2021-10-29T16:57:59Z</time>
      </trkpt>
      <trkpt lat="42.4898" lon="2.57022">
        <ele>982.96</ele>
        <time>2021-10-29T16:57:59Z</time>
      </trkpt>
      <trkpt lat="42.49011" lon="2.57004">
        <ele>982.2</ele>
        <time>2021-10-29T16:57:59Z</time>
      </trkpt>
      <trkpt lat="42.4904" lon="2.56976">
        <ele>979.7</ele>
        <time>2021-10-29T16:57:59Z</time>
      </trkpt>
      <trkpt lat="42.49081" lon="2.56943">
        <ele>977.15</ele>
        <time>2021-10-29T16:57:59Z</time>
      </trkpt>
      <trkpt lat="42.49112" lon="2.56922">
        <ele>974.22</ele>
        <time>2021-10-29T16:57:59Z</time>
      </trkpt>
      <trkpt lat="42.49145" lon="2.56925">
        <ele>967.89</ele>
        <time>2021-10-29T16:57:59Z</time>
      </trkpt>
      <trkpt lat="42.49168" lon="2.5695">
        <ele>959.33</ele>
        <time>2021-10-29T16:57:59Z</time>
      </trkpt>
      <trkpt lat="42.49203" lon="2.56964">
        <ele>956.53</ele>
        <time>2021-10-29T16:57:59Z</time>
      </trkpt>
      <trkpt lat="42.49242" lon="2.5695">
        <ele>957.46</ele>
        <time>2021-10-29T16:57:59Z</time>
      </trkpt>
      <trkpt lat="42.49271" lon="2.56965">
        <ele>954.45</ele>
        <time>2021-10-29T16:57:59Z</time>
      </trkpt>
      <trkpt lat="42.49298" lon="2.56986">
        <ele>949.77</ele>
        <time>2021-10-29T16:57:59Z</time>
      </trkpt>
      <trkpt lat="42.493" lon="2.57012">
        <ele>940.07</ele>
        <time>2021-10-29T16:57:59Z</time>
      </trkpt>
      <trkpt lat="42.49275" lon="2.57014">
        <ele>937.2</ele>
        <time>2021-10-29T16:57:59Z</time>
      </trkpt>
      <trkpt lat="42.49268" lon="2.57">
        <ele>940.94</ele>
        <time>2021-10-29T16:57:59Z</time>
      </trkpt>
      <trkpt lat="42.49258" lon="2.56995">
        <ele>942.27</ele>
        <time>2021-10-29T16:57:59Z</time>
      </trkpt>
      <trkpt lat="42.49237" lon="2.57005">
        <ele>941.46</ele>
        <time>2021-10-29T16:57:59Z</time>
      </trkpt>
      <trkpt lat="42.49216" lon="2.5705">
        <ele>928.44</ele>
        <time>2021-10-29T16:57:59Z</time>
      </trkpt>
      <trkpt lat="42.492" lon="2.57065">
        <ele>923.75</ele>
        <time>2021-10-29T16:57:59Z</time>
      </trkpt>
      <trkpt lat="42.49164" lon="2.57065">
        <ele>926.85</ele>
        <time>2021-10-29T16:57:59Z</time>
      </trkpt>
      <trkpt lat="42.49154" lon="2.5707">
        <ele>930.28</ele>
        <time>2021-10-29T16:57:59Z</time>
      </trkpt>
      <trkpt lat="42.4915" lon="2.57102">
        <ele>927.37</ele>
        <time>2021-10-29T16:57:59Z</time>
      </trkpt>
      <trkpt lat="42.49141" lon="2.57119">
        <ele>926.56</ele>
        <time>2021-10-29T16:57:59Z</time>
      </trkpt>
      <trkpt lat="42.49121" lon="2.57138">
        <ele>923.08</ele>
        <time>2021-10-29T16:57:59Z</time>
      </trkpt>
      <trkpt lat="42.49105" lon="2.57164">
        <ele>921.73</ele>
        <time>2021-10-29T16:57:59Z</time>
      </trkpt>
      <trkpt lat="42.49092" lon="2.57209">
        <ele>921.93</ele>
        <time>2021-10-29T16:57:59Z</time>
      </trkpt>
      <trkpt lat="42.49091" lon="2.57248">
        <ele>914.6</ele>
        <time>2021-10-29T16:57:59Z</time>
      </trkpt>
      <trkpt lat="42.49084" lon="2.57284">
        <ele>915.21</ele>
        <time>2021-10-29T16:57:59Z</time>
      </trkpt>
      <trkpt lat="42.49071" lon="2.57313">
        <ele>915.27</ele>
        <time>2021-10-29T16:57:59Z</time>
      </trkpt>
      <trkpt lat="42.49065" lon="2.57339">
        <ele>908.44</ele>
        <time>2021-10-29T16:57:59Z</time>
      </trkpt>
      <trkpt lat="42.49064" lon="2.57367">
        <ele>906.06</ele>
        <time>2021-10-29T16:57:59Z</time>
      </trkpt>
      <trkpt lat="42.49055" lon="2.57399">
        <ele>904.47</ele>
        <time>2021-10-29T16:57:59Z</time>
      </trkpt>
      <trkpt lat="42.49049" lon="2.57438">
        <ele>903.41</ele>
        <time>2021-10-29T16:57:59Z</time>
      </trkpt>
      <trkpt lat="42.49045" lon="2.5747">
        <ele>898.23</ele>
        <time>2021-10-29T16:57:59Z</time>
      </trkpt>
      <trkpt lat="42.49031" lon="2.57516">
        <ele>898.24</ele>
        <time>2021-10-29T16:57:59Z</time>
      </trkpt>
      <trkpt lat="42.49014" lon="2.57545">
        <ele>898.54</ele>
        <time>2021-10-29T16:57:59Z</time>
      </trkpt>
      <trkpt lat="42.48997" lon="2.57571">
        <ele>900.14</ele>
        <time>2021-10-29T16:57:59Z</time>
      </trkpt>
      <trkpt lat="42.48978" lon="2.57609">
        <ele>899.22</ele>
        <time>2021-10-29T16:57:59Z</time>
      </trkpt>
      <trkpt lat="42.48961" lon="2.57658">
        <ele>894.27</ele>
        <time>2021-10-29T16:57:59Z</time>
      </trkpt>
      <trkpt lat="42.4895" lon="2.57702">
        <ele>884.28</ele>
        <time>2021-10-29T16:57:59Z</time>
      </trkpt>
      <trkpt lat="42.48946" lon="2.57727">
        <ele>881.81</ele>
        <time>2021-10-29T16:57:59Z</time>
      </trkpt>
      <trkpt lat="42.48971" lon="2.57743">
        <ele>875.56</ele>
        <time>2021-10-29T16:57:59Z</time>
      </trkpt>
      <trkpt lat="42.48956" lon="2.57789">
        <ele>864.75</ele>
        <time>2021-10-29T16:57:59Z</time>
      </trkpt>
      <trkpt lat="42.48935" lon="2.57811">
        <ele>855.14</ele>
        <time>2021-10-29T16:57:59Z</time>
      </trkpt>
      <trkpt lat="42.48921" lon="2.57821">
        <ele>850.06</ele>
        <time>2021-10-29T16:57:59Z</time>
      </trkpt>
      <trkpt lat="42.48896" lon="2.57873">
        <ele>825.79</ele>
        <time>2021-10-29T16:57:59Z</time>
      </trkpt>
      <trkpt lat="42.48878" lon="2.57894">
        <ele>819.64</ele>
        <time>2021-10-29T16:57:59Z</time>
      </trkpt>
      <trkpt lat="42.48856" lon="2.57912">
        <ele>813.95</ele>
        <time>2021-10-29T16:57:59Z</time>
      </trkpt>
      <trkpt lat="42.48843" lon="2.57937">
        <ele>802.87</ele>
        <time>2021-10-29T16:57:59Z</time>
      </trkpt>
      <trkpt lat="42.48834" lon="2.57955">
        <ele>797.75</ele>
        <time>2021-10-29T16:57:59Z</time>
      </trkpt>
      <trkpt lat="42.48838" lon="2.57992">
        <ele>783.38</ele>
        <time>2021-10-29T16:57:59Z</time>
      </trkpt>
      <trkpt lat="42.48848" lon="2.57997">
        <ele>781.71</ele>
        <time>2021-10-29T16:57:59Z</time>
      </trkpt>
      <trkpt lat="42.48842" lon="2.58025">
        <ele>771.62</ele>
        <time>2021-10-29T16:57:59Z</time>
      </trkpt>
      <trkpt lat="42.48826" lon="2.58057">
        <ele>760.51</ele>
        <time>2021-10-29T16:57:59Z</time>
      </trkpt>
      <trkpt lat="42.48812" lon="2.58069">
        <ele>754.6</ele>
        <time>2021-10-29T16:57:59Z</time>
      </trkpt>
      <trkpt lat="42.48819" lon="2.58097">
        <ele>753.56</ele>
        <time>2021-10-29T16:57:59Z</time>
      </trkpt>
      <trkpt lat="42.48826" lon="2.58128">
        <ele>751.22</ele>
        <time>2021-10-29T16:57:59Z</time>
      </trkpt>
      <trkpt lat="42.48807" lon="2.58142">
        <ele>750.85</ele>
        <time>2021-10-29T16:57:59Z</time>
      </trkpt>
      <trkpt lat="42.48768" lon="2.58155">
        <ele>754.74</ele>
        <time>2021-10-29T16:57:59Z</time>
      </trkpt>
      <trkpt lat="42.48743" lon="2.58154">
        <ele>756.88</ele>
        <time>2021-10-29T16:57:59Z</time>
      </trkpt>
      <trkpt lat="42.48716" lon="2.58153">
        <ele>758.34</ele>
        <time>2021-10-29T16:57:59Z</time>
      </trkpt>
      <trkpt lat="42.48697" lon="2.58157">
        <ele>758.58</ele>
        <time>2021-10-29T16:57:59Z</time>
      </trkpt>
      <trkpt lat="42.48688" lon="2.58168">
        <ele>759.08</ele>
        <time>2021-10-29T16:57:59Z</time>
      </trkpt>
      <trkpt lat="42.48677" lon="2.58191">
        <ele>760.2</ele>
        <time>2021-10-29T16:57:59Z</time>
      </trkpt>
      <trkpt lat="42.48672" lon="2.58225">
        <ele>763.4</ele>
        <time>2021-10-29T16:57:59Z</time>
      </trkpt>
      <trkpt lat="42.48667" lon="2.58245">
        <ele>766.74</ele>
        <time>2021-10-29T16:57:59Z</time>
      </trkpt>
      <trkpt lat="42.48653" lon="2.58259">
        <ele>767.69</ele>
        <time>2021-10-29T16:57:59Z</time>
      </trkpt>
      <trkpt lat="42.48639" lon="2.5828">
        <ele>770.94</ele>
        <time>2021-10-29T16:57:59Z</time>
      </trkpt>
      <trkpt lat="42.4863" lon="2.58303">
        <ele>774.52</ele>
        <time>2021-10-29T16:57:59Z</time>
      </trkpt>
      <trkpt lat="42.48618" lon="2.58312">
        <ele>775.17</ele>
        <time>2021-10-29T16:57:59Z</time>
      </trkpt>
      <trkpt lat="42.48611" lon="2.58333">
        <ele>776.44</ele>
        <time>2021-10-29T16:57:59Z</time>
      </trkpt>
      <trkpt lat="42.48588" lon="2.58391">
        <ele>779.66</ele>
        <time>2021-10-29T16:57:59Z</time>
      </trkpt>
      <trkpt lat="42.48581" lon="2.58428">
        <ele>783.45</ele>
        <time>2021-10-29T16:57:59Z</time>
      </trkpt>
      <trkpt lat="42.48571" lon="2.58479">
        <ele>788.25</ele>
        <time>2021-10-29T16:57:59Z</time>
      </trkpt>
      <trkpt lat="42.48566" lon="2.58521">
        <ele>791.87</ele>
        <time>2021-10-29T16:57:59Z</time>
      </trkpt>
      <trkpt lat="42.48551" lon="2.58571">
        <ele>793.02</ele>
        <time>2021-10-29T16:57:59Z</time>
      </trkpt>
      <trkpt lat="42.48549" lon="2.5863">
        <ele>801.73</ele>
        <time>2021-10-29T16:57:59Z</time>
      </trkpt>
      <trkpt lat="42.48554" lon="2.58677">
        <ele>807.85</ele>
        <time>2021-10-29T16:57:59Z</time>
      </trkpt>
      <trkpt lat="42.48542" lon="2.58719">
        <ele>806.49</ele>
        <time>2021-10-29T16:57:59Z</time>
      </trkpt>
      <trkpt lat="42.48528" lon="2.58749">
        <ele>808.32</ele>
        <time>2021-10-29T16:57:59Z</time>
      </trkpt>
      <trkpt lat="42.48524" lon="2.58791">
        <ele>810.07</ele>
        <time>2021-10-29T16:57:59Z</time>
      </trkpt>
      <trkpt lat="42.48528" lon="2.58844">
        <ele>807.92</ele>
        <time>2021-10-29T16:57:59Z</time>
      </trkpt>
      <trkpt lat="42.48527" lon="2.58876">
        <ele>806.75</ele>
        <time>2021-10-29T16:57:59Z</time>
      </trkpt>
      <trkpt lat="42.48513" lon="2.58907">
        <ele>804.57</ele>
        <time>2021-10-29T16:57:59Z</time>
      </trkpt>
      <trkpt lat="42.48497" lon="2.58944">
        <ele>801.73</ele>
        <time>2021-10-29T16:57:59Z</time>
      </trkpt>
      <trkpt lat="42.48481" lon="2.58957">
        <ele>800.56</ele>
        <time>2021-10-29T16:57:59Z</time>
      </trkpt>
      <trkpt lat="42.48427" lon="2.59028">
        <ele>797.05</ele>
        <time>2021-10-29T16:57:59Z</time>
      </trkpt>
      <trkpt lat="42.48397" lon="2.59072">
        <ele>796.08</ele>
        <time>2021-10-29T16:57:59Z</time>
      </trkpt>
      <trkpt lat="42.48384" lon="2.59102">
        <ele>795.77</ele>
        <time>2021-10-29T16:57:59Z</time>
      </trkpt>
      <trkpt lat="42.4837" lon="2.59135">
        <ele>794.56</ele>
        <time>2021-10-29T16:57:59Z</time>
      </trkpt>
      <trkpt lat="42.48345" lon="2.59174">
        <ele>790.13</ele>
        <time>2021-10-29T16:57:59Z</time>
      </trkpt>
      <trkpt lat="42.48316" lon="2.59199">
        <ele>785.77</ele>
        <time>2021-10-29T16:57:59Z</time>
      </trkpt>
      <trkpt lat="42.48292" lon="2.59225">
        <ele>785.19</ele>
        <time>2021-10-29T16:57:59Z</time>
      </trkpt>
      <trkpt lat="42.48272" lon="2.59241">
        <ele>781.73</ele>
        <time>2021-10-29T16:57:59Z</time>
      </trkpt>
      <trkpt lat="42.4826" lon="2.59294">
        <ele>778.29</ele>
        <time>2021-10-29T16:57:59Z</time>
      </trkpt>
      <trkpt lat="42.48245" lon="2.59343">
        <ele>776.7</ele>
        <time>2021-10-29T16:57:59Z</time>
      </trkpt>
      <trkpt lat="42.48223" lon="2.59372">
        <ele>771.6</ele>
        <time>2021-10-29T16:57:59Z</time>
      </trkpt>
      <trkpt lat="42.48185" lon="2.59398">
        <ele>770.03</ele>
        <time>2021-10-29T16:57:59Z</time>
      </trkpt>
      <trkpt lat="42.48147" lon="2.59415">
        <ele>765.4</ele>
        <time>2021-10-29T16:57:59Z</time>
      </trkpt>
      <trkpt lat="42.4814" lon="2.5945">
        <ele>764.09</ele>
        <time>2021-10-29T16:57:59Z</time>
      </trkpt>
      <trkpt lat="42.48134" lon="2.59474">
        <ele>764.12</ele>
        <time>2021-10-29T16:57:59Z</time>
      </trkpt>
      <trkpt lat="42.48127" lon="2.59504">
        <ele>762.55</ele>
        <time>2021-10-29T16:57:59Z</time>
      </trkpt>
      <trkpt lat="42.48123" lon="2.59532">
        <ele>761.96</ele>
        <time>2021-10-29T16:57:59Z</time>
      </trkpt>
      <trkpt lat="42.48106" lon="2.59589">
        <ele>757.1</ele>
        <time>2021-10-29T16:57:59Z</time>
      </trkpt>
      <trkpt lat="42.48086" lon="2.59595">
        <ele>753.04</ele>
        <time>2021-10-29T16:57:59Z</time>
      </trkpt>
      <trkpt lat="42.4808" lon="2.59626">
        <ele>752.26</ele>
        <time>2021-10-29T16:57:59Z</time>
      </trkpt>
      <trkpt lat="42.48079" lon="2.59663">
        <ele>750.68</ele>
        <time>2021-10-29T16:57:59Z</time>
      </trkpt>
      <trkpt lat="42.48078" lon="2.59707">
        <ele>749.9</ele>
        <time>2021-10-29T16:57:59Z</time>
      </trkpt>
      <trkpt lat="42.48077" lon="2.59748">
        <ele>752.27</ele>
        <time>2021-10-29T16:57:59Z</time>
      </trkpt>
      <trkpt lat="42.48075" lon="2.59815">
        <ele>750.05</ele>
        <time>2021-10-29T16:57:59Z</time>
      </trkpt>
      <trkpt lat="42.48064" lon="2.59841">
        <ele>745.52</ele>
        <time>2021-10-29T16:57:59Z</time>
      </trkpt>
      <trkpt lat="42.48034" lon="2.59862">
        <ele>742.69</ele>
        <time>2021-10-29T16:57:59Z</time>
      </trkpt>
      <trkpt lat="42.48017" lon="2.59878">
        <ele>741.41</ele>
        <time>2021-10-29T16:57:59Z</time>
      </trkpt>
      <trkpt lat="42.47995" lon="2.59907">
        <ele>746.01</ele>
        <time>2021-10-29T16:57:59Z</time>
      </trkpt>
      <trkpt lat="42.4797" lon="2.59938">
        <ele>746.28</ele>
        <time>2021-10-29T16:57:59Z</time>
      </trkpt>
      <trkpt lat="42.47944" lon="2.59959">
        <ele>744.04</ele>
        <time>2021-10-29T16:57:59Z</time>
      </trkpt>
      <trkpt lat="42.47922" lon="2.59976">
        <ele>744.88</ele>
        <time>2021-10-29T16:57:59Z</time>
      </trkpt>
      <trkpt lat="42.47901" lon="2.59994">
        <ele>746.3</ele>
        <time>2021-10-29T16:57:59Z</time>
      </trkpt>
      <trkpt lat="42.47869" lon="2.60017">
        <ele>746.28</ele>
        <time>2021-10-29T16:57:59Z</time>
      </trkpt>
      <trkpt lat="42.47845" lon="2.60054">
        <ele>747.73</ele>
        <time>2021-10-29T16:57:59Z</time>
      </trkpt>
      <trkpt lat="42.47828" lon="2.60073">
        <ele>746.49</ele>
        <time>2021-10-29T16:57:59Z</time>
      </trkpt>
      <trkpt lat="42.47821" lon="2.60108">
        <ele>743.91</ele>
        <time>2021-10-29T16:57:59Z</time>
      </trkpt>
      <trkpt lat="42.47812" lon="2.6015">
        <ele>738.1</ele>
        <time>2021-10-29T16:57:59Z</time>
      </trkpt>
      <trkpt lat="42.47808" lon="2.60185">
        <ele>735.2</ele>
        <time>2021-10-29T16:57:59Z</time>
      </trkpt>
      <trkpt lat="42.47804" lon="2.60226">
        <ele>734.48</ele>
        <time>2021-10-29T16:57:59Z</time>
      </trkpt>
      <trkpt lat="42.47804" lon="2.60248">
        <ele>736.26</ele>
        <time>2021-10-29T16:57:59Z</time>
      </trkpt>
      <trkpt lat="42.47789" lon="2.60256">
        <ele>728.9</ele>
        <time>2021-10-29T16:57:59Z</time>
      </trkpt>
      <trkpt lat="42.47778" lon="2.60295">
        <ele>724.84</ele>
        <time>2021-10-29T16:57:59Z</time>
      </trkpt>
      <trkpt lat="42.47769" lon="2.60327">
        <ele>719.89</ele>
        <time>2021-10-29T16:57:59Z</time>
      </trkpt>
      <trkpt lat="42.4776" lon="2.6036">
        <ele>715.34</ele>
        <time>2021-10-29T16:57:59Z</time>
      </trkpt>
      <trkpt lat="42.47746" lon="2.60424">
        <ele>710.83</ele>
        <time>2021-10-29T16:57:59Z</time>
      </trkpt>
      <trkpt lat="42.47736" lon="2.60451">
        <ele>707.72</ele>
        <time>2021-10-29T16:57:59Z</time>
      </trkpt>
      <trkpt lat="42.47707" lon="2.60467">
        <ele>703.73</ele>
        <time>2021-10-29T16:57:59Z</time>
      </trkpt>
      <trkpt lat="42.47693" lon="2.60524">
        <ele>692.88</ele>
        <time>2021-10-29T16:57:59Z</time>
      </trkpt>
      <trkpt lat="42.47685" lon="2.60548">
        <ele>685.22</ele>
        <time>2021-10-29T16:57:59Z</time>
      </trkpt>
      <trkpt lat="42.47679" lon="2.60576">
        <ele>677.89</ele>
        <time>2021-10-29T16:57:59Z</time>
      </trkpt>
      <trkpt lat="42.4766" lon="2.60606">
        <ele>669.26</ele>
        <time>2021-10-29T16:57:59Z</time>
      </trkpt>
      <trkpt lat="42.47652" lon="2.60617">
        <ele>666.19</ele>
        <time>2021-10-29T16:57:59Z</time>
      </trkpt>
      <trkpt lat="42.47575" lon="2.60684">
        <ele>646.67</ele>
        <time>2021-10-29T16:57:59Z</time>
      </trkpt>
      <trkpt lat="42.47561" lon="2.60716">
        <ele>646.75</ele>
        <time>2021-10-29T16:57:59Z</time>
      </trkpt>
      <trkpt lat="42.47551" lon="2.60747">
        <ele>645.3</ele>
        <time>2021-10-29T16:57:59Z</time>
      </trkpt>
      <trkpt lat="42.47544" lon="2.60767">
        <ele>643.68</ele>
        <time>2021-10-29T16:57:59Z</time>
      </trkpt>
      <trkpt lat="42.47538" lon="2.60815">
        <ele>644.9</ele>
        <time>2021-10-29T16:57:59Z</time>
      </trkpt>
      <trkpt lat="42.47528" lon="2.60834">
        <ele>642.77</ele>
        <time>2021-10-29T16:57:59Z</time>
      </trkpt>
      <trkpt lat="42.47503" lon="2.60839">
        <ele>633.1</ele>
        <time>2021-10-29T16:57:59Z</time>
      </trkpt>
      <trkpt lat="42.4749" lon="2.60844">
        <ele>629.6</ele>
        <time>2021-10-29T16:57:59Z</time>
      </trkpt>
      <trkpt lat="42.47469" lon="2.60861">
        <ele>625.82</ele>
        <time>2021-10-29T16:57:59Z</time>
      </trkpt>
      <trkpt lat="42.47451" lon="2.60892">
        <ele>622.46</ele>
        <time>2021-10-29T16:57:59Z</time>
      </trkpt>
      <trkpt lat="42.47427" lon="2.60936">
        <ele>619.01</ele>
        <time>2021-10-29T16:57:59Z</time>
      </trkpt>
      <trkpt lat="42.47413" lon="2.60968">
        <ele>615.32</ele>
        <time>2021-10-29T16:57:59Z</time>
      </trkpt>
      <trkpt lat="42.47395" lon="2.61008">
        <ele>612.86</ele>
        <time>2021-10-29T16:57:59Z</time>
      </trkpt>
      <trkpt lat="42.47376" lon="2.61044">
        <ele>608.53</ele>
        <time>2021-10-29T16:57:59Z</time>
      </trkpt>
      <trkpt lat="42.47361" lon="2.61074">
        <ele>604.86</ele>
        <time>2021-10-29T16:57:59Z</time>
      </trkpt>
      <trkpt lat="42.47342" lon="2.6111">
        <ele>600.47</ele>
        <time>2021-10-29T16:57:59Z</time>
      </trkpt>
      <trkpt lat="42.47323" lon="2.61143">
        <ele>597.23</ele>
        <time>2021-10-29T16:57:59Z</time>
      </trkpt>
      <trkpt lat="42.47304" lon="2.61166">
        <ele>594.18</ele>
        <time>2021-10-29T16:57:59Z</time>
      </trkpt>
      <trkpt lat="42.47283" lon="2.61191">
        <ele>590.29</ele>
        <time>2021-10-29T16:57:59Z</time>
      </trkpt>
      <trkpt lat="42.47255" lon="2.61231">
        <ele>584.4</ele>
        <time>2021-10-29T16:57:59Z</time>
      </trkpt>
      <trkpt lat="42.47245" lon="2.61248">
        <ele>582.57</ele>
        <time>2021-10-29T16:57:59Z</time>
      </trkpt>
      <trkpt lat="42.47232" lon="2.61257">
        <ele>581.26</ele>
        <time>2021-10-29T16:57:59Z</time>
      </trkpt>
      <trkpt lat="42.47221" lon="2.61257">
        <ele>580.05</ele>
        <time>2021-10-29T16:57:59Z</time>
      </trkpt>
      <trkpt lat="42.47205" lon="2.6126">
        <ele>579.52</ele>
        <time>2021-10-29T16:57:59Z</time>
      </trkpt>
      <trkpt lat="42.47186" lon="2.61269">
        <ele>576.73</ele>
        <time>2021-10-29T16:57:59Z</time>
      </trkpt>
      <trkpt lat="42.47178" lon="2.61282">
        <ele>577.27</ele>
        <time>2021-10-29T16:57:59Z</time>
      </trkpt>
      <trkpt lat="42.47168" lon="2.61313">
        <ele>573.28</ele>
        <time>2021-10-29T16:57:59Z</time>
      </trkpt>
      <trkpt lat="42.47157" lon="2.61329">
        <ele>567.63</ele>
        <time>2021-10-29T16:57:59Z</time>
      </trkpt>
      <trkpt lat="42.47124" lon="2.61364">
        <ele>556.78</ele>
        <time>2021-10-29T16:57:59Z</time>
      </trkpt>
      <trkpt lat="42.47108" lon="2.61407">
        <ele>547.86</ele>
        <time>2021-10-29T16:57:59Z</time>
      </trkpt>
      <trkpt lat="42.47092" lon="2.61449">
        <ele>537.53</ele>
        <time>2021-10-29T16:57:59Z</time>
      </trkpt>
      <trkpt lat="42.47081" lon="2.61479">
        <ele>528.93</ele>
        <time>2021-10-29T16:57:59Z</time>
      </trkpt>
      <trkpt lat="42.4707" lon="2.6151">
        <ele>520.86</ele>
        <time>2021-10-29T16:57:59Z</time>
      </trkpt>
      <trkpt lat="42.47044" lon="2.61547">
        <ele>513.05</ele>
        <time>2021-10-29T16:57:59Z</time>
      </trkpt>
      <trkpt lat="42.47036" lon="2.61573">
        <ele>509.66</ele>
        <time>2021-10-29T16:57:59Z</time>
      </trkpt>
      <trkpt lat="42.47017" lon="2.61582">
        <ele>501.29</ele>
        <time>2021-10-29T16:57:59Z</time>
      </trkpt>
      <trkpt lat="42.46994" lon="2.61614">
        <ele>494.9</ele>
        <time>2021-10-29T16:57:59Z</time>
      </trkpt>
      <trkpt lat="42.46975" lon="2.61642">
        <ele>493.3</ele>
        <time>2021-10-29T16:57:59Z</time>
      </trkpt>
      <trkpt lat="42.4695" lon="2.61678">
        <ele>491.82</ele>
        <time>2021-10-29T16:57:59Z</time>
      </trkpt>
      <trkpt lat="42.46922" lon="2.61707">
        <ele>493.68</ele>
        <time>2021-10-29T16:57:59Z</time>
      </trkpt>
      <trkpt lat="42.46902" lon="2.61743">
        <ele>493.72</ele>
        <time>2021-10-29T16:57:59Z</time>
      </trkpt>
      <trkpt lat="42.46882" lon="2.61778">
        <ele>493.55</ele>
        <time>2021-10-29T16:57:59Z</time>
      </trkpt>
      <trkpt lat="42.46861" lon="2.61815">
        <ele>491.84</ele>
        <time>2021-10-29T16:57:59Z</time>
      </trkpt>
      <trkpt lat="42.46836" lon="2.61843">
        <ele>488.99</ele>
        <time>2021-10-29T16:57:59Z</time>
      </trkpt>
      <trkpt lat="42.46815" lon="2.61867">
        <ele>486.71</ele>
        <time>2021-10-29T16:57:59Z</time>
      </trkpt>
      <trkpt lat="42.46789" lon="2.61897">
        <ele>483.85</ele>
        <time>2021-10-29T16:57:59Z</time>
      </trkpt>
      <trkpt lat="42.46769" lon="2.61922">
        <ele>483.61</ele>
        <time>2021-10-29T16:57:59Z</time>
      </trkpt>
      <trkpt lat="42.46744" lon="2.61953">
        <ele>484.16</ele>
        <time>2021-10-29T16:57:59Z</time>
      </trkpt>
      <trkpt lat="42.46721" lon="2.62004">
        <ele>484.71</ele>
        <time>2021-10-29T16:57:59Z</time>
      </trkpt>
      <trkpt lat="42.46705" lon="2.62033">
        <ele>485.73</ele>
        <time>2021-10-29T16:57:59Z</time>
      </trkpt>
      <trkpt lat="42.46687" lon="2.62066">
        <ele>487.58</ele>
        <time>2021-10-29T16:57:59Z</time>
      </trkpt>
      <trkpt lat="42.4668" lon="2.62101">
        <ele>484.95</ele>
        <time>2021-10-29T16:57:59Z</time>
      </trkpt>
      <trkpt lat="42.46672" lon="2.62144">
        <ele>481.14</ele>
        <time>2021-10-29T16:57:59Z</time>
      </trkpt>
      <trkpt lat="42.46654" lon="2.62184">
        <ele>484.12</ele>
        <time>2021-10-29T16:57:59Z</time>
      </trkpt>
      <trkpt lat="42.46651" lon="2.62218">
        <ele>480.15</ele>
        <time>2021-10-29T16:57:59Z</time>
      </trkpt>
      <trkpt lat="42.46648" lon="2.62253">
        <ele>476.84</ele>
        <time>2021-10-29T16:57:59Z</time>
      </trkpt>
      <trkpt lat="42.46647" lon="2.62315">
        <ele>471.64</ele>
        <time>2021-10-29T16:57:59Z</time>
      </trkpt>
      <trkpt lat="42.46639" lon="2.6235">
        <ele>471.11</ele>
        <time>2021-10-29T16:57:59Z</time>
      </trkpt>
      <trkpt lat="42.46629" lon="2.62391">
        <ele>470.96</ele>
        <time>2021-10-29T16:57:59Z</time>
      </trkpt>
      <trkpt lat="42.46611" lon="2.62446">
        <ele>470.07</ele>
        <time>2021-10-29T16:57:59Z</time>
      </trkpt>
      <trkpt lat="42.46595" lon="2.62442">
        <ele>469.03</ele>
        <time>2021-10-29T16:57:59Z</time>
      </trkpt>
      <trkpt lat="42.4658" lon="2.62435">
        <ele>466.44</ele>
        <time>2021-10-29T16:57:59Z</time>
      </trkpt>
      <trkpt lat="42.46556" lon="2.6246">
        <ele>459.46</ele>
        <time>2021-10-29T16:57:59Z</time>
      </trkpt>
      <trkpt lat="42.46534" lon="2.62485">
        <ele>456.41</ele>
        <time>2021-10-29T16:57:59Z</time>
      </trkpt>
      <trkpt lat="42.46505" lon="2.6252">
        <ele>449.31</ele>
        <time>2021-10-29T16:57:59Z</time>
      </trkpt>
      <trkpt lat="42.46464" lon="2.6255">
        <ele>443.23</ele>
        <time>2021-10-29T16:57:59Z</time>
      </trkpt>
      <trkpt lat="42.4644" lon="2.6257">
        <ele>438.38</ele>
        <time>2021-10-29T16:57:59Z</time>
      </trkpt>
      <trkpt lat="42.4644" lon="2.6259">
        <ele>444.01</ele>
        <time>2021-10-29T16:57:59Z</time>
      </trkpt>
      <trkpt lat="42.464" lon="2.62604">
        <ele>439.59</ele>
        <time>2021-10-29T16:57:59Z</time>
      </trkpt>
      <trkpt lat="42.4637" lon="2.62605">
        <ele>435.47</ele>
        <time>2021-10-29T16:57:59Z</time>
      </trkpt>
      <trkpt lat="42.46326" lon="2.62607">
        <ele>433.73</ele>
        <time>2021-10-29T16:57:59Z</time>
      </trkpt>
      <trkpt lat="42.46299" lon="2.62587">
        <ele>428.24</ele>
        <time>2021-10-29T16:57:59Z</time>
      </trkpt>
      <trkpt lat="42.46256" lon="2.62554">
        <ele>421.44</ele>
        <time>2021-10-29T16:57:59Z</time>
      </trkpt>
      <trkpt lat="42.46232" lon="2.62553">
        <ele>421.65</ele>
        <time>2021-10-29T16:57:59Z</time>
      </trkpt>
      <trkpt lat="42.4621" lon="2.6257">
        <ele>417.82</ele>
        <time>2021-10-29T16:57:59Z</time>
      </trkpt>
      <trkpt lat="42.46192" lon="2.62606">
        <ele>411.93</ele>
        <time>2021-10-29T16:57:59Z</time>
      </trkpt>
      <trkpt lat="42.4617" lon="2.62629">
        <ele>404.61</ele>
        <time>2021-10-29T16:57:59Z</time>
      </trkpt>
      <trkpt lat="42.46121" lon="2.62623">
        <ele>396.51</ele>
        <time>2021-10-29T16:57:59Z</time>
      </trkpt>
      <trkpt lat="42.46094" lon="2.6264">
        <ele>388.4</ele>
        <time>2021-10-29T16:57:59Z</time>
      </trkpt>
      <trkpt lat="42.46078" lon="2.62658">
        <ele>393.99</ele>
        <time>2021-10-29T16:57:59Z</time>
      </trkpt>
      <trkpt lat="42.46065" lon="2.62662">
        <ele>392.02</ele>
        <time>2021-10-29T16:57:59Z</time>
      </trkpt>
      <trkpt lat="42.46025" lon="2.62658">
        <ele>374.61</ele>
        <time>2021-10-29T16:57:59Z</time>
      </trkpt>
      <trkpt lat="42.45992" lon="2.62675">
        <ele>378.31</ele>
        <time>2021-10-29T16:57:59Z</time>
      </trkpt>
      <trkpt lat="42.45975" lon="2.62698">
        <ele>375.52</ele>
        <time>2021-10-29T16:57:59Z</time>
      </trkpt>
      <trkpt lat="42.45969" lon="2.62737">
        <ele>374.43</ele>
        <time>2021-10-29T16:57:59Z</time>
      </trkpt>
      <trkpt lat="42.45978" lon="2.6276">
        <ele>375.15</ele>
        <time>2021-10-29T16:57:59Z</time>
      </trkpt>
      <trkpt lat="42.45964" lon="2.62768">
        <ele>371.61</ele>
        <time>2021-10-29T16:57:59Z</time>
      </trkpt>
      <trkpt lat="42.4594" lon="2.6275">
        <ele>358.35</ele>
        <time>2021-10-29T16:57:59Z</time>
      </trkpt>
      <trkpt lat="42.45917" lon="2.62748">
        <ele>347.31</ele>
        <time>2021-10-29T16:57:59Z</time>
      </trkpt>
      <trkpt lat="42.45888" lon="2.62761">
        <ele>341.86</ele>
        <time>2021-10-29T16:57:59Z</time>
      </trkpt>
      <trkpt lat="42.4587" lon="2.62776">
        <ele>343.01</ele>
        <time>2021-10-29T16:57:59Z</time>
      </trkpt>
      <trkpt lat="42.45856" lon="2.62779">
        <ele>338.28</ele>
        <time>2021-10-29T16:57:59Z</time>
      </trkpt>
      <trkpt lat="42.45834" lon="2.62763">
        <ele>318.55</ele>
        <time>2021-10-29T16:57:59Z</time>
      </trkpt>
      <trkpt lat="42.4582" lon="2.62757">
        <ele>315.22</ele>
        <time>2021-10-29T16:57:59Z</time>
      </trkpt>
      <trkpt lat="42.45795" lon="2.6278">
        <ele>313.94</ele>
        <time>2021-10-29T16:57:59Z</time>
      </trkpt>
      <trkpt lat="42.45772" lon="2.62832">
        <ele>309.57</ele>
        <time>2021-10-29T16:57:59Z</time>
      </trkpt>
      <trkpt lat="42.45746" lon="2.62881">
        <ele>307.42</ele>
        <time>2021-10-29T16:57:59Z</time>
      </trkpt>
      <trkpt lat="42.45728" lon="2.62911">
        <ele>306.96</ele>
        <time>2021-10-29T16:57:59Z</time>
      </trkpt>
      <trkpt lat="42.45704" lon="2.62951">
        <ele>304.95</ele>
        <time>2021-10-29T16:57:59Z</time>
      </trkpt>
      <trkpt lat="42.45698" lon="2.62965">
        <ele>304.1</ele>
        <time>2021-10-29T16:57:59Z</time>
      </trkpt>
      <trkpt lat="42.45709" lon="2.62999">
        <ele>306.06</ele>
        <time>2021-10-29T16:57:59Z</time>
      </trkpt>
      <trkpt lat="42.45713" lon="2.63041">
        <ele>305.28</ele>
        <time>2021-10-29T16:57:59Z</time>
      </trkpt>
      <trkpt lat="42.4571" lon="2.63077">
        <ele>304.38</ele>
        <time>2021-10-29T16:57:59Z</time>
      </trkpt>
      <trkpt lat="42.45693" lon="2.63117">
        <ele>298.03</ele>
        <time>2021-10-29T16:57:59Z</time>
      </trkpt>
      <trkpt lat="42.45681" lon="2.63148">
        <ele>296.94</ele>
        <time>2021-10-29T16:57:59Z</time>
      </trkpt>
      <trkpt lat="42.45669" lon="2.63183">
        <ele>296.84</ele>
        <time>2021-10-29T16:57:59Z</time>
      </trkpt>
      <trkpt lat="42.45668" lon="2.63244">
        <ele>295.79</ele>
        <time>2021-10-29T16:57:59Z</time>
      </trkpt>
      <trkpt lat="42.45673" lon="2.6329">
        <ele>293.53</ele>
        <time>2021-10-29T16:57:59Z</time>
      </trkpt>
      <trkpt lat="42.45655" lon="2.63337">
        <ele>291.02</ele>
        <time>2021-10-29T16:57:59Z</time>
      </trkpt>
      <trkpt lat="42.45648" lon="2.63363">
        <ele>289.39</ele>
        <time>2021-10-29T16:57:59Z</time>
      </trkpt>
      <trkpt lat="42.45654" lon="2.63398">
        <ele>288.66</ele>
        <time>2021-10-29T16:57:59Z</time>
      </trkpt>
      <trkpt lat="42.45661" lon="2.63437">
        <ele>286.79</ele>
        <time>2021-10-29T16:57:59Z</time>
      </trkpt>
      <trkpt lat="42.45666" lon="2.63471">
        <ele>284.81</ele>
        <time>2021-10-29T16:57:59Z</time>
      </trkpt>
      <trkpt lat="42.45661" lon="2.63504">
        <ele>282.1</ele>
        <time>2021-10-29T16:57:59Z</time>
      </trkpt>
      <trkpt lat="42.4565" lon="2.63525">
        <ele>280.73</ele>
        <time>2021-10-29T16:57:59Z</time>
      </trkpt>
      <trkpt lat="42.45635" lon="2.63537">
        <ele>279.97</ele>
        <time>2021-10-29T16:57:59Z</time>
      </trkpt>
      <trkpt lat="42.45631" lon="2.6358">
        <ele>276.77</ele>
        <time>2021-10-29T16:57:59Z</time>
      </trkpt>
      <trkpt lat="42.45627" lon="2.63616">
        <ele>274.99</ele>
        <time>2021-10-29T16:57:59Z</time>
      </trkpt>
      <trkpt lat="42.45623" lon="2.63658">
        <ele>273.7</ele>
        <time>2021-10-29T16:57:59Z</time>
      </trkpt>
      <trkpt lat="42.45614" lon="2.63711">
        <ele>273.37</ele>
        <time>2021-10-29T16:57:59Z</time>
      </trkpt>
      <trkpt lat="42.4565" lon="2.63708">
        <ele>272.04</ele>
        <time>2021-10-29T16:57:59Z</time>
      </trkpt>
      <trkpt lat="42.45686" lon="2.63706">
        <ele>270.11</ele>
        <time>2021-10-29T16:57:59Z</time>
      </trkpt>
      <trkpt lat="42.45713" lon="2.63704">
        <ele>270.01</ele>
        <time>2021-10-29T16:57:59Z</time>
      </trkpt>
      <trkpt lat="42.45745" lon="2.63702">
        <ele>269.93</ele>
        <time>2021-10-29T16:57:59Z</time>
      </trkpt>
      <trkpt lat="42.45772" lon="2.63707">
        <ele>270.92</ele>
        <time>2021-10-29T16:57:59Z</time>
      </trkpt>
      <trkpt lat="42.45807" lon="2.63714">
        <ele>269.47</ele>
        <time>2021-10-29T16:57:59Z</time>
      </trkpt>
      <trkpt lat="42.45828" lon="2.63766">
        <ele>268.02</ele>
        <time>2021-10-29T16:57:59Z</time>
      </trkpt>
      <trkpt lat="42.45864" lon="2.63769">
        <ele>268.14</ele>
        <time>2021-10-29T16:57:59Z</time>
      </trkpt>
      <trkpt lat="42.45869" lon="2.63815">
        <ele>266.27</ele>
        <time>2021-10-29T16:57:59Z</time>
      </trkpt>
      <trkpt lat="42.45873" lon="2.63861">
        <ele>268.9</ele>
        <time>2021-10-29T16:57:59Z</time>
      </trkpt>
      <trkpt lat="42.45879" lon="2.63916">
        <ele>268.83</ele>
        <time>2021-10-29T16:57:59Z</time>
      </trkpt>
      <trkpt lat="42.45913" lon="2.63913">
        <ele>266.74</ele>
        <time>2021-10-29T16:57:59Z</time>
      </trkpt>
      <trkpt lat="42.45947" lon="2.63911">
        <ele>265.8</ele>
        <time>2021-10-29T16:57:59Z</time>
      </trkpt>
      <trkpt lat="42.45989" lon="2.63908">
        <ele>264.8</ele>
        <time>2021-10-29T16:57:59Z</time>
      </trkpt>
      <trkpt lat="42.46019" lon="2.63932">
        <ele>264.18</ele>
        <time>2021-10-29T16:57:59Z</time>
      </trkpt>
      <trkpt lat="42.4605" lon="2.63957">
        <ele>264.15</ele>
        <time>2021-10-29T16:57:59Z</time>
      </trkpt>
      <trkpt lat="42.46072" lon="2.63974">
        <ele>262.41</ele>
        <time>2021-10-29T16:57:59Z</time>
      </trkpt>
      <trkpt lat="42.46095" lon="2.63993">
        <ele>261.9</ele>
        <time>2021-10-29T16:57:59Z</time>
      </trkpt>
      <trkpt lat="42.46121" lon="2.64024">
        <ele>260.91</ele>
        <time>2021-10-29T16:57:59Z</time>
      </trkpt>
      <trkpt lat="42.46147" lon="2.64055">
        <ele>259.99</ele>
        <time>2021-10-29T16:57:59Z</time>
      </trkpt>
      <trkpt lat="42.46181" lon="2.64096">
        <ele>258.71</ele>
        <time>2021-10-29T16:57:59Z</time>
      </trkpt>
      <trkpt lat="42.46148" lon="2.64114">
        <ele>262.48</ele>
        <time>2021-10-29T16:57:59Z</time>
      </trkpt>
      <trkpt lat="42.46115" lon="2.64133">
        <ele>264.84</ele>
        <time>2021-10-29T16:57:59Z</time>
      </trkpt>
      <trkpt lat="42.46091" lon="2.64147">
        <ele>267.31</ele>
        <time>2021-10-29T16:57:59Z</time>
      </trkpt>
      <trkpt lat="42.46064" lon="2.64162">
        <ele>268.7</ele>
        <time>2021-10-29T16:57:59Z</time>
      </trkpt>
      <trkpt lat="42.46062" lon="2.64204">
        <ele>268.78</ele>
        <time>2021-10-29T16:57:59Z</time>
      </trkpt>
      <trkpt lat="42.4606" lon="2.64237">
        <ele>269.17</ele>
        <time>2021-10-29T16:57:59Z</time>
      </trkpt>
      <trkpt lat="42.46059" lon="2.64272">
        <ele>271.37</ele>
        <time>2021-10-29T16:57:59Z</time>
      </trkpt>
      <trkpt lat="42.46025" lon="2.64257">
        <ele>278.15</ele>
        <time>2021-10-29T16:57:59Z</time>
      </trkpt>
      <trkpt lat="42.45992" lon="2.64243">
        <ele>278.53</ele>
        <time>2021-10-29T16:57:59Z</time>
      </trkpt>
      <trkpt lat="42.45945" lon="2.64222">
        <ele>290.63</ele>
        <time>2021-10-29T16:57:59Z</time>
      </trkpt>
      <trkpt lat="42.45938" lon="2.64185">
        <ele>292.79</ele>
        <time>2021-10-29T16:57:59Z</time>
      </trkpt>
      <trkpt lat="42.45929" lon="2.64138">
        <ele>288.04</ele>
        <time>2021-10-29T16:57:59Z</time>
      </trkpt>
      <trkpt lat="42.45916" lon="2.64192">
        <ele>296.45</ele>
        <time>2021-10-29T16:57:59Z</time>
      </trkpt>
      <trkpt lat="42.45894" lon="2.64218">
        <ele>300.75</ele>
        <time>2021-10-29T16:57:59Z</time>
      </trkpt>
      <trkpt lat="42.45861" lon="2.64256">
        <ele>301.64</ele>
        <time>2021-10-29T16:57:59Z</time>
      </trkpt>
      <trkpt lat="42.45835" lon="2.64263">
        <ele>301.73</ele>
        <time>2021-10-29T16:57:59Z</time>
      </trkpt>
      <trkpt lat="42.45804" lon="2.64272">
        <ele>302.63</ele>
        <time>2021-10-29T16:57:59Z</time>
      </trkpt>
      <trkpt lat="42.45782" lon="2.64307">
        <ele>304.38</ele>
        <time>2021-10-29T16:57:59Z</time>
      </trkpt>
      <trkpt lat="42.45774" lon="2.64269">
        <ele>309.15</ele>
        <time>2021-10-29T16:57:59Z</time>
      </trkpt>
      <trkpt lat="42.45763" lon="2.64213">
        <ele>308.32</ele>
        <time>2021-10-29T16:57:59Z</time>
      </trkpt>
      <trkpt lat="42.45718" lon="2.64231">
        <ele>311.84</ele>
        <time>2021-10-29T16:57:59Z</time>
      </trkpt>
      <trkpt lat="42.45712" lon="2.64272">
        <ele>320.1</ele>
        <time>2021-10-29T16:57:59Z</time>
      </trkpt>
      <trkpt lat="42.45707" lon="2.64306">
        <ele>322.13</ele>
        <time>2021-10-29T16:57:59Z</time>
      </trkpt>
      <trkpt lat="42.45702" lon="2.64341">
        <ele>322.99</ele>
        <time>2021-10-29T16:57:59Z</time>
      </trkpt>
      <trkpt lat="42.45671" lon="2.64321">
        <ele>328.91</ele>
        <time>2021-10-29T16:57:59Z</time>
      </trkpt>
      <trkpt lat="42.4564" lon="2.64302">
        <ele>332.65</ele>
        <time>2021-10-29T16:57:59Z</time>
      </trkpt>
      <trkpt lat="42.45603" lon="2.64278">
        <ele>331.3</ele>
        <time>2021-10-29T16:57:59Z</time>
      </trkpt>
      <trkpt lat="42.45578" lon="2.64286">
        <ele>335.21</ele>
        <time>2021-10-29T16:57:59Z</time>
      </trkpt>
      <trkpt lat="42.45551" lon="2.64295">
        <ele>335.06</ele>
        <time>2021-10-29T16:57:59Z</time>
      </trkpt>
      <trkpt lat="42.4551" lon="2.64308">
        <ele>340.88</ele>
        <time>2021-10-29T16:57:59Z</time>
      </trkpt>
      <trkpt lat="42.45481" lon="2.64304">
        <ele>345.4</ele>
        <time>2021-10-29T16:57:59Z</time>
      </trkpt>
      <trkpt lat="42.45472" lon="2.64329">
        <ele>353.92</ele>
        <time>2021-10-29T16:57:59Z</time>
      </trkpt>
      <trkpt lat="42.45482" lon="2.64382">
        <ele>355.9</ele>
        <time>2021-10-29T16:57:59Z</time>
      </trkpt>
      <trkpt lat="42.45475" lon="2.64417">
        <ele>359.67</ele>
        <time>2021-10-29T16:57:59Z</time>
      </trkpt>
      <trkpt lat="42.45466" lon="2.64459">
        <ele>363.94</ele>
        <time>2021-10-29T16:57:59Z</time>
      </trkpt>
      <trkpt lat="42.45458" lon="2.64409">
        <ele>363.72</ele>
        <time>2021-10-29T16:57:59Z</time>
      </trkpt>
      <trkpt lat="42.45446" lon="2.64432">
        <ele>367.35</ele>
        <time>2021-10-29T16:57:59Z</time>
      </trkpt>
      <trkpt lat="42.45434" lon="2.64411">
        <ele>369.48</ele>
        <time>2021-10-29T16:57:59Z</time>
      </trkpt>
      <trkpt lat="42.45427" lon="2.64438">
        <ele>373.08</ele>
        <time>2021-10-29T16:57:59Z</time>
      </trkpt>
      <trkpt lat="42.45418" lon="2.64434">
        <ele>375.79</ele>
        <time>2021-10-29T16:57:59Z</time>
      </trkpt>
      <trkpt lat="42.45412" lon="2.64425">
        <ele>377.2</ele>
        <time>2021-10-29T16:57:59Z</time>
      </trkpt>
      <trkpt lat="42.45398" lon="2.64474">
        <ele>383.78</ele>
        <time>2021-10-29T16:57:59Z</time>
      </trkpt>
      <trkpt lat="42.45381" lon="2.64499">
        <ele>389.58</ele>
        <time>2021-10-29T16:57:59Z</time>
      </trkpt>
      <trkpt lat="42.45355" lon="2.64498">
        <ele>397.9</ele>
        <time>2021-10-29T16:57:59Z</time>
      </trkpt>
      <trkpt lat="42.4533" lon="2.64535">
        <ele>407.98</ele>
        <time>2021-10-29T16:57:59Z</time>
      </trkpt>
      <trkpt lat="42.45309" lon="2.64531">
        <ele>413.9</ele>
        <time>2021-10-29T16:57:59Z</time>
      </trkpt>
      <trkpt lat="42.45301" lon="2.6454">
        <ele>417.06</ele>
        <time>2021-10-29T16:57:59Z</time>
      </trkpt>
      <trkpt lat="42.45285" lon="2.64537">
        <ele>421.29</ele>
        <time>2021-10-29T16:57:59Z</time>
      </trkpt>
      <trkpt lat="42.45259" lon="2.64557">
        <ele>432.87</ele>
        <time>2021-10-29T16:57:59Z</time>
      </trkpt>
      <trkpt lat="42.45261" lon="2.64581">
        <ele>437.15</ele>
        <time>2021-10-29T16:57:59Z</time>
      </trkpt>
      <trkpt lat="42.45249" lon="2.64587">
        <ele>442.65</ele>
        <time>2021-10-29T16:57:59Z</time>
      </trkpt>
      <trkpt lat="42.45246" lon="2.64612">
        <ele>449.28</ele>
        <time>2021-10-29T16:57:59Z</time>
      </trkpt>
      <trkpt lat="42.45221" lon="2.6461">
        <ele>457.32</ele>
        <time>2021-10-29T16:57:59Z</time>
      </trkpt>
      <trkpt lat="42.4522" lon="2.6466">
        <ele>469.23</ele>
        <time>2021-10-29T16:57:59Z</time>
      </trkpt>
      <trkpt lat="42.45205" lon="2.6466">
        <ele>474.78</ele>
        <time>2021-10-29T16:57:59Z</time>
      </trkpt>
      <trkpt lat="42.45209" lon="2.64685">
        <ele>478.64</ele>
        <time>2021-10-29T16:57:59Z</time>
      </trkpt>
      <trkpt lat="42.45197" lon="2.64691">
        <ele>484.44</ele>
        <time>2021-10-29T16:57:59Z</time>
      </trkpt>
      <trkpt lat="42.45201" lon="2.64715">
        <ele>486.65</ele>
        <time>2021-10-29T16:57:59Z</time>
      </trkpt>
      <trkpt lat="42.45167" lon="2.64723">
        <ele>501.54</ele>
        <time>2021-10-29T16:57:59Z</time>
      </trkpt>
      <trkpt lat="42.45167" lon="2.64736">
        <ele>503.13</ele>
        <time>2021-10-29T16:57:59Z</time>
      </trkpt>
      <trkpt lat="42.45156" lon="2.64731">
        <ele>507.5</ele>
        <time>2021-10-29T16:57:59Z</time>
      </trkpt>
      <trkpt lat="42.45154" lon="2.64753">
        <ele>511.4</ele>
        <time>2021-10-29T16:57:59Z</time>
      </trkpt>
      <trkpt lat="42.45135" lon="2.64725">
        <ele>516.09</ele>
        <time>2021-10-29T16:57:59Z</time>
      </trkpt>
      <trkpt lat="42.4513" lon="2.64753">
        <ele>522.83</ele>
        <time>2021-10-29T16:57:59Z</time>
      </trkpt>
      <trkpt lat="42.45112" lon="2.64723">
        <ele>525.92</ele>
        <time>2021-10-29T16:57:59Z</time>
      </trkpt>
      <trkpt lat="42.45111" lon="2.64751">
        <ele>531.54</ele>
        <time>2021-10-29T16:57:59Z</time>
      </trkpt>
      <trkpt lat="42.45087" lon="2.64749">
        <ele>542.53</ele>
        <time>2021-10-29T16:57:59Z</time>
      </trkpt>
      <trkpt lat="42.45088" lon="2.64772">
        <ele>547.03</ele>
        <time>2021-10-29T16:57:59Z</time>
      </trkpt>
      <trkpt lat="42.45068" lon="2.64758">
        <ele>553.84</ele>
        <time>2021-10-29T16:57:59Z</time>
      </trkpt>
      <trkpt lat="42.4507" lon="2.64779">
        <ele>557.19</ele>
        <time>2021-10-29T16:57:59Z</time>
      </trkpt>
      <trkpt lat="42.45055" lon="2.6477">
        <ele>563.56</ele>
        <time>2021-10-29T16:57:59Z</time>
      </trkpt>
      <trkpt lat="42.45053" lon="2.64795">
        <ele>568.79</ele>
        <time>2021-10-29T16:57:59Z</time>
      </trkpt>
      <trkpt lat="42.45034" lon="2.64787">
        <ele>576.53</ele>
        <time>2021-10-29T16:57:59Z</time>
      </trkpt>
      <trkpt lat="42.45041" lon="2.64814">
        <ele>578.3</ele>
        <time>2021-10-29T16:57:59Z</time>
      </trkpt>
      <trkpt lat="42.45009" lon="2.64807">
        <ele>592.48</ele>
        <time>2021-10-29T16:57:59Z</time>
      </trkpt>
      <trkpt lat="42.45004" lon="2.64844">
        <ele>602.28</ele>
        <time>2021-10-29T16:57:59Z</time>
      </trkpt>
      <trkpt lat="42.45001" lon="2.64861">
        <ele>603.79</ele>
        <time>2021-10-29T16:57:59Z</time>
      </trkpt>
      <trkpt lat="42.44992" lon="2.64882">
        <ele>609.29</ele>
        <time>2021-10-29T16:57:59Z</time>
      </trkpt>
      <trkpt lat="42.44975" lon="2.64897">
        <ele>620.34</ele>
        <time>2021-10-29T16:57:59Z</time>
      </trkpt>
      <trkpt lat="42.44973" lon="2.64858">
        <ele>619.34</ele>
        <time>2021-10-29T16:57:59Z</time>
      </trkpt>
      <trkpt lat="42.44949" lon="2.64813">
        <ele>622.11</ele>
        <time>2021-10-29T16:57:59Z</time>
      </trkpt>
      <trkpt lat="42.44936" lon="2.64829">
        <ele>632.94</ele>
        <time>2021-10-29T16:57:59Z</time>
      </trkpt>
      <trkpt lat="42.44911" lon="2.64814">
        <ele>639.67</ele>
        <time>2021-10-29T16:57:59Z</time>
      </trkpt>
      <trkpt lat="42.44904" lon="2.64846">
        <ele>652.96</ele>
        <time>2021-10-29T16:57:59Z</time>
      </trkpt>
      <trkpt lat="42.44917" lon="2.64876">
        <ele>650.75</ele>
        <time>2021-10-29T16:57:59Z</time>
      </trkpt>
      <trkpt lat="42.44904" lon="2.64902">
        <ele>661.85</ele>
        <time>2021-10-29T16:57:59Z</time>
      </trkpt>
      <trkpt lat="42.44873" lon="2.64948">
        <ele>673.63</ele>
        <time>2021-10-29T16:57:59Z</time>
      </trkpt>
      <trkpt lat="42.44862" lon="2.64942">
        <ele>680.6</ele>
        <time>2021-10-29T16:57:59Z</time>
      </trkpt>
      <trkpt lat="42.44848" lon="2.64931">
        <ele>689.64</ele>
        <time>2021-10-29T16:57:59Z</time>
      </trkpt>
      <trkpt lat="42.44822" lon="2.64928">
        <ele>705.25</ele>
        <time>2021-10-29T16:57:59Z</time>
      </trkpt>
      <trkpt lat="42.44797" lon="2.64949">
        <ele>718.92</ele>
        <time>2021-10-29T16:57:59Z</time>
      </trkpt>
      <trkpt lat="42.44788" lon="2.64966">
        <ele>723.53</ele>
        <time>2021-10-29T16:57:59Z</time>
      </trkpt>
      <trkpt lat="42.44786" lon="2.6499">
        <ele>723.37</ele>
        <time>2021-10-29T16:57:59Z</time>
      </trkpt>
      <trkpt lat="42.44785" lon="2.65007">
        <ele>722.94</ele>
        <time>2021-10-29T16:57:59Z</time>
      </trkpt>
      <trkpt lat="42.44768" lon="2.64996">
        <ele>734.79</ele>
        <time>2021-10-29T16:57:59Z</time>
      </trkpt>
      <trkpt lat="42.44767" lon="2.65043">
        <ele>732.73</ele>
        <time>2021-10-29T16:57:59Z</time>
      </trkpt>
      <trkpt lat="42.44752" lon="2.65033">
        <ele>743.36</ele>
        <time>2021-10-29T16:57:59Z</time>
      </trkpt>
      <trkpt lat="42.44754" lon="2.65089">
        <ele>737.83</ele>
        <time>2021-10-29T16:57:59Z</time>
      </trkpt>
      <trkpt lat="42.44742" lon="2.65074">
        <ele>746.69</ele>
        <time>2021-10-29T16:57:59Z</time>
      </trkpt>
      <trkpt lat="42.44741" lon="2.65102">
        <ele>744.73</ele>
        <time>2021-10-29T16:57:59Z</time>
      </trkpt>
      <trkpt lat="42.44726" lon="2.65087">
        <ele>755.51</ele>
        <time>2021-10-29T16:57:59Z</time>
      </trkpt>
      <trkpt lat="42.44711" lon="2.65116">
        <ele>761.28</ele>
        <time>2021-10-29T16:57:59Z</time>
      </trkpt>
      <trkpt lat="42.44684" lon="2.65131">
        <ele>775.35</ele>
        <time>2021-10-29T16:57:59Z</time>
      </trkpt>
      <trkpt lat="42.44645" lon="2.65152">
        <ele>795.62</ele>
        <time>2021-10-29T16:57:59Z</time>
      </trkpt>
      <trkpt lat="42.44661" lon="2.65166">
        <ele>784.67</ele>
        <time>2021-10-29T16:57:59Z</time>
      </trkpt>
      <trkpt lat="42.4466" lon="2.65201">
        <ele>782.34</ele>
        <time>2021-10-29T16:57:59Z</time>
      </trkpt>
      <trkpt lat="42.44661" lon="2.65233">
        <ele>780.02</ele>
        <time>2021-10-29T16:57:59Z</time>
      </trkpt>
      <trkpt lat="42.44643" lon="2.65273">
        <ele>787.96</ele>
        <time>2021-10-29T16:57:59Z</time>
      </trkpt>
      <trkpt lat="42.4462" lon="2.65303">
        <ele>796.14</ele>
        <time>2021-10-29T16:57:59Z</time>
      </trkpt>
      <trkpt lat="42.44601" lon="2.65328">
        <ele>799.99</ele>
        <time>2021-10-29T16:57:59Z</time>
      </trkpt>
      <trkpt lat="42.44579" lon="2.65356">
        <ele>803.08</ele>
        <time>2021-10-29T16:57:59Z</time>
      </trkpt>
      <trkpt lat="42.44563" lon="2.65362">
        <ele>806.67</ele>
        <time>2021-10-29T16:57:59Z</time>
      </trkpt>
      <trkpt lat="42.44485" lon="2.65353">
        <ele>817.01</ele>
        <time>2021-10-29T16:57:59Z</time>
      </trkpt>
      <trkpt lat="42.44454" lon="2.65356">
        <ele>824.72</ele>
        <time>2021-10-29T16:57:59Z</time>
      </trkpt>
      <trkpt lat="42.44447" lon="2.65389">
        <ele>825.72</ele>
        <time>2021-10-29T16:57:59Z</time>
      </trkpt>
      <trkpt lat="42.4444" lon="2.65424">
        <ele>826.17</ele>
        <time>2021-10-29T16:57:59Z</time>
      </trkpt>
      <trkpt lat="42.4444" lon="2.6544">
        <ele>826.64</ele>
        <time>2021-10-29T16:57:59Z</time>
      </trkpt>
      <trkpt lat="42.44425" lon="2.65472">
        <ele>833.33</ele>
        <time>2021-10-29T16:57:59Z</time>
      </trkpt>
      <trkpt lat="42.44424" lon="2.65486">
        <ele>831.48</ele>
        <time>2021-10-29T16:57:59Z</time>
      </trkpt>
      <trkpt lat="42.44417" lon="2.655">
        <ele>831.81</ele>
        <time>2021-10-29T16:57:59Z</time>
      </trkpt>
      <trkpt lat="42.44406" lon="2.65486">
        <ele>837.57</ele>
        <time>2021-10-29T16:57:59Z</time>
      </trkpt>
      <trkpt lat="42.44312" lon="2.65522">
        <ele>857.43</ele>
        <time>2021-10-29T16:57:59Z</time>
      </trkpt>
      <trkpt lat="42.44286" lon="2.65524">
        <ele>865.76</ele>
        <time>2021-10-29T16:57:59Z</time>
      </trkpt>
      <trkpt lat="42.44258" lon="2.65532">
        <ele>870.45</ele>
        <time>2021-10-29T16:57:59Z</time>
      </trkpt>
      <trkpt lat="42.44234" lon="2.65562">
        <ele>881.22</ele>
        <time>2021-10-29T16:57:59Z</time>
      </trkpt>
      <trkpt lat="42.44223" lon="2.65618">
        <ele>888.88</ele>
        <time>2021-10-29T16:57:59Z</time>
      </trkpt>
      <trkpt lat="42.44216" lon="2.65659">
        <ele>896.2</ele>
        <time>2021-10-29T16:57:59Z</time>
      </trkpt>
      <trkpt lat="42.44208" lon="2.65702">
        <ele>901.48</ele>
        <time>2021-10-29T16:57:59Z</time>
      </trkpt>
      <trkpt lat="42.44186" lon="2.65719">
        <ele>900.98</ele>
        <time>2021-10-29T16:57:59Z</time>
      </trkpt>
      <trkpt lat="42.44147" lon="2.65726">
        <ele>894.48</ele>
        <time>2021-10-29T16:57:59Z</time>
      </trkpt>
      <trkpt lat="42.44101" lon="2.65718">
        <ele>892.27</ele>
        <time>2021-10-29T16:57:59Z</time>
      </trkpt>
      <trkpt lat="42.4407" lon="2.65724">
        <ele>892.17</ele>
        <time>2021-10-29T16:57:59Z</time>
      </trkpt>
      <trkpt lat="42.44026" lon="2.6575">
        <ele>880.93</ele>
        <time>2021-10-29T16:57:59Z</time>
      </trkpt>
      <trkpt lat="42.44002" lon="2.65775">
        <ele>880.4</ele>
        <time>2021-10-29T16:57:59Z</time>
      </trkpt>
      <trkpt lat="42.43966" lon="2.65815">
        <ele>878.95</ele>
        <time>2021-10-29T16:57:59Z</time>
      </trkpt>
      <trkpt lat="42.43939" lon="2.65828">
        <ele>874.36</ele>
        <time>2021-10-29T16:57:59Z</time>
      </trkpt>
      <trkpt lat="42.43922" lon="2.65829">
        <ele>872.33</ele>
        <time>2021-10-29T16:57:59Z</time>
      </trkpt>
      <trkpt lat="42.43891" lon="2.65782">
        <ele>881.65</ele>
        <time>2021-10-29T16:57:59Z</time>
      </trkpt>
      <trkpt lat="42.43875" lon="2.6578">
        <ele>881.35</ele>
        <time>2021-10-29T16:57:59Z</time>
      </trkpt>
      <trkpt lat="42.43843" lon="2.65795">
        <ele>877.68</ele>
        <time>2021-10-29T16:57:59Z</time>
      </trkpt>
      <trkpt lat="42.43822" lon="2.65795">
        <ele>877.68</ele>
        <time>2021-10-29T16:57:59Z</time>
      </trkpt>
      <trkpt lat="42.43805" lon="2.65787">
        <ele>877.31</ele>
        <time>2021-10-29T16:57:59Z</time>
      </trkpt>
      <trkpt lat="42.43778" lon="2.65786">
        <ele>868.22</ele>
        <time>2021-10-29T16:57:59Z</time>
      </trkpt>
      <trkpt lat="42.43751" lon="2.65803">
        <ele>874.15</ele>
        <time>2021-10-29T16:57:59Z</time>
      </trkpt>
      <trkpt lat="42.43734" lon="2.65801">
        <ele>880.49</ele>
        <time>2021-10-29T16:57:59Z</time>
      </trkpt>
      <trkpt lat="42.437" lon="2.6582">
        <ele>882.15</ele>
        <time>2021-10-29T16:57:59Z</time>
      </trkpt>
      <trkpt lat="42.43669" lon="2.6585">
        <ele>884.18</ele>
        <time>2021-10-29T16:57:59Z</time>
      </trkpt>
      <trkpt lat="42.43655" lon="2.65894">
        <ele>868.61</ele>
        <time>2021-10-29T16:57:59Z</time>
      </trkpt>
      <trkpt lat="42.43648" lon="2.65909">
        <ele>862.3</ele>
        <time>2021-10-29T16:57:59Z</time>
      </trkpt>
      <trkpt lat="42.43587" lon="2.65942">
        <ele>867.62</ele>
        <time>2021-10-29T16:57:59Z</time>
      </trkpt>
      <trkpt lat="42.43577" lon="2.65963">
        <ele>869.86</ele>
        <time>2021-10-29T16:57:59Z</time>
      </trkpt>
      <trkpt lat="42.43579" lon="2.65985">
        <ele>870.84</ele>
        <time>2021-10-29T16:57:59Z</time>
      </trkpt>
      <trkpt lat="42.43588" lon="2.66021">
        <ele>872.61</ele>
        <time>2021-10-29T16:57:59Z</time>
      </trkpt>
      <trkpt lat="42.43605" lon="2.66045">
        <ele>872.5</ele>
        <time>2021-10-29T16:57:59Z</time>
      </trkpt>
      <trkpt lat="42.43628" lon="2.66062">
        <ele>869.54</ele>
        <time>2021-10-29T16:57:59Z</time>
      </trkpt>
      <trkpt lat="42.43654" lon="2.66081">
        <ele>868.73</ele>
        <time>2021-10-29T16:57:59Z</time>
      </trkpt>
      <trkpt lat="42.43671" lon="2.66102">
        <ele>868.32</ele>
        <time>2021-10-29T16:57:59Z</time>
      </trkpt>
      <trkpt lat="42.43678" lon="2.66149">
        <ele>864.04</ele>
        <time>2021-10-29T16:57:59Z</time>
      </trkpt>
      <trkpt lat="42.4368" lon="2.6617">
        <ele>862.04</ele>
        <time>2021-10-29T16:57:59Z</time>
      </trkpt>
      <trkpt lat="42.43675" lon="2.66217">
        <ele>860.29</ele>
        <time>2021-10-29T16:57:59Z</time>
      </trkpt>
      <trkpt lat="42.43653" lon="2.66218">
        <ele>861.09</ele>
        <time>2021-10-29T16:57:59Z</time>
      </trkpt>
      <trkpt lat="42.43623" lon="2.66209">
        <ele>863.9</ele>
        <time>2021-10-29T16:57:59Z</time>
      </trkpt>
      <trkpt lat="42.43587" lon="2.66216">
        <ele>864.83</ele>
        <time>2021-10-29T16:57:59Z</time>
      </trkpt>
      <trkpt lat="42.4356" lon="2.66212">
        <ele>865.86</ele>
        <time>2021-10-29T16:57:59Z</time>
      </trkpt>
      <trkpt lat="42.43529" lon="2.66207">
        <ele>865.27</ele>
        <time>2021-10-29T16:57:59Z</time>
      </trkpt>
      <trkpt lat="42.43499" lon="2.66221">
        <ele>862.27</ele>
        <time>2021-10-29T16:57:59Z</time>
      </trkpt>
      <trkpt lat="42.43473" lon="2.66217">
        <ele>867.96</ele>
        <time>2021-10-29T16:57:59Z</time>
      </trkpt>
      <trkpt lat="42.43458" lon="2.66233">
        <ele>873.99</ele>
        <time>2021-10-29T16:57:59Z</time>
      </trkpt>
      <trkpt lat="42.43465" lon="2.66339">
        <ele>865.19</ele>
        <time>2021-10-29T16:57:59Z</time>
      </trkpt>
      <trkpt lat="42.43458" lon="2.66362">
        <ele>864.63</ele>
        <time>2021-10-29T16:57:59Z</time>
      </trkpt>
      <trkpt lat="42.43438" lon="2.66386">
        <ele>863.19</ele>
        <time>2021-10-29T16:57:59Z</time>
      </trkpt>
      <trkpt lat="42.43412" lon="2.66396">
        <ele>864.72</ele>
        <time>2021-10-29T16:57:59Z</time>
      </trkpt>
      <trkpt lat="42.43393" lon="2.66436">
        <ele>860.84</ele>
        <time>2021-10-29T16:57:59Z</time>
      </trkpt>
      <trkpt lat="42.43385" lon="2.6647">
        <ele>857.78</ele>
        <time>2021-10-29T16:57:59Z</time>
      </trkpt>
      <trkpt lat="42.4338" lon="2.66536">
        <ele>845.17</ele>
        <time>2021-10-29T16:57:59Z</time>
      </trkpt>
      <trkpt lat="42.43384" lon="2.66564">
        <ele>839.72</ele>
        <time>2021-10-29T16:57:59Z</time>
      </trkpt>
      <trkpt lat="42.43414" lon="2.66568">
        <ele>843.05</ele>
        <time>2021-10-29T16:57:59Z</time>
      </trkpt>
      <trkpt lat="42.43425" lon="2.66559">
        <ele>844.92</ele>
        <time>2021-10-29T16:57:59Z</time>
      </trkpt>
      <trkpt lat="42.43495" lon="2.66738">
        <ele>824.46</ele>
        <time>2021-10-29T16:57:59Z</time>
      </trkpt>
      <trkpt lat="42.43484" lon="2.66743">
        <ele>821.96</ele>
        <time>2021-10-29T16:57:59Z</time>
      </trkpt>
      <trkpt lat="42.43449" lon="2.66742">
        <ele>815.35</ele>
        <time>2021-10-29T16:57:59Z</time>
      </trkpt>
      <trkpt lat="42.43428" lon="2.66766">
        <ele>801.7</ele>
        <time>2021-10-29T16:57:59Z</time>
      </trkpt>
      <trkpt lat="42.43404" lon="2.66794">
        <ele>787.11</ele>
        <time>2021-10-29T16:57:59Z</time>
      </trkpt>
      <trkpt lat="42.43369" lon="2.66803">
        <ele>776.88</ele>
        <time>2021-10-29T16:57:59Z</time>
      </trkpt>
      <trkpt lat="42.43368" lon="2.66827">
        <ele>765.58</ele>
        <time>2021-10-29T16:57:59Z</time>
      </trkpt>
      <trkpt lat="42.4339" lon="2.66852">
        <ele>755.33</ele>
        <time>2021-10-29T16:57:59Z</time>
      </trkpt>
      <trkpt lat="42.43393" lon="2.66883">
        <ele>736.44</ele>
        <time>2021-10-29T16:57:59Z</time>
      </trkpt>
      <trkpt lat="42.43371" lon="2.66912">
        <ele>721.65</ele>
        <time>2021-10-29T16:57:59Z</time>
      </trkpt>
      <trkpt lat="42.43353" lon="2.66936">
        <ele>708.28</ele>
        <time>2021-10-29T16:57:59Z</time>
      </trkpt>
      <trkpt lat="42.43335" lon="2.6696">
        <ele>696.37</ele>
        <time>2021-10-29T16:57:59Z</time>
      </trkpt>
      <trkpt lat="42.43303" lon="2.66974">
        <ele>689.32</ele>
        <time>2021-10-29T16:57:59Z</time>
      </trkpt>
      <trkpt lat="42.43275" lon="2.6697">
        <ele>689.21</ele>
        <time>2021-10-29T16:57:59Z</time>
      </trkpt>
      <trkpt lat="42.43262" lon="2.66961">
        <ele>691.21</ele>
        <time>2021-10-29T16:57:59Z</time>
      </trkpt>
      <trkpt lat="42.43231" lon="2.66957">
        <ele>685.66</ele>
        <time>2021-10-29T16:57:59Z</time>
      </trkpt>
      <trkpt lat="42.43203" lon="2.66974">
        <ele>675.58</ele>
        <time>2021-10-29T16:57:59Z</time>
      </trkpt>
      <trkpt lat="42.43179" lon="2.66988">
        <ele>671.17</ele>
        <time>2021-10-29T16:57:59Z</time>
      </trkpt>
      <trkpt lat="42.43155" lon="2.67003">
        <ele>670.92</ele>
        <time>2021-10-29T16:57:59Z</time>
      </trkpt>
      <trkpt lat="42.43135" lon="2.66999">
        <ele>673.82</ele>
        <time>2021-10-29T16:57:59Z</time>
      </trkpt>
      <trkpt lat="42.4312" lon="2.66971">
        <ele>679.66</ele>
        <time>2021-10-29T16:57:59Z</time>
      </trkpt>
      <trkpt lat="42.43117" lon="2.66959">
        <ele>682.52</ele>
        <time>2021-10-29T16:57:59Z</time>
      </trkpt>
      <trkpt lat="42.43087" lon="2.66955">
        <ele>693.27</ele>
        <time>2021-10-29T16:57:59Z</time>
      </trkpt>
      <trkpt lat="42.43078" lon="2.66981">
        <ele>692.97</ele>
        <time>2021-10-29T16:57:59Z</time>
      </trkpt>
      <trkpt lat="42.4308" lon="2.67032">
        <ele>688.08</ele>
        <time>2021-10-29T16:57:59Z</time>
      </trkpt>
      <trkpt lat="42.43087" lon="2.67059">
        <ele>683.15</ele>
        <time>2021-10-29T16:57:59Z</time>
      </trkpt>
      <trkpt lat="42.43097" lon="2.67085">
        <ele>677.4</ele>
        <time>2021-10-29T16:57:59Z</time>
      </trkpt>
      <trkpt lat="42.43088" lon="2.67108">
        <ele>678.05</ele>
        <time>2021-10-29T16:57:59Z</time>
      </trkpt>
      <trkpt lat="42.4305" lon="2.67122">
        <ele>686.07</ele>
        <time>2021-10-29T16:57:59Z</time>
      </trkpt>
      <trkpt lat="42.4302" lon="2.67119">
        <ele>694.26</ele>
        <time>2021-10-29T16:57:59Z</time>
      </trkpt>
      <trkpt lat="42.42977" lon="2.67114">
        <ele>707.99</ele>
        <time>2021-10-29T16:57:59Z</time>
      </trkpt>
      <trkpt lat="42.42965" lon="2.67133">
        <ele>706.2</ele>
        <time>2021-10-29T16:57:59Z</time>
      </trkpt>
      <trkpt lat="42.42942" lon="2.67187">
        <ele>699.61</ele>
        <time>2021-10-29T16:57:59Z</time>
      </trkpt>
      <trkpt lat="42.42933" lon="2.67222">
        <ele>693.32</ele>
        <time>2021-10-29T16:57:59Z</time>
      </trkpt>
      <trkpt lat="42.42909" lon="2.67248">
        <ele>700.59</ele>
        <time>2021-10-29T16:57:59Z</time>
      </trkpt>
      <trkpt lat="42.42899" lon="2.67279">
        <ele>701.86</ele>
        <time>2021-10-29T16:57:59Z</time>
      </trkpt>
      <trkpt lat="42.42889" lon="2.67311">
        <ele>703.08</ele>
        <time>2021-10-29T16:57:59Z</time>
      </trkpt>
      <trkpt lat="42.42884" lon="2.67347">
        <ele>705.02</ele>
        <time>2021-10-29T16:57:59Z</time>
      </trkpt>
      <trkpt lat="42.42879" lon="2.67389">
        <ele>706.77</ele>
        <time>2021-10-29T16:57:59Z</time>
      </trkpt>
      <trkpt lat="42.42886" lon="2.67424">
        <ele>702.59</ele>
        <time>2021-10-29T16:57:59Z</time>
      </trkpt>
      <trkpt lat="42.42914" lon="2.67448">
        <ele>688.08</ele>
        <time>2021-10-29T16:57:59Z</time>
      </trkpt>
      <trkpt lat="42.42943" lon="2.67473">
        <ele>678.22</ele>
        <time>2021-10-29T16:57:59Z</time>
      </trkpt>
      <trkpt lat="42.42974" lon="2.675">
        <ele>669.37</ele>
        <time>2021-10-29T16:57:59Z</time>
      </trkpt>
      <trkpt lat="42.42985" lon="2.67531">
        <ele>666.92</ele>
        <time>2021-10-29T16:57:59Z</time>
      </trkpt>
      <trkpt lat="42.42996" lon="2.67562">
        <ele>661.67</ele>
        <time>2021-10-29T16:57:59Z</time>
      </trkpt>
      <trkpt lat="42.42966" lon="2.67607">
        <ele>660.37</ele>
        <time>2021-10-29T16:57:59Z</time>
      </trkpt>
      <trkpt lat="42.42938" lon="2.67624">
        <ele>656.14</ele>
        <time>2021-10-29T16:57:59Z</time>
      </trkpt>
      <trkpt lat="42.42893" lon="2.67652">
        <ele>656.21</ele>
        <time>2021-10-29T16:57:59Z</time>
      </trkpt>
      <trkpt lat="42.42925" lon="2.67656">
        <ele>652.65</ele>
        <time>2021-10-29T16:57:59Z</time>
      </trkpt>
      <trkpt lat="42.42953" lon="2.6766">
        <ele>654.86</ele>
        <time>2021-10-29T16:57:59Z</time>
      </trkpt>
      <trkpt lat="42.42987" lon="2.67665">
        <ele>655.56</ele>
        <time>2021-10-29T16:57:59Z</time>
      </trkpt>
      <trkpt lat="42.43012" lon="2.67682">
        <ele>660.52</ele>
        <time>2021-10-29T16:57:59Z</time>
      </trkpt>
      <trkpt lat="42.43044" lon="2.67703">
        <ele>666.43</ele>
        <time>2021-10-29T16:57:59Z</time>
      </trkpt>
      <trkpt lat="42.43058" lon="2.67647">
        <ele>665.16</ele>
        <time>2021-10-29T16:57:59Z</time>
      </trkpt>
      <trkpt lat="42.43067" lon="2.67594">
        <ele>664.43</ele>
        <time>2021-10-29T16:57:59Z</time>
      </trkpt>
      <trkpt lat="42.43055" lon="2.67547">
        <ele>666.19</ele>
        <time>2021-10-29T16:57:59Z</time>
      </trkpt>
      <trkpt lat="42.43044" lon="2.675">
        <ele>666.81</ele>
        <time>2021-10-29T16:57:59Z</time>
      </trkpt>
      <trkpt lat="42.43035" lon="2.67465">
        <ele>666.05</ele>
        <time>2021-10-29T16:57:59Z</time>
      </trkpt>
      <trkpt lat="42.43024" lon="2.6742">
        <ele>663.43</ele>
        <time>2021-10-29T16:57:59Z</time>
      </trkpt>
      <trkpt lat="42.43021" lon="2.67353">
        <ele>656.91</ele>
        <time>2021-10-29T16:57:59Z</time>
      </trkpt>
      <trkpt lat="42.4306" lon="2.67347">
        <ele>659.82</ele>
        <time>2021-10-29T16:57:59Z</time>
      </trkpt>
      <trkpt lat="42.431" lon="2.6734">
        <ele>660.44</ele>
        <time>2021-10-29T16:57:59Z</time>
      </trkpt>
      <trkpt lat="42.43139" lon="2.67334">
        <ele>660.31</ele>
        <time>2021-10-29T16:57:59Z</time>
      </trkpt>
      <trkpt lat="42.43169" lon="2.67329">
        <ele>659.58</ele>
        <time>2021-10-29T16:57:59Z</time>
      </trkpt>
      <trkpt lat="42.43215" lon="2.67322">
        <ele>659.51</ele>
        <time>2021-10-29T16:57:59Z</time>
      </trkpt>
      <trkpt lat="42.43248" lon="2.67276">
        <ele>656.09</ele>
        <time>2021-10-29T16:57:59Z</time>
      </trkpt>
      <trkpt lat="42.43253" lon="2.67223">
        <ele>647.98</ele>
        <time>2021-10-29T16:57:59Z</time>
      </trkpt>
      <trkpt lat="42.43289" lon="2.67191">
        <ele>641.86</ele>
        <time>2021-10-29T16:57:59Z</time>
      </trkpt>
      <trkpt lat="42.43312" lon="2.67208">
        <ele>646.11</ele>
        <time>2021-10-29T16:57:59Z</time>
      </trkpt>
      <trkpt lat="42.43338" lon="2.67228">
        <ele>651.97</ele>
        <time>2021-10-29T16:57:59Z</time>
      </trkpt>
      <trkpt lat="42.43371" lon="2.67235">
        <ele>653.32</ele>
        <time>2021-10-29T16:57:59Z</time>
      </trkpt>
      <trkpt lat="42.43404" lon="2.67242">
        <ele>647.99</ele>
        <time>2021-10-29T16:57:59Z</time>
      </trkpt>
      <trkpt lat="42.4344" lon="2.67249">
        <ele>641.44</ele>
        <time>2021-10-29T16:57:59Z</time>
      </trkpt>
      <trkpt lat="42.43464" lon="2.67276">
        <ele>640.37</ele>
        <time>2021-10-29T16:57:59Z</time>
      </trkpt>
      <trkpt lat="42.43484" lon="2.67298">
        <ele>639.71</ele>
        <time>2021-10-29T16:57:59Z</time>
      </trkpt>
      <trkpt lat="42.43505" lon="2.67322">
        <ele>635.37</ele>
        <time>2021-10-29T16:57:59Z</time>
      </trkpt>
      <trkpt lat="42.43505" lon="2.67359">
        <ele>640.78</ele>
        <time>2021-10-29T16:57:59Z</time>
      </trkpt>
      <trkpt lat="42.43534" lon="2.67384">
        <ele>640.24</ele>
        <time>2021-10-29T16:57:59Z</time>
      </trkpt>
      <trkpt lat="42.43563" lon="2.67409">
        <ele>644.11</ele>
        <time>2021-10-29T16:57:59Z</time>
      </trkpt>
      <trkpt lat="42.43598" lon="2.6744">
        <ele>655.61</ele>
        <time>2021-10-29T16:57:59Z</time>
      </trkpt>
      <trkpt lat="42.43636" lon="2.67425">
        <ele>650.98</ele>
        <time>2021-10-29T16:57:59Z</time>
      </trkpt>
      <trkpt lat="42.43654" lon="2.67472">
        <ele>659.14</ele>
        <time>2021-10-29T16:57:59Z</time>
      </trkpt>
      <trkpt lat="42.43684" lon="2.67471">
        <ele>661.12</ele>
        <time>2021-10-29T16:57:59Z</time>
      </trkpt>
      <trkpt lat="42.43731" lon="2.6747">
        <ele>671.56</ele>
        <time>2021-10-29T16:57:59Z</time>
      </trkpt>
      <trkpt lat="42.43707" lon="2.67522">
        <ele>678.23</ele>
        <time>2021-10-29T16:57:59Z</time>
      </trkpt>
      <trkpt lat="42.43715" lon="2.6758">
        <ele>686.94</ele>
        <time>2021-10-29T16:57:59Z</time>
      </trkpt>
      <trkpt lat="42.43741" lon="2.67604">
        <ele>685.14</ele>
        <time>2021-10-29T16:57:59Z</time>
      </trkpt>
      <trkpt lat="42.43763" lon="2.67624">
        <ele>690.04</ele>
        <time>2021-10-29T16:57:59Z</time>
      </trkpt>
      <trkpt lat="42.43787" lon="2.67646">
        <ele>692.97</ele>
        <time>2021-10-29T16:57:59Z</time>
      </trkpt>
      <trkpt lat="42.43824" lon="2.67649">
        <ele>685.85</ele>
        <time>2021-10-29T16:57:59Z</time>
      </trkpt>
      <trkpt lat="42.43861" lon="2.67652">
        <ele>681.4</ele>
        <time>2021-10-29T16:57:59Z</time>
      </trkpt>
      <trkpt lat="42.4389" lon="2.67655">
        <ele>678.12</ele>
        <time>2021-10-29T16:57:59Z</time>
      </trkpt>
      <trkpt lat="42.43932" lon="2.67659">
        <ele>670.6</ele>
        <time>2021-10-29T16:57:59Z</time>
      </trkpt>
      <trkpt lat="42.43948" lon="2.6769">
        <ele>671.69</ele>
        <time>2021-10-29T16:57:59Z</time>
      </trkpt>
      <trkpt lat="42.43969" lon="2.6773">
        <ele>674.4</ele>
        <time>2021-10-29T16:57:59Z</time>
      </trkpt>
      <trkpt lat="42.44002" lon="2.67726">
        <ele>664.29</ele>
        <time>2021-10-29T16:57:59Z</time>
      </trkpt>
      <trkpt lat="42.44035" lon="2.67723">
        <ele>656.24</ele>
        <time>2021-10-29T16:57:59Z</time>
      </trkpt>
      <trkpt lat="42.4407" lon="2.67719">
        <ele>646.43</ele>
        <time>2021-10-29T16:57:59Z</time>
      </trkpt>
      <trkpt lat="42.441" lon="2.67728">
        <ele>643.13</ele>
        <time>2021-10-29T16:57:59Z</time>
      </trkpt>
      <trkpt lat="42.44146" lon="2.67743">
        <ele>631.95</ele>
        <time>2021-10-29T16:57:59Z</time>
      </trkpt>
      <trkpt lat="42.44146" lon="2.67777">
        <ele>629.63</ele>
        <time>2021-10-29T16:57:59Z</time>
      </trkpt>
      <trkpt lat="42.44114" lon="2.67803">
        <ele>636.5</ele>
        <time>2021-10-29T16:57:59Z</time>
      </trkpt>
      <trkpt lat="42.44123" lon="2.67844">
        <ele>631.78</ele>
        <time>2021-10-29T16:57:59Z</time>
      </trkpt>
      <trkpt lat="42.44131" lon="2.67878">
        <ele>625.97</ele>
        <time>2021-10-29T16:57:59Z</time>
      </trkpt>
      <trkpt lat="42.4414" lon="2.67915">
        <ele>612.34</ele>
        <time>2021-10-29T16:57:59Z</time>
      </trkpt>
      <trkpt lat="42.44115" lon="2.67944">
        <ele>617.58</ele>
        <time>2021-10-29T16:57:59Z</time>
      </trkpt>
      <trkpt lat="42.4409" lon="2.67974">
        <ele>619.99</ele>
        <time>2021-10-29T16:57:59Z</time>
      </trkpt>
      <trkpt lat="42.44064" lon="2.68004">
        <ele>625.4</ele>
        <time>2021-10-29T16:57:59Z</time>
      </trkpt>
      <trkpt lat="42.44045" lon="2.68047">
        <ele>621.65</ele>
        <time>2021-10-29T16:57:59Z</time>
      </trkpt>
      <trkpt lat="42.44026" lon="2.68091">
        <ele>616.54</ele>
        <time>2021-10-29T16:57:59Z</time>
      </trkpt>
      <trkpt lat="42.44006" lon="2.68134">
        <ele>613</ele>
        <time>2021-10-29T16:57:59Z</time>
      </trkpt>
      <trkpt lat="42.43987" lon="2.68178">
        <ele>611.37</ele>
        <time>2021-10-29T16:57:59Z</time>
      </trkpt>
      <trkpt lat="42.43968" lon="2.68226">
        <ele>607.91</ele>
        <time>2021-10-29T16:57:59Z</time>
      </trkpt>
      <trkpt lat="42.43948" lon="2.68275">
        <ele>603.62</ele>
        <time>2021-10-29T16:57:59Z</time>
      </trkpt>
      <trkpt lat="42.43929" lon="2.68323">
        <ele>603.44</ele>
        <time>2021-10-29T16:57:59Z</time>
      </trkpt>
      <trkpt lat="42.4391" lon="2.68372">
        <ele>609.06</ele>
        <time>2021-10-29T16:57:59Z</time>
      </trkpt>
      <trkpt lat="42.43897" lon="2.68404">
        <ele>612.92</ele>
        <time>2021-10-29T16:57:59Z</time>
      </trkpt>
      <trkpt lat="42.43882" lon="2.68443">
        <ele>621.75</ele>
        <time>2021-10-29T16:57:59Z</time>
      </trkpt>
      <trkpt lat="42.43923" lon="2.68441">
        <ele>617.66</ele>
        <time>2021-10-29T16:57:59Z</time>
      </trkpt>
      <trkpt lat="42.43963" lon="2.68439">
        <ele>614.63</ele>
        <time>2021-10-29T16:57:59Z</time>
      </trkpt>
      <trkpt lat="42.44004" lon="2.68436">
        <ele>614.62</ele>
        <time>2021-10-29T16:57:59Z</time>
      </trkpt>
      <trkpt lat="42.44045" lon="2.68434">
        <ele>611.2</ele>
        <time>2021-10-29T16:57:59Z</time>
      </trkpt>
      <trkpt lat="42.44073" lon="2.68433">
        <ele>609.02</ele>
        <time>2021-10-29T16:57:59Z</time>
      </trkpt>
      <trkpt lat="42.4411" lon="2.68431">
        <ele>610.32</ele>
        <time>2021-10-29T16:57:59Z</time>
      </trkpt>
      <trkpt lat="42.44139" lon="2.68399">
        <ele>602.56</ele>
        <time>2021-10-29T16:57:59Z</time>
      </trkpt>
      <trkpt lat="42.44167" lon="2.68366">
        <ele>596.79</ele>
        <time>2021-10-29T16:57:59Z</time>
      </trkpt>
      <trkpt lat="42.44196" lon="2.68334">
        <ele>592.72</ele>
        <time>2021-10-29T16:57:59Z</time>
      </trkpt>
      <trkpt lat="42.44225" lon="2.68301">
        <ele>586.71</ele>
        <time>2021-10-29T16:57:59Z</time>
      </trkpt>
      <trkpt lat="42.44261" lon="2.68326">
        <ele>585.55</ele>
        <time>2021-10-29T16:57:59Z</time>
      </trkpt>
      <trkpt lat="42.44297" lon="2.6835">
        <ele>581.32</ele>
        <time>2021-10-29T16:57:59Z</time>
      </trkpt>
      <trkpt lat="42.44334" lon="2.68375">
        <ele>573.4</ele>
        <time>2021-10-29T16:57:59Z</time>
      </trkpt>
      <trkpt lat="42.4437" lon="2.684">
        <ele>566.58</ele>
        <time>2021-10-29T16:57:59Z</time>
      </trkpt>
      <trkpt lat="42.44394" lon="2.68416">
        <ele>561.25</ele>
        <time>2021-10-29T16:57:59Z</time>
      </trkpt>
      <trkpt lat="42.44423" lon="2.68436">
        <ele>545.67</ele>
        <time>2021-10-29T16:57:59Z</time>
      </trkpt>
      <trkpt lat="42.44395" lon="2.68468">
        <ele>555.21</ele>
        <time>2021-10-29T16:57:59Z</time>
      </trkpt>
      <trkpt lat="42.44368" lon="2.68501">
        <ele>562.85</ele>
        <time>2021-10-29T16:57:59Z</time>
      </trkpt>
      <trkpt lat="42.44347" lon="2.68526">
        <ele>570.11</ele>
        <time>2021-10-29T16:57:59Z</time>
      </trkpt>
      <trkpt lat="42.4432" lon="2.68558">
        <ele>583.42</ele>
        <time>2021-10-29T16:57:59Z</time>
      </trkpt>
      <trkpt lat="42.44334" lon="2.68591">
        <ele>576.12</ele>
        <time>2021-10-29T16:57:59Z</time>
      </trkpt>
      <trkpt lat="42.44352" lon="2.68633">
        <ele>564.96</ele>
        <time>2021-10-29T16:57:59Z</time>
      </trkpt>
      <trkpt lat="42.44336" lon="2.68666">
        <ele>573.33</ele>
        <time>2021-10-29T16:57:59Z</time>
      </trkpt>
      <trkpt lat="42.44312" lon="2.68715">
        <ele>582.4</ele>
        <time>2021-10-29T16:57:59Z</time>
      </trkpt>
      <trkpt lat="42.44279" lon="2.6874">
        <ele>597.56</ele>
        <time>2021-10-29T16:57:59Z</time>
      </trkpt>
      <trkpt lat="42.44245" lon="2.68765">
        <ele>612.44</ele>
        <time>2021-10-29T16:57:59Z</time>
      </trkpt>
      <trkpt lat="42.44212" lon="2.68791">
        <ele>627.06</ele>
        <time>2021-10-29T16:57:59Z</time>
      </trkpt>
      <trkpt lat="42.4417" lon="2.68823">
        <ele>647.91</ele>
        <time>2021-10-29T16:57:59Z</time>
      </trkpt>
      <trkpt lat="42.44172" lon="2.6887">
        <ele>644.94</ele>
        <time>2021-10-29T16:57:59Z</time>
      </trkpt>
      <trkpt lat="42.44175" lon="2.68918">
        <ele>643.58</ele>
        <time>2021-10-29T16:57:59Z</time>
      </trkpt>
      <trkpt lat="42.44178" lon="2.68984">
        <ele>645.6</ele>
        <time>2021-10-29T16:57:59Z</time>
      </trkpt>
      <trkpt lat="42.4416" lon="2.69027">
        <ele>662</ele>
        <time>2021-10-29T16:57:59Z</time>
      </trkpt>
      <trkpt lat="42.44142" lon="2.6907">
        <ele>676.99</ele>
        <time>2021-10-29T16:57:59Z</time>
      </trkpt>
      <trkpt lat="42.44129" lon="2.69104">
        <ele>688.46</ele>
        <time>2021-10-29T16:57:59Z</time>
      </trkpt>
      <trkpt lat="42.44111" lon="2.69147">
        <ele>705.03</ele>
        <time>2021-10-29T16:57:59Z</time>
      </trkpt>
      <trkpt lat="42.44138" lon="2.69178">
        <ele>699.72</ele>
        <time>2021-10-29T16:57:59Z</time>
      </trkpt>
      <trkpt lat="42.44164" lon="2.69208">
        <ele>698.35</ele>
        <time>2021-10-29T16:57:59Z</time>
      </trkpt>
      <trkpt lat="42.44201" lon="2.69251">
        <ele>694.71</ele>
        <time>2021-10-29T16:57:59Z</time>
      </trkpt>
      <trkpt lat="42.44201" lon="2.69296">
        <ele>695.24</ele>
        <time>2021-10-29T16:57:59Z</time>
      </trkpt>
      <trkpt lat="42.44201" lon="2.69341">
        <ele>687.48</ele>
        <time>2021-10-29T16:57:59Z</time>
      </trkpt>
      <trkpt lat="42.44201" lon="2.69389">
        <ele>674.4</ele>
        <time>2021-10-29T16:57:59Z</time>
      </trkpt>
      <trkpt lat="42.44166" lon="2.69397">
        <ele>690.14</ele>
        <time>2021-10-29T16:57:59Z</time>
      </trkpt>
      <trkpt lat="42.4413" lon="2.69405">
        <ele>701.9</ele>
        <time>2021-10-29T16:57:59Z</time>
      </trkpt>
      <trkpt lat="42.44104" lon="2.69411">
        <ele>710.11</ele>
        <time>2021-10-29T16:57:59Z</time>
      </trkpt>
      <trkpt lat="42.44075" lon="2.69418">
        <ele>714.84</ele>
        <time>2021-10-29T16:57:59Z</time>
      </trkpt>
      <trkpt lat="42.44094" lon="2.69457">
        <ele>699.1</ele>
        <time>2021-10-29T16:57:59Z</time>
      </trkpt>
      <trkpt lat="42.44114" lon="2.69497">
        <ele>685.97</ele>
        <time>2021-10-29T16:57:59Z</time>
      </trkpt>
      <trkpt lat="42.4414" lon="2.69551">
        <ele>668.68</ele>
        <time>2021-10-29T16:57:59Z</time>
      </trkpt>
      <trkpt lat="42.44109" lon="2.69539">
        <ele>687.53</ele>
        <time>2021-10-29T16:57:59Z</time>
      </trkpt>
      <trkpt lat="42.44084" lon="2.69528">
        <ele>698.47</ele>
        <time>2021-10-29T16:57:59Z</time>
      </trkpt>
      <trkpt lat="42.44055" lon="2.69517">
        <ele>711.96</ele>
        <time>2021-10-29T16:57:59Z</time>
      </trkpt>
      <trkpt lat="42.44043" lon="2.69553">
        <ele>707.94</ele>
        <time>2021-10-29T16:57:59Z</time>
      </trkpt>
      <trkpt lat="42.44025" lon="2.69605">
        <ele>699.55</ele>
        <time>2021-10-29T16:57:59Z</time>
      </trkpt>
      <trkpt lat="42.43997" lon="2.69641">
        <ele>697.46</ele>
        <time>2021-10-29T16:57:59Z</time>
      </trkpt>
      <trkpt lat="42.43969" lon="2.69678">
        <ele>698.71</ele>
        <time>2021-10-29T16:57:59Z</time>
      </trkpt>
      <trkpt lat="42.43942" lon="2.69714">
        <ele>707.2</ele>
        <time>2021-10-29T16:57:59Z</time>
      </trkpt>
      <trkpt lat="42.43922" lon="2.69739">
        <ele>711.5</ele>
        <time>2021-10-29T16:57:59Z</time>
      </trkpt>
      <trkpt lat="42.439" lon="2.69769">
        <ele>712.37</ele>
        <time>2021-10-29T16:57:59Z</time>
      </trkpt>
      <trkpt lat="42.43895" lon="2.69806">
        <ele>710.53</ele>
        <time>2021-10-29T16:57:59Z</time>
      </trkpt>
      <trkpt lat="42.43889" lon="2.69854">
        <ele>704.26</ele>
        <time>2021-10-29T16:57:59Z</time>
      </trkpt>
      <trkpt lat="42.4385" lon="2.69857">
        <ele>715.01</ele>
        <time>2021-10-29T16:57:59Z</time>
      </trkpt>
      <trkpt lat="42.43811" lon="2.69859">
        <ele>715.7</ele>
        <time>2021-10-29T16:57:59Z</time>
      </trkpt>
      <trkpt lat="42.43772" lon="2.69862">
        <ele>717.91</ele>
        <time>2021-10-29T16:57:59Z</time>
      </trkpt>
      <trkpt lat="42.43743" lon="2.69864">
        <ele>723.85</ele>
        <time>2021-10-29T16:57:59Z</time>
      </trkpt>
      <trkpt lat="42.43706" lon="2.69867">
        <ele>738.06</ele>
        <time>2021-10-29T16:57:59Z</time>
      </trkpt>
      <trkpt lat="42.43678" lon="2.69886">
        <ele>737.71</ele>
        <time>2021-10-29T16:57:59Z</time>
      </trkpt>
      <trkpt lat="42.43654" lon="2.69903">
        <ele>734.04</ele>
        <time>2021-10-29T16:57:59Z</time>
      </trkpt>
      <trkpt lat="42.43628" lon="2.69921">
        <ele>727.54</ele>
        <time>2021-10-29T16:57:59Z</time>
      </trkpt>
      <trkpt lat="42.43606" lon="2.69945">
        <ele>725.58</ele>
        <time>2021-10-29T16:57:59Z</time>
      </trkpt>
      <trkpt lat="42.43576" lon="2.69976">
        <ele>735.91</ele>
        <time>2021-10-29T16:57:59Z</time>
      </trkpt>
      <trkpt lat="42.43542" lon="2.69984">
        <ele>743.08</ele>
        <time>2021-10-29T16:57:59Z</time>
      </trkpt>
      <trkpt lat="42.43552" lon="2.70019">
        <ele>730.37</ele>
        <time>2021-10-29T16:57:59Z</time>
      </trkpt>
      <trkpt lat="42.43566" lon="2.70066">
        <ele>721.36</ele>
        <time>2021-10-29T16:57:59Z</time>
      </trkpt>
      <trkpt lat="42.43569" lon="2.70103">
        <ele>717.51</ele>
        <time>2021-10-29T16:57:59Z</time>
      </trkpt>
      <trkpt lat="42.43573" lon="2.70148">
        <ele>712.43</ele>
        <time>2021-10-29T16:57:59Z</time>
      </trkpt>
      <trkpt lat="42.43536" lon="2.70168">
        <ele>719.5</ele>
        <time>2021-10-29T16:57:59Z</time>
      </trkpt>
      <trkpt lat="42.43508" lon="2.70153">
        <ele>740.3</ele>
        <time>2021-10-29T16:57:59Z</time>
      </trkpt>
      <trkpt lat="42.43467" lon="2.70132">
        <ele>735.53</ele>
        <time>2021-10-29T16:57:59Z</time>
      </trkpt>
      <trkpt lat="42.43446" lon="2.70176">
        <ele>751.17</ele>
        <time>2021-10-29T16:57:59Z</time>
      </trkpt>
      <trkpt lat="42.43468" lon="2.70205">
        <ele>744.21</ele>
        <time>2021-10-29T16:57:59Z</time>
      </trkpt>
      <trkpt lat="42.43485" lon="2.70229">
        <ele>739.84</ele>
        <time>2021-10-29T16:57:59Z</time>
      </trkpt>
      <trkpt lat="42.43503" lon="2.70253">
        <ele>733.91</ele>
        <time>2021-10-29T16:57:59Z</time>
      </trkpt>
      <trkpt lat="42.43493" lon="2.70304">
        <ele>745.47</ele>
        <time>2021-10-29T16:57:59Z</time>
      </trkpt>
      <trkpt lat="42.43482" lon="2.70354">
        <ele>750.3</ele>
        <time>2021-10-29T16:57:59Z</time>
      </trkpt>
      <trkpt lat="42.43472" lon="2.70405">
        <ele>756.08</ele>
        <time>2021-10-29T16:57:59Z</time>
      </trkpt>
      <trkpt lat="42.43464" lon="2.70441">
        <ele>762.49</ele>
        <time>2021-10-29T16:57:59Z</time>
      </trkpt>
      <trkpt lat="42.43455" lon="2.70486">
        <ele>765.28</ele>
        <time>2021-10-29T16:57:59Z</time>
      </trkpt>
      <trkpt lat="42.43431" lon="2.70505">
        <ele>770.26</ele>
        <time>2021-10-29T16:57:59Z</time>
      </trkpt>
      <trkpt lat="42.434" lon="2.7053">
        <ele>770.96</ele>
        <time>2021-10-29T16:57:59Z</time>
      </trkpt>
      <trkpt lat="42.43369" lon="2.70515">
        <ele>773.28</ele>
        <time>2021-10-29T16:57:59Z</time>
      </trkpt>
      <trkpt lat="42.43343" lon="2.70503">
        <ele>777.41</ele>
        <time>2021-10-29T16:57:59Z</time>
      </trkpt>
      <trkpt lat="42.43312" lon="2.70488">
        <ele>777.44</ele>
        <time>2021-10-29T16:57:59Z</time>
      </trkpt>
      <trkpt lat="42.43319" lon="2.70525">
        <ele>779.68</ele>
        <time>2021-10-29T16:57:59Z</time>
      </trkpt>
      <trkpt lat="42.43329" lon="2.70575">
        <ele>786.4</ele>
        <time>2021-10-29T16:57:59Z</time>
      </trkpt>
      <trkpt lat="42.43302" lon="2.70567">
        <ele>788.16</ele>
        <time>2021-10-29T16:57:59Z</time>
      </trkpt>
      <trkpt lat="42.4327" lon="2.70557">
        <ele>796.47</ele>
        <time>2021-10-29T16:57:59Z</time>
      </trkpt>
      <trkpt lat="42.43265" lon="2.70524">
        <ele>794</ele>
        <time>2021-10-29T16:57:59Z</time>
      </trkpt>
      <trkpt lat="42.4326" lon="2.7049">
        <ele>794.26</ele>
        <time>2021-10-29T16:57:59Z</time>
      </trkpt>
      <trkpt lat="42.43232" lon="2.70484">
        <ele>799.68</ele>
        <time>2021-10-29T16:57:59Z</time>
      </trkpt>
      <trkpt lat="42.43197" lon="2.70477">
        <ele>806.8</ele>
        <time>2021-10-29T16:57:59Z</time>
      </trkpt>
      <trkpt lat="42.43172" lon="2.70464">
        <ele>811.55</ele>
        <time>2021-10-29T16:57:59Z</time>
      </trkpt>
      <trkpt lat="42.43145" lon="2.70449">
        <ele>815.79</ele>
        <time>2021-10-29T16:57:59Z</time>
      </trkpt>
      <trkpt lat="42.43179" lon="2.70433">
        <ele>808.57</ele>
        <time>2021-10-29T16:57:59Z</time>
      </trkpt>
      <trkpt lat="42.43214" lon="2.70418">
        <ele>804.61</ele>
        <time>2021-10-29T16:57:59Z</time>
      </trkpt>
      <trkpt lat="42.43241" lon="2.70405">
        <ele>807.12</ele>
        <time>2021-10-29T16:57:59Z</time>
      </trkpt>
      <trkpt lat="42.43275" lon="2.7039">
        <ele>811.84</ele>
        <time>2021-10-29T16:57:59Z</time>
      </trkpt>
      <trkpt lat="42.43289" lon="2.70354">
        <ele>821.21</ele>
        <time>2021-10-29T16:57:59Z</time>
      </trkpt>
      <trkpt lat="42.4331" lon="2.70301">
        <ele>832.46</ele>
        <time>2021-10-29T16:57:59Z</time>
      </trkpt>
      <trkpt lat="42.43295" lon="2.70257">
        <ele>840.54</ele>
        <time>2021-10-29T16:57:59Z</time>
      </trkpt>
      <trkpt lat="42.43255" lon="2.70259">
        <ele>848.04</ele>
        <time>2021-10-29T16:57:59Z</time>
      </trkpt>
      <trkpt lat="42.43214" lon="2.70261">
        <ele>854.34</ele>
        <time>2021-10-29T16:57:59Z</time>
      </trkpt>
      <trkpt lat="42.43174" lon="2.70263">
        <ele>867.13</ele>
        <time>2021-10-29T16:57:59Z</time>
      </trkpt>
      <trkpt lat="42.43134" lon="2.70265">
        <ele>875.94</ele>
        <time>2021-10-29T16:57:59Z</time>
      </trkpt>
      <trkpt lat="42.43109" lon="2.70267">
        <ele>881.62</ele>
        <time>2021-10-29T16:57:59Z</time>
      </trkpt>
      <trkpt lat="42.43083" lon="2.70268">
        <ele>888.55</ele>
        <time>2021-10-29T16:57:59Z</time>
      </trkpt>
      <trkpt lat="42.43078" lon="2.70236">
        <ele>892.83</ele>
        <time>2021-10-29T16:57:59Z</time>
      </trkpt>
      <trkpt lat="42.43045" lon="2.70227">
        <ele>906.32</ele>
        <time>2021-10-29T16:57:59Z</time>
      </trkpt>
      <trkpt lat="42.43013" lon="2.70217">
        <ele>917.79</ele>
        <time>2021-10-29T16:57:59Z</time>
      </trkpt>
      <trkpt lat="42.42979" lon="2.70208">
        <ele>927.08</ele>
        <time>2021-10-29T16:57:59Z</time>
      </trkpt>
      <trkpt lat="42.42954" lon="2.7019">
        <ele>936.88</ele>
        <time>2021-10-29T16:57:59Z</time>
      </trkpt>
      <trkpt lat="42.42922" lon="2.70166">
        <ele>950.58</ele>
        <time>2021-10-29T16:57:59Z</time>
      </trkpt>
      <trkpt lat="42.42878" lon="2.70196">
        <ele>972.03</ele>
        <time>2021-10-29T16:57:59Z</time>
      </trkpt>
      <trkpt lat="42.42839" lon="2.70206">
        <ele>980.21</ele>
        <time>2021-10-29T16:57:59Z</time>
      </trkpt>
      <trkpt lat="42.42801" lon="2.70215">
        <ele>986.86</ele>
        <time>2021-10-29T16:57:59Z</time>
      </trkpt>
      <trkpt lat="42.42762" lon="2.70225">
        <ele>999.39</ele>
        <time>2021-10-29T16:57:59Z</time>
      </trkpt>
      <trkpt lat="42.42734" lon="2.70231">
        <ele>1005.86</ele>
        <time>2021-10-29T16:57:59Z</time>
      </trkpt>
      <trkpt lat="42.42696" lon="2.70241">
        <ele>1017.76</ele>
        <time>2021-10-29T16:57:59Z</time>
      </trkpt>
      <trkpt lat="42.42669" lon="2.70265">
        <ele>1018.98</ele>
        <time>2021-10-29T16:57:59Z</time>
      </trkpt>
      <trkpt lat="42.42648" lon="2.70284">
        <ele>1023.52</ele>
        <time>2021-10-29T16:57:59Z</time>
      </trkpt>
      <trkpt lat="42.42623" lon="2.70306">
        <ele>1034.91</ele>
        <time>2021-10-29T16:57:59Z</time>
      </trkpt>
      <trkpt lat="42.42604" lon="2.70281">
        <ele>1048.17</ele>
        <time>2021-10-29T16:57:59Z</time>
      </trkpt>
      <trkpt lat="42.42583" lon="2.70254">
        <ele>1057.04</ele>
        <time>2021-10-29T16:57:59Z</time>
      </trkpt>
      <trkpt lat="42.42559" lon="2.70276">
        <ele>1064.8</ele>
        <time>2021-10-29T16:57:59Z</time>
      </trkpt>
      <trkpt lat="42.42528" lon="2.70306">
        <ele>1074.17</ele>
        <time>2021-10-29T16:57:59Z</time>
      </trkpt>
      <trkpt lat="42.42495" lon="2.7032">
        <ele>1074.79</ele>
        <time>2021-10-29T16:57:59Z</time>
      </trkpt>
      <trkpt lat="42.42469" lon="2.70357">
        <ele>1082.99</ele>
        <time>2021-10-29T16:57:59Z</time>
      </trkpt>
      <trkpt lat="42.42442" lon="2.70395">
        <ele>1091.55</ele>
        <time>2021-10-29T16:57:59Z</time>
      </trkpt>
      <trkpt lat="42.42416" lon="2.70432">
        <ele>1095.95</ele>
        <time>2021-10-29T16:57:59Z</time>
      </trkpt>
      <trkpt lat="42.42398" lon="2.70457">
        <ele>1100.5</ele>
        <time>2021-10-29T16:57:59Z</time>
      </trkpt>
      <trkpt lat="42.42381" lon="2.70482">
        <ele>1105.1</ele>
        <time>2021-10-29T16:57:59Z</time>
      </trkpt>
      <trkpt lat="42.42364" lon="2.70532">
        <ele>1114.47</ele>
        <time>2021-10-29T16:57:59Z</time>
      </trkpt>
      <trkpt lat="42.42359" lon="2.70565">
        <ele>1121.08</ele>
        <time>2021-10-29T16:57:59Z</time>
      </trkpt>
      <trkpt lat="42.42354" lon="2.70599">
        <ele>1126.03</ele>
        <time>2021-10-29T16:57:59Z</time>
      </trkpt>
      <trkpt lat="42.42353" lon="2.70664">
        <ele>1143.01</ele>
        <time>2021-10-29T16:57:59Z</time>
      </trkpt>
      <trkpt lat="42.42352" lon="2.70727">
        <ele>1161.52</ele>
        <time>2021-10-29T16:57:59Z</time>
      </trkpt>
      <trkpt lat="42.42345" lon="2.7076">
        <ele>1169.58</ele>
        <time>2021-10-29T16:57:59Z</time>
      </trkpt>
      <trkpt lat="42.42337" lon="2.70796">
        <ele>1178.46</ele>
        <time>2021-10-29T16:57:59Z</time>
      </trkpt>
      <trkpt lat="42.4232" lon="2.7083">
        <ele>1183.8</ele>
        <time>2021-10-29T16:57:59Z</time>
      </trkpt>
      <trkpt lat="42.42309" lon="2.70873">
        <ele>1191.63</ele>
        <time>2021-10-29T16:57:59Z</time>
      </trkpt>
      <trkpt lat="42.42318" lon="2.709">
        <ele>1200.53</ele>
        <time>2021-10-29T16:57:59Z</time>
      </trkpt>
      <trkpt lat="42.42317" lon="2.70931">
        <ele>1207.15</ele>
        <time>2021-10-29T16:57:59Z</time>
      </trkpt>
      <trkpt lat="42.42319" lon="2.70963">
        <ele>1213.83</ele>
        <time>2021-10-29T16:57:59Z</time>
      </trkpt>
      <trkpt lat="42.42323" lon="2.70987">
        <ele>1219.65</ele>
        <time>2021-10-29T16:57:59Z</time>
      </trkpt>
      <trkpt lat="42.4231" lon="2.71049">
        <ele>1228.16</ele>
        <time>2021-10-29T16:57:59Z</time>
      </trkpt>
      <trkpt lat="42.42314" lon="2.71094">
        <ele>1237.36</ele>
        <time>2021-10-29T16:57:59Z</time>
      </trkpt>
      <trkpt lat="42.42303" lon="2.71128">
        <ele>1244.76</ele>
        <time>2021-10-29T16:57:59Z</time>
      </trkpt>
      <trkpt lat="42.42289" lon="2.71171">
        <ele>1259.88</ele>
        <time>2021-10-29T16:57:59Z</time>
      </trkpt>
      <trkpt lat="42.42268" lon="2.71202">
        <ele>1271.78</ele>
        <time>2021-10-29T16:57:59Z</time>
      </trkpt>
      <trkpt lat="42.42229" lon="2.71223">
        <ele>1279.04</ele>
        <time>2021-10-29T16:57:59Z</time>
      </trkpt>
      <trkpt lat="42.42211" lon="2.71254">
        <ele>1287.23</ele>
        <time>2021-10-29T16:57:59Z</time>
      </trkpt>
      <trkpt lat="42.42186" lon="2.71299">
        <ele>1306.2</ele>
        <time>2021-10-29T16:57:59Z</time>
      </trkpt>
      <trkpt lat="42.42182" lon="2.71329">
        <ele>1316.21</ele>
        <time>2021-10-29T16:57:59Z</time>
      </trkpt>
      <trkpt lat="42.42183" lon="2.71385">
        <ele>1328.1</ele>
        <time>2021-10-29T16:57:59Z</time>
      </trkpt>
      <trkpt lat="42.42174" lon="2.71408">
        <ele>1333.94</ele>
        <time>2021-10-29T16:57:59Z</time>
      </trkpt>
      <trkpt lat="42.42172" lon="2.71455">
        <ele>1345.42</ele>
        <time>2021-10-29T16:57:59Z</time>
      </trkpt>
      <trkpt lat="42.4217" lon="2.71489">
        <ele>1355.66</ele>
        <time>2021-10-29T16:57:59Z</time>
      </trkpt>
      <trkpt lat="42.42168" lon="2.71526">
        <ele>1366.81</ele>
        <time>2021-10-29T16:57:59Z</time>
      </trkpt>
      <trkpt lat="42.42158" lon="2.71545">
        <ele>1373.29</ele>
        <time>2021-10-29T16:57:59Z</time>
      </trkpt>
      <trkpt lat="42.42157" lon="2.71603">
        <ele>1388.56</ele>
        <time>2021-10-29T16:57:59Z</time>
      </trkpt>
      <trkpt lat="42.42162" lon="2.71663">
        <ele>1398.23</ele>
        <time>2021-10-29T16:57:59Z</time>
      </trkpt>
      <trkpt lat="42.42169" lon="2.71706">
        <ele>1401</ele>
        <time>2021-10-29T16:57:59Z</time>
      </trkpt>
      <trkpt lat="42.4217" lon="2.71773">
        <ele>1403.84</ele>
        <time>2021-10-29T16:57:59Z</time>
      </trkpt>
      <trkpt lat="42.42188" lon="2.71811">
        <ele>1401.59</ele>
        <time>2021-10-29T16:57:59Z</time>
      </trkpt>
      <trkpt lat="42.42208" lon="2.71831">
        <ele>1396.01</ele>
        <time>2021-10-29T16:57:59Z</time>
      </trkpt>
      <trkpt lat="42.42229" lon="2.71871">
        <ele>1383.89</ele>
        <time>2021-10-29T16:57:59Z</time>
      </trkpt>
      <trkpt lat="42.42235" lon="2.71915">
        <ele>1370.11</ele>
        <time>2021-10-29T16:57:59Z</time>
      </trkpt>
      <trkpt lat="42.42222" lon="2.71965">
        <ele>1367.1</ele>
        <time>2021-10-29T16:57:59Z</time>
      </trkpt>
      <trkpt lat="42.42218" lon="2.72015">
        <ele>1366.71</ele>
        <time>2021-10-29T16:57:59Z</time>
      </trkpt>
      <trkpt lat="42.42229" lon="2.72047">
        <ele>1363.76</ele>
        <time>2021-10-29T16:57:59Z</time>
      </trkpt>
      <trkpt lat="42.42242" lon="2.72084">
        <ele>1363.25</ele>
        <time>2021-10-29T16:57:59Z</time>
      </trkpt>
      <trkpt lat="42.42246" lon="2.72115">
        <ele>1366.94</ele>
        <time>2021-10-29T16:57:59Z</time>
      </trkpt>
      <trkpt lat="42.4227" lon="2.72135">
        <ele>1364.28</ele>
        <time>2021-10-29T16:57:59Z</time>
      </trkpt>
      <trkpt lat="42.42291" lon="2.72175">
        <ele>1360.51</ele>
        <time>2021-10-29T16:57:59Z</time>
      </trkpt>
      <trkpt lat="42.42304" lon="2.72186">
        <ele>1357.02</ele>
        <time>2021-10-29T16:57:59Z</time>
      </trkpt>
      <trkpt lat="42.42363" lon="2.7228">
        <ele>1342.92</ele>
        <time>2021-10-29T16:57:59Z</time>
      </trkpt>
      <trkpt lat="42.4238" lon="2.72325">
        <ele>1352.89</ele>
        <time>2021-10-29T16:57:59Z</time>
      </trkpt>
      <trkpt lat="42.42411" lon="2.72356">
        <ele>1357.17</ele>
        <time>2021-10-29T16:57:59Z</time>
      </trkpt>
      <trkpt lat="42.42446" lon="2.72359">
        <ele>1347.96</ele>
        <time>2021-10-29T16:57:59Z</time>
      </trkpt>
      <trkpt lat="42.42481" lon="2.72363">
        <ele>1332.1</ele>
        <time>2021-10-29T16:57:59Z</time>
      </trkpt>
      <trkpt lat="42.42506" lon="2.72365">
        <ele>1325.88</ele>
        <time>2021-10-29T16:57:59Z</time>
      </trkpt>
      <trkpt lat="42.42531" lon="2.72368">
        <ele>1326.31</ele>
        <time>2021-10-29T16:57:59Z</time>
      </trkpt>
      <trkpt lat="42.42558" lon="2.72343">
        <ele>1323.24</ele>
        <time>2021-10-29T16:57:59Z</time>
      </trkpt>
      <trkpt lat="42.42582" lon="2.72321">
        <ele>1321.36</ele>
        <time>2021-10-29T16:57:59Z</time>
      </trkpt>
      <trkpt lat="42.42613" lon="2.72293">
        <ele>1312.06</ele>
        <time>2021-10-29T16:57:59Z</time>
      </trkpt>
      <trkpt lat="42.42614" lon="2.72305">
        <ele>1316.25</ele>
        <time>2021-10-29T16:57:59Z</time>
      </trkpt>
      <trkpt lat="42.42603" lon="2.72334">
        <ele>1318.84</ele>
        <time>2021-10-29T16:57:59Z</time>
      </trkpt>
      <trkpt lat="42.42579" lon="2.72355">
        <ele>1315.94</ele>
        <time>2021-10-29T16:57:59Z</time>
      </trkpt>
      <trkpt lat="42.42548" lon="2.72382">
        <ele>1317.87</ele>
        <time>2021-10-29T16:57:59Z</time>
      </trkpt>
      <trkpt lat="42.42532" lon="2.72412">
        <ele>1317.3</ele>
        <time>2021-10-29T16:57:59Z</time>
      </trkpt>
      <trkpt lat="42.42511" lon="2.72451">
        <ele>1314.86</ele>
        <time>2021-10-29T16:57:59Z</time>
      </trkpt>
      <trkpt lat="42.42488" lon="2.72473">
        <ele>1317.93</ele>
        <time>2021-10-29T16:57:59Z</time>
      </trkpt>
      <trkpt lat="42.42457" lon="2.72502">
        <ele>1322.28</ele>
        <time>2021-10-29T16:57:59Z</time>
      </trkpt>
      <trkpt lat="42.42447" lon="2.72526">
        <ele>1320.23</ele>
        <time>2021-10-29T16:57:59Z</time>
      </trkpt>
      <trkpt lat="42.42442" lon="2.72571">
        <ele>1315.29</ele>
        <time>2021-10-29T16:57:59Z</time>
      </trkpt>
      <trkpt lat="42.42456" lon="2.72612">
        <ele>1317.61</ele>
        <time>2021-10-29T16:57:59Z</time>
      </trkpt>
      <trkpt lat="42.42473" lon="2.72632">
        <ele>1312.84</ele>
        <time>2021-10-29T16:57:59Z</time>
      </trkpt>
      <trkpt lat="42.42483" lon="2.72666">
        <ele>1310.05</ele>
        <time>2021-10-29T16:57:59Z</time>
      </trkpt>
      <trkpt lat="42.42488" lon="2.72713">
        <ele>1305.54</ele>
        <time>2021-10-29T16:57:59Z</time>
      </trkpt>
      <trkpt lat="42.42488" lon="2.72752">
        <ele>1307.85</ele>
        <time>2021-10-29T16:57:59Z</time>
      </trkpt>
      <trkpt lat="42.42488" lon="2.72806">
        <ele>1317.04</ele>
        <time>2021-10-29T16:57:59Z</time>
      </trkpt>
      <trkpt lat="42.42513" lon="2.72823">
        <ele>1310.14</ele>
        <time>2021-10-29T16:57:59Z</time>
      </trkpt>
      <trkpt lat="42.42547" lon="2.72845">
        <ele>1308.53</ele>
        <time>2021-10-29T16:57:59Z</time>
      </trkpt>
      <trkpt lat="42.42576" lon="2.72839">
        <ele>1296.94</ele>
        <time>2021-10-29T16:57:59Z</time>
      </trkpt>
      <trkpt lat="42.42582" lon="2.72864">
        <ele>1292.44</ele>
        <time>2021-10-29T16:57:59Z</time>
      </trkpt>
      <trkpt lat="42.42563" lon="2.729">
        <ele>1294.83</ele>
        <time>2021-10-29T16:57:59Z</time>
      </trkpt>
      <trkpt lat="42.42539" lon="2.72924">
        <ele>1303.45</ele>
        <time>2021-10-29T16:57:59Z</time>
      </trkpt>
      <trkpt lat="42.42525" lon="2.72979">
        <ele>1300.04</ele>
        <time>2021-10-29T16:57:59Z</time>
      </trkpt>
      <trkpt lat="42.42533" lon="2.73025">
        <ele>1292.77</ele>
        <time>2021-10-29T16:57:59Z</time>
      </trkpt>
      <trkpt lat="42.42548" lon="2.73083">
        <ele>1305.1</ele>
        <time>2021-10-29T16:57:59Z</time>
      </trkpt>
      <trkpt lat="42.42582" lon="2.73104">
        <ele>1307.51</ele>
        <time>2021-10-29T16:57:59Z</time>
      </trkpt>
      <trkpt lat="42.42599" lon="2.731">
        <ele>1301.87</ele>
        <time>2021-10-29T16:57:59Z</time>
      </trkpt>
      <trkpt lat="42.42647" lon="2.73131">
        <ele>1306.2</ele>
        <time>2021-10-29T16:57:59Z</time>
      </trkpt>
      <trkpt lat="42.42686" lon="2.73138">
        <ele>1303.46</ele>
        <time>2021-10-29T16:57:59Z</time>
      </trkpt>
      <trkpt lat="42.42709" lon="2.73167">
        <ele>1313.21</ele>
        <time>2021-10-29T16:57:59Z</time>
      </trkpt>
      <trkpt lat="42.42715" lon="2.73203">
        <ele>1324.09</ele>
        <time>2021-10-29T16:57:59Z</time>
      </trkpt>
      <trkpt lat="42.42723" lon="2.73247">
        <ele>1324.84</ele>
        <time>2021-10-29T16:57:59Z</time>
      </trkpt>
      <trkpt lat="42.42726" lon="2.73282">
        <ele>1318.22</ele>
        <time>2021-10-29T16:57:59Z</time>
      </trkpt>
      <trkpt lat="42.42729" lon="2.73321">
        <ele>1312.37</ele>
        <time>2021-10-29T16:57:59Z</time>
      </trkpt>
      <trkpt lat="42.42734" lon="2.73354">
        <ele>1308.83</ele>
        <time>2021-10-29T16:57:59Z</time>
      </trkpt>
      <trkpt lat="42.4274" lon="2.73389">
        <ele>1307.51</ele>
        <time>2021-10-29T16:57:59Z</time>
      </trkpt>
      <trkpt lat="42.42761" lon="2.73434">
        <ele>1306.26</ele>
        <time>2021-10-29T16:57:59Z</time>
      </trkpt>
      <trkpt lat="42.42762" lon="2.73485">
        <ele>1312.53</ele>
        <time>2021-10-29T16:57:59Z</time>
      </trkpt>
      <trkpt lat="42.42761" lon="2.735">
        <ele>1312.76</ele>
        <time>2021-10-29T16:57:59Z</time>
      </trkpt>
      <trkpt lat="42.42751" lon="2.73522">
        <ele>1310.6</ele>
        <time>2021-10-29T16:57:59Z</time>
      </trkpt>
      <trkpt lat="42.42767" lon="2.73536">
        <ele>1300.98</ele>
        <time>2021-10-29T16:57:59Z</time>
      </trkpt>
      <trkpt lat="42.42753" lon="2.73566">
        <ele>1291.93</ele>
        <time>2021-10-29T16:57:59Z</time>
      </trkpt>
      <trkpt lat="42.42732" lon="2.73592">
        <ele>1288</ele>
        <time>2021-10-29T16:57:59Z</time>
      </trkpt>
      <trkpt lat="42.42703" lon="2.73627">
        <ele>1289.63</ele>
        <time>2021-10-29T16:57:59Z</time>
      </trkpt>
      <trkpt lat="42.42663" lon="2.73641">
        <ele>1287.49</ele>
        <time>2021-10-29T16:57:59Z</time>
      </trkpt>
      <trkpt lat="42.42627" lon="2.73626">
        <ele>1286</ele>
        <time>2021-10-29T16:57:59Z</time>
      </trkpt>
      <trkpt lat="42.4262" lon="2.73634">
        <ele>1278.28</ele>
        <time>2021-10-29T16:57:59Z</time>
      </trkpt>
      <trkpt lat="42.42616" lon="2.73672">
        <ele>1262.55</ele>
        <time>2021-10-29T16:57:59Z</time>
      </trkpt>
      <trkpt lat="42.42603" lon="2.73708">
        <ele>1259.07</ele>
        <time>2021-10-29T16:57:59Z</time>
      </trkpt>
      <trkpt lat="42.42576" lon="2.73749">
        <ele>1266.91</ele>
        <time>2021-10-29T16:57:59Z</time>
      </trkpt>
      <trkpt lat="42.42549" lon="2.7379">
        <ele>1265.43</ele>
        <time>2021-10-29T16:57:59Z</time>
      </trkpt>
      <trkpt lat="42.42522" lon="2.73831">
        <ele>1260.24</ele>
        <time>2021-10-29T16:57:59Z</time>
      </trkpt>
      <trkpt lat="42.42496" lon="2.73872">
        <ele>1250.62</ele>
        <time>2021-10-29T16:57:59Z</time>
      </trkpt>
      <trkpt lat="42.42478" lon="2.73898">
        <ele>1243.2</ele>
        <time>2021-10-29T16:57:59Z</time>
      </trkpt>
      <trkpt lat="42.4246" lon="2.73926">
        <ele>1236.78</ele>
        <time>2021-10-29T16:57:59Z</time>
      </trkpt>
      <trkpt lat="42.42435" lon="2.73956">
        <ele>1235.23</ele>
        <time>2021-10-29T16:57:59Z</time>
      </trkpt>
      <trkpt lat="42.4241" lon="2.73985">
        <ele>1238.18</ele>
        <time>2021-10-29T16:57:59Z</time>
      </trkpt>
      <trkpt lat="42.42385" lon="2.74015">
        <ele>1238.26</ele>
        <time>2021-10-29T16:57:59Z</time>
      </trkpt>
      <trkpt lat="42.42364" lon="2.74024">
        <ele>1235.91</ele>
        <time>2021-10-29T16:57:59Z</time>
      </trkpt>
      <trkpt lat="42.42333" lon="2.74003">
        <ele>1234.79</ele>
        <time>2021-10-29T16:57:59Z</time>
      </trkpt>
      <trkpt lat="42.42302" lon="2.73982">
        <ele>1230.16</ele>
        <time>2021-10-29T16:57:59Z</time>
      </trkpt>
      <trkpt lat="42.42263" lon="2.73955">
        <ele>1217.07</ele>
        <time>2021-10-29T16:57:59Z</time>
      </trkpt>
      <trkpt lat="42.42241" lon="2.73966">
        <ele>1215.51</ele>
        <time>2021-10-29T16:57:59Z</time>
      </trkpt>
      <trkpt lat="42.42235" lon="2.74007">
        <ele>1215.79</ele>
        <time>2021-10-29T16:57:59Z</time>
      </trkpt>
      <trkpt lat="42.42231" lon="2.74041">
        <ele>1213.16</ele>
        <time>2021-10-29T16:57:59Z</time>
      </trkpt>
      <trkpt lat="42.42226" lon="2.74075">
        <ele>1211.27</ele>
        <time>2021-10-29T16:57:59Z</time>
      </trkpt>
      <trkpt lat="42.42214" lon="2.74134">
        <ele>1209.57</ele>
        <time>2021-10-29T16:57:59Z</time>
      </trkpt>
      <trkpt lat="42.422" lon="2.74169">
        <ele>1207.04</ele>
        <time>2021-10-29T16:57:59Z</time>
      </trkpt>
      <trkpt lat="42.42181" lon="2.74219">
        <ele>1202.58</ele>
        <time>2021-10-29T16:57:59Z</time>
      </trkpt>
      <trkpt lat="42.42175" lon="2.74274">
        <ele>1195.22</ele>
        <time>2021-10-29T16:57:59Z</time>
      </trkpt>
      <trkpt lat="42.42154" lon="2.74307">
        <ele>1192.77</ele>
        <time>2021-10-29T16:57:59Z</time>
      </trkpt>
      <trkpt lat="42.42146" lon="2.74351">
        <ele>1187.99</ele>
        <time>2021-10-29T16:57:59Z</time>
      </trkpt>
      <trkpt lat="42.42137" lon="2.74394">
        <ele>1183.88</ele>
        <time>2021-10-29T16:57:59Z</time>
      </trkpt>
      <trkpt lat="42.42129" lon="2.74439">
        <ele>1180.38</ele>
        <time>2021-10-29T16:57:59Z</time>
      </trkpt>
      <trkpt lat="42.42112" lon="2.74482">
        <ele>1176.16</ele>
        <time>2021-10-29T16:57:59Z</time>
      </trkpt>
      <trkpt lat="42.42096" lon="2.74525">
        <ele>1170.76</ele>
        <time>2021-10-29T16:57:59Z</time>
      </trkpt>
      <trkpt lat="42.42084" lon="2.74557">
        <ele>1166.63</ele>
        <time>2021-10-29T16:57:59Z</time>
      </trkpt>
      <trkpt lat="42.4207" lon="2.74593">
        <ele>1161.87</ele>
        <time>2021-10-29T16:57:59Z</time>
      </trkpt>
      <trkpt lat="42.42047" lon="2.74628">
        <ele>1155.45</ele>
        <time>2021-10-29T16:57:59Z</time>
      </trkpt>
      <trkpt lat="42.42011" lon="2.7466">
        <ele>1147.78</ele>
        <time>2021-10-29T16:57:59Z</time>
      </trkpt>
      <trkpt lat="42.41976" lon="2.74693">
        <ele>1139.98</ele>
        <time>2021-10-29T16:57:59Z</time>
      </trkpt>
      <trkpt lat="42.4194" lon="2.74725">
        <ele>1133.75</ele>
        <time>2021-10-29T16:57:59Z</time>
      </trkpt>
      <trkpt lat="42.41905" lon="2.74758">
        <ele>1128.36</ele>
        <time>2021-10-29T16:57:59Z</time>
      </trkpt>
      <trkpt lat="42.41869" lon="2.7479">
        <ele>1124.08</ele>
        <time>2021-10-29T16:57:59Z</time>
      </trkpt>
      <trkpt lat="42.41834" lon="2.74823">
        <ele>1116.92</ele>
        <time>2021-10-29T16:57:59Z</time>
      </trkpt>
      <trkpt lat="42.41813" lon="2.74842">
        <ele>1114.09</ele>
        <time>2021-10-29T16:57:59Z</time>
      </trkpt>
      <trkpt lat="42.4179" lon="2.74863">
        <ele>1114.12</ele>
        <time>2021-10-29T16:57:59Z</time>
      </trkpt>
      <trkpt lat="42.41795" lon="2.74879">
        <ele>1111.13</ele>
        <time>2021-10-29T16:57:59Z</time>
      </trkpt>
      <trkpt lat="42.41824" lon="2.74856">
        <ele>1108.19</ele>
        <time>2021-10-29T16:57:59Z</time>
      </trkpt>
      <trkpt lat="42.41856" lon="2.74864">
        <ele>1100.91</ele>
        <time>2021-10-29T16:57:59Z</time>
      </trkpt>
      <trkpt lat="42.41884" lon="2.7487">
        <ele>1097.14</ele>
        <time>2021-10-29T16:57:59Z</time>
      </trkpt>
      <trkpt lat="42.4192" lon="2.74879">
        <ele>1096.29</ele>
        <time>2021-10-29T16:57:59Z</time>
      </trkpt>
      <trkpt lat="42.4192" lon="2.74891">
        <ele>1093.63</ele>
        <time>2021-10-29T16:57:59Z</time>
      </trkpt>
      <trkpt lat="42.41844" lon="2.74946">
        <ele>1081.98</ele>
        <time>2021-10-29T16:57:59Z</time>
      </trkpt>
      <trkpt lat="42.41838" lon="2.74982">
        <ele>1077.8</ele>
        <time>2021-10-29T16:57:59Z</time>
      </trkpt>
      <trkpt lat="42.4183" lon="2.75027">
        <ele>1074.86</ele>
        <time>2021-10-29T16:57:59Z</time>
      </trkpt>
      <trkpt lat="42.41821" lon="2.75061">
        <ele>1071.07</ele>
        <time>2021-10-29T16:57:59Z</time>
      </trkpt>
      <trkpt lat="42.4181" lon="2.75101">
        <ele>1066.93</ele>
        <time>2021-10-29T16:57:59Z</time>
      </trkpt>
      <trkpt lat="42.41789" lon="2.75144">
        <ele>1063.38</ele>
        <time>2021-10-29T16:57:59Z</time>
      </trkpt>
      <trkpt lat="42.41767" lon="2.75186">
        <ele>1058.45</ele>
        <time>2021-10-29T16:57:59Z</time>
      </trkpt>
      <trkpt lat="42.41746" lon="2.75229">
        <ele>1052.82</ele>
        <time>2021-10-29T16:57:59Z</time>
      </trkpt>
      <trkpt lat="42.4172" lon="2.75282">
        <ele>1044.03</ele>
        <time>2021-10-29T16:57:59Z</time>
      </trkpt>
      <trkpt lat="42.4169" lon="2.75304">
        <ele>1041.13</ele>
        <time>2021-10-29T16:57:59Z</time>
      </trkpt>
      <trkpt lat="42.4166" lon="2.75327">
        <ele>1036.8</ele>
        <time>2021-10-29T16:57:59Z</time>
      </trkpt>
      <trkpt lat="42.41623" lon="2.75354">
        <ele>1032.01</ele>
        <time>2021-10-29T16:57:59Z</time>
      </trkpt>
      <trkpt lat="42.41598" lon="2.75384">
        <ele>1027.93</ele>
        <time>2021-10-29T16:57:59Z</time>
      </trkpt>
      <trkpt lat="42.41572" lon="2.75415">
        <ele>1024.48</ele>
        <time>2021-10-29T16:57:59Z</time>
      </trkpt>
      <trkpt lat="42.41544" lon="2.75449">
        <ele>1022.41</ele>
        <time>2021-10-29T16:57:59Z</time>
      </trkpt>
      <trkpt lat="42.41526" lon="2.75485">
        <ele>1019.27</ele>
        <time>2021-10-29T16:57:59Z</time>
      </trkpt>
      <trkpt lat="42.41511" lon="2.75516">
        <ele>1016.79</ele>
        <time>2021-10-29T16:57:59Z</time>
      </trkpt>
      <trkpt lat="42.41493" lon="2.75553">
        <ele>1013.41</ele>
        <time>2021-10-29T16:57:59Z</time>
      </trkpt>
      <trkpt lat="42.41489" lon="2.75601">
        <ele>1011.82</ele>
        <time>2021-10-29T16:57:59Z</time>
      </trkpt>
      <trkpt lat="42.41485" lon="2.75648">
        <ele>1008.42</ele>
        <time>2021-10-29T16:57:59Z</time>
      </trkpt>
      <trkpt lat="42.41482" lon="2.75683">
        <ele>1007.05</ele>
        <time>2021-10-29T16:57:59Z</time>
      </trkpt>
      <trkpt lat="42.41479" lon="2.75719">
        <ele>1005.65</ele>
        <time>2021-10-29T16:57:59Z</time>
      </trkpt>
      <trkpt lat="42.41461" lon="2.75761">
        <ele>1001.83</ele>
        <time>2021-10-29T16:57:59Z</time>
      </trkpt>
      <trkpt lat="42.41443" lon="2.75803">
        <ele>997.62</ele>
        <time>2021-10-29T16:57:59Z</time>
      </trkpt>
      <trkpt lat="42.4143" lon="2.75834">
        <ele>994.73</ele>
        <time>2021-10-29T16:57:59Z</time>
      </trkpt>
      <trkpt lat="42.41415" lon="2.75869">
        <ele>991.37</ele>
        <time>2021-10-29T16:57:59Z</time>
      </trkpt>
      <trkpt lat="42.41412" lon="2.7593">
        <ele>985.45</ele>
        <time>2021-10-29T16:57:59Z</time>
      </trkpt>
      <trkpt lat="42.41427" lon="2.75991">
        <ele>980.21</ele>
        <time>2021-10-29T16:57:59Z</time>
      </trkpt>
      <trkpt lat="42.41414" lon="2.76026">
        <ele>977.06</ele>
        <time>2021-10-29T16:57:59Z</time>
      </trkpt>
      <trkpt lat="42.41396" lon="2.76074">
        <ele>970.29</ele>
        <time>2021-10-29T16:57:59Z</time>
      </trkpt>
      <trkpt lat="42.41368" lon="2.76098">
        <ele>966.8</ele>
        <time>2021-10-29T16:57:59Z</time>
      </trkpt>
      <trkpt lat="42.4134" lon="2.76122">
        <ele>962.9</ele>
        <time>2021-10-29T16:57:59Z</time>
      </trkpt>
      <trkpt lat="42.41312" lon="2.76147">
        <ele>957.25</ele>
        <time>2021-10-29T16:57:59Z</time>
      </trkpt>
      <trkpt lat="42.41293" lon="2.76191">
        <ele>948.61</ele>
        <time>2021-10-29T16:57:59Z</time>
      </trkpt>
      <trkpt lat="42.41274" lon="2.76235">
        <ele>940.74</ele>
        <time>2021-10-29T16:57:59Z</time>
      </trkpt>
      <trkpt lat="42.41255" lon="2.76278">
        <ele>933.61</ele>
        <time>2021-10-29T16:57:59Z</time>
      </trkpt>
      <trkpt lat="42.41235" lon="2.76325">
        <ele>927.36</ele>
        <time>2021-10-29T16:57:59Z</time>
      </trkpt>
      <trkpt lat="42.41226" lon="2.7637">
        <ele>921.38</ele>
        <time>2021-10-29T16:57:59Z</time>
      </trkpt>
      <trkpt lat="42.41217" lon="2.76416">
        <ele>915.91</ele>
        <time>2021-10-29T16:57:59Z</time>
      </trkpt>
      <trkpt lat="42.41205" lon="2.76475">
        <ele>913.53</ele>
        <time>2021-10-29T16:57:59Z</time>
      </trkpt>
      <trkpt lat="42.41191" lon="2.76513">
        <ele>909.26</ele>
        <time>2021-10-29T16:57:59Z</time>
      </trkpt>
      <trkpt lat="42.41179" lon="2.76544">
        <ele>906.39</ele>
        <time>2021-10-29T16:57:59Z</time>
      </trkpt>
      <trkpt lat="42.41167" lon="2.76578">
        <ele>903.99</ele>
        <time>2021-10-29T16:57:59Z</time>
      </trkpt>
      <trkpt lat="42.41162" lon="2.76627">
        <ele>899.94</ele>
        <time>2021-10-29T16:57:59Z</time>
      </trkpt>
      <trkpt lat="42.41158" lon="2.76677">
        <ele>896.49</ele>
        <time>2021-10-29T16:57:59Z</time>
      </trkpt>
      <trkpt lat="42.41154" lon="2.76716">
        <ele>893.05</ele>
        <time>2021-10-29T16:57:59Z</time>
      </trkpt>
      <trkpt lat="42.41149" lon="2.7677">
        <ele>889.35</ele>
        <time>2021-10-29T16:57:59Z</time>
      </trkpt>
      <trkpt lat="42.41151" lon="2.76813">
        <ele>885.45</ele>
        <time>2021-10-29T16:57:59Z</time>
      </trkpt>
      <trkpt lat="42.41152" lon="2.7685">
        <ele>883.42</ele>
        <time>2021-10-29T16:57:59Z</time>
      </trkpt>
      <trkpt lat="42.41154" lon="2.76893">
        <ele>883.47</ele>
        <time>2021-10-29T16:57:59Z</time>
      </trkpt>
      <trkpt lat="42.41141" lon="2.76929">
        <ele>885.66</ele>
        <time>2021-10-29T16:57:59Z</time>
      </trkpt>
      <trkpt lat="42.41122" lon="2.76982">
        <ele>890.59</ele>
        <time>2021-10-29T16:57:59Z</time>
      </trkpt>
      <trkpt lat="42.41095" lon="2.76998">
        <ele>884.85</ele>
        <time>2021-10-29T16:57:59Z</time>
      </trkpt>
      <trkpt lat="42.41054" lon="2.77021">
        <ele>881.31</ele>
        <time>2021-10-29T16:57:59Z</time>
      </trkpt>
      <trkpt lat="42.4104" lon="2.77058">
        <ele>881.75</ele>
        <time>2021-10-29T16:57:59Z</time>
      </trkpt>
      <trkpt lat="42.41018" lon="2.77118">
        <ele>877.21</ele>
        <time>2021-10-29T16:57:59Z</time>
      </trkpt>
      <trkpt lat="42.4099" lon="2.77146">
        <ele>868.92</ele>
        <time>2021-10-29T16:57:59Z</time>
      </trkpt>
      <trkpt lat="42.40963" lon="2.77174">
        <ele>865.48</ele>
        <time>2021-10-29T16:57:59Z</time>
      </trkpt>
      <trkpt lat="42.40927" lon="2.7721">
        <ele>856.24</ele>
        <time>2021-10-29T16:57:59Z</time>
      </trkpt>
      <trkpt lat="42.40945" lon="2.77252">
        <ele>854.98</ele>
        <time>2021-10-29T16:57:59Z</time>
      </trkpt>
      <trkpt lat="42.40974" lon="2.77261">
        <ele>854.64</ele>
        <time>2021-10-29T16:57:59Z</time>
      </trkpt>
      <trkpt lat="42.41017" lon="2.77274">
        <ele>852.49</ele>
        <time>2021-10-29T16:57:59Z</time>
      </trkpt>
      <trkpt lat="42.41051" lon="2.77274">
        <ele>852.2</ele>
        <time>2021-10-29T16:57:59Z</time>
      </trkpt>
      <trkpt lat="42.41086" lon="2.77273">
        <ele>849.37</ele>
        <time>2021-10-29T16:57:59Z</time>
      </trkpt>
      <trkpt lat="42.41128" lon="2.77273">
        <ele>851.6</ele>
        <time>2021-10-29T16:57:59Z</time>
      </trkpt>
      <trkpt lat="42.41152" lon="2.77303">
        <ele>846.49</ele>
        <time>2021-10-29T16:57:59Z</time>
      </trkpt>
      <trkpt lat="42.41173" lon="2.77328">
        <ele>841.82</ele>
        <time>2021-10-29T16:57:59Z</time>
      </trkpt>
      <trkpt lat="42.41199" lon="2.77361">
        <ele>839.14</ele>
        <time>2021-10-29T16:57:59Z</time>
      </trkpt>
      <trkpt lat="42.4121" lon="2.77414">
        <ele>834.9</ele>
        <time>2021-10-29T16:57:59Z</time>
      </trkpt>
      <trkpt lat="42.4121" lon="2.77454">
        <ele>830.86</ele>
        <time>2021-10-29T16:57:59Z</time>
      </trkpt>
      <trkpt lat="42.41206" lon="2.7749">
        <ele>827.98</ele>
        <time>2021-10-29T16:57:59Z</time>
      </trkpt>
      <trkpt lat="42.41202" lon="2.77531">
        <ele>822.57</ele>
        <time>2021-10-29T16:57:59Z</time>
      </trkpt>
      <trkpt lat="42.41202" lon="2.77574">
        <ele>818.83</ele>
        <time>2021-10-29T16:57:59Z</time>
      </trkpt>
      <trkpt lat="42.41194" lon="2.77611">
        <ele>815.51</ele>
        <time>2021-10-29T16:57:59Z</time>
      </trkpt>
      <trkpt lat="42.41179" lon="2.77639">
        <ele>812.19</ele>
        <time>2021-10-29T16:57:59Z</time>
      </trkpt>
      <trkpt lat="42.41163" lon="2.77669">
        <ele>808.95</ele>
        <time>2021-10-29T16:57:59Z</time>
      </trkpt>
      <trkpt lat="42.41158" lon="2.77723">
        <ele>813.23</ele>
        <time>2021-10-29T16:57:59Z</time>
      </trkpt>
      <trkpt lat="42.41137" lon="2.77764">
        <ele>797.56</ele>
        <time>2021-10-29T16:57:59Z</time>
      </trkpt>
      <trkpt lat="42.41126" lon="2.77805">
        <ele>786.55</ele>
        <time>2021-10-29T16:57:59Z</time>
      </trkpt>
      <trkpt lat="42.41117" lon="2.77839">
        <ele>780.98</ele>
        <time>2021-10-29T16:57:59Z</time>
      </trkpt>
      <trkpt lat="42.41107" lon="2.7788">
        <ele>776.14</ele>
        <time>2021-10-29T16:57:59Z</time>
      </trkpt>
      <trkpt lat="42.41127" lon="2.7792">
        <ele>771.72</ele>
        <time>2021-10-29T16:57:59Z</time>
      </trkpt>
      <trkpt lat="42.41153" lon="2.77919">
        <ele>771.58</ele>
        <time>2021-10-29T16:57:59Z</time>
      </trkpt>
      <trkpt lat="42.41184" lon="2.77919">
        <ele>767.1</ele>
        <time>2021-10-29T16:57:59Z</time>
      </trkpt>
      <trkpt lat="42.4119" lon="2.77958">
        <ele>758.54</ele>
        <time>2021-10-29T16:57:59Z</time>
      </trkpt>
      <trkpt lat="42.41199" lon="2.78014">
        <ele>750.23</ele>
        <time>2021-10-29T16:57:59Z</time>
      </trkpt>
      <trkpt lat="42.4121" lon="2.78045">
        <ele>748.28</ele>
        <time>2021-10-29T16:57:59Z</time>
      </trkpt>
      <trkpt lat="42.41222" lon="2.78078">
        <ele>742.93</ele>
        <time>2021-10-29T16:57:59Z</time>
      </trkpt>
      <trkpt lat="42.41263" lon="2.78111">
        <ele>738.07</ele>
        <time>2021-10-29T16:57:59Z</time>
      </trkpt>
      <trkpt lat="42.41288" lon="2.78103">
        <ele>737.01</ele>
        <time>2021-10-29T16:57:59Z</time>
      </trkpt>
      <trkpt lat="42.41314" lon="2.78094">
        <ele>732.84</ele>
        <time>2021-10-29T16:57:59Z</time>
      </trkpt>
      <trkpt lat="42.41337" lon="2.78081">
        <ele>730.35</ele>
        <time>2021-10-29T16:57:59Z</time>
      </trkpt>
      <trkpt lat="42.41362" lon="2.78067">
        <ele>728.08</ele>
        <time>2021-10-29T16:57:59Z</time>
      </trkpt>
      <trkpt lat="42.41407" lon="2.7807">
        <ele>722.01</ele>
        <time>2021-10-29T16:57:59Z</time>
      </trkpt>
      <trkpt lat="42.41432" lon="2.78086">
        <ele>718.94</ele>
        <time>2021-10-29T16:57:59Z</time>
      </trkpt>
      <trkpt lat="42.41462" lon="2.78106">
        <ele>714.91</ele>
        <time>2021-10-29T16:57:59Z</time>
      </trkpt>
      <trkpt lat="42.41483" lon="2.78151">
        <ele>712.03</ele>
        <time>2021-10-29T16:57:59Z</time>
      </trkpt>
      <trkpt lat="42.41519" lon="2.78148">
        <ele>714.26</ele>
        <time>2021-10-29T16:57:59Z</time>
      </trkpt>
      <trkpt lat="42.41553" lon="2.78142">
        <ele>715.22</ele>
        <time>2021-10-29T16:57:59Z</time>
      </trkpt>
      <trkpt lat="42.41587" lon="2.78137">
        <ele>716.54</ele>
        <time>2021-10-29T16:57:59Z</time>
      </trkpt>
      <trkpt lat="42.41629" lon="2.7813">
        <ele>716.89</ele>
        <time>2021-10-29T16:57:59Z</time>
      </trkpt>
      <trkpt lat="42.41662" lon="2.78111">
        <ele>713.03</ele>
        <time>2021-10-29T16:57:59Z</time>
      </trkpt>
      <trkpt lat="42.41696" lon="2.78092">
        <ele>709.48</ele>
        <time>2021-10-29T16:57:59Z</time>
      </trkpt>
      <trkpt lat="42.4172" lon="2.78078">
        <ele>706.71</ele>
        <time>2021-10-29T16:57:59Z</time>
      </trkpt>
      <trkpt lat="42.4175" lon="2.78062">
        <ele>701.51</ele>
        <time>2021-10-29T16:57:59Z</time>
      </trkpt>
      <trkpt lat="42.41782" lon="2.7806">
        <ele>695.99</ele>
        <time>2021-10-29T16:57:59Z</time>
      </trkpt>
      <trkpt lat="42.41809" lon="2.78059">
        <ele>688.35</ele>
        <time>2021-10-29T16:57:59Z</time>
      </trkpt>
      <trkpt lat="42.41842" lon="2.78057">
        <ele>680.44</ele>
        <time>2021-10-29T16:57:59Z</time>
      </trkpt>
      <trkpt lat="42.41881" lon="2.78063">
        <ele>672.19</ele>
        <time>2021-10-29T16:57:59Z</time>
      </trkpt>
      <trkpt lat="42.4192" lon="2.78068">
        <ele>664.21</ele>
        <time>2021-10-29T16:57:59Z</time>
      </trkpt>
      <trkpt lat="42.41959" lon="2.78074">
        <ele>658.37</ele>
        <time>2021-10-29T16:57:59Z</time>
      </trkpt>
      <trkpt lat="42.41988" lon="2.78078">
        <ele>648.29</ele>
        <time>2021-10-29T16:57:59Z</time>
      </trkpt>
      <trkpt lat="42.4203" lon="2.78084">
        <ele>635.94</ele>
        <time>2021-10-29T16:57:59Z</time>
      </trkpt>
      <trkpt lat="42.42074" lon="2.78113">
        <ele>629.31</ele>
        <time>2021-10-29T16:57:59Z</time>
      </trkpt>
      <trkpt lat="42.42097" lon="2.78141">
        <ele>629.53</ele>
        <time>2021-10-29T16:57:59Z</time>
      </trkpt>
      <trkpt lat="42.42117" lon="2.78165">
        <ele>624.09</ele>
        <time>2021-10-29T16:57:59Z</time>
      </trkpt>
      <trkpt lat="42.42138" lon="2.78191">
        <ele>625.74</ele>
        <time>2021-10-29T16:57:59Z</time>
      </trkpt>
      <trkpt lat="42.42174" lon="2.78182">
        <ele>615.33</ele>
        <time>2021-10-29T16:57:59Z</time>
      </trkpt>
      <trkpt lat="42.4221" lon="2.78173">
        <ele>612.52</ele>
        <time>2021-10-29T16:57:59Z</time>
      </trkpt>
      <trkpt lat="42.42238" lon="2.78166">
        <ele>608.15</ele>
        <time>2021-10-29T16:57:59Z</time>
      </trkpt>
      <trkpt lat="42.42277" lon="2.78156">
        <ele>596.76</ele>
        <time>2021-10-29T16:57:59Z</time>
      </trkpt>
      <trkpt lat="42.42299" lon="2.78172">
        <ele>593.13</ele>
        <time>2021-10-29T16:57:59Z</time>
      </trkpt>
      <trkpt lat="42.42323" lon="2.7819">
        <ele>584.25</ele>
        <time>2021-10-29T16:57:59Z</time>
      </trkpt>
      <trkpt lat="42.42329" lon="2.78253">
        <ele>571.72</ele>
        <time>2021-10-29T16:57:59Z</time>
      </trkpt>
      <trkpt lat="42.4234" lon="2.78301">
        <ele>570.95</ele>
        <time>2021-10-29T16:57:59Z</time>
      </trkpt>
      <trkpt lat="42.42373" lon="2.78333">
        <ele>555.73</ele>
        <time>2021-10-29T16:57:59Z</time>
      </trkpt>
      <trkpt lat="42.42397" lon="2.78367">
        <ele>551.43</ele>
        <time>2021-10-29T16:57:59Z</time>
      </trkpt>
      <trkpt lat="42.42421" lon="2.78402">
        <ele>552.73</ele>
        <time>2021-10-29T16:57:59Z</time>
      </trkpt>
      <trkpt lat="42.42455" lon="2.7845">
        <ele>553.86</ele>
        <time>2021-10-29T16:57:59Z</time>
      </trkpt>
      <trkpt lat="42.4248" lon="2.78453">
        <ele>552.21</ele>
        <time>2021-10-29T16:57:59Z</time>
      </trkpt>
      <trkpt lat="42.42506" lon="2.78456">
        <ele>551.33</ele>
        <time>2021-10-29T16:57:59Z</time>
      </trkpt>
      <trkpt lat="42.42536" lon="2.78477">
        <ele>549.44</ele>
        <time>2021-10-29T16:57:59Z</time>
      </trkpt>
      <trkpt lat="42.42567" lon="2.78498">
        <ele>546.77</ele>
        <time>2021-10-29T16:57:59Z</time>
      </trkpt>
      <trkpt lat="42.42604" lon="2.78523">
        <ele>542.37</ele>
        <time>2021-10-29T16:57:59Z</time>
      </trkpt>
      <trkpt lat="42.42614" lon="2.78584">
        <ele>541.39</ele>
        <time>2021-10-29T16:57:59Z</time>
      </trkpt>
      <trkpt lat="42.42655" lon="2.78604">
        <ele>539.56</ele>
        <time>2021-10-29T16:57:59Z</time>
      </trkpt>
      <trkpt lat="42.42679" lon="2.78624">
        <ele>534.07</ele>
        <time>2021-10-29T16:57:59Z</time>
      </trkpt>
      <trkpt lat="42.42711" lon="2.7865">
        <ele>535.53</ele>
        <time>2021-10-29T16:57:59Z</time>
      </trkpt>
      <trkpt lat="42.42739" lon="2.78668">
        <ele>535.22</ele>
        <time>2021-10-29T16:57:59Z</time>
      </trkpt>
      <trkpt lat="42.42762" lon="2.78682">
        <ele>534.83</ele>
        <time>2021-10-29T16:57:59Z</time>
      </trkpt>
      <trkpt lat="42.42786" lon="2.78697">
        <ele>535.29</ele>
        <time>2021-10-29T16:57:59Z</time>
      </trkpt>
      <trkpt lat="42.42758" lon="2.78693">
        <ele>540.43</ele>
        <time>2021-10-29T16:57:59Z</time>
      </trkpt>
      <trkpt lat="42.42722" lon="2.78688">
        <ele>548.92</ele>
        <time>2021-10-29T16:57:59Z</time>
      </trkpt>
      <trkpt lat="42.42738" lon="2.78721">
        <ele>553.89</ele>
        <time>2021-10-29T16:57:59Z</time>
      </trkpt>
      <trkpt lat="42.42759" lon="2.78766">
        <ele>560.57</ele>
        <time>2021-10-29T16:57:59Z</time>
      </trkpt>
      <trkpt lat="42.4276" lon="2.78809">
        <ele>568.74</ele>
        <time>2021-10-29T16:57:59Z</time>
      </trkpt>
      <trkpt lat="42.42761" lon="2.78845">
        <ele>568.91</ele>
        <time>2021-10-29T16:57:59Z</time>
      </trkpt>
      <trkpt lat="42.42762" lon="2.78887">
        <ele>570.9</ele>
        <time>2021-10-29T16:57:59Z</time>
      </trkpt>
      <trkpt lat="42.42763" lon="2.78931">
        <ele>577.25</ele>
        <time>2021-10-29T16:57:59Z</time>
      </trkpt>
      <trkpt lat="42.42764" lon="2.78968">
        <ele>582.56</ele>
        <time>2021-10-29T16:57:59Z</time>
      </trkpt>
      <trkpt lat="42.42765" lon="2.79015">
        <ele>584.76</ele>
        <time>2021-10-29T16:57:59Z</time>
      </trkpt>
      <trkpt lat="42.42774" lon="2.7898">
        <ele>588.29</ele>
        <time>2021-10-29T16:57:59Z</time>
      </trkpt>
      <trkpt lat="42.42786" lon="2.78937">
        <ele>589.24</ele>
        <time>2021-10-29T16:57:59Z</time>
      </trkpt>
      <trkpt lat="42.42805" lon="2.78896">
        <ele>592.12</ele>
        <time>2021-10-29T16:57:59Z</time>
      </trkpt>
      <trkpt lat="42.42808" lon="2.78853">
        <ele>588.51</ele>
        <time>2021-10-29T16:57:59Z</time>
      </trkpt>
      <trkpt lat="42.42834" lon="2.78836">
        <ele>591.23</ele>
        <time>2021-10-29T16:57:59Z</time>
      </trkpt>
      <trkpt lat="42.42861" lon="2.78834">
        <ele>591.6</ele>
        <time>2021-10-29T16:57:59Z</time>
      </trkpt>
      <trkpt lat="42.42843" lon="2.78861">
        <ele>597.82</ele>
        <time>2021-10-29T16:57:59Z</time>
      </trkpt>
      <trkpt lat="42.42822" lon="2.78894">
        <ele>601.12</ele>
        <time>2021-10-29T16:57:59Z</time>
      </trkpt>
      <trkpt lat="42.42818" lon="2.78943">
        <ele>605.44</ele>
        <time>2021-10-29T16:57:59Z</time>
      </trkpt>
      <trkpt lat="42.42813" lon="2.78993">
        <ele>610.12</ele>
        <time>2021-10-29T16:57:59Z</time>
      </trkpt>
      <trkpt lat="42.4281" lon="2.79032">
        <ele>612.44</ele>
        <time>2021-10-29T16:57:59Z</time>
      </trkpt>
      <trkpt lat="42.42805" lon="2.79085">
        <ele>615.29</ele>
        <time>2021-10-29T16:57:59Z</time>
      </trkpt>
      <trkpt lat="42.42787" lon="2.7912">
        <ele>614.71</ele>
        <time>2021-10-29T16:57:59Z</time>
      </trkpt>
      <trkpt lat="42.42771" lon="2.79149">
        <ele>615.62</ele>
        <time>2021-10-29T16:57:59Z</time>
      </trkpt>
      <trkpt lat="42.42754" lon="2.79182">
        <ele>615.92</ele>
        <time>2021-10-29T16:57:59Z</time>
      </trkpt>
      <trkpt lat="42.42758" lon="2.79244">
        <ele>623.72</ele>
        <time>2021-10-29T16:57:59Z</time>
      </trkpt>
      <trkpt lat="42.42773" lon="2.79235">
        <ele>630.64</ele>
        <time>2021-10-29T16:57:59Z</time>
      </trkpt>
      <trkpt lat="42.42797" lon="2.79158">
        <ele>627.84</ele>
        <time>2021-10-29T16:57:59Z</time>
      </trkpt>
      <trkpt lat="42.42819" lon="2.79138">
        <ele>632.85</ele>
        <time>2021-10-29T16:57:59Z</time>
      </trkpt>
      <trkpt lat="42.42843" lon="2.79117">
        <ele>637.63</ele>
        <time>2021-10-29T16:57:59Z</time>
      </trkpt>
      <trkpt lat="42.42849" lon="2.79081">
        <ele>639.68</ele>
        <time>2021-10-29T16:57:59Z</time>
      </trkpt>
      <trkpt lat="42.42856" lon="2.79038">
        <ele>638.51</ele>
        <time>2021-10-29T16:57:59Z</time>
      </trkpt>
      <trkpt lat="42.42871" lon="2.79005">
        <ele>639.56</ele>
        <time>2021-10-29T16:57:59Z</time>
      </trkpt>
      <trkpt lat="42.42891" lon="2.78963">
        <ele>637.64</ele>
        <time>2021-10-29T16:57:59Z</time>
      </trkpt>
      <trkpt lat="42.42914" lon="2.78987">
        <ele>642.91</ele>
        <time>2021-10-29T16:57:59Z</time>
      </trkpt>
      <trkpt lat="42.42891" lon="2.79012">
        <ele>647.79</ele>
        <time>2021-10-29T16:57:59Z</time>
      </trkpt>
      <trkpt lat="42.42883" lon="2.79056">
        <ele>651.26</ele>
        <time>2021-10-29T16:57:59Z</time>
      </trkpt>
      <trkpt lat="42.42877" lon="2.79093">
        <ele>654.85</ele>
        <time>2021-10-29T16:57:59Z</time>
      </trkpt>
      <trkpt lat="42.42868" lon="2.79143">
        <ele>655.04</ele>
        <time>2021-10-29T16:57:59Z</time>
      </trkpt>
      <trkpt lat="42.42852" lon="2.79179">
        <ele>657.43</ele>
        <time>2021-10-29T16:57:59Z</time>
      </trkpt>
      <trkpt lat="42.42838" lon="2.79209">
        <ele>655.35</ele>
        <time>2021-10-29T16:57:59Z</time>
      </trkpt>
      <trkpt lat="42.42824" lon="2.7924">
        <ele>652.6</ele>
        <time>2021-10-29T16:57:59Z</time>
      </trkpt>
      <trkpt lat="42.4282" lon="2.79275">
        <ele>655.51</ele>
        <time>2021-10-29T16:57:59Z</time>
      </trkpt>
      <trkpt lat="42.42816" lon="2.79313">
        <ele>656.25</ele>
        <time>2021-10-29T16:57:59Z</time>
      </trkpt>
      <trkpt lat="42.42791" lon="2.79347">
        <ele>654.86</ele>
        <time>2021-10-29T16:57:59Z</time>
      </trkpt>
      <trkpt lat="42.42808" lon="2.7936">
        <ele>661.92</ele>
        <time>2021-10-29T16:57:59Z</time>
      </trkpt>
      <trkpt lat="42.42832" lon="2.7933">
        <ele>664.17</ele>
        <time>2021-10-29T16:57:59Z</time>
      </trkpt>
      <trkpt lat="42.42839" lon="2.79296">
        <ele>666.16</ele>
        <time>2021-10-29T16:57:59Z</time>
      </trkpt>
      <trkpt lat="42.42846" lon="2.79259">
        <ele>666.41</ele>
        <time>2021-10-29T16:57:59Z</time>
      </trkpt>
      <trkpt lat="42.42866" lon="2.7922">
        <ele>670.62</ele>
        <time>2021-10-29T16:57:59Z</time>
      </trkpt>
      <trkpt lat="42.42885" lon="2.79182">
        <ele>671.53</ele>
        <time>2021-10-29T16:57:59Z</time>
      </trkpt>
      <trkpt lat="42.42911" lon="2.79132">
        <ele>672.74</ele>
        <time>2021-10-29T16:57:59Z</time>
      </trkpt>
      <trkpt lat="42.42949" lon="2.79109">
        <ele>673.58</ele>
        <time>2021-10-29T16:57:59Z</time>
      </trkpt>
      <trkpt lat="42.42975" lon="2.79118">
        <ele>674.55</ele>
        <time>2021-10-29T16:57:59Z</time>
      </trkpt>
      <trkpt lat="42.43005" lon="2.79128">
        <ele>674.67</ele>
        <time>2021-10-29T16:57:59Z</time>
      </trkpt>
      <trkpt lat="42.43022" lon="2.7918">
        <ele>677.28</ele>
        <time>2021-10-29T16:57:59Z</time>
      </trkpt>
      <trkpt lat="42.43021" lon="2.79228">
        <ele>679.6</ele>
        <time>2021-10-29T16:57:59Z</time>
      </trkpt>
      <trkpt lat="42.43021" lon="2.79276">
        <ele>679.76</ele>
        <time>2021-10-29T16:57:59Z</time>
      </trkpt>
      <trkpt lat="42.4302" lon="2.79311">
        <ele>680.17</ele>
        <time>2021-10-29T16:57:59Z</time>
      </trkpt>
      <trkpt lat="42.4302" lon="2.79349">
        <ele>679.79</ele>
        <time>2021-10-29T16:57:59Z</time>
      </trkpt>
      <trkpt lat="42.43003" lon="2.79378">
        <ele>680.86</ele>
        <time>2021-10-29T16:57:59Z</time>
      </trkpt>
      <trkpt lat="42.42982" lon="2.79414">
        <ele>681.5</ele>
        <time>2021-10-29T16:57:59Z</time>
      </trkpt>
      <trkpt lat="42.42973" lon="2.79448">
        <ele>680.92</ele>
        <time>2021-10-29T16:57:59Z</time>
      </trkpt>
      <trkpt lat="42.42963" lon="2.79489">
        <ele>682.48</ele>
        <time>2021-10-29T16:57:59Z</time>
      </trkpt>
      <trkpt lat="42.42989" lon="2.79522">
        <ele>687.07</ele>
        <time>2021-10-29T16:57:59Z</time>
      </trkpt>
      <trkpt lat="42.43014" lon="2.79554">
        <ele>690.4</ele>
        <time>2021-10-29T16:57:59Z</time>
      </trkpt>
      <trkpt lat="42.43033" lon="2.79578">
        <ele>690.86</ele>
        <time>2021-10-29T16:57:59Z</time>
      </trkpt>
      <trkpt lat="42.43052" lon="2.79602">
        <ele>694.32</ele>
        <time>2021-10-29T16:57:59Z</time>
      </trkpt>
      <trkpt lat="42.43084" lon="2.79627">
        <ele>695.17</ele>
        <time>2021-10-29T16:57:59Z</time>
      </trkpt>
      <trkpt lat="42.43117" lon="2.79653">
        <ele>698.31</ele>
        <time>2021-10-29T16:57:59Z</time>
      </trkpt>
      <trkpt lat="42.43149" lon="2.79679">
        <ele>703.8</ele>
        <time>2021-10-29T16:57:59Z</time>
      </trkpt>
      <trkpt lat="42.43184" lon="2.79706">
        <ele>708.79</ele>
        <time>2021-10-29T16:57:59Z</time>
      </trkpt>
      <trkpt lat="42.43176" lon="2.79743">
        <ele>713.57</ele>
        <time>2021-10-29T16:57:59Z</time>
      </trkpt>
      <trkpt lat="42.43166" lon="2.79791">
        <ele>717.35</ele>
        <time>2021-10-29T16:57:59Z</time>
      </trkpt>
      <trkpt lat="42.43167" lon="2.79836">
        <ele>719.36</ele>
        <time>2021-10-29T16:57:59Z</time>
      </trkpt>
      <trkpt lat="42.43168" lon="2.79881">
        <ele>717.07</ele>
        <time>2021-10-29T16:57:59Z</time>
      </trkpt>
      <trkpt lat="42.43169" lon="2.79928">
        <ele>712.6</ele>
        <time>2021-10-29T16:57:59Z</time>
      </trkpt>
      <trkpt lat="42.43176" lon="2.79967">
        <ele>712.26</ele>
        <time>2021-10-29T16:57:59Z</time>
      </trkpt>
      <trkpt lat="42.43186" lon="2.80025">
        <ele>713.2</ele>
        <time>2021-10-29T16:57:59Z</time>
      </trkpt>
      <trkpt lat="42.43218" lon="2.80028">
        <ele>713.35</ele>
        <time>2021-10-29T16:57:59Z</time>
      </trkpt>
      <trkpt lat="42.43246" lon="2.80031">
        <ele>715.91</ele>
        <time>2021-10-29T16:57:59Z</time>
      </trkpt>
      <trkpt lat="42.4328" lon="2.80035">
        <ele>720.33</ele>
        <time>2021-10-29T16:57:59Z</time>
      </trkpt>
      <trkpt lat="42.43307" lon="2.80057">
        <ele>720.46</ele>
        <time>2021-10-29T16:57:59Z</time>
      </trkpt>
      <trkpt lat="42.4333" lon="2.80075">
        <ele>721.74</ele>
        <time>2021-10-29T16:57:59Z</time>
      </trkpt>
      <trkpt lat="42.43356" lon="2.80096">
        <ele>724.27</ele>
        <time>2021-10-29T16:57:59Z</time>
      </trkpt>
      <trkpt lat="42.43388" lon="2.80103">
        <ele>726.08</ele>
        <time>2021-10-29T16:57:59Z</time>
      </trkpt>
      <trkpt lat="42.43416" lon="2.80109">
        <ele>728.86</ele>
        <time>2021-10-29T16:57:59Z</time>
      </trkpt>
      <trkpt lat="42.43451" lon="2.80117">
        <ele>734.15</ele>
        <time>2021-10-29T16:57:59Z</time>
      </trkpt>
      <trkpt lat="42.43464" lon="2.80161">
        <ele>735.06</ele>
        <time>2021-10-29T16:57:59Z</time>
      </trkpt>
      <trkpt lat="42.43476" lon="2.80205">
        <ele>731.8</ele>
        <time>2021-10-29T16:57:59Z</time>
      </trkpt>
      <trkpt lat="42.43494" lon="2.80267">
        <ele>726.07</ele>
        <time>2021-10-29T16:57:59Z</time>
      </trkpt>
      <trkpt lat="42.43512" lon="2.80309">
        <ele>725.47</ele>
        <time>2021-10-29T16:57:59Z</time>
      </trkpt>
      <trkpt lat="42.4353" lon="2.80352">
        <ele>727.82</ele>
        <time>2021-10-29T16:57:59Z</time>
      </trkpt>
      <trkpt lat="42.43544" lon="2.80385">
        <ele>727.74</ele>
        <time>2021-10-29T16:57:59Z</time>
      </trkpt>
      <trkpt lat="42.43562" lon="2.80426">
        <ele>723.88</ele>
        <time>2021-10-29T16:57:59Z</time>
      </trkpt>
      <trkpt lat="42.43555" lon="2.80475">
        <ele>715.86</ele>
        <time>2021-10-29T16:57:59Z</time>
      </trkpt>
      <trkpt lat="42.43548" lon="2.80524">
        <ele>708.86</ele>
        <time>2021-10-29T16:57:59Z</time>
      </trkpt>
      <trkpt lat="42.43542" lon="2.80563">
        <ele>707.42</ele>
        <time>2021-10-29T16:57:59Z</time>
      </trkpt>
      <trkpt lat="42.43534" lon="2.80619">
        <ele>710.25</ele>
        <time>2021-10-29T16:57:59Z</time>
      </trkpt>
      <trkpt lat="42.43561" lon="2.806">
        <ele>706.74</ele>
        <time>2021-10-29T16:57:59Z</time>
      </trkpt>
      <trkpt lat="42.43602" lon="2.80572">
        <ele>704.33</ele>
        <time>2021-10-29T16:57:59Z</time>
      </trkpt>
      <trkpt lat="42.43632" lon="2.8058">
        <ele>708.44</ele>
        <time>2021-10-29T16:57:59Z</time>
      </trkpt>
      <trkpt lat="42.43679" lon="2.80592">
        <ele>707.07</ele>
        <time>2021-10-29T16:57:59Z</time>
      </trkpt>
      <trkpt lat="42.4371" lon="2.80608">
        <ele>705.69</ele>
        <time>2021-10-29T16:57:59Z</time>
      </trkpt>
      <trkpt lat="42.43741" lon="2.80624">
        <ele>702.05</ele>
        <time>2021-10-29T16:57:59Z</time>
      </trkpt>
      <trkpt lat="42.43773" lon="2.8064">
        <ele>700.17</ele>
        <time>2021-10-29T16:57:59Z</time>
      </trkpt>
      <trkpt lat="42.43798" lon="2.80665">
        <ele>695.03</ele>
        <time>2021-10-29T16:57:59Z</time>
      </trkpt>
      <trkpt lat="42.43819" lon="2.80685">
        <ele>689.04</ele>
        <time>2021-10-29T16:57:59Z</time>
      </trkpt>
      <trkpt lat="42.43841" lon="2.80706">
        <ele>679.1</ele>
        <time>2021-10-29T16:57:59Z</time>
      </trkpt>
      <trkpt lat="42.43847" lon="2.80745">
        <ele>678.07</ele>
        <time>2021-10-29T16:57:59Z</time>
      </trkpt>
      <trkpt lat="42.43856" lon="2.80804">
        <ele>674.88</ele>
        <time>2021-10-29T16:57:59Z</time>
      </trkpt>
      <trkpt lat="42.43868" lon="2.80865">
        <ele>670.92</ele>
        <time>2021-10-29T16:57:59Z</time>
      </trkpt>
      <trkpt lat="42.43862" lon="2.80896">
        <ele>677.3</ele>
        <time>2021-10-29T16:57:59Z</time>
      </trkpt>
      <trkpt lat="42.43855" lon="2.80935">
        <ele>686.05</ele>
        <time>2021-10-29T16:57:59Z</time>
      </trkpt>
      <trkpt lat="42.43845" lon="2.80993">
        <ele>682.93</ele>
        <time>2021-10-29T16:57:59Z</time>
      </trkpt>
      <trkpt lat="42.43872" lon="2.81022">
        <ele>676.34</ele>
        <time>2021-10-29T16:57:59Z</time>
      </trkpt>
      <trkpt lat="42.43899" lon="2.81051">
        <ele>671.45</ele>
        <time>2021-10-29T16:57:59Z</time>
      </trkpt>
      <trkpt lat="42.43932" lon="2.81087">
        <ele>672.66</ele>
        <time>2021-10-29T16:57:59Z</time>
      </trkpt>
      <trkpt lat="42.43954" lon="2.81117">
        <ele>675.88</ele>
        <time>2021-10-29T16:57:59Z</time>
      </trkpt>
      <trkpt lat="42.43989" lon="2.81104">
        <ele>672.6</ele>
        <time>2021-10-29T16:57:59Z</time>
      </trkpt>
      <trkpt lat="42.44032" lon="2.81106">
        <ele>672.85</ele>
        <time>2021-10-29T16:57:59Z</time>
      </trkpt>
      <trkpt lat="42.44046" lon="2.81114">
        <ele>672.7</ele>
        <time>2021-10-29T16:57:59Z</time>
      </trkpt>
      <trkpt lat="42.44073" lon="2.81172">
        <ele>674.06</ele>
        <time>2021-10-29T16:57:59Z</time>
      </trkpt>
      <trkpt lat="42.44092" lon="2.81201">
        <ele>675.02</ele>
        <time>2021-10-29T16:57:59Z</time>
      </trkpt>
      <trkpt lat="42.44107" lon="2.81236">
        <ele>676.93</ele>
        <time>2021-10-29T16:57:59Z</time>
      </trkpt>
      <trkpt lat="42.44108" lon="2.81252">
        <ele>677.78</ele>
        <time>2021-10-29T16:57:59Z</time>
      </trkpt>
      <trkpt lat="42.44092" lon="2.81275">
        <ele>679.55</ele>
        <time>2021-10-29T16:57:59Z</time>
      </trkpt>
      <trkpt lat="42.44084" lon="2.81294">
        <ele>679.56</ele>
        <time>2021-10-29T16:57:59Z</time>
      </trkpt>
      <trkpt lat="42.44081" lon="2.81305">
        <ele>680.53</ele>
        <time>2021-10-29T16:57:59Z</time>
      </trkpt>
      <trkpt lat="42.44078" lon="2.81326">
        <ele>679.83</ele>
        <time>2021-10-29T16:57:59Z</time>
      </trkpt>
      <trkpt lat="42.44085" lon="2.81346">
        <ele>679.56</ele>
        <time>2021-10-29T16:57:59Z</time>
      </trkpt>
      <trkpt lat="42.44111" lon="2.81383">
        <ele>678.73</ele>
        <time>2021-10-29T16:57:59Z</time>
      </trkpt>
      <trkpt lat="42.44124" lon="2.81412">
        <ele>677.18</ele>
        <time>2021-10-29T16:57:59Z</time>
      </trkpt>
      <trkpt lat="42.44137" lon="2.81442">
        <ele>675.1</ele>
        <time>2021-10-29T16:57:59Z</time>
      </trkpt>
      <trkpt lat="42.44147" lon="2.81473">
        <ele>673.39</ele>
        <time>2021-10-29T16:57:59Z</time>
      </trkpt>
      <trkpt lat="42.44154" lon="2.81509">
        <ele>669.06</ele>
        <time>2021-10-29T16:57:59Z</time>
      </trkpt>
      <trkpt lat="42.44144" lon="2.81541">
        <ele>672.75</ele>
        <time>2021-10-29T16:57:59Z</time>
      </trkpt>
      <trkpt lat="42.44129" lon="2.816">
        <ele>672.89</ele>
        <time>2021-10-29T16:57:59Z</time>
      </trkpt>
      <trkpt lat="42.44128" lon="2.81627">
        <ele>673.15</ele>
        <time>2021-10-29T16:57:59Z</time>
      </trkpt>
      <trkpt lat="42.44133" lon="2.81663">
        <ele>673.29</ele>
        <time>2021-10-29T16:57:59Z</time>
      </trkpt>
      <trkpt lat="42.44149" lon="2.81691">
        <ele>675.44</ele>
        <time>2021-10-29T16:57:59Z</time>
      </trkpt>
      <trkpt lat="42.44172" lon="2.81708">
        <ele>678.66</ele>
        <time>2021-10-29T16:57:59Z</time>
      </trkpt>
      <trkpt lat="42.44197" lon="2.81726">
        <ele>678.2</ele>
        <time>2021-10-29T16:57:59Z</time>
      </trkpt>
      <trkpt lat="42.44204" lon="2.81764">
        <ele>677.68</ele>
        <time>2021-10-29T16:57:59Z</time>
      </trkpt>
      <trkpt lat="42.44215" lon="2.8182">
        <ele>674.09</ele>
        <time>2021-10-29T16:57:59Z</time>
      </trkpt>
      <trkpt lat="42.44208" lon="2.81851">
        <ele>673.3</ele>
        <time>2021-10-29T16:57:59Z</time>
      </trkpt>
      <trkpt lat="42.442" lon="2.81876">
        <ele>673.05</ele>
        <time>2021-10-29T16:57:59Z</time>
      </trkpt>
      <trkpt lat="42.44206" lon="2.81898">
        <ele>675.39</ele>
        <time>2021-10-29T16:57:59Z</time>
      </trkpt>
      <trkpt lat="42.44251" lon="2.819">
        <ele>672.54</ele>
        <time>2021-10-29T16:57:59Z</time>
      </trkpt>
      <trkpt lat="42.44283" lon="2.81951">
        <ele>675.71</ele>
        <time>2021-10-29T16:57:59Z</time>
      </trkpt>
      <trkpt lat="42.44301" lon="2.81994">
        <ele>678.86</ele>
        <time>2021-10-29T16:57:59Z</time>
      </trkpt>
      <trkpt lat="42.44302" lon="2.8203">
        <ele>681.12</ele>
        <time>2021-10-29T16:57:59Z</time>
      </trkpt>
      <trkpt lat="42.44304" lon="2.8207">
        <ele>672.77</ele>
        <time>2021-10-29T16:57:59Z</time>
      </trkpt>
      <trkpt lat="42.44301" lon="2.82099">
        <ele>670.57</ele>
        <time>2021-10-29T16:57:59Z</time>
      </trkpt>
      <trkpt lat="42.44306" lon="2.82146">
        <ele>668.83</ele>
        <time>2021-10-29T16:57:59Z</time>
      </trkpt>
      <trkpt lat="42.44303" lon="2.8218">
        <ele>671.07</ele>
        <time>2021-10-29T16:57:59Z</time>
      </trkpt>
      <trkpt lat="42.44299" lon="2.82219">
        <ele>667.98</ele>
        <time>2021-10-29T16:57:59Z</time>
      </trkpt>
      <trkpt lat="42.44285" lon="2.82261">
        <ele>669.86</ele>
        <time>2021-10-29T16:57:59Z</time>
      </trkpt>
      <trkpt lat="42.44268" lon="2.82306">
        <ele>666.77</ele>
        <time>2021-10-29T16:57:59Z</time>
      </trkpt>
      <trkpt lat="42.4423" lon="2.82349">
        <ele>664.99</ele>
        <time>2021-10-29T16:57:59Z</time>
      </trkpt>
      <trkpt lat="42.44222" lon="2.82376">
        <ele>662.45</ele>
        <time>2021-10-29T16:57:59Z</time>
      </trkpt>
      <trkpt lat="42.44203" lon="2.82428">
        <ele>659.93</ele>
        <time>2021-10-29T16:57:59Z</time>
      </trkpt>
      <trkpt lat="42.44186" lon="2.82449">
        <ele>660.59</ele>
        <time>2021-10-29T16:57:59Z</time>
      </trkpt>
      <trkpt lat="42.44191" lon="2.82489">
        <ele>656.05</ele>
        <time>2021-10-29T16:57:59Z</time>
      </trkpt>
      <trkpt lat="42.44191" lon="2.82518">
        <ele>653.47</ele>
        <time>2021-10-29T16:57:59Z</time>
      </trkpt>
      <trkpt lat="42.44211" lon="2.82551">
        <ele>648.73</ele>
        <time>2021-10-29T16:57:59Z</time>
      </trkpt>
      <trkpt lat="42.44248" lon="2.82556">
        <ele>650.07</ele>
        <time>2021-10-29T16:57:59Z</time>
      </trkpt>
      <trkpt lat="42.44282" lon="2.82576">
        <ele>654.29</ele>
        <time>2021-10-29T16:57:59Z</time>
      </trkpt>
      <trkpt lat="42.44316" lon="2.82596">
        <ele>658.93</ele>
        <time>2021-10-29T16:57:59Z</time>
      </trkpt>
      <trkpt lat="42.44342" lon="2.82611">
        <ele>661.75</ele>
        <time>2021-10-29T16:57:59Z</time>
      </trkpt>
      <trkpt lat="42.44379" lon="2.82633">
        <ele>660.08</ele>
        <time>2021-10-29T16:57:59Z</time>
      </trkpt>
      <trkpt lat="42.44385" lon="2.82664">
        <ele>662.51</ele>
        <time>2021-10-29T16:57:59Z</time>
      </trkpt>
      <trkpt lat="42.44389" lon="2.827">
        <ele>664.56</ele>
        <time>2021-10-29T16:57:59Z</time>
      </trkpt>
      <trkpt lat="42.44393" lon="2.82743">
        <ele>664.06</ele>
        <time>2021-10-29T16:57:59Z</time>
      </trkpt>
      <trkpt lat="42.44396" lon="2.82781">
        <ele>664.06</ele>
        <time>2021-10-29T16:57:59Z</time>
      </trkpt>
      <trkpt lat="42.44399" lon="2.82834">
        <ele>665.09</ele>
        <time>2021-10-29T16:57:59Z</time>
      </trkpt>
      <trkpt lat="42.44418" lon="2.82879">
        <ele>666.84</ele>
        <time>2021-10-29T16:57:59Z</time>
      </trkpt>
      <trkpt lat="42.44445" lon="2.82897">
        <ele>665.38</ele>
        <time>2021-10-29T16:57:59Z</time>
      </trkpt>
      <trkpt lat="42.44485" lon="2.82925">
        <ele>666.63</ele>
        <time>2021-10-29T16:57:59Z</time>
      </trkpt>
      <trkpt lat="42.44521" lon="2.82956">
        <ele>669.19</ele>
        <time>2021-10-29T16:57:59Z</time>
      </trkpt>
      <trkpt lat="42.44531" lon="2.82992">
        <ele>666.19</ele>
        <time>2021-10-29T16:57:59Z</time>
      </trkpt>
      <trkpt lat="42.44529" lon="2.83035">
        <ele>664.48</ele>
        <time>2021-10-29T16:57:59Z</time>
      </trkpt>
      <trkpt lat="42.44513" lon="2.83071">
        <ele>664.91</ele>
        <time>2021-10-29T16:57:59Z</time>
      </trkpt>
      <trkpt lat="42.44502" lon="2.83105">
        <ele>665.51</ele>
        <time>2021-10-29T16:57:59Z</time>
      </trkpt>
      <trkpt lat="42.44525" lon="2.83141">
        <ele>668.17</ele>
        <time>2021-10-29T16:57:59Z</time>
      </trkpt>
      <trkpt lat="42.44563" lon="2.83145">
        <ele>669.93</ele>
        <time>2021-10-29T16:57:59Z</time>
      </trkpt>
      <trkpt lat="42.446" lon="2.8315">
        <ele>669.98</ele>
        <time>2021-10-29T16:57:59Z</time>
      </trkpt>
      <trkpt lat="42.44638" lon="2.83154">
        <ele>670.29</ele>
        <time>2021-10-29T16:57:59Z</time>
      </trkpt>
      <trkpt lat="42.44684" lon="2.8316">
        <ele>665.69</ele>
        <time>2021-10-29T16:57:59Z</time>
      </trkpt>
      <trkpt lat="42.44716" lon="2.83148">
        <ele>661.39</ele>
        <time>2021-10-29T16:57:59Z</time>
      </trkpt>
      <trkpt lat="42.44756" lon="2.8312">
        <ele>658.49</ele>
        <time>2021-10-29T16:57:59Z</time>
      </trkpt>
      <trkpt lat="42.44787" lon="2.83088">
        <ele>656.21</ele>
        <time>2021-10-29T16:57:59Z</time>
      </trkpt>
      <trkpt lat="42.44818" lon="2.83056">
        <ele>652.23</ele>
        <time>2021-10-29T16:57:59Z</time>
      </trkpt>
      <trkpt lat="42.4485" lon="2.83024">
        <ele>647.94</ele>
        <time>2021-10-29T16:57:59Z</time>
      </trkpt>
      <trkpt lat="42.44872" lon="2.83001">
        <ele>647.29</ele>
        <time>2021-10-29T16:57:59Z</time>
      </trkpt>
      <trkpt lat="42.44902" lon="2.82971">
        <ele>643.44</ele>
        <time>2021-10-29T16:57:59Z</time>
      </trkpt>
      <trkpt lat="42.44919" lon="2.82948">
        <ele>643.23</ele>
        <time>2021-10-29T16:57:59Z</time>
      </trkpt>
      <trkpt lat="42.44932" lon="2.82947">
        <ele>640.24</ele>
        <time>2021-10-29T16:57:59Z</time>
      </trkpt>
      <trkpt lat="42.4492" lon="2.82984">
        <ele>634.5</ele>
        <time>2021-10-29T16:57:59Z</time>
      </trkpt>
      <trkpt lat="42.44897" lon="2.83016">
        <ele>634.91</ele>
        <time>2021-10-29T16:57:59Z</time>
      </trkpt>
      <trkpt lat="42.44881" lon="2.83047">
        <ele>631.8</ele>
        <time>2021-10-29T16:57:59Z</time>
      </trkpt>
      <trkpt lat="42.44861" lon="2.83087">
        <ele>628.28</ele>
        <time>2021-10-29T16:57:59Z</time>
      </trkpt>
      <trkpt lat="42.44853" lon="2.83125">
        <ele>626.74</ele>
        <time>2021-10-29T16:57:59Z</time>
      </trkpt>
      <trkpt lat="42.44841" lon="2.83178">
        <ele>620.87</ele>
        <time>2021-10-29T16:57:59Z</time>
      </trkpt>
      <trkpt lat="42.44828" lon="2.83207">
        <ele>619.78</ele>
        <time>2021-10-29T16:57:59Z</time>
      </trkpt>
      <trkpt lat="42.44815" lon="2.83237">
        <ele>617.34</ele>
        <time>2021-10-29T16:57:59Z</time>
      </trkpt>
      <trkpt lat="42.4481" lon="2.83267">
        <ele>614.55</ele>
        <time>2021-10-29T16:57:59Z</time>
      </trkpt>
      <trkpt lat="42.44815" lon="2.83297">
        <ele>613.54</ele>
        <time>2021-10-29T16:57:59Z</time>
      </trkpt>
      <trkpt lat="42.44831" lon="2.83316">
        <ele>613.68</ele>
        <time>2021-10-29T16:57:59Z</time>
      </trkpt>
      <trkpt lat="42.44851" lon="2.83316">
        <ele>612.74</ele>
        <time>2021-10-29T16:57:59Z</time>
      </trkpt>
      <trkpt lat="42.4487" lon="2.83295">
        <ele>609.82</ele>
        <time>2021-10-29T16:57:59Z</time>
      </trkpt>
      <trkpt lat="42.4491" lon="2.83287">
        <ele>605.4</ele>
        <time>2021-10-29T16:57:59Z</time>
      </trkpt>
      <trkpt lat="42.44933" lon="2.83269">
        <ele>602.68</ele>
        <time>2021-10-29T16:57:59Z</time>
      </trkpt>
      <trkpt lat="42.44958" lon="2.83249">
        <ele>600.33</ele>
        <time>2021-10-29T16:57:59Z</time>
      </trkpt>
      <trkpt lat="42.44977" lon="2.83223">
        <ele>596.77</ele>
        <time>2021-10-29T16:57:59Z</time>
      </trkpt>
      <trkpt lat="42.45003" lon="2.83211">
        <ele>594.28</ele>
        <time>2021-10-29T16:57:59Z</time>
      </trkpt>
      <trkpt lat="42.45038" lon="2.83195">
        <ele>589.79</ele>
        <time>2021-10-29T16:57:59Z</time>
      </trkpt>
      <trkpt lat="42.45083" lon="2.83206">
        <ele>588.45</ele>
        <time>2021-10-29T16:57:59Z</time>
      </trkpt>
      <trkpt lat="42.45099" lon="2.8319">
        <ele>585.54</ele>
        <time>2021-10-29T16:57:59Z</time>
      </trkpt>
      <trkpt lat="42.45126" lon="2.83129">
        <ele>574.71</ele>
        <time>2021-10-29T16:57:59Z</time>
      </trkpt>
      <trkpt lat="42.4515" lon="2.83111">
        <ele>573.89</ele>
        <time>2021-10-29T16:57:59Z</time>
      </trkpt>
      <trkpt lat="42.45181" lon="2.83089">
        <ele>573.4</ele>
        <time>2021-10-29T16:57:59Z</time>
      </trkpt>
      <trkpt lat="42.45189" lon="2.83059">
        <ele>568.49</ele>
        <time>2021-10-29T16:57:59Z</time>
      </trkpt>
      <trkpt lat="42.45216" lon="2.83044">
        <ele>567.73</ele>
        <time>2021-10-29T16:57:59Z</time>
      </trkpt>
      <trkpt lat="42.45222" lon="2.83035">
        <ele>566.07</ele>
        <time>2021-10-29T16:57:59Z</time>
      </trkpt>
      <trkpt lat="42.45236" lon="2.83035">
        <ele>566.07</ele>
        <time>2021-10-29T16:57:59Z</time>
      </trkpt>
      <trkpt lat="42.45248" lon="2.83027">
        <ele>563.2</ele>
        <time>2021-10-29T16:57:59Z</time>
      </trkpt>
      <trkpt lat="42.45259" lon="2.83004">
        <ele>559.72</ele>
        <time>2021-10-29T16:57:59Z</time>
      </trkpt>
      <trkpt lat="42.45282" lon="2.82999">
        <ele>559.72</ele>
        <time>2021-10-29T16:57:59Z</time>
      </trkpt>
      <trkpt lat="42.45304" lon="2.83014">
        <ele>558.65</ele>
        <time>2021-10-29T16:57:59Z</time>
      </trkpt>
      <trkpt lat="42.4533" lon="2.83055">
        <ele>555.77</ele>
        <time>2021-10-29T16:57:59Z</time>
      </trkpt>
      <trkpt lat="42.45333" lon="2.83075">
        <ele>555.2</ele>
        <time>2021-10-29T16:57:59Z</time>
      </trkpt>
      <trkpt lat="42.4538" lon="2.83121">
        <ele>548.87</ele>
        <time>2021-10-29T16:57:59Z</time>
      </trkpt>
      <trkpt lat="42.45394" lon="2.83151">
        <ele>549.08</ele>
        <time>2021-10-29T16:57:59Z</time>
      </trkpt>
      <trkpt lat="42.45411" lon="2.83186">
        <ele>544.43</ele>
        <time>2021-10-29T16:57:59Z</time>
      </trkpt>
      <trkpt lat="42.45415" lon="2.83219">
        <ele>542.89</ele>
        <time>2021-10-29T16:57:59Z</time>
      </trkpt>
      <trkpt lat="42.45439" lon="2.83264">
        <ele>537.63</ele>
        <time>2021-10-29T16:57:59Z</time>
      </trkpt>
      <trkpt lat="42.45442" lon="2.83304">
        <ele>536.59</ele>
        <time>2021-10-29T16:57:59Z</time>
      </trkpt>
      <trkpt lat="42.45466" lon="2.83342">
        <ele>531.31</ele>
        <time>2021-10-29T16:57:59Z</time>
      </trkpt>
      <trkpt lat="42.4549" lon="2.83379">
        <ele>526.39</ele>
        <time>2021-10-29T16:57:59Z</time>
      </trkpt>
      <trkpt lat="42.45508" lon="2.83409">
        <ele>523.47</ele>
        <time>2021-10-29T16:57:59Z</time>
      </trkpt>
      <trkpt lat="42.45534" lon="2.83449">
        <ele>520.5</ele>
        <time>2021-10-29T16:57:59Z</time>
      </trkpt>
      <trkpt lat="42.45546" lon="2.83453">
        <ele>519.47</ele>
        <time>2021-10-29T16:57:59Z</time>
      </trkpt>
      <trkpt lat="42.45568" lon="2.8344">
        <ele>517.18</ele>
        <time>2021-10-29T16:57:59Z</time>
      </trkpt>
      <trkpt lat="42.45597" lon="2.83439">
        <ele>514.47</ele>
        <time>2021-10-29T16:57:59Z</time>
      </trkpt>
      <trkpt lat="42.45637" lon="2.83438">
        <ele>511.45</ele>
        <time>2021-10-29T16:57:59Z</time>
      </trkpt>
      <trkpt lat="42.45659" lon="2.83422">
        <ele>507.91</ele>
        <time>2021-10-29T16:57:59Z</time>
      </trkpt>
      <trkpt lat="42.45681" lon="2.83406">
        <ele>505.2</ele>
        <time>2021-10-29T16:57:59Z</time>
      </trkpt>
      <trkpt lat="42.45698" lon="2.83378">
        <ele>500.64</ele>
        <time>2021-10-29T16:57:59Z</time>
      </trkpt>
      <trkpt lat="42.45719" lon="2.83346">
        <ele>499.25</ele>
        <time>2021-10-29T16:57:59Z</time>
      </trkpt>
      <trkpt lat="42.45739" lon="2.83324">
        <ele>499.11</ele>
        <time>2021-10-29T16:57:59Z</time>
      </trkpt>
      <trkpt lat="42.45761" lon="2.833">
        <ele>497.58</ele>
        <time>2021-10-29T16:57:59Z</time>
      </trkpt>
      <trkpt lat="42.45783" lon="2.83289">
        <ele>497.62</ele>
        <time>2021-10-29T16:57:59Z</time>
      </trkpt>
      <trkpt lat="42.45804" lon="2.83301">
        <ele>495.21</ele>
        <time>2021-10-29T16:57:59Z</time>
      </trkpt>
      <trkpt lat="42.45814" lon="2.83329">
        <ele>494.82</ele>
        <time>2021-10-29T16:57:59Z</time>
      </trkpt>
      <trkpt lat="42.4582" lon="2.83359">
        <ele>490.09</ele>
        <time>2021-10-29T16:57:59Z</time>
      </trkpt>
      <trkpt lat="42.45815" lon="2.8342">
        <ele>484.71</ele>
        <time>2021-10-29T16:57:59Z</time>
      </trkpt>
      <trkpt lat="42.45813" lon="2.83456">
        <ele>482.24</ele>
        <time>2021-10-29T16:57:59Z</time>
      </trkpt>
      <trkpt lat="42.45809" lon="2.83507">
        <ele>478.29</ele>
        <time>2021-10-29T16:57:59Z</time>
      </trkpt>
      <trkpt lat="42.45803" lon="2.83542">
        <ele>476.38</ele>
        <time>2021-10-29T16:57:59Z</time>
      </trkpt>
      <trkpt lat="42.45807" lon="2.83576">
        <ele>473.39</ele>
        <time>2021-10-29T16:57:59Z</time>
      </trkpt>
      <trkpt lat="42.45812" lon="2.83613">
        <ele>469.66</ele>
        <time>2021-10-29T16:57:59Z</time>
      </trkpt>
      <trkpt lat="42.45804" lon="2.83657">
        <ele>466.83</ele>
        <time>2021-10-29T16:57:59Z</time>
      </trkpt>
      <trkpt lat="42.45796" lon="2.8368">
        <ele>464.65</ele>
        <time>2021-10-29T16:57:59Z</time>
      </trkpt>
      <trkpt lat="42.45787" lon="2.83691">
        <ele>465.32</ele>
        <time>2021-10-29T16:57:59Z</time>
      </trkpt>
      <trkpt lat="42.45792" lon="2.83712">
        <ele>462.35</ele>
        <time>2021-10-29T16:57:59Z</time>
      </trkpt>
      <trkpt lat="42.45801" lon="2.83729">
        <ele>460.23</ele>
        <time>2021-10-29T16:57:59Z</time>
      </trkpt>
      <trkpt lat="42.45807" lon="2.83757">
        <ele>459.3</ele>
        <time>2021-10-29T16:57:59Z</time>
      </trkpt>
      <trkpt lat="42.45817" lon="2.83779">
        <ele>458.2</ele>
        <time>2021-10-29T16:57:59Z</time>
      </trkpt>
      <trkpt lat="42.45832" lon="2.83781">
        <ele>457.48</ele>
        <time>2021-10-29T16:57:59Z</time>
      </trkpt>
      <trkpt lat="42.45856" lon="2.83768">
        <ele>457.3</ele>
        <time>2021-10-29T16:57:59Z</time>
      </trkpt>
      <trkpt lat="42.45879" lon="2.83745">
        <ele>453.23</ele>
        <time>2021-10-29T16:57:59Z</time>
      </trkpt>
      <trkpt lat="42.4591" lon="2.83714">
        <ele>448.89</ele>
        <time>2021-10-29T16:57:59Z</time>
      </trkpt>
      <trkpt lat="42.45936" lon="2.83696">
        <ele>448.18</ele>
        <time>2021-10-29T16:57:59Z</time>
      </trkpt>
      <trkpt lat="42.45971" lon="2.83671">
        <ele>442.28</ele>
        <time>2021-10-29T16:57:59Z</time>
      </trkpt>
      <trkpt lat="42.45989" lon="2.83663">
        <ele>439.86</ele>
        <time>2021-10-29T16:57:59Z</time>
      </trkpt>
      <trkpt lat="42.46016" lon="2.83675">
        <ele>436.63</ele>
        <time>2021-10-29T16:57:59Z</time>
      </trkpt>
      <trkpt lat="42.46034" lon="2.8369">
        <ele>436.9</ele>
        <time>2021-10-29T16:57:59Z</time>
      </trkpt>
      <trkpt lat="42.46059" lon="2.83686">
        <ele>433.47</ele>
        <time>2021-10-29T16:57:59Z</time>
      </trkpt>
      <trkpt lat="42.46071" lon="2.83687">
        <ele>431.7</ele>
        <time>2021-10-29T16:57:59Z</time>
      </trkpt>
      <trkpt lat="42.46139" lon="2.83681">
        <ele>424.2</ele>
        <time>2021-10-29T16:57:59Z</time>
      </trkpt>
      <trkpt lat="42.46165" lon="2.83723">
        <ele>421.51</ele>
        <time>2021-10-29T16:57:59Z</time>
      </trkpt>
      <trkpt lat="42.46182" lon="2.83732">
        <ele>419.81</ele>
        <time>2021-10-29T16:57:59Z</time>
      </trkpt>
      <trkpt lat="42.46198" lon="2.83724">
        <ele>417.84</ele>
        <time>2021-10-29T16:57:59Z</time>
      </trkpt>
      <trkpt lat="42.46207" lon="2.83708">
        <ele>416.25</ele>
        <time>2021-10-29T16:57:59Z</time>
      </trkpt>
      <trkpt lat="42.46213" lon="2.83694">
        <ele>415.02</ele>
        <time>2021-10-29T16:57:59Z</time>
      </trkpt>
      <trkpt lat="42.46227" lon="2.83685">
        <ele>414.89</ele>
        <time>2021-10-29T16:57:59Z</time>
      </trkpt>
      <trkpt lat="42.46246" lon="2.8368">
        <ele>411.72</ele>
        <time>2021-10-29T16:57:59Z</time>
      </trkpt>
      <trkpt lat="42.46257" lon="2.83684">
        <ele>410.24</ele>
        <time>2021-10-29T16:57:59Z</time>
      </trkpt>
      <trkpt lat="42.46251" lon="2.83694">
        <ele>412.89</ele>
        <time>2021-10-29T16:57:59Z</time>
      </trkpt>
      <trkpt lat="42.46243" lon="2.83709">
        <ele>416.17</ele>
        <time>2021-10-29T16:57:59Z</time>
      </trkpt>
      <trkpt lat="42.46239" lon="2.8372">
        <ele>417.95</ele>
        <time>2021-10-29T16:57:59Z</time>
      </trkpt>
      <trkpt lat="42.46236" lon="2.83771">
        <ele>421</ele>
        <time>2021-10-29T16:57:59Z</time>
      </trkpt>
      <trkpt lat="42.46236" lon="2.83807">
        <ele>418.7</ele>
        <time>2021-10-29T16:57:59Z</time>
      </trkpt>
      <trkpt lat="42.46232" lon="2.83836">
        <ele>416.36</ele>
        <time>2021-10-29T16:57:59Z</time>
      </trkpt>
      <trkpt lat="42.46215" lon="2.83867">
        <ele>416.18</ele>
        <time>2021-10-29T16:57:59Z</time>
      </trkpt>
      <trkpt lat="42.46198" lon="2.83877">
        <ele>418.25</ele>
        <time>2021-10-29T16:57:59Z</time>
      </trkpt>
      <trkpt lat="42.46178" lon="2.83901">
        <ele>415.68</ele>
        <time>2021-10-29T16:57:59Z</time>
      </trkpt>
      <trkpt lat="42.46165" lon="2.83909">
        <ele>415.68</ele>
        <time>2021-10-29T16:57:59Z</time>
      </trkpt>
      <trkpt lat="42.46162" lon="2.8394">
        <ele>415.05</ele>
        <time>2021-10-29T16:57:59Z</time>
      </trkpt>
      <trkpt lat="42.46166" lon="2.83964">
        <ele>414.38</ele>
        <time>2021-10-29T16:57:59Z</time>
      </trkpt>
      <trkpt lat="42.46175" lon="2.84006">
        <ele>411.69</ele>
        <time>2021-10-29T16:57:59Z</time>
      </trkpt>
      <trkpt lat="42.46181" lon="2.8403">
        <ele>409.48</ele>
        <time>2021-10-29T16:57:59Z</time>
      </trkpt>
      <trkpt lat="42.46182" lon="2.84051">
        <ele>407.48</ele>
        <time>2021-10-29T16:57:59Z</time>
      </trkpt>
      <trkpt lat="42.46177" lon="2.84079">
        <ele>406.62</ele>
        <time>2021-10-29T16:57:59Z</time>
      </trkpt>
      <trkpt lat="42.4616" lon="2.84109">
        <ele>408.51</ele>
        <time>2021-10-29T16:57:59Z</time>
      </trkpt>
      <trkpt lat="42.46143" lon="2.84125">
        <ele>409.46</ele>
        <time>2021-10-29T16:57:59Z</time>
      </trkpt>
      <trkpt lat="42.46134" lon="2.8415">
        <ele>406.61</ele>
        <time>2021-10-29T16:57:59Z</time>
      </trkpt>
      <trkpt lat="42.46133" lon="2.84199">
        <ele>398.9</ele>
        <time>2021-10-29T16:57:59Z</time>
      </trkpt>
      <trkpt lat="42.46135" lon="2.84231">
        <ele>394.24</ele>
        <time>2021-10-29T16:57:59Z</time>
      </trkpt>
      <trkpt lat="42.46148" lon="2.84256">
        <ele>388.74</ele>
        <time>2021-10-29T16:57:59Z</time>
      </trkpt>
      <trkpt lat="42.46165" lon="2.84282">
        <ele>382.75</ele>
        <time>2021-10-29T16:57:59Z</time>
      </trkpt>
      <trkpt lat="42.46183" lon="2.84309">
        <ele>377.14</ele>
        <time>2021-10-29T16:57:59Z</time>
      </trkpt>
      <trkpt lat="42.46199" lon="2.8434">
        <ele>370.64</ele>
        <time>2021-10-29T16:57:59Z</time>
      </trkpt>
      <trkpt lat="42.46205" lon="2.84365">
        <ele>366.52</ele>
        <time>2021-10-29T16:57:59Z</time>
      </trkpt>
      <trkpt lat="42.46204" lon="2.84409">
        <ele>360.87</ele>
        <time>2021-10-29T16:57:59Z</time>
      </trkpt>
      <trkpt lat="42.46192" lon="2.84452">
        <ele>357.06</ele>
        <time>2021-10-29T16:57:59Z</time>
      </trkpt>
      <trkpt lat="42.46178" lon="2.84481">
        <ele>354.7</ele>
        <time>2021-10-29T16:57:59Z</time>
      </trkpt>
      <trkpt lat="42.46158" lon="2.84491">
        <ele>355.73</ele>
        <time>2021-10-29T16:57:59Z</time>
      </trkpt>
      <trkpt lat="42.46142" lon="2.84485">
        <ele>355.36</ele>
        <time>2021-10-29T16:57:59Z</time>
      </trkpt>
      <trkpt lat="42.46128" lon="2.84438">
        <ele>355.45</ele>
        <time>2021-10-29T16:57:59Z</time>
      </trkpt>
      <trkpt lat="42.4612" lon="2.84417">
        <ele>357.37</ele>
        <time>2021-10-29T16:57:59Z</time>
      </trkpt>
      <trkpt lat="42.46108" lon="2.84417">
        <ele>357.82</ele>
        <time>2021-10-29T16:57:59Z</time>
      </trkpt>
      <trkpt lat="42.46097" lon="2.84432">
        <ele>357.91</ele>
        <time>2021-10-29T16:57:59Z</time>
      </trkpt>
      <trkpt lat="42.4609" lon="2.84449">
        <ele>357.23</ele>
        <time>2021-10-29T16:57:59Z</time>
      </trkpt>
      <trkpt lat="42.4607" lon="2.84456">
        <ele>359.54</ele>
        <time>2021-10-29T16:57:59Z</time>
      </trkpt>
      <trkpt lat="42.4606" lon="2.84468">
        <ele>357.34</ele>
        <time>2021-10-29T16:57:59Z</time>
      </trkpt>
      <trkpt lat="42.46048" lon="2.8447">
        <ele>357.8</ele>
        <time>2021-10-29T16:57:59Z</time>
      </trkpt>
      <trkpt lat="42.46028" lon="2.84487">
        <ele>358.75</ele>
        <time>2021-10-29T16:57:59Z</time>
      </trkpt>
      <trkpt lat="42.46023" lon="2.84518">
        <ele>355.36</ele>
        <time>2021-10-29T16:57:59Z</time>
      </trkpt>
      <trkpt lat="42.46019" lon="2.84538">
        <ele>355.66</ele>
        <time>2021-10-29T16:57:59Z</time>
      </trkpt>
      <trkpt lat="42.46011" lon="2.84558">
        <ele>356.54</ele>
        <time>2021-10-29T16:57:59Z</time>
      </trkpt>
      <trkpt lat="42.45988" lon="2.84586">
        <ele>358.02</ele>
        <time>2021-10-29T16:57:59Z</time>
      </trkpt>
      <trkpt lat="42.45966" lon="2.84619">
        <ele>358.4</ele>
        <time>2021-10-29T16:57:59Z</time>
      </trkpt>
      <trkpt lat="42.45979" lon="2.84669">
        <ele>353.57</ele>
        <time>2021-10-29T16:57:59Z</time>
      </trkpt>
      <trkpt lat="42.45974" lon="2.84709">
        <ele>351.31</ele>
        <time>2021-10-29T16:57:59Z</time>
      </trkpt>
      <trkpt lat="42.45961" lon="2.84738">
        <ele>351.18</ele>
        <time>2021-10-29T16:57:59Z</time>
      </trkpt>
      <trkpt lat="42.45976" lon="2.84752">
        <ele>349.01</ele>
        <time>2021-10-29T16:57:59Z</time>
      </trkpt>
      <trkpt lat="42.45953" lon="2.8483">
        <ele>344.25</ele>
        <time>2021-10-29T16:57:59Z</time>
      </trkpt>
      <trkpt lat="42.45912" lon="2.84849">
        <ele>340.89</ele>
        <time>2021-10-29T16:57:59Z</time>
      </trkpt>
      <trkpt lat="42.45932" lon="2.84893">
        <ele>336.23</ele>
        <time>2021-10-29T16:57:59Z</time>
      </trkpt>
      <trkpt lat="42.45909" lon="2.84911">
        <ele>332.97</ele>
        <time>2021-10-29T16:57:59Z</time>
      </trkpt>
      <trkpt lat="42.45882" lon="2.84933">
        <ele>329.14</ele>
        <time>2021-10-29T16:57:59Z</time>
      </trkpt>
      <trkpt lat="42.4586" lon="2.84958">
        <ele>326.83</ele>
        <time>2021-10-29T16:57:59Z</time>
      </trkpt>
      <trkpt lat="42.4583" lon="2.84992">
        <ele>326.62</ele>
        <time>2021-10-29T16:57:59Z</time>
      </trkpt>
      <trkpt lat="42.4581" lon="2.85024">
        <ele>323.75</ele>
        <time>2021-10-29T16:57:59Z</time>
      </trkpt>
      <trkpt lat="42.45793" lon="2.85051">
        <ele>322.52</ele>
        <time>2021-10-29T16:57:59Z</time>
      </trkpt>
      <trkpt lat="42.45774" lon="2.85081">
        <ele>321.8</ele>
        <time>2021-10-29T16:57:59Z</time>
      </trkpt>
      <trkpt lat="42.45789" lon="2.85134">
        <ele>320.68</ele>
        <time>2021-10-29T16:57:59Z</time>
      </trkpt>
      <trkpt lat="42.45809" lon="2.85157">
        <ele>318.37</ele>
        <time>2021-10-29T16:57:59Z</time>
      </trkpt>
      <trkpt lat="42.4583" lon="2.85182">
        <ele>318.03</ele>
        <time>2021-10-29T16:57:59Z</time>
      </trkpt>
      <trkpt lat="42.4582" lon="2.85229">
        <ele>315.89</ele>
        <time>2021-10-29T16:57:59Z</time>
      </trkpt>
      <trkpt lat="42.45775" lon="2.85236">
        <ele>316.58</ele>
        <time>2021-10-29T16:57:59Z</time>
      </trkpt>
      <trkpt lat="42.45744" lon="2.85286">
        <ele>312.03</ele>
        <time>2021-10-29T16:57:59Z</time>
      </trkpt>
      <trkpt lat="42.45715" lon="2.85311">
        <ele>313.02</ele>
        <time>2021-10-29T16:57:59Z</time>
      </trkpt>
      <trkpt lat="42.457" lon="2.85351">
        <ele>310.89</ele>
        <time>2021-10-29T16:57:59Z</time>
      </trkpt>
      <trkpt lat="42.45684" lon="2.85391">
        <ele>308.7</ele>
        <time>2021-10-29T16:57:59Z</time>
      </trkpt>
      <trkpt lat="42.45669" lon="2.85432">
        <ele>307.98</ele>
        <time>2021-10-29T16:57:59Z</time>
      </trkpt>
      <trkpt lat="42.45633" lon="2.85438">
        <ele>307.46</ele>
        <time>2021-10-29T16:57:59Z</time>
      </trkpt>
      <trkpt lat="42.45616" lon="2.85468">
        <ele>307.93</ele>
        <time>2021-10-29T16:57:59Z</time>
      </trkpt>
      <trkpt lat="42.45594" lon="2.85506">
        <ele>309.61</ele>
        <time>2021-10-29T16:57:59Z</time>
      </trkpt>
      <trkpt lat="42.45571" lon="2.85537">
        <ele>310.5</ele>
        <time>2021-10-29T16:57:59Z</time>
      </trkpt>
      <trkpt lat="42.45551" lon="2.85564">
        <ele>312.64</ele>
        <time>2021-10-29T16:57:59Z</time>
      </trkpt>
      <trkpt lat="42.45525" lon="2.85598">
        <ele>316.28</ele>
        <time>2021-10-29T16:57:59Z</time>
      </trkpt>
      <trkpt lat="42.45506" lon="2.8564">
        <ele>317.91</ele>
        <time>2021-10-29T16:57:59Z</time>
      </trkpt>
      <trkpt lat="42.45486" lon="2.85683">
        <ele>319.53</ele>
        <time>2021-10-29T16:57:59Z</time>
      </trkpt>
      <trkpt lat="42.45471" lon="2.85715">
        <ele>321.73</ele>
        <time>2021-10-29T16:57:59Z</time>
      </trkpt>
      <trkpt lat="42.45451" lon="2.8576">
        <ele>324.15</ele>
        <time>2021-10-29T16:57:59Z</time>
      </trkpt>
      <trkpt lat="42.45451" lon="2.85794">
        <ele>326.14</ele>
        <time>2021-10-29T16:57:59Z</time>
      </trkpt>
      <trkpt lat="42.45452" lon="2.85828">
        <ele>326.77</ele>
        <time>2021-10-29T16:57:59Z</time>
      </trkpt>
      <trkpt lat="42.45485" lon="2.85857">
        <ele>337.19</ele>
        <time>2021-10-29T16:57:59Z</time>
      </trkpt>
      <trkpt lat="42.45497" lon="2.85904">
        <ele>346.02</ele>
        <time>2021-10-29T16:57:59Z</time>
      </trkpt>
      <trkpt lat="42.45516" lon="2.85927">
        <ele>353.2</ele>
        <time>2021-10-29T16:57:59Z</time>
      </trkpt>
      <trkpt lat="42.45537" lon="2.85953">
        <ele>363.16</ele>
        <time>2021-10-29T16:57:59Z</time>
      </trkpt>
      <trkpt lat="42.45557" lon="2.85979">
        <ele>371.8</ele>
        <time>2021-10-29T16:57:59Z</time>
      </trkpt>
      <trkpt lat="42.45582" lon="2.86012">
        <ele>382.21</ele>
        <time>2021-10-29T16:57:59Z</time>
      </trkpt>
      <trkpt lat="42.45609" lon="2.86004">
        <ele>382.66</ele>
        <time>2021-10-29T16:57:59Z</time>
      </trkpt>
      <trkpt lat="42.45643" lon="2.85994">
        <ele>384.32</ele>
        <time>2021-10-29T16:57:59Z</time>
      </trkpt>
      <trkpt lat="42.45648" lon="2.86014">
        <ele>387.36</ele>
        <time>2021-10-29T16:57:59Z</time>
      </trkpt>
      <trkpt lat="42.45668" lon="2.8604">
        <ele>388.96</ele>
        <time>2021-10-29T16:57:59Z</time>
      </trkpt>
      <trkpt lat="42.45677" lon="2.8604">
        <ele>389.06</ele>
        <time>2021-10-29T16:57:59Z</time>
      </trkpt>
      <trkpt lat="42.45693" lon="2.86017">
        <ele>393.25</ele>
        <time>2021-10-29T16:57:59Z</time>
      </trkpt>
      <trkpt lat="42.4571" lon="2.85991">
        <ele>398.66</ele>
        <time>2021-10-29T16:57:59Z</time>
      </trkpt>
      <trkpt lat="42.45729" lon="2.85963">
        <ele>403.82</ele>
        <time>2021-10-29T16:57:59Z</time>
      </trkpt>
      <trkpt lat="42.45757" lon="2.85943">
        <ele>408.91</ele>
        <time>2021-10-29T16:57:59Z</time>
      </trkpt>
      <trkpt lat="42.45764" lon="2.85934">
        <ele>409.17</ele>
        <time>2021-10-29T16:57:59Z</time>
      </trkpt>
      <trkpt lat="42.4575" lon="2.85906">
        <ele>409.61</ele>
        <time>2021-10-29T16:57:59Z</time>
      </trkpt>
      <trkpt lat="42.45764" lon="2.85881">
        <ele>410.04</ele>
        <time>2021-10-29T16:57:59Z</time>
      </trkpt>
      <trkpt lat="42.45768" lon="2.85868">
        <ele>410.55</ele>
        <time>2021-10-29T16:57:59Z</time>
      </trkpt>
      <trkpt lat="42.45763" lon="2.8583">
        <ele>409.82</ele>
        <time>2021-10-29T16:57:59Z</time>
      </trkpt>
      <trkpt lat="42.45779" lon="2.85826">
        <ele>409.22</ele>
        <time>2021-10-29T16:57:59Z</time>
      </trkpt>
      <trkpt lat="42.45789" lon="2.85815">
        <ele>409.53</ele>
        <time>2021-10-29T16:57:59Z</time>
      </trkpt>
      <trkpt lat="42.45794" lon="2.85789">
        <ele>407.85</ele>
        <time>2021-10-29T16:57:59Z</time>
      </trkpt>
      <trkpt lat="42.45813" lon="2.858">
        <ele>409.13</ele>
        <time>2021-10-29T16:57:59Z</time>
      </trkpt>
      <trkpt lat="42.45822" lon="2.85799">
        <ele>408.68</ele>
        <time>2021-10-29T16:57:59Z</time>
      </trkpt>
      <trkpt lat="42.45849" lon="2.85774">
        <ele>406.43</ele>
        <time>2021-10-29T16:57:59Z</time>
      </trkpt>
      <trkpt lat="42.4588" lon="2.85822">
        <ele>406.69</ele>
        <time>2021-10-29T16:57:59Z</time>
      </trkpt>
      <trkpt lat="42.45895" lon="2.85841">
        <ele>405.99</ele>
        <time>2021-10-29T16:57:59Z</time>
      </trkpt>
      <trkpt lat="42.45901" lon="2.8585">
        <ele>406.05</ele>
        <time>2021-10-29T16:57:59Z</time>
      </trkpt>
      <trkpt lat="42.45905" lon="2.85864">
        <ele>406.12</ele>
        <time>2021-10-29T16:57:59Z</time>
      </trkpt>
      <trkpt lat="42.45922" lon="2.85867">
        <ele>405.39</ele>
        <time>2021-10-29T16:57:59Z</time>
      </trkpt>
      <trkpt lat="42.45939" lon="2.85862">
        <ele>404.51</ele>
        <time>2021-10-29T16:57:59Z</time>
      </trkpt>
      <trkpt lat="42.45953" lon="2.85861">
        <ele>403.33</ele>
        <time>2021-10-29T16:57:59Z</time>
      </trkpt>
      <trkpt lat="42.45966" lon="2.8587">
        <ele>402.18</ele>
        <time>2021-10-29T16:57:59Z</time>
      </trkpt>
      <trkpt lat="42.45975" lon="2.85882">
        <ele>400.47</ele>
        <time>2021-10-29T16:57:59Z</time>
      </trkpt>
      <trkpt lat="42.45983" lon="2.85919">
        <ele>394.24</ele>
        <time>2021-10-29T16:57:59Z</time>
      </trkpt>
      <trkpt lat="42.45988" lon="2.85937">
        <ele>389.58</ele>
        <time>2021-10-29T16:57:59Z</time>
      </trkpt>
      <trkpt lat="42.46002" lon="2.85945">
        <ele>383.98</ele>
        <time>2021-10-29T16:57:59Z</time>
      </trkpt>
      <trkpt lat="42.46013" lon="2.85948">
        <ele>379.59</ele>
        <time>2021-10-29T16:57:59Z</time>
      </trkpt>
      <trkpt lat="42.46033" lon="2.85959">
        <ele>372.61</ele>
        <time>2021-10-29T16:57:59Z</time>
      </trkpt>
      <trkpt lat="42.46041" lon="2.85974">
        <ele>369.75</ele>
        <time>2021-10-29T16:57:59Z</time>
      </trkpt>
      <trkpt lat="42.46054" lon="2.86001">
        <ele>360.74</ele>
        <time>2021-10-29T16:57:59Z</time>
      </trkpt>
      <trkpt lat="42.46069" lon="2.86008">
        <ele>355.7</ele>
        <time>2021-10-29T16:57:59Z</time>
      </trkpt>
      <trkpt lat="42.46086" lon="2.86022">
        <ele>348.65</ele>
        <time>2021-10-29T16:57:59Z</time>
      </trkpt>
      <trkpt lat="42.461" lon="2.86038">
        <ele>343.64</ele>
        <time>2021-10-29T16:57:59Z</time>
      </trkpt>
      <trkpt lat="42.46109" lon="2.86051">
        <ele>342.35</ele>
        <time>2021-10-29T16:57:59Z</time>
      </trkpt>
      <trkpt lat="42.4612" lon="2.86072">
        <ele>339.6</ele>
        <time>2021-10-29T16:57:59Z</time>
      </trkpt>
      <trkpt lat="42.46132" lon="2.86083">
        <ele>337.05</ele>
        <time>2021-10-29T16:57:59Z</time>
      </trkpt>
      <trkpt lat="42.46157" lon="2.86071">
        <ele>338.52</ele>
        <time>2021-10-29T16:57:59Z</time>
      </trkpt>
      <trkpt lat="42.4617" lon="2.86111">
        <ele>337.01</ele>
        <time>2021-10-29T16:57:59Z</time>
      </trkpt>
      <trkpt lat="42.46181" lon="2.86146">
        <ele>335.77</ele>
        <time>2021-10-29T16:57:59Z</time>
      </trkpt>
      <trkpt lat="42.46194" lon="2.86188">
        <ele>332.25</ele>
        <time>2021-10-29T16:57:59Z</time>
      </trkpt>
      <trkpt lat="42.46205" lon="2.86215">
        <ele>327.87</ele>
        <time>2021-10-29T16:57:59Z</time>
      </trkpt>
      <trkpt lat="42.46231" lon="2.86213">
        <ele>325.21</ele>
        <time>2021-10-29T16:57:59Z</time>
      </trkpt>
      <trkpt lat="42.46244" lon="2.86204">
        <ele>323.62</ele>
        <time>2021-10-29T16:57:59Z</time>
      </trkpt>
      <trkpt lat="42.46297" lon="2.86156">
        <ele>318.9</ele>
        <time>2021-10-29T16:57:59Z</time>
      </trkpt>
      <trkpt lat="42.46323" lon="2.86125">
        <ele>315.11</ele>
        <time>2021-10-29T16:57:59Z</time>
      </trkpt>
      <trkpt lat="42.46344" lon="2.86091">
        <ele>312.25</ele>
        <time>2021-10-29T16:57:59Z</time>
      </trkpt>
      <trkpt lat="42.46355" lon="2.86045">
        <ele>310.22</ele>
        <time>2021-10-29T16:57:59Z</time>
      </trkpt>
      <trkpt lat="42.46372" lon="2.86071">
        <ele>305.53</ele>
        <time>2021-10-29T16:57:59Z</time>
      </trkpt>
      <trkpt lat="42.46382" lon="2.86101">
        <ele>302.87</ele>
        <time>2021-10-29T16:57:59Z</time>
      </trkpt>
      <trkpt lat="42.46423" lon="2.86133">
        <ele>300</ele>
        <time>2021-10-29T16:57:59Z</time>
      </trkpt>
      <trkpt lat="42.46436" lon="2.86162">
        <ele>298.68</ele>
        <time>2021-10-29T16:57:59Z</time>
      </trkpt>
      <trkpt lat="42.46448" lon="2.86166">
        <ele>300.22</ele>
        <time>2021-10-29T16:57:59Z</time>
      </trkpt>
      <trkpt lat="42.46447" lon="2.8621">
        <ele>297.89</ele>
        <time>2021-10-29T16:57:59Z</time>
      </trkpt>
      <trkpt lat="42.46452" lon="2.86235">
        <ele>294.33</ele>
        <time>2021-10-29T16:57:59Z</time>
      </trkpt>
      <trkpt lat="42.46451" lon="2.86275">
        <ele>285.92</ele>
        <time>2021-10-29T16:57:59Z</time>
      </trkpt>
      <trkpt lat="42.46453" lon="2.86294">
        <ele>283.04</ele>
        <time>2021-10-29T16:57:59Z</time>
      </trkpt>
      <trkpt lat="42.46458" lon="2.86329">
        <ele>281.98</ele>
        <time>2021-10-29T16:57:59Z</time>
      </trkpt>
      <trkpt lat="42.46452" lon="2.86389">
        <ele>287.42</ele>
        <time>2021-10-29T16:57:59Z</time>
      </trkpt>
      <trkpt lat="42.46476" lon="2.86375">
        <ele>291.11</ele>
        <time>2021-10-29T16:57:59Z</time>
      </trkpt>
      <trkpt lat="42.46495" lon="2.86376">
        <ele>293.72</ele>
        <time>2021-10-29T16:57:59Z</time>
      </trkpt>
      <trkpt lat="42.46513" lon="2.86393">
        <ele>297.4</ele>
        <time>2021-10-29T16:57:59Z</time>
      </trkpt>
      <trkpt lat="42.46528" lon="2.86428">
        <ele>301.02</ele>
        <time>2021-10-29T16:57:59Z</time>
      </trkpt>
      <trkpt lat="42.46547" lon="2.86457">
        <ele>303.87</ele>
        <time>2021-10-29T16:57:59Z</time>
      </trkpt>
      <trkpt lat="42.46561" lon="2.86466">
        <ele>304.52</ele>
        <time>2021-10-29T16:57:59Z</time>
      </trkpt>
      <trkpt lat="42.46584" lon="2.86486">
        <ele>303.84</ele>
        <time>2021-10-29T16:57:59Z</time>
      </trkpt>
      <trkpt lat="42.46612" lon="2.86481">
        <ele>303.82</ele>
        <time>2021-10-29T16:57:59Z</time>
      </trkpt>
      <trkpt lat="42.46647" lon="2.86474">
        <ele>300.15</ele>
        <time>2021-10-29T16:57:59Z</time>
      </trkpt>
      <trkpt lat="42.4665" lon="2.86508">
        <ele>295.59</ele>
        <time>2021-10-29T16:57:59Z</time>
      </trkpt>
      <trkpt lat="42.46653" lon="2.86545">
        <ele>289.19</ele>
        <time>2021-10-29T16:57:59Z</time>
      </trkpt>
      <trkpt lat="42.46636" lon="2.86584">
        <ele>296.23</ele>
        <time>2021-10-29T16:57:59Z</time>
      </trkpt>
      <trkpt lat="42.46618" lon="2.86607">
        <ele>301.03</ele>
        <time>2021-10-29T16:57:59Z</time>
      </trkpt>
      <trkpt lat="42.4662" lon="2.86654">
        <ele>307.4</ele>
        <time>2021-10-29T16:57:59Z</time>
      </trkpt>
      <trkpt lat="42.46604" lon="2.86626">
        <ele>307.89</ele>
        <time>2021-10-29T16:57:59Z</time>
      </trkpt>
      <trkpt lat="42.46588" lon="2.86596">
        <ele>312.85</ele>
        <time>2021-10-29T16:57:59Z</time>
      </trkpt>
      <trkpt lat="42.46577" lon="2.86625">
        <ele>316.73</ele>
        <time>2021-10-29T16:57:59Z</time>
      </trkpt>
      <trkpt lat="42.46576" lon="2.8666">
        <ele>319.22</ele>
        <time>2021-10-29T16:57:59Z</time>
      </trkpt>
      <trkpt lat="42.46587" lon="2.86693">
        <ele>323.81</ele>
        <time>2021-10-29T16:57:59Z</time>
      </trkpt>
      <trkpt lat="42.46603" lon="2.86733">
        <ele>336.93</ele>
        <time>2021-10-29T16:57:59Z</time>
      </trkpt>
      <trkpt lat="42.46608" lon="2.86755">
        <ele>343.43</ele>
        <time>2021-10-29T16:57:59Z</time>
      </trkpt>
      <trkpt lat="42.46605" lon="2.86837">
        <ele>351.44</ele>
        <time>2021-10-29T16:57:59Z</time>
      </trkpt>
      <trkpt lat="42.46593" lon="2.86899">
        <ele>357.65</ele>
        <time>2021-10-29T16:57:59Z</time>
      </trkpt>
      <trkpt lat="42.46596" lon="2.86951">
        <ele>364.49</ele>
        <time>2021-10-29T16:57:59Z</time>
      </trkpt>
      <trkpt lat="42.46605" lon="2.86998">
        <ele>372.79</ele>
        <time>2021-10-29T16:57:59Z</time>
      </trkpt>
      <trkpt lat="42.46623" lon="2.87026">
        <ele>379.29</ele>
        <time>2021-10-29T16:57:59Z</time>
      </trkpt>
      <trkpt lat="42.46623" lon="2.87068">
        <ele>383.16</ele>
        <time>2021-10-29T16:57:59Z</time>
      </trkpt>
      <trkpt lat="42.46614" lon="2.87111">
        <ele>386.26</ele>
        <time>2021-10-29T16:57:59Z</time>
      </trkpt>
      <trkpt lat="42.46627" lon="2.87105">
        <ele>388.75</ele>
        <time>2021-10-29T16:57:59Z</time>
      </trkpt>
      <trkpt lat="42.46636" lon="2.87053">
        <ele>386.02</ele>
        <time>2021-10-29T16:57:59Z</time>
      </trkpt>
      <trkpt lat="42.46653" lon="2.87004">
        <ele>388.15</ele>
        <time>2021-10-29T16:57:59Z</time>
      </trkpt>
      <trkpt lat="42.46675" lon="2.86982">
        <ele>392.11</ele>
        <time>2021-10-29T16:57:59Z</time>
      </trkpt>
      <trkpt lat="42.467" lon="2.86957">
        <ele>394.7</ele>
        <time>2021-10-29T16:57:59Z</time>
      </trkpt>
      <trkpt lat="42.46738" lon="2.86944">
        <ele>400.05</ele>
        <time>2021-10-29T16:57:59Z</time>
      </trkpt>
      <trkpt lat="42.46722" lon="2.86973">
        <ele>404.79</ele>
        <time>2021-10-29T16:57:59Z</time>
      </trkpt>
      <trkpt lat="42.46703" lon="2.87009">
        <ele>406.55</ele>
        <time>2021-10-29T16:57:59Z</time>
      </trkpt>
      <trkpt lat="42.46702" lon="2.87043">
        <ele>411.93</ele>
        <time>2021-10-29T16:57:59Z</time>
      </trkpt>
      <trkpt lat="42.46701" lon="2.87077">
        <ele>414.7</ele>
        <time>2021-10-29T16:57:59Z</time>
      </trkpt>
      <trkpt lat="42.46696" lon="2.87122">
        <ele>418.07</ele>
        <time>2021-10-29T16:57:59Z</time>
      </trkpt>
      <trkpt lat="42.46677" lon="2.87145">
        <ele>417.43</ele>
        <time>2021-10-29T16:57:59Z</time>
      </trkpt>
      <trkpt lat="42.46658" lon="2.8717">
        <ele>414.35</ele>
        <time>2021-10-29T16:57:59Z</time>
      </trkpt>
      <trkpt lat="42.46656" lon="2.87202">
        <ele>419.69</ele>
        <time>2021-10-29T16:57:59Z</time>
      </trkpt>
      <trkpt lat="42.46645" lon="2.87237">
        <ele>422.13</ele>
        <time>2021-10-29T16:57:59Z</time>
      </trkpt>
      <trkpt lat="42.4663" lon="2.87285">
        <ele>427.89</ele>
        <time>2021-10-29T16:57:59Z</time>
      </trkpt>
      <trkpt lat="42.46621" lon="2.87318">
        <ele>430.91</ele>
        <time>2021-10-29T16:57:59Z</time>
      </trkpt>
      <trkpt lat="42.46612" lon="2.87354">
        <ele>435.26</ele>
        <time>2021-10-29T16:57:59Z</time>
      </trkpt>
      <trkpt lat="42.46603" lon="2.87396">
        <ele>441.45</ele>
        <time>2021-10-29T16:57:59Z</time>
      </trkpt>
      <trkpt lat="42.4659" lon="2.8743">
        <ele>446.8</ele>
        <time>2021-10-29T16:57:59Z</time>
      </trkpt>
      <trkpt lat="42.46573" lon="2.87475">
        <ele>455.3</ele>
        <time>2021-10-29T16:57:59Z</time>
      </trkpt>
      <trkpt lat="42.46554" lon="2.87498">
        <ele>457.71</ele>
        <time>2021-10-29T16:57:59Z</time>
      </trkpt>
      <trkpt lat="42.46535" lon="2.87522">
        <ele>462.83</ele>
        <time>2021-10-29T16:57:59Z</time>
      </trkpt>
      <trkpt lat="42.46521" lon="2.87533">
        <ele>465.48</ele>
        <time>2021-10-29T16:57:59Z</time>
      </trkpt>
      <trkpt lat="42.46518" lon="2.87572">
        <ele>475.51</ele>
        <time>2021-10-29T16:57:59Z</time>
      </trkpt>
      <trkpt lat="42.46515" lon="2.87638">
        <ele>494.99</ele>
        <time>2021-10-29T16:57:59Z</time>
      </trkpt>
      <trkpt lat="42.46504" lon="2.87669">
        <ele>503.1</ele>
        <time>2021-10-29T16:57:59Z</time>
      </trkpt>
      <trkpt lat="42.46492" lon="2.87701">
        <ele>508.47</ele>
        <time>2021-10-29T16:57:59Z</time>
      </trkpt>
      <trkpt lat="42.46475" lon="2.87727">
        <ele>509.17</ele>
        <time>2021-10-29T16:57:59Z</time>
      </trkpt>
      <trkpt lat="42.46458" lon="2.87755">
        <ele>509.96</ele>
        <time>2021-10-29T16:57:59Z</time>
      </trkpt>
      <trkpt lat="42.46464" lon="2.87823">
        <ele>504</ele>
        <time>2021-10-29T16:57:59Z</time>
      </trkpt>
      <trkpt lat="42.46453" lon="2.87864">
        <ele>504</ele>
        <time>2021-10-29T16:57:59Z</time>
      </trkpt>
      <trkpt lat="42.46443" lon="2.87898">
        <ele>502.68</ele>
        <time>2021-10-29T16:57:59Z</time>
      </trkpt>
      <trkpt lat="42.46432" lon="2.8794">
        <ele>502.31</ele>
        <time>2021-10-29T16:57:59Z</time>
      </trkpt>
      <trkpt lat="42.46429" lon="2.87974">
        <ele>508.77</ele>
        <time>2021-10-29T16:57:59Z</time>
      </trkpt>
      <trkpt lat="42.46427" lon="2.8801">
        <ele>512.02</ele>
        <time>2021-10-29T16:57:59Z</time>
      </trkpt>
      <trkpt lat="42.46403" lon="2.87982">
        <ele>519.43</ele>
        <time>2021-10-29T16:57:59Z</time>
      </trkpt>
      <trkpt lat="42.46374" lon="2.88035">
        <ele>533.03</ele>
        <time>2021-10-29T16:57:59Z</time>
      </trkpt>
      <trkpt lat="42.46354" lon="2.88082">
        <ele>535.77</ele>
        <time>2021-10-29T16:57:59Z</time>
      </trkpt>
      <trkpt lat="42.46345" lon="2.88076">
        <ele>540.69</ele>
        <time>2021-10-29T16:57:59Z</time>
      </trkpt>
      <trkpt lat="42.46337" lon="2.88108">
        <ele>540.08</ele>
        <time>2021-10-29T16:57:59Z</time>
      </trkpt>
      <trkpt lat="42.4632" lon="2.88138">
        <ele>543.2</ele>
        <time>2021-10-29T16:57:59Z</time>
      </trkpt>
      <trkpt lat="42.46293" lon="2.88177">
        <ele>550.75</ele>
        <time>2021-10-29T16:57:59Z</time>
      </trkpt>
      <trkpt lat="42.46274" lon="2.88214">
        <ele>553.97</ele>
        <time>2021-10-29T16:57:59Z</time>
      </trkpt>
      <trkpt lat="42.46255" lon="2.88251">
        <ele>555.21</ele>
        <time>2021-10-29T16:57:59Z</time>
      </trkpt>
      <trkpt lat="42.46235" lon="2.88289">
        <ele>560.7</ele>
        <time>2021-10-29T16:57:59Z</time>
      </trkpt>
      <trkpt lat="42.4623" lon="2.88315">
        <ele>563.08</ele>
        <time>2021-10-29T16:57:59Z</time>
      </trkpt>
      <trkpt lat="42.46236" lon="2.88349">
        <ele>563.39</ele>
        <time>2021-10-29T16:57:59Z</time>
      </trkpt>
      <trkpt lat="42.46233" lon="2.88383">
        <ele>568.02</ele>
        <time>2021-10-29T16:57:59Z</time>
      </trkpt>
      <trkpt lat="42.4623" lon="2.8842">
        <ele>571.97</ele>
        <time>2021-10-29T16:57:59Z</time>
      </trkpt>
      <trkpt lat="42.46227" lon="2.88449">
        <ele>573.81</ele>
        <time>2021-10-29T16:57:59Z</time>
      </trkpt>
      <trkpt lat="42.46206" lon="2.88482">
        <ele>576.92</ele>
        <time>2021-10-29T16:57:59Z</time>
      </trkpt>
      <trkpt lat="42.46187" lon="2.88503">
        <ele>579.11</ele>
        <time>2021-10-29T16:57:59Z</time>
      </trkpt>
      <trkpt lat="42.46167" lon="2.88525">
        <ele>581.74</ele>
        <time>2021-10-29T16:57:59Z</time>
      </trkpt>
      <trkpt lat="42.46152" lon="2.88557">
        <ele>584.29</ele>
        <time>2021-10-29T16:57:59Z</time>
      </trkpt>
      <trkpt lat="42.46141" lon="2.8859">
        <ele>585.89</ele>
        <time>2021-10-29T16:57:59Z</time>
      </trkpt>
      <trkpt lat="42.46129" lon="2.88627">
        <ele>590.34</ele>
        <time>2021-10-29T16:57:59Z</time>
      </trkpt>
      <trkpt lat="42.46114" lon="2.88685">
        <ele>594.86</ele>
        <time>2021-10-29T16:57:59Z</time>
      </trkpt>
      <trkpt lat="42.46102" lon="2.8873">
        <ele>596.67</ele>
        <time>2021-10-29T16:57:59Z</time>
      </trkpt>
      <trkpt lat="42.46115" lon="2.88758">
        <ele>594.97</ele>
        <time>2021-10-29T16:57:59Z</time>
      </trkpt>
      <trkpt lat="42.46133" lon="2.88789">
        <ele>598.66</ele>
        <time>2021-10-29T16:57:59Z</time>
      </trkpt>
      <trkpt lat="42.46155" lon="2.88788">
        <ele>600.18</ele>
        <time>2021-10-29T16:57:59Z</time>
      </trkpt>
      <trkpt lat="42.46179" lon="2.8878">
        <ele>600.32</ele>
        <time>2021-10-29T16:57:59Z</time>
      </trkpt>
      <trkpt lat="42.46204" lon="2.88773">
        <ele>599.24</ele>
        <time>2021-10-29T16:57:59Z</time>
      </trkpt>
      <trkpt lat="42.46238" lon="2.88784">
        <ele>599.75</ele>
        <time>2021-10-29T16:57:59Z</time>
      </trkpt>
      <trkpt lat="42.46265" lon="2.88801">
        <ele>600.55</ele>
        <time>2021-10-29T16:57:59Z</time>
      </trkpt>
      <trkpt lat="42.4629" lon="2.88839">
        <ele>601.82</ele>
        <time>2021-10-29T16:57:59Z</time>
      </trkpt>
      <trkpt lat="42.46295" lon="2.88852">
        <ele>601.51</ele>
        <time>2021-10-29T16:57:59Z</time>
      </trkpt>
      <trkpt lat="42.46292" lon="2.88875">
        <ele>601.64</ele>
        <time>2021-10-29T16:57:59Z</time>
      </trkpt>
      <trkpt lat="42.46286" lon="2.88897">
        <ele>601.81</ele>
        <time>2021-10-29T16:57:59Z</time>
      </trkpt>
      <trkpt lat="42.46277" lon="2.88916">
        <ele>602.25</ele>
        <time>2021-10-29T16:57:59Z</time>
      </trkpt>
      <trkpt lat="42.46262" lon="2.88946">
        <ele>602.8</ele>
        <time>2021-10-29T16:57:59Z</time>
      </trkpt>
      <trkpt lat="42.46258" lon="2.88963">
        <ele>602.92</ele>
        <time>2021-10-29T16:57:59Z</time>
      </trkpt>
      <trkpt lat="42.46251" lon="2.88977">
        <ele>603.81</ele>
        <time>2021-10-29T16:57:59Z</time>
      </trkpt>
      <trkpt lat="42.46248" lon="2.88992">
        <ele>604.29</ele>
        <time>2021-10-29T16:57:59Z</time>
      </trkpt>
      <trkpt lat="42.46251" lon="2.8901">
        <ele>603.89</ele>
        <time>2021-10-29T16:57:59Z</time>
      </trkpt>
      <trkpt lat="42.46261" lon="2.89035">
        <ele>603.94</ele>
        <time>2021-10-29T16:57:59Z</time>
      </trkpt>
      <trkpt lat="42.46269" lon="2.89072">
        <ele>603.62</ele>
        <time>2021-10-29T16:57:59Z</time>
      </trkpt>
      <trkpt lat="42.4627" lon="2.89112">
        <ele>605.24</ele>
        <time>2021-10-29T16:57:59Z</time>
      </trkpt>
      <trkpt lat="42.46272" lon="2.89173">
        <ele>605.97</ele>
        <time>2021-10-29T16:57:59Z</time>
      </trkpt>
      <trkpt lat="42.46272" lon="2.89195">
        <ele>605.11</ele>
        <time>2021-10-29T16:57:59Z</time>
      </trkpt>
      <trkpt lat="42.46267" lon="2.8922">
        <ele>605.91</ele>
        <time>2021-10-29T16:57:59Z</time>
      </trkpt>
      <trkpt lat="42.46262" lon="2.89259">
        <ele>606.85</ele>
        <time>2021-10-29T16:57:59Z</time>
      </trkpt>
      <trkpt lat="42.4627" lon="2.89291">
        <ele>606.05</ele>
        <time>2021-10-29T16:57:59Z</time>
      </trkpt>
      <trkpt lat="42.46275" lon="2.8932">
        <ele>605.89</ele>
        <time>2021-10-29T16:57:59Z</time>
      </trkpt>
      <trkpt lat="42.46275" lon="2.8934">
        <ele>606.05</ele>
        <time>2021-10-29T16:57:59Z</time>
      </trkpt>
      <trkpt lat="42.46243" lon="2.89395">
        <ele>607.93</ele>
        <time>2021-10-29T16:57:59Z</time>
      </trkpt>
      <trkpt lat="42.46227" lon="2.89436">
        <ele>610.08</ele>
        <time>2021-10-29T16:57:59Z</time>
      </trkpt>
      <trkpt lat="42.4623" lon="2.89481">
        <ele>608.58</ele>
        <time>2021-10-29T16:57:59Z</time>
      </trkpt>
      <trkpt lat="42.46238" lon="2.89533">
        <ele>608.07</ele>
        <time>2021-10-29T16:57:59Z</time>
      </trkpt>
      <trkpt lat="42.46237" lon="2.89551">
        <ele>608.03</ele>
        <time>2021-10-29T16:57:59Z</time>
      </trkpt>
      <trkpt lat="42.46228" lon="2.89571">
        <ele>609.29</ele>
        <time>2021-10-29T16:57:59Z</time>
      </trkpt>
      <trkpt lat="42.4621" lon="2.89588">
        <ele>608.86</ele>
        <time>2021-10-29T16:57:59Z</time>
      </trkpt>
      <trkpt lat="42.46197" lon="2.89594">
        <ele>610.45</ele>
        <time>2021-10-29T16:57:59Z</time>
      </trkpt>
      <trkpt lat="42.46187" lon="2.89606">
        <ele>611.04</ele>
        <time>2021-10-29T16:57:59Z</time>
      </trkpt>
      <trkpt lat="42.46176" lon="2.89635">
        <ele>612.19</ele>
        <time>2021-10-29T16:57:59Z</time>
      </trkpt>
      <trkpt lat="42.4617" lon="2.89654">
        <ele>611.49</ele>
        <time>2021-10-29T16:57:59Z</time>
      </trkpt>
      <trkpt lat="42.46154" lon="2.89685">
        <ele>610.11</ele>
        <time>2021-10-29T16:57:59Z</time>
      </trkpt>
      <trkpt lat="42.46137" lon="2.89719">
        <ele>610.33</ele>
        <time>2021-10-29T16:57:59Z</time>
      </trkpt>
      <trkpt lat="42.46126" lon="2.8975">
        <ele>611.94</ele>
        <time>2021-10-29T16:57:59Z</time>
      </trkpt>
      <trkpt lat="42.46115" lon="2.89781">
        <ele>612.96</ele>
        <time>2021-10-29T16:57:59Z</time>
      </trkpt>
      <trkpt lat="42.461" lon="2.89828">
        <ele>613.5</ele>
        <time>2021-10-29T16:57:59Z</time>
      </trkpt>
      <trkpt lat="42.46093" lon="2.89854">
        <ele>615.41</ele>
        <time>2021-10-29T16:57:59Z</time>
      </trkpt>
      <trkpt lat="42.46096" lon="2.89886">
        <ele>615.21</ele>
        <time>2021-10-29T16:57:59Z</time>
      </trkpt>
      <trkpt lat="42.46098" lon="2.89928">
        <ele>615.81</ele>
        <time>2021-10-29T16:57:59Z</time>
      </trkpt>
      <trkpt lat="42.46093" lon="2.89959">
        <ele>615.84</ele>
        <time>2021-10-29T16:57:59Z</time>
      </trkpt>
      <trkpt lat="42.46072" lon="2.90002">
        <ele>614.52</ele>
        <time>2021-10-29T16:57:59Z</time>
      </trkpt>
      <trkpt lat="42.46039" lon="2.90022">
        <ele>617.33</ele>
        <time>2021-10-29T16:57:59Z</time>
      </trkpt>
      <trkpt lat="42.46023" lon="2.90058">
        <ele>617.5</ele>
        <time>2021-10-29T16:57:59Z</time>
      </trkpt>
      <trkpt lat="42.46019" lon="2.90074">
        <ele>618.14</ele>
        <time>2021-10-29T16:57:59Z</time>
      </trkpt>
      <trkpt lat="42.46" lon="2.90087">
        <ele>618.2</ele>
        <time>2021-10-29T16:57:59Z</time>
      </trkpt>
      <trkpt lat="42.45965" lon="2.90103">
        <ele>618.65</ele>
        <time>2021-10-29T16:57:59Z</time>
      </trkpt>
      <trkpt lat="42.45939" lon="2.90122">
        <ele>620.43</ele>
        <time>2021-10-29T16:57:59Z</time>
      </trkpt>
      <trkpt lat="42.45927" lon="2.90162">
        <ele>618.46</ele>
        <time>2021-10-29T16:57:59Z</time>
      </trkpt>
      <trkpt lat="42.45923" lon="2.90211">
        <ele>620.67</ele>
        <time>2021-10-29T16:57:59Z</time>
      </trkpt>
      <trkpt lat="42.45936" lon="2.90241">
        <ele>621.32</ele>
        <time>2021-10-29T16:57:59Z</time>
      </trkpt>
      <trkpt lat="42.45951" lon="2.90274">
        <ele>622.27</ele>
        <time>2021-10-29T16:57:59Z</time>
      </trkpt>
      <trkpt lat="42.45968" lon="2.90301">
        <ele>621.33</ele>
        <time>2021-10-29T16:57:59Z</time>
      </trkpt>
      <trkpt lat="42.45966" lon="2.90348">
        <ele>622.06</ele>
        <time>2021-10-29T16:57:59Z</time>
      </trkpt>
      <trkpt lat="42.45957" lon="2.9038">
        <ele>622.32</ele>
        <time>2021-10-29T16:57:59Z</time>
      </trkpt>
      <trkpt lat="42.45933" lon="2.90388">
        <ele>623.79</ele>
        <time>2021-10-29T16:57:59Z</time>
      </trkpt>
      <trkpt lat="42.45906" lon="2.90409">
        <ele>625.01</ele>
        <time>2021-10-29T16:57:59Z</time>
      </trkpt>
      <trkpt lat="42.45902" lon="2.90443">
        <ele>623.28</ele>
        <time>2021-10-29T16:57:59Z</time>
      </trkpt>
      <trkpt lat="42.45922" lon="2.90487">
        <ele>624.22</ele>
        <time>2021-10-29T16:57:59Z</time>
      </trkpt>
      <trkpt lat="42.45928" lon="2.90519">
        <ele>624.46</ele>
        <time>2021-10-29T16:57:59Z</time>
      </trkpt>
      <trkpt lat="42.45926" lon="2.90557">
        <ele>625.46</ele>
        <time>2021-10-29T16:57:59Z</time>
      </trkpt>
      <trkpt lat="42.45923" lon="2.90606">
        <ele>626.6</ele>
        <time>2021-10-29T16:57:59Z</time>
      </trkpt>
      <trkpt lat="42.45929" lon="2.90635">
        <ele>626.1</ele>
        <time>2021-10-29T16:57:59Z</time>
      </trkpt>
      <trkpt lat="42.45955" lon="2.90643">
        <ele>625.64</ele>
        <time>2021-10-29T16:57:59Z</time>
      </trkpt>
      <trkpt lat="42.45985" lon="2.90652">
        <ele>625.89</ele>
        <time>2021-10-29T16:57:59Z</time>
      </trkpt>
      <trkpt lat="42.46004" lon="2.90683">
        <ele>628.83</ele>
        <time>2021-10-29T16:57:59Z</time>
      </trkpt>
      <trkpt lat="42.46036" lon="2.90713">
        <ele>628.61</ele>
        <time>2021-10-29T16:57:59Z</time>
      </trkpt>
      <trkpt lat="42.46068" lon="2.90739">
        <ele>630.22</ele>
        <time>2021-10-29T16:57:59Z</time>
      </trkpt>
      <trkpt lat="42.46077" lon="2.90781">
        <ele>630.57</ele>
        <time>2021-10-29T16:57:59Z</time>
      </trkpt>
      <trkpt lat="42.4609" lon="2.90834">
        <ele>631.23</ele>
        <time>2021-10-29T16:57:59Z</time>
      </trkpt>
      <trkpt lat="42.46116" lon="2.90874">
        <ele>630.79</ele>
        <time>2021-10-29T16:57:59Z</time>
      </trkpt>
      <trkpt lat="42.46124" lon="2.90909">
        <ele>630.39</ele>
        <time>2021-10-29T16:57:59Z</time>
      </trkpt>
      <trkpt lat="42.46107" lon="2.9097">
        <ele>630.23</ele>
        <time>2021-10-29T16:57:59Z</time>
      </trkpt>
      <trkpt lat="42.46097" lon="2.91001">
        <ele>633.39</ele>
        <time>2021-10-29T16:57:59Z</time>
      </trkpt>
      <trkpt lat="42.46106" lon="2.91021">
        <ele>633.56</ele>
        <time>2021-10-29T16:57:59Z</time>
      </trkpt>
      <trkpt lat="42.46161" lon="2.91018">
        <ele>632.21</ele>
        <time>2021-10-29T16:57:59Z</time>
      </trkpt>
      <trkpt lat="42.4619" lon="2.91021">
        <ele>632.6</ele>
        <time>2021-10-29T16:57:59Z</time>
      </trkpt>
      <trkpt lat="42.46189" lon="2.91056">
        <ele>633.84</ele>
        <time>2021-10-29T16:57:59Z</time>
      </trkpt>
      <trkpt lat="42.46193" lon="2.9109">
        <ele>634.78</ele>
        <time>2021-10-29T16:57:59Z</time>
      </trkpt>
      <trkpt lat="42.46227" lon="2.91135">
        <ele>635.06</ele>
        <time>2021-10-29T16:57:59Z</time>
      </trkpt>
      <trkpt lat="42.46255" lon="2.91159">
        <ele>634.86</ele>
        <time>2021-10-29T16:57:59Z</time>
      </trkpt>
      <trkpt lat="42.46264" lon="2.91191">
        <ele>635.02</ele>
        <time>2021-10-29T16:57:59Z</time>
      </trkpt>
      <trkpt lat="42.46275" lon="2.91223">
        <ele>637.32</ele>
        <time>2021-10-29T16:57:59Z</time>
      </trkpt>
      <trkpt lat="42.46281" lon="2.91246">
        <ele>636.58</ele>
        <time>2021-10-29T16:57:59Z</time>
      </trkpt>
      <trkpt lat="42.46273" lon="2.91307">
        <ele>640.82</ele>
        <time>2021-10-29T16:57:59Z</time>
      </trkpt>
      <trkpt lat="42.46264" lon="2.91338">
        <ele>641.01</ele>
        <time>2021-10-29T16:57:59Z</time>
      </trkpt>
      <trkpt lat="42.46255" lon="2.9137">
        <ele>641.8</ele>
        <time>2021-10-29T16:57:59Z</time>
      </trkpt>
      <trkpt lat="42.46252" lon="2.91408">
        <ele>641.57</ele>
        <time>2021-10-29T16:57:59Z</time>
      </trkpt>
      <trkpt lat="42.46248" lon="2.91457">
        <ele>644.34</ele>
        <time>2021-10-29T16:57:59Z</time>
      </trkpt>
      <trkpt lat="42.46247" lon="2.91496">
        <ele>646.04</ele>
        <time>2021-10-29T16:57:59Z</time>
      </trkpt>
      <trkpt lat="42.46253" lon="2.91509">
        <ele>650.64</ele>
        <time>2021-10-29T16:57:59Z</time>
      </trkpt>
      <trkpt lat="42.46332" lon="2.91428">
        <ele>644.29</ele>
        <time>2021-10-29T16:57:59Z</time>
      </trkpt>
      <trkpt lat="42.4637" lon="2.91401">
        <ele>642.71</ele>
        <time>2021-10-29T16:57:59Z</time>
      </trkpt>
      <trkpt lat="42.46396" lon="2.91401">
        <ele>644.87</ele>
        <time>2021-10-29T16:57:59Z</time>
      </trkpt>
      <trkpt lat="42.46427" lon="2.91402">
        <ele>640.75</ele>
        <time>2021-10-29T16:57:59Z</time>
      </trkpt>
      <trkpt lat="42.46456" lon="2.91429">
        <ele>640.63</ele>
        <time>2021-10-29T16:57:59Z</time>
      </trkpt>
      <trkpt lat="42.46473" lon="2.91457">
        <ele>643.83</ele>
        <time>2021-10-29T16:57:59Z</time>
      </trkpt>
      <trkpt lat="42.46491" lon="2.91471">
        <ele>644.71</ele>
        <time>2021-10-29T16:57:59Z</time>
      </trkpt>
      <trkpt lat="42.46516" lon="2.91488">
        <ele>645.18</ele>
        <time>2021-10-29T16:57:59Z</time>
      </trkpt>
      <trkpt lat="42.46551" lon="2.91511">
        <ele>653.49</ele>
        <time>2021-10-29T16:57:59Z</time>
      </trkpt>
      <trkpt lat="42.46571" lon="2.9148">
        <ele>664.79</ele>
        <time>2021-10-29T16:57:59Z</time>
      </trkpt>
      <trkpt lat="42.466" lon="2.91435">
        <ele>674.22</ele>
        <time>2021-10-29T16:57:59Z</time>
      </trkpt>
      <trkpt lat="42.46626" lon="2.91434">
        <ele>687.21</ele>
        <time>2021-10-29T16:57:59Z</time>
      </trkpt>
      <trkpt lat="42.46653" lon="2.91434">
        <ele>698.49</ele>
        <time>2021-10-29T16:57:59Z</time>
      </trkpt>
      <trkpt lat="42.46689" lon="2.9141">
        <ele>703.28</ele>
        <time>2021-10-29T16:57:59Z</time>
      </trkpt>
      <trkpt lat="42.46725" lon="2.91386">
        <ele>710.97</ele>
        <time>2021-10-29T16:57:59Z</time>
      </trkpt>
      <trkpt lat="42.46761" lon="2.91362">
        <ele>714.46</ele>
        <time>2021-10-29T16:57:59Z</time>
      </trkpt>
      <trkpt lat="42.46797" lon="2.91338">
        <ele>714.17</ele>
        <time>2021-10-29T16:57:59Z</time>
      </trkpt>
      <trkpt lat="42.4684" lon="2.9131">
        <ele>712.2</ele>
        <time>2021-10-29T16:57:59Z</time>
      </trkpt>
      <trkpt lat="42.46844" lon="2.91346">
        <ele>719.38</ele>
        <time>2021-10-29T16:57:59Z</time>
      </trkpt>
      <trkpt lat="42.46848" lon="2.91387">
        <ele>730.98</ele>
        <time>2021-10-29T16:57:59Z</time>
      </trkpt>
      <trkpt lat="42.46876" lon="2.91416">
        <ele>733.08</ele>
        <time>2021-10-29T16:57:59Z</time>
      </trkpt>
      <trkpt lat="42.4688" lon="2.91451">
        <ele>742.04</ele>
        <time>2021-10-29T16:57:59Z</time>
      </trkpt>
      <trkpt lat="42.46885" lon="2.9149">
        <ele>749.17</ele>
        <time>2021-10-29T16:57:59Z</time>
      </trkpt>
      <trkpt lat="42.46877" lon="2.91552">
        <ele>762.91</ele>
        <time>2021-10-29T16:57:59Z</time>
      </trkpt>
      <trkpt lat="42.46876" lon="2.91593">
        <ele>770.06</ele>
        <time>2021-10-29T16:57:59Z</time>
      </trkpt>
      <trkpt lat="42.46884" lon="2.91651">
        <ele>782.77</ele>
        <time>2021-10-29T16:57:59Z</time>
      </trkpt>
      <trkpt lat="42.46899" lon="2.91679">
        <ele>787.95</ele>
        <time>2021-10-29T16:57:59Z</time>
      </trkpt>
      <trkpt lat="42.46915" lon="2.91709">
        <ele>793.77</ele>
        <time>2021-10-29T16:57:59Z</time>
      </trkpt>
      <trkpt lat="42.46924" lon="2.91738">
        <ele>798.02</ele>
        <time>2021-10-29T16:57:59Z</time>
      </trkpt>
      <trkpt lat="42.46947" lon="2.91755">
        <ele>803.26</ele>
        <time>2021-10-29T16:57:59Z</time>
      </trkpt>
      <trkpt lat="42.46971" lon="2.91773">
        <ele>807.13</ele>
        <time>2021-10-29T16:57:59Z</time>
      </trkpt>
      <trkpt lat="42.46988" lon="2.91824">
        <ele>817.77</ele>
        <time>2021-10-29T16:57:59Z</time>
      </trkpt>
      <trkpt lat="42.46995" lon="2.91858">
        <ele>822.32</ele>
        <time>2021-10-29T16:57:59Z</time>
      </trkpt>
      <trkpt lat="42.47004" lon="2.91898">
        <ele>829.71</ele>
        <time>2021-10-29T16:57:59Z</time>
      </trkpt>
      <trkpt lat="42.47009" lon="2.91937">
        <ele>836.02</ele>
        <time>2021-10-29T16:57:59Z</time>
      </trkpt>
      <trkpt lat="42.47016" lon="2.91992">
        <ele>845.02</ele>
        <time>2021-10-29T16:57:59Z</time>
      </trkpt>
      <trkpt lat="42.4702" lon="2.92028">
        <ele>848.47</ele>
        <time>2021-10-29T16:57:59Z</time>
      </trkpt>
      <trkpt lat="42.47025" lon="2.92073">
        <ele>852.03</ele>
        <time>2021-10-29T16:57:59Z</time>
      </trkpt>
      <trkpt lat="42.47033" lon="2.92115">
        <ele>855.81</ele>
        <time>2021-10-29T16:57:59Z</time>
      </trkpt>
      <trkpt lat="42.4704" lon="2.92151">
        <ele>860.63</ele>
        <time>2021-10-29T16:57:59Z</time>
      </trkpt>
      <trkpt lat="42.47049" lon="2.92194">
        <ele>864.3</ele>
        <time>2021-10-29T16:57:59Z</time>
      </trkpt>
      <trkpt lat="42.47053" lon="2.9224">
        <ele>868.26</ele>
        <time>2021-10-29T16:57:59Z</time>
      </trkpt>
      <trkpt lat="42.47067" lon="2.92211">
        <ele>870.95</ele>
        <time>2021-10-29T16:57:59Z</time>
      </trkpt>
      <trkpt lat="42.47082" lon="2.92156">
        <ele>872.76</ele>
        <time>2021-10-29T16:57:59Z</time>
      </trkpt>
      <trkpt lat="42.471" lon="2.9216">
        <ele>872.87</ele>
        <time>2021-10-29T16:57:59Z</time>
      </trkpt>
      <trkpt lat="42.47102" lon="2.92196">
        <ele>878.86</ele>
        <time>2021-10-29T16:57:59Z</time>
      </trkpt>
      <trkpt lat="42.47114" lon="2.92256">
        <ele>887.12</ele>
        <time>2021-10-29T16:57:59Z</time>
      </trkpt>
      <trkpt lat="42.47121" lon="2.92269">
        <ele>889.38</ele>
        <time>2021-10-29T16:57:59Z</time>
      </trkpt>
      <trkpt lat="42.47143" lon="2.92285">
        <ele>889.11</ele>
        <time>2021-10-29T16:57:59Z</time>
      </trkpt>
      <trkpt lat="42.4717" lon="2.9231">
        <ele>891.02</ele>
        <time>2021-10-29T16:57:59Z</time>
      </trkpt>
      <trkpt lat="42.47197" lon="2.92336">
        <ele>897.15</ele>
        <time>2021-10-29T16:57:59Z</time>
      </trkpt>
      <trkpt lat="42.47225" lon="2.92362">
        <ele>906.8</ele>
        <time>2021-10-29T16:57:59Z</time>
      </trkpt>
      <trkpt lat="42.47252" lon="2.92394">
        <ele>915.58</ele>
        <time>2021-10-29T16:57:59Z</time>
      </trkpt>
      <trkpt lat="42.47273" lon="2.92411">
        <ele>914.3</ele>
        <time>2021-10-29T16:57:59Z</time>
      </trkpt>
      <trkpt lat="42.47297" lon="2.92426">
        <ele>914.74</ele>
        <time>2021-10-29T16:57:59Z</time>
      </trkpt>
      <trkpt lat="42.47323" lon="2.92443">
        <ele>914.91</ele>
        <time>2021-10-29T16:57:59Z</time>
      </trkpt>
      <trkpt lat="42.47348" lon="2.9248">
        <ele>915.88</ele>
        <time>2021-10-29T16:57:59Z</time>
      </trkpt>
      <trkpt lat="42.47378" lon="2.92493">
        <ele>908.56</ele>
        <time>2021-10-29T16:57:59Z</time>
      </trkpt>
      <trkpt lat="42.47392" lon="2.92524">
        <ele>908.36</ele>
        <time>2021-10-29T16:57:59Z</time>
      </trkpt>
      <trkpt lat="42.47409" lon="2.92561">
        <ele>910.13</ele>
        <time>2021-10-29T16:57:59Z</time>
      </trkpt>
      <trkpt lat="42.47427" lon="2.92596">
        <ele>915.13</ele>
        <time>2021-10-29T16:57:59Z</time>
      </trkpt>
      <trkpt lat="42.47446" lon="2.92605">
        <ele>919.1</ele>
        <time>2021-10-29T16:57:59Z</time>
      </trkpt>
      <trkpt lat="42.4747" lon="2.92611">
        <ele>927.18</ele>
        <time>2021-10-29T16:57:59Z</time>
      </trkpt>
      <trkpt lat="42.47485" lon="2.92598">
        <ele>924.97</ele>
        <time>2021-10-29T16:57:59Z</time>
      </trkpt>
      <trkpt lat="42.47504" lon="2.92603">
        <ele>930.44</ele>
        <time>2021-10-29T16:57:59Z</time>
      </trkpt>
      <trkpt lat="42.47531" lon="2.92597">
        <ele>933.77</ele>
        <time>2021-10-29T16:57:59Z</time>
      </trkpt>
      <trkpt lat="42.47562" lon="2.92591">
        <ele>940.03</ele>
        <time>2021-10-29T16:57:59Z</time>
      </trkpt>
      <trkpt lat="42.47583" lon="2.9257">
        <ele>940.21</ele>
        <time>2021-10-29T16:57:59Z</time>
      </trkpt>
      <trkpt lat="42.47606" lon="2.92546">
        <ele>938.45</ele>
        <time>2021-10-29T16:57:59Z</time>
      </trkpt>
      <trkpt lat="42.47627" lon="2.92529">
        <ele>941.43</ele>
        <time>2021-10-29T16:57:59Z</time>
      </trkpt>
      <trkpt lat="42.47639" lon="2.92497">
        <ele>937.61</ele>
        <time>2021-10-29T16:57:59Z</time>
      </trkpt>
      <trkpt lat="42.47681" lon="2.92478">
        <ele>943.55</ele>
        <time>2021-10-29T16:57:59Z</time>
      </trkpt>
      <trkpt lat="42.47715" lon="2.92437">
        <ele>937.25</ele>
        <time>2021-10-29T16:57:59Z</time>
      </trkpt>
      <trkpt lat="42.47744" lon="2.92437">
        <ele>943.96</ele>
        <time>2021-10-29T16:57:59Z</time>
      </trkpt>
      <trkpt lat="42.47781" lon="2.92425">
        <ele>950.16</ele>
        <time>2021-10-29T16:57:59Z</time>
      </trkpt>
      <trkpt lat="42.47797" lon="2.92389">
        <ele>940.1</ele>
        <time>2021-10-29T16:57:59Z</time>
      </trkpt>
      <trkpt lat="42.47834" lon="2.92369">
        <ele>943.37</ele>
        <time>2021-10-29T16:57:59Z</time>
      </trkpt>
      <trkpt lat="42.4785" lon="2.92355">
        <ele>942.07</ele>
        <time>2021-10-29T16:57:59Z</time>
      </trkpt>
      <trkpt lat="42.47856" lon="2.92327">
        <ele>936.44</ele>
        <time>2021-10-29T16:57:59Z</time>
      </trkpt>
      <trkpt lat="42.47874" lon="2.92301">
        <ele>936.56</ele>
        <time>2021-10-29T16:57:59Z</time>
      </trkpt>
      <trkpt lat="42.47894" lon="2.92272">
        <ele>935.68</ele>
        <time>2021-10-29T16:57:59Z</time>
      </trkpt>
      <trkpt lat="42.47926" lon="2.92248">
        <ele>937.65</ele>
        <time>2021-10-29T16:57:59Z</time>
      </trkpt>
      <trkpt lat="42.47944" lon="2.92248">
        <ele>940.81</ele>
        <time>2021-10-29T16:57:59Z</time>
      </trkpt>
      <trkpt lat="42.47947" lon="2.92271">
        <ele>943.77</ele>
        <time>2021-10-29T16:57:59Z</time>
      </trkpt>
      <trkpt lat="42.47962" lon="2.92331">
        <ele>952.84</ele>
        <time>2021-10-29T16:57:59Z</time>
      </trkpt>
      <trkpt lat="42.47967" lon="2.92369">
        <ele>958.8</ele>
        <time>2021-10-29T16:57:59Z</time>
      </trkpt>
      <trkpt lat="42.47974" lon="2.92419">
        <ele>958.44</ele>
        <time>2021-10-29T16:57:59Z</time>
      </trkpt>
      <trkpt lat="42.47977" lon="2.92467">
        <ele>956.92</ele>
        <time>2021-10-29T16:57:59Z</time>
      </trkpt>
      <trkpt lat="42.4798" lon="2.92514">
        <ele>956.75</ele>
        <time>2021-10-29T16:57:59Z</time>
      </trkpt>
      <trkpt lat="42.47982" lon="2.92548">
        <ele>956.11</ele>
        <time>2021-10-29T16:57:59Z</time>
      </trkpt>
      <trkpt lat="42.47985" lon="2.92584">
        <ele>951.39</ele>
        <time>2021-10-29T16:57:59Z</time>
      </trkpt>
      <trkpt lat="42.48012" lon="2.92616">
        <ele>953.91</ele>
        <time>2021-10-29T16:57:59Z</time>
      </trkpt>
      <trkpt lat="42.48015" lon="2.92664">
        <ele>963.39</ele>
        <time>2021-10-29T16:57:59Z</time>
      </trkpt>
      <trkpt lat="42.47994" lon="2.92715">
        <ele>969.76</ele>
        <time>2021-10-29T16:57:59Z</time>
      </trkpt>
      <trkpt lat="42.48005" lon="2.92741">
        <ele>972.11</ele>
        <time>2021-10-29T16:57:59Z</time>
      </trkpt>
      <trkpt lat="42.48034" lon="2.92754">
        <ele>970.25</ele>
        <time>2021-10-29T16:57:59Z</time>
      </trkpt>
      <trkpt lat="42.4806" lon="2.92754">
        <ele>966.83</ele>
        <time>2021-10-29T16:57:59Z</time>
      </trkpt>
      <trkpt lat="42.48088" lon="2.92754">
        <ele>964.84</ele>
        <time>2021-10-29T16:57:59Z</time>
      </trkpt>
      <trkpt lat="42.48122" lon="2.92782">
        <ele>967.81</ele>
        <time>2021-10-29T16:57:59Z</time>
      </trkpt>
      <trkpt lat="42.48108" lon="2.92825">
        <ele>969.15</ele>
        <time>2021-10-29T16:57:59Z</time>
      </trkpt>
      <trkpt lat="42.48081" lon="2.92834">
        <ele>971.03</ele>
        <time>2021-10-29T16:57:59Z</time>
      </trkpt>
      <trkpt lat="42.48045" lon="2.92846">
        <ele>976.72</ele>
        <time>2021-10-29T16:57:59Z</time>
      </trkpt>
      <trkpt lat="42.48014" lon="2.92857">
        <ele>980.27</ele>
        <time>2021-10-29T16:57:59Z</time>
      </trkpt>
      <trkpt lat="42.47988" lon="2.92867">
        <ele>984.08</ele>
        <time>2021-10-29T16:57:59Z</time>
      </trkpt>
      <trkpt lat="42.47958" lon="2.92878">
        <ele>988.06</ele>
        <time>2021-10-29T16:57:59Z</time>
      </trkpt>
      <trkpt lat="42.4793" lon="2.9289">
        <ele>991.47</ele>
        <time>2021-10-29T16:57:59Z</time>
      </trkpt>
      <trkpt lat="42.47888" lon="2.92908">
        <ele>1005.17</ele>
        <time>2021-10-29T16:57:59Z</time>
      </trkpt>
      <trkpt lat="42.47865" lon="2.92932">
        <ele>1009.49</ele>
        <time>2021-10-29T16:57:59Z</time>
      </trkpt>
      <trkpt lat="42.47834" lon="2.92964">
        <ele>1015.55</ele>
        <time>2021-10-29T16:57:59Z</time>
      </trkpt>
      <trkpt lat="42.47819" lon="2.93002">
        <ele>1014.8</ele>
        <time>2021-10-29T16:57:59Z</time>
      </trkpt>
      <trkpt lat="42.47807" lon="2.93034">
        <ele>1015.56</ele>
        <time>2021-10-29T16:57:59Z</time>
      </trkpt>
      <trkpt lat="42.47793" lon="2.93071">
        <ele>1018.69</ele>
        <time>2021-10-29T16:57:59Z</time>
      </trkpt>
      <trkpt lat="42.47779" lon="2.931">
        <ele>1020.04</ele>
        <time>2021-10-29T16:57:59Z</time>
      </trkpt>
      <trkpt lat="42.47765" lon="2.93129">
        <ele>1021.48</ele>
        <time>2021-10-29T16:57:59Z</time>
      </trkpt>
      <trkpt lat="42.47753" lon="2.93173">
        <ele>1022.2</ele>
        <time>2021-10-29T16:57:59Z</time>
      </trkpt>
      <trkpt lat="42.47742" lon="2.93217">
        <ele>1024.51</ele>
        <time>2021-10-29T16:57:59Z</time>
      </trkpt>
      <trkpt lat="42.47727" lon="2.93275">
        <ele>1028.65</ele>
        <time>2021-10-29T16:57:59Z</time>
      </trkpt>
      <trkpt lat="42.47727" lon="2.93311">
        <ele>1029.13</ele>
        <time>2021-10-29T16:57:59Z</time>
      </trkpt>
      <trkpt lat="42.47728" lon="2.93355">
        <ele>1032.81</ele>
        <time>2021-10-29T16:57:59Z</time>
      </trkpt>
      <trkpt lat="42.4775" lon="2.93367">
        <ele>1037.82</ele>
        <time>2021-10-29T16:57:59Z</time>
      </trkpt>
      <trkpt lat="42.47779" lon="2.93362">
        <ele>1039.69</ele>
        <time>2021-10-29T16:57:59Z</time>
      </trkpt>
      <trkpt lat="42.47823" lon="2.93355">
        <ele>1042.5</ele>
        <time>2021-10-29T16:57:59Z</time>
      </trkpt>
      <trkpt lat="42.47856" lon="2.9336">
        <ele>1042.5</ele>
        <time>2021-10-29T16:57:59Z</time>
      </trkpt>
      <trkpt lat="42.47884" lon="2.93364">
        <ele>1046.37</ele>
        <time>2021-10-29T16:57:59Z</time>
      </trkpt>
      <trkpt lat="42.47921" lon="2.9337">
        <ele>1050.7</ele>
        <time>2021-10-29T16:57:59Z</time>
      </trkpt>
      <trkpt lat="42.47936" lon="2.93402">
        <ele>1054.26</ele>
        <time>2021-10-29T16:57:59Z</time>
      </trkpt>
      <trkpt lat="42.47955" lon="2.93445">
        <ele>1054.32</ele>
        <time>2021-10-29T16:57:59Z</time>
      </trkpt>
      <trkpt lat="42.47952" lon="2.93493">
        <ele>1058.66</ele>
        <time>2021-10-29T16:57:59Z</time>
      </trkpt>
      <trkpt lat="42.47949" lon="2.93542">
        <ele>1060.66</ele>
        <time>2021-10-29T16:57:59Z</time>
      </trkpt>
      <trkpt lat="42.47947" lon="2.93578">
        <ele>1062.69</ele>
        <time>2021-10-29T16:57:59Z</time>
      </trkpt>
      <trkpt lat="42.47945" lon="2.93619">
        <ele>1071.48</ele>
        <time>2021-10-29T16:57:59Z</time>
      </trkpt>
      <trkpt lat="42.47961" lon="2.93657">
        <ele>1069.21</ele>
        <time>2021-10-29T16:57:59Z</time>
      </trkpt>
      <trkpt lat="42.47983" lon="2.93681">
        <ele>1071.36</ele>
        <time>2021-10-29T16:57:59Z</time>
      </trkpt>
      <trkpt lat="42.48002" lon="2.93741">
        <ele>1073.51</ele>
        <time>2021-10-29T16:57:59Z</time>
      </trkpt>
      <trkpt lat="42.47998" lon="2.93779">
        <ele>1078.5</ele>
        <time>2021-10-29T16:57:59Z</time>
      </trkpt>
      <trkpt lat="42.47994" lon="2.93829">
        <ele>1081.8</ele>
        <time>2021-10-29T16:57:59Z</time>
      </trkpt>
      <trkpt lat="42.48009" lon="2.9387">
        <ele>1080.26</ele>
        <time>2021-10-29T16:57:59Z</time>
      </trkpt>
      <trkpt lat="42.48024" lon="2.93911">
        <ele>1082.08</ele>
        <time>2021-10-29T16:57:59Z</time>
      </trkpt>
      <trkpt lat="42.4804" lon="2.93955">
        <ele>1084.64</ele>
        <time>2021-10-29T16:57:59Z</time>
      </trkpt>
      <trkpt lat="42.48076" lon="2.93994">
        <ele>1085.98</ele>
        <time>2021-10-29T16:57:59Z</time>
      </trkpt>
      <trkpt lat="42.48096" lon="2.94038">
        <ele>1089.3</ele>
        <time>2021-10-29T16:57:59Z</time>
      </trkpt>
      <trkpt lat="42.48115" lon="2.94082">
        <ele>1094.26</ele>
        <time>2021-10-29T16:57:59Z</time>
      </trkpt>
      <trkpt lat="42.48135" lon="2.94127">
        <ele>1093.36</ele>
        <time>2021-10-29T16:57:59Z</time>
      </trkpt>
      <trkpt lat="42.4816" lon="2.94183">
        <ele>1095.06</ele>
        <time>2021-10-29T16:57:59Z</time>
      </trkpt>
      <trkpt lat="42.48197" lon="2.94226">
        <ele>1099.42</ele>
        <time>2021-10-29T16:57:59Z</time>
      </trkpt>
      <trkpt lat="42.48236" lon="2.94234">
        <ele>1100.28</ele>
        <time>2021-10-29T16:57:59Z</time>
      </trkpt>
      <trkpt lat="42.48257" lon="2.94247">
        <ele>1101.75</ele>
        <time>2021-10-29T16:57:59Z</time>
      </trkpt>
      <trkpt lat="42.48288" lon="2.94262">
        <ele>1104.66</ele>
        <time>2021-10-29T16:57:59Z</time>
      </trkpt>
      <trkpt lat="42.48314" lon="2.94275">
        <ele>1106.04</ele>
        <time>2021-10-29T16:57:59Z</time>
      </trkpt>
      <trkpt lat="42.48347" lon="2.94292">
        <ele>1109.19</ele>
        <time>2021-10-29T16:57:59Z</time>
      </trkpt>
      <trkpt lat="42.48376" lon="2.94301">
        <ele>1113.21</ele>
        <time>2021-10-29T16:57:59Z</time>
      </trkpt>
      <trkpt lat="42.48423" lon="2.94316">
        <ele>1113.75</ele>
        <time>2021-10-29T16:57:59Z</time>
      </trkpt>
      <trkpt lat="42.48428" lon="2.94358">
        <ele>1113.97</ele>
        <time>2021-10-29T16:57:59Z</time>
      </trkpt>
      <trkpt lat="42.48432" lon="2.94391">
        <ele>1114.14</ele>
        <time>2021-10-29T16:57:59Z</time>
      </trkpt>
      <trkpt lat="42.48436" lon="2.94427">
        <ele>1116.23</ele>
        <time>2021-10-29T16:57:59Z</time>
      </trkpt>
      <trkpt lat="42.48455" lon="2.94454">
        <ele>1115.03</ele>
        <time>2021-10-29T16:57:59Z</time>
      </trkpt>
      <trkpt lat="42.4848" lon="2.94488">
        <ele>1116.5</ele>
        <time>2021-10-29T16:57:59Z</time>
      </trkpt>
      <trkpt lat="42.48521" lon="2.94513">
        <ele>1116.46</ele>
        <time>2021-10-29T16:57:59Z</time>
      </trkpt>
      <trkpt lat="42.48529" lon="2.94547">
        <ele>1118.44</ele>
        <time>2021-10-29T16:57:59Z</time>
      </trkpt>
      <trkpt lat="42.48539" lon="2.94586">
        <ele>1118.37</ele>
        <time>2021-10-29T16:57:59Z</time>
      </trkpt>
      <trkpt lat="42.48575" lon="2.94629">
        <ele>1118.16</ele>
        <time>2021-10-29T16:57:59Z</time>
      </trkpt>
      <trkpt lat="42.48578" lon="2.94666">
        <ele>1118.88</ele>
        <time>2021-10-29T16:57:59Z</time>
      </trkpt>
      <trkpt lat="42.48583" lon="2.94713">
        <ele>1120.14</ele>
        <time>2021-10-29T16:57:59Z</time>
      </trkpt>
      <trkpt lat="42.486" lon="2.94742">
        <ele>1117.77</ele>
        <time>2021-10-29T16:57:59Z</time>
      </trkpt>
      <trkpt lat="42.48622" lon="2.94779">
        <ele>1116.56</ele>
        <time>2021-10-29T16:57:59Z</time>
      </trkpt>
      <trkpt lat="42.48629" lon="2.94817">
        <ele>1117.28</ele>
        <time>2021-10-29T16:57:59Z</time>
      </trkpt>
      <trkpt lat="42.4864" lon="2.94869">
        <ele>1114.94</ele>
        <time>2021-10-29T16:57:59Z</time>
      </trkpt>
      <trkpt lat="42.48613" lon="2.94904">
        <ele>1112.87</ele>
        <time>2021-10-29T16:57:59Z</time>
      </trkpt>
      <trkpt lat="42.48584" lon="2.94921">
        <ele>1115.21</ele>
        <time>2021-10-29T16:57:59Z</time>
      </trkpt>
      <trkpt lat="42.48561" lon="2.94935">
        <ele>1113.2</ele>
        <time>2021-10-29T16:57:59Z</time>
      </trkpt>
      <trkpt lat="42.48535" lon="2.94951">
        <ele>1108.98</ele>
        <time>2021-10-29T16:57:59Z</time>
      </trkpt>
      <trkpt lat="42.4851" lon="2.94965">
        <ele>1106.92</ele>
        <time>2021-10-29T16:57:59Z</time>
      </trkpt>
      <trkpt lat="42.4848" lon="2.94981">
        <ele>1107.02</ele>
        <time>2021-10-29T16:57:59Z</time>
      </trkpt>
      <trkpt lat="42.48457" lon="2.95011">
        <ele>1102.36</ele>
        <time>2021-10-29T16:57:59Z</time>
      </trkpt>
      <trkpt lat="42.48439" lon="2.95035">
        <ele>1100.7</ele>
        <time>2021-10-29T16:57:59Z</time>
      </trkpt>
      <trkpt lat="42.48418" lon="2.95063">
        <ele>1102.44</ele>
        <time>2021-10-29T16:57:59Z</time>
      </trkpt>
      <trkpt lat="42.48402" lon="2.95101">
        <ele>1100.98</ele>
        <time>2021-10-29T16:57:59Z</time>
      </trkpt>
      <trkpt lat="42.48388" lon="2.95133">
        <ele>1100.52</ele>
        <time>2021-10-29T16:57:59Z</time>
      </trkpt>
      <trkpt lat="42.48371" lon="2.95172">
        <ele>1098.75</ele>
        <time>2021-10-29T16:57:59Z</time>
      </trkpt>
      <trkpt lat="42.48344" lon="2.95192">
        <ele>1097.93</ele>
        <time>2021-10-29T16:57:59Z</time>
      </trkpt>
      <trkpt lat="42.48303" lon="2.95224">
        <ele>1095.88</ele>
        <time>2021-10-29T16:57:59Z</time>
      </trkpt>
      <trkpt lat="42.48279" lon="2.95245">
        <ele>1094.32</ele>
        <time>2021-10-29T16:57:59Z</time>
      </trkpt>
      <trkpt lat="42.48249" lon="2.95273">
        <ele>1094.87</ele>
        <time>2021-10-29T16:57:59Z</time>
      </trkpt>
      <trkpt lat="42.48225" lon="2.95314">
        <ele>1090.37</ele>
        <time>2021-10-29T16:57:59Z</time>
      </trkpt>
      <trkpt lat="42.48216" lon="2.95346">
        <ele>1088.32</ele>
        <time>2021-10-29T16:57:59Z</time>
      </trkpt>
      <trkpt lat="42.48206" lon="2.9538">
        <ele>1088.95</ele>
        <time>2021-10-29T16:57:59Z</time>
      </trkpt>
      <trkpt lat="42.48185" lon="2.954">
        <ele>1089.32</ele>
        <time>2021-10-29T16:57:59Z</time>
      </trkpt>
      <trkpt lat="42.48163" lon="2.95421">
        <ele>1083.57</ele>
        <time>2021-10-29T16:57:59Z</time>
      </trkpt>
      <trkpt lat="42.4813" lon="2.95407">
        <ele>1082.37</ele>
        <time>2021-10-29T16:57:59Z</time>
      </trkpt>
      <trkpt lat="42.48098" lon="2.95394">
        <ele>1081.01</ele>
        <time>2021-10-29T16:57:59Z</time>
      </trkpt>
      <trkpt lat="42.48059" lon="2.95378">
        <ele>1075.88</ele>
        <time>2021-10-29T16:57:59Z</time>
      </trkpt>
      <trkpt lat="42.48039" lon="2.95347">
        <ele>1075.24</ele>
        <time>2021-10-29T16:57:59Z</time>
      </trkpt>
      <trkpt lat="42.48008" lon="2.95299">
        <ele>1068.13</ele>
        <time>2021-10-29T16:57:59Z</time>
      </trkpt>
      <trkpt lat="42.47987" lon="2.95268">
        <ele>1065.15</ele>
        <time>2021-10-29T16:57:59Z</time>
      </trkpt>
      <trkpt lat="42.4797" lon="2.95244">
        <ele>1064.04</ele>
        <time>2021-10-29T16:57:59Z</time>
      </trkpt>
      <trkpt lat="42.47953" lon="2.95219">
        <ele>1063.33</ele>
        <time>2021-10-29T16:57:59Z</time>
      </trkpt>
      <trkpt lat="42.47926" lon="2.9521">
        <ele>1059.7</ele>
        <time>2021-10-29T16:57:59Z</time>
      </trkpt>
      <trkpt lat="42.47894" lon="2.952">
        <ele>1058.65</ele>
        <time>2021-10-29T16:57:59Z</time>
      </trkpt>
      <trkpt lat="42.47867" lon="2.95212">
        <ele>1054.59</ele>
        <time>2021-10-29T16:57:59Z</time>
      </trkpt>
      <trkpt lat="42.4783" lon="2.95228">
        <ele>1054.37</ele>
        <time>2021-10-29T16:57:59Z</time>
      </trkpt>
      <trkpt lat="42.47807" lon="2.95263">
        <ele>1051.38</ele>
        <time>2021-10-29T16:57:59Z</time>
      </trkpt>
      <trkpt lat="42.47784" lon="2.95297">
        <ele>1048.9</ele>
        <time>2021-10-29T16:57:59Z</time>
      </trkpt>
      <trkpt lat="42.47757" lon="2.95339">
        <ele>1045.08</ele>
        <time>2021-10-29T16:57:59Z</time>
      </trkpt>
      <trkpt lat="42.47738" lon="2.95381">
        <ele>1039.9</ele>
        <time>2021-10-29T16:57:59Z</time>
      </trkpt>
      <trkpt lat="42.47719" lon="2.95423">
        <ele>1034.94</ele>
        <time>2021-10-29T16:57:59Z</time>
      </trkpt>
      <trkpt lat="42.47704" lon="2.95456">
        <ele>1033.43</ele>
        <time>2021-10-29T16:57:59Z</time>
      </trkpt>
      <trkpt lat="42.47684" lon="2.955">
        <ele>1031.24</ele>
        <time>2021-10-29T16:57:59Z</time>
      </trkpt>
      <trkpt lat="42.47672" lon="2.95541">
        <ele>1027.76</ele>
        <time>2021-10-29T16:57:59Z</time>
      </trkpt>
      <trkpt lat="42.47663" lon="2.95575">
        <ele>1025.81</ele>
        <time>2021-10-29T16:57:59Z</time>
      </trkpt>
      <trkpt lat="42.47651" lon="2.95616">
        <ele>1026.4</ele>
        <time>2021-10-29T16:57:59Z</time>
      </trkpt>
      <trkpt lat="42.47649" lon="2.95657">
        <ele>1024.02</ele>
        <time>2021-10-29T16:57:59Z</time>
      </trkpt>
      <trkpt lat="42.47646" lon="2.95724">
        <ele>1019.63</ele>
        <time>2021-10-29T16:57:59Z</time>
      </trkpt>
      <trkpt lat="42.4763" lon="2.95755">
        <ele>1019.11</ele>
        <time>2021-10-29T16:57:59Z</time>
      </trkpt>
      <trkpt lat="42.47611" lon="2.95794">
        <ele>1015.49</ele>
        <time>2021-10-29T16:57:59Z</time>
      </trkpt>
      <trkpt lat="42.47586" lon="2.95822">
        <ele>1015.19</ele>
        <time>2021-10-29T16:57:59Z</time>
      </trkpt>
      <trkpt lat="42.47566" lon="2.95845">
        <ele>1013.57</ele>
        <time>2021-10-29T16:57:59Z</time>
      </trkpt>
      <trkpt lat="42.47542" lon="2.95872">
        <ele>1010.44</ele>
        <time>2021-10-29T16:57:59Z</time>
      </trkpt>
      <trkpt lat="42.47532" lon="2.95911">
        <ele>1004.2</ele>
        <time>2021-10-29T16:57:59Z</time>
      </trkpt>
      <trkpt lat="42.47516" lon="2.95975">
        <ele>1002.76</ele>
        <time>2021-10-29T16:57:59Z</time>
      </trkpt>
      <trkpt lat="42.47507" lon="2.96012">
        <ele>1001.29</ele>
        <time>2021-10-29T16:57:59Z</time>
      </trkpt>
      <trkpt lat="42.47494" lon="2.96063">
        <ele>996.52</ele>
        <time>2021-10-29T16:57:59Z</time>
      </trkpt>
      <trkpt lat="42.47467" lon="2.96088">
        <ele>994.22</ele>
        <time>2021-10-29T16:57:59Z</time>
      </trkpt>
      <trkpt lat="42.47444" lon="2.9611">
        <ele>992.59</ele>
        <time>2021-10-29T16:57:59Z</time>
      </trkpt>
      <trkpt lat="42.47415" lon="2.96138">
        <ele>990.76</ele>
        <time>2021-10-29T16:57:59Z</time>
      </trkpt>
      <trkpt lat="42.47396" lon="2.96173">
        <ele>987.04</ele>
        <time>2021-10-29T16:57:59Z</time>
      </trkpt>
      <trkpt lat="42.47381" lon="2.96202">
        <ele>984.02</ele>
        <time>2021-10-29T16:57:59Z</time>
      </trkpt>
      <trkpt lat="42.47363" lon="2.96236">
        <ele>982.47</ele>
        <time>2021-10-29T16:57:59Z</time>
      </trkpt>
      <trkpt lat="42.47363" lon="2.96277">
        <ele>978.54</ele>
        <time>2021-10-29T16:57:59Z</time>
      </trkpt>
      <trkpt lat="42.47364" lon="2.96344">
        <ele>976.18</ele>
        <time>2021-10-29T16:57:59Z</time>
      </trkpt>
      <trkpt lat="42.47372" lon="2.96386">
        <ele>973.66</ele>
        <time>2021-10-29T16:57:59Z</time>
      </trkpt>
      <trkpt lat="42.47378" lon="2.9642">
        <ele>972.03</ele>
        <time>2021-10-29T16:57:59Z</time>
      </trkpt>
      <trkpt lat="42.47386" lon="2.9646">
        <ele>969.6</ele>
        <time>2021-10-29T16:57:59Z</time>
      </trkpt>
      <trkpt lat="42.47377" lon="2.96511">
        <ele>965.98</ele>
        <time>2021-10-29T16:57:59Z</time>
      </trkpt>
      <trkpt lat="42.47351" lon="2.96525">
        <ele>965</ele>
        <time>2021-10-29T16:57:59Z</time>
      </trkpt>
      <trkpt lat="42.47317" lon="2.96543">
        <ele>962.09</ele>
        <time>2021-10-29T16:57:59Z</time>
      </trkpt>
      <trkpt lat="42.47285" lon="2.96535">
        <ele>959.33</ele>
        <time>2021-10-29T16:57:59Z</time>
      </trkpt>
      <trkpt lat="42.47262" lon="2.96512">
        <ele>957.04</ele>
        <time>2021-10-29T16:57:59Z</time>
      </trkpt>
      <trkpt lat="42.4723" lon="2.96481">
        <ele>954</ele>
        <time>2021-10-29T16:57:59Z</time>
      </trkpt>
      <trkpt lat="42.47203" lon="2.96487">
        <ele>952.76</ele>
        <time>2021-10-29T16:57:59Z</time>
      </trkpt>
      <trkpt lat="42.47177" lon="2.96523">
        <ele>950.47</ele>
        <time>2021-10-29T16:57:59Z</time>
      </trkpt>
      <trkpt lat="42.47152" lon="2.96559">
        <ele>946.33</ele>
        <time>2021-10-29T16:57:59Z</time>
      </trkpt>
      <trkpt lat="42.47132" lon="2.96587">
        <ele>943.79</ele>
        <time>2021-10-29T16:57:59Z</time>
      </trkpt>
      <trkpt lat="42.47105" lon="2.96625">
        <ele>941.82</ele>
        <time>2021-10-29T16:57:59Z</time>
      </trkpt>
      <trkpt lat="42.47084" lon="2.96676">
        <ele>937.88</ele>
        <time>2021-10-29T16:57:59Z</time>
      </trkpt>
      <trkpt lat="42.47064" lon="2.96706">
        <ele>936.8</ele>
        <time>2021-10-29T16:57:59Z</time>
      </trkpt>
      <trkpt lat="42.47033" lon="2.96753">
        <ele>932.22</ele>
        <time>2021-10-29T16:57:59Z</time>
      </trkpt>
      <trkpt lat="42.47004" lon="2.96776">
        <ele>929.81</ele>
        <time>2021-10-29T16:57:59Z</time>
      </trkpt>
      <trkpt lat="42.46976" lon="2.968">
        <ele>927.29</ele>
        <time>2021-10-29T16:57:59Z</time>
      </trkpt>
      <trkpt lat="42.46946" lon="2.96824">
        <ele>924.37</ele>
        <time>2021-10-29T16:57:59Z</time>
      </trkpt>
      <trkpt lat="42.46912" lon="2.9685">
        <ele>921.44</ele>
        <time>2021-10-29T16:57:59Z</time>
      </trkpt>
      <trkpt lat="42.46893" lon="2.96878">
        <ele>919.48</ele>
        <time>2021-10-29T16:57:59Z</time>
      </trkpt>
      <trkpt lat="42.46904" lon="2.96902">
        <ele>920.06</ele>
        <time>2021-10-29T16:57:59Z</time>
      </trkpt>
      <trkpt lat="42.46943" lon="2.96912">
        <ele>918.75</ele>
        <time>2021-10-29T16:57:59Z</time>
      </trkpt>
      <trkpt lat="42.46973" lon="2.96927">
        <ele>921.61</ele>
        <time>2021-10-29T16:57:59Z</time>
      </trkpt>
      <trkpt lat="42.46996" lon="2.96944">
        <ele>925.19</ele>
        <time>2021-10-29T16:57:59Z</time>
      </trkpt>
      <trkpt lat="42.47021" lon="2.96964">
        <ele>925.81</ele>
        <time>2021-10-29T16:57:59Z</time>
      </trkpt>
      <trkpt lat="42.47036" lon="2.97001">
        <ele>928.49</ele>
        <time>2021-10-29T16:57:59Z</time>
      </trkpt>
      <trkpt lat="42.47048" lon="2.97032">
        <ele>930.78</ele>
        <time>2021-10-29T16:57:59Z</time>
      </trkpt>
      <trkpt lat="42.47062" lon="2.97065">
        <ele>932.4</ele>
        <time>2021-10-29T16:57:59Z</time>
      </trkpt>
      <trkpt lat="42.47071" lon="2.97131">
        <ele>937.75</ele>
        <time>2021-10-29T16:57:59Z</time>
      </trkpt>
      <trkpt lat="42.4709" lon="2.97163">
        <ele>938.03</ele>
        <time>2021-10-29T16:57:59Z</time>
      </trkpt>
      <trkpt lat="42.47121" lon="2.97215">
        <ele>941.44</ele>
        <time>2021-10-29T16:57:59Z</time>
      </trkpt>
      <trkpt lat="42.47146" lon="2.97247">
        <ele>944.06</ele>
        <time>2021-10-29T16:57:59Z</time>
      </trkpt>
      <trkpt lat="42.47171" lon="2.9728">
        <ele>947.56</ele>
        <time>2021-10-29T16:57:59Z</time>
      </trkpt>
      <trkpt lat="42.47203" lon="2.97322">
        <ele>949.15</ele>
        <time>2021-10-29T16:57:59Z</time>
      </trkpt>
      <trkpt lat="42.47189" lon="2.97369">
        <ele>952.48</ele>
        <time>2021-10-29T16:57:59Z</time>
      </trkpt>
      <trkpt lat="42.47169" lon="2.97398">
        <ele>954.52</ele>
        <time>2021-10-29T16:57:59Z</time>
      </trkpt>
      <trkpt lat="42.47141" lon="2.97438">
        <ele>958.18</ele>
        <time>2021-10-29T16:57:59Z</time>
      </trkpt>
      <trkpt lat="42.47128" lon="2.97475">
        <ele>959.74</ele>
        <time>2021-10-29T16:57:59Z</time>
      </trkpt>
      <trkpt lat="42.47108" lon="2.97535">
        <ele>964.1</ele>
        <time>2021-10-29T16:57:59Z</time>
      </trkpt>
      <trkpt lat="42.471" lon="2.97578">
        <ele>969.04</ele>
        <time>2021-10-29T16:57:59Z</time>
      </trkpt>
      <trkpt lat="42.47093" lon="2.97614">
        <ele>971.85</ele>
        <time>2021-10-29T16:57:59Z</time>
      </trkpt>
      <trkpt lat="42.47084" lon="2.97659">
        <ele>974.25</ele>
        <time>2021-10-29T16:57:59Z</time>
      </trkpt>
      <trkpt lat="42.47065" lon="2.97691">
        <ele>977.87</ele>
        <time>2021-10-29T16:57:59Z</time>
      </trkpt>
      <trkpt lat="42.47078" lon="2.97717">
        <ele>977.15</ele>
        <time>2021-10-29T16:57:59Z</time>
      </trkpt>
      <trkpt lat="42.47078" lon="2.97775">
        <ele>981.03</ele>
        <time>2021-10-29T16:57:59Z</time>
      </trkpt>
      <trkpt lat="42.47081" lon="2.97813">
        <ele>983.55</ele>
        <time>2021-10-29T16:57:59Z</time>
      </trkpt>
      <trkpt lat="42.47086" lon="2.97861">
        <ele>987.15</ele>
        <time>2021-10-29T16:57:59Z</time>
      </trkpt>
      <trkpt lat="42.47089" lon="2.97912">
        <ele>988.66</ele>
        <time>2021-10-29T16:57:59Z</time>
      </trkpt>
      <trkpt lat="42.47115" lon="2.97931">
        <ele>991.8</ele>
        <time>2021-10-29T16:57:59Z</time>
      </trkpt>
      <trkpt lat="42.47152" lon="2.97959">
        <ele>993.18</ele>
        <time>2021-10-29T16:57:59Z</time>
      </trkpt>
      <trkpt lat="42.47178" lon="2.97961">
        <ele>994.85</ele>
        <time>2021-10-29T16:57:59Z</time>
      </trkpt>
      <trkpt lat="42.47208" lon="2.97964">
        <ele>998.31</ele>
        <time>2021-10-29T16:57:59Z</time>
      </trkpt>
      <trkpt lat="42.4725" lon="2.97977">
        <ele>1002.32</ele>
        <time>2021-10-29T16:57:59Z</time>
      </trkpt>
      <trkpt lat="42.47276" lon="2.98013">
        <ele>1004.52</ele>
        <time>2021-10-29T16:57:59Z</time>
      </trkpt>
      <trkpt lat="42.47281" lon="2.98048">
        <ele>1008.51</ele>
        <time>2021-10-29T16:57:59Z</time>
      </trkpt>
      <trkpt lat="42.47287" lon="2.98089">
        <ele>1011.19</ele>
        <time>2021-10-29T16:57:59Z</time>
      </trkpt>
      <trkpt lat="42.47276" lon="2.98128">
        <ele>1014.17</ele>
        <time>2021-10-29T16:57:59Z</time>
      </trkpt>
      <trkpt lat="42.47267" lon="2.9816">
        <ele>1016.18</ele>
        <time>2021-10-29T16:57:59Z</time>
      </trkpt>
      <trkpt lat="42.47258" lon="2.98192">
        <ele>1018.58</ele>
        <time>2021-10-29T16:57:59Z</time>
      </trkpt>
      <trkpt lat="42.4725" lon="2.98232">
        <ele>1019.81</ele>
        <time>2021-10-29T16:57:59Z</time>
      </trkpt>
      <trkpt lat="42.47237" lon="2.98297">
        <ele>1021.65</ele>
        <time>2021-10-29T16:57:59Z</time>
      </trkpt>
      <trkpt lat="42.47274" lon="2.98317">
        <ele>1020.57</ele>
        <time>2021-10-29T16:57:59Z</time>
      </trkpt>
      <trkpt lat="42.47311" lon="2.98338">
        <ele>1020.67</ele>
        <time>2021-10-29T16:57:59Z</time>
      </trkpt>
      <trkpt lat="42.47348" lon="2.98358">
        <ele>1021.59</ele>
        <time>2021-10-29T16:57:59Z</time>
      </trkpt>
      <trkpt lat="42.47385" lon="2.98379">
        <ele>1023.21</ele>
        <time>2021-10-29T16:57:59Z</time>
      </trkpt>
      <trkpt lat="42.47427" lon="2.98402">
        <ele>1024.05</ele>
        <time>2021-10-29T16:57:59Z</time>
      </trkpt>
      <trkpt lat="42.47449" lon="2.9843">
        <ele>1026.32</ele>
        <time>2021-10-29T16:57:59Z</time>
      </trkpt>
      <trkpt lat="42.47485" lon="2.98473">
        <ele>1027.75</ele>
        <time>2021-10-29T16:57:59Z</time>
      </trkpt>
      <trkpt lat="42.4752" lon="2.98455">
        <ele>1026.44</ele>
        <time>2021-10-29T16:57:59Z</time>
      </trkpt>
      <trkpt lat="42.47555" lon="2.98437">
        <ele>1028.42</ele>
        <time>2021-10-29T16:57:59Z</time>
      </trkpt>
      <trkpt lat="42.47591" lon="2.98419">
        <ele>1030.32</ele>
        <time>2021-10-29T16:57:59Z</time>
      </trkpt>
      <trkpt lat="42.47631" lon="2.98398">
        <ele>1032.75</ele>
        <time>2021-10-29T16:57:59Z</time>
      </trkpt>
      <trkpt lat="42.47637" lon="2.98359">
        <ele>1032.89</ele>
        <time>2021-10-29T16:57:59Z</time>
      </trkpt>
      <trkpt lat="42.47645" lon="2.98303">
        <ele>1033.67</ele>
        <time>2021-10-29T16:57:59Z</time>
      </trkpt>
      <trkpt lat="42.47675" lon="2.98269">
        <ele>1034.37</ele>
        <time>2021-10-29T16:57:59Z</time>
      </trkpt>
      <trkpt lat="42.47705" lon="2.98235">
        <ele>1035.61</ele>
        <time>2021-10-29T16:57:59Z</time>
      </trkpt>
      <trkpt lat="42.47735" lon="2.98202">
        <ele>1038.44</ele>
        <time>2021-10-29T16:57:59Z</time>
      </trkpt>
      <trkpt lat="42.47756" lon="2.98178">
        <ele>1038.36</ele>
        <time>2021-10-29T16:57:59Z</time>
      </trkpt>
      <trkpt lat="42.47782" lon="2.98148">
        <ele>1035.6</ele>
        <time>2021-10-29T16:57:59Z</time>
      </trkpt>
      <trkpt lat="42.47822" lon="2.98142">
        <ele>1038.22</ele>
        <time>2021-10-29T16:57:59Z</time>
      </trkpt>
      <trkpt lat="42.47861" lon="2.98137">
        <ele>1040.18</ele>
        <time>2021-10-29T16:57:59Z</time>
      </trkpt>
      <trkpt lat="42.47901" lon="2.98131">
        <ele>1038.32</ele>
        <time>2021-10-29T16:57:59Z</time>
      </trkpt>
      <trkpt lat="42.47941" lon="2.98125">
        <ele>1039.29</ele>
        <time>2021-10-29T16:57:59Z</time>
      </trkpt>
      <trkpt lat="42.47984" lon="2.98119">
        <ele>1037.62</ele>
        <time>2021-10-29T16:57:59Z</time>
      </trkpt>
      <trkpt lat="42.48009" lon="2.98138">
        <ele>1038.53</ele>
        <time>2021-10-29T16:57:59Z</time>
      </trkpt>
      <trkpt lat="42.48044" lon="2.98165">
        <ele>1041.18</ele>
        <time>2021-10-29T16:57:59Z</time>
      </trkpt>
      <trkpt lat="42.48019" lon="2.98199">
        <ele>1050.05</ele>
        <time>2021-10-29T16:57:59Z</time>
      </trkpt>
      <trkpt lat="42.47994" lon="2.98234">
        <ele>1057.93</ele>
        <time>2021-10-29T16:57:59Z</time>
      </trkpt>
      <trkpt lat="42.47976" lon="2.98259">
        <ele>1064.04</ele>
        <time>2021-10-29T16:57:59Z</time>
      </trkpt>
      <trkpt lat="42.47957" lon="2.98286">
        <ele>1066.83</ele>
        <time>2021-10-29T16:57:59Z</time>
      </trkpt>
      <trkpt lat="42.47954" lon="2.98331">
        <ele>1063.41</ele>
        <time>2021-10-29T16:57:59Z</time>
      </trkpt>
      <trkpt lat="42.4795" lon="2.98376">
        <ele>1062.8</ele>
        <time>2021-10-29T16:57:59Z</time>
      </trkpt>
      <trkpt lat="42.47947" lon="2.98425">
        <ele>1062.81</ele>
        <time>2021-10-29T16:57:59Z</time>
      </trkpt>
      <trkpt lat="42.47981" lon="2.98454">
        <ele>1057.74</ele>
        <time>2021-10-29T16:57:59Z</time>
      </trkpt>
      <trkpt lat="42.48015" lon="2.98484">
        <ele>1059.3</ele>
        <time>2021-10-29T16:57:59Z</time>
      </trkpt>
      <trkpt lat="42.48049" lon="2.98514">
        <ele>1059.82</ele>
        <time>2021-10-29T16:57:59Z</time>
      </trkpt>
      <trkpt lat="42.48084" lon="2.98543">
        <ele>1062.22</ele>
        <time>2021-10-29T16:57:59Z</time>
      </trkpt>
      <trkpt lat="42.48106" lon="2.98563">
        <ele>1059.84</ele>
        <time>2021-10-29T16:57:59Z</time>
      </trkpt>
      <trkpt lat="42.48132" lon="2.98585">
        <ele>1053.4</ele>
        <time>2021-10-29T16:57:59Z</time>
      </trkpt>
      <trkpt lat="42.48122" lon="2.98625">
        <ele>1060.13</ele>
        <time>2021-10-29T16:57:59Z</time>
      </trkpt>
      <trkpt lat="42.48114" lon="2.98657">
        <ele>1065.39</ele>
        <time>2021-10-29T16:57:59Z</time>
      </trkpt>
      <trkpt lat="42.48105" lon="2.98692">
        <ele>1062.22</ele>
        <time>2021-10-29T16:57:59Z</time>
      </trkpt>
      <trkpt lat="42.48078" lon="2.98733">
        <ele>1061.18</ele>
        <time>2021-10-29T16:57:59Z</time>
      </trkpt>
      <trkpt lat="42.4805" lon="2.98774">
        <ele>1054.14</ele>
        <time>2021-10-29T16:57:59Z</time>
      </trkpt>
      <trkpt lat="42.48023" lon="2.98816">
        <ele>1047.95</ele>
        <time>2021-10-29T16:57:59Z</time>
      </trkpt>
      <trkpt lat="42.47996" lon="2.98857">
        <ele>1051.78</ele>
        <time>2021-10-29T16:57:59Z</time>
      </trkpt>
      <trkpt lat="42.47977" lon="2.98886">
        <ele>1055.3</ele>
        <time>2021-10-29T16:57:59Z</time>
      </trkpt>
      <trkpt lat="42.47951" lon="2.98925">
        <ele>1060.01</ele>
        <time>2021-10-29T16:57:59Z</time>
      </trkpt>
      <trkpt lat="42.47957" lon="2.98974">
        <ele>1058.34</ele>
        <time>2021-10-29T16:57:59Z</time>
      </trkpt>
      <trkpt lat="42.47962" lon="2.99024">
        <ele>1061.66</ele>
        <time>2021-10-29T16:57:59Z</time>
      </trkpt>
      <trkpt lat="42.47967" lon="2.99062">
        <ele>1055.84</ele>
        <time>2021-10-29T16:57:59Z</time>
      </trkpt>
      <trkpt lat="42.47973" lon="2.99116">
        <ele>1048.32</ele>
        <time>2021-10-29T16:57:59Z</time>
      </trkpt>
      <trkpt lat="42.47948" lon="2.99141">
        <ele>1054.25</ele>
        <time>2021-10-29T16:57:59Z</time>
      </trkpt>
      <trkpt lat="42.47927" lon="2.99162">
        <ele>1055.1</ele>
        <time>2021-10-29T16:57:59Z</time>
      </trkpt>
      <trkpt lat="42.47904" lon="2.99184">
        <ele>1050.27</ele>
        <time>2021-10-29T16:57:59Z</time>
      </trkpt>
      <trkpt lat="42.47868" lon="2.99174">
        <ele>1052.23</ele>
        <time>2021-10-29T16:57:59Z</time>
      </trkpt>
      <trkpt lat="42.47833" lon="2.99164">
        <ele>1052.43</ele>
        <time>2021-10-29T16:57:59Z</time>
      </trkpt>
      <trkpt lat="42.47805" lon="2.99157">
        <ele>1046.02</ele>
        <time>2021-10-29T16:57:59Z</time>
      </trkpt>
      <trkpt lat="42.47771" lon="2.99147">
        <ele>1042.74</ele>
        <time>2021-10-29T16:57:59Z</time>
      </trkpt>
      <trkpt lat="42.47755" lon="2.9912">
        <ele>1046.3</ele>
        <time>2021-10-29T16:57:59Z</time>
      </trkpt>
      <trkpt lat="42.47739" lon="2.99093">
        <ele>1047.82</ele>
        <time>2021-10-29T16:57:59Z</time>
      </trkpt>
      <trkpt lat="42.47716" lon="2.99121">
        <ele>1043.85</ele>
        <time>2021-10-29T16:57:59Z</time>
      </trkpt>
      <trkpt lat="42.47698" lon="2.99145">
        <ele>1045.74</ele>
        <time>2021-10-29T16:57:59Z</time>
      </trkpt>
      <trkpt lat="42.4768" lon="2.99168">
        <ele>1046.35</ele>
        <time>2021-10-29T16:57:59Z</time>
      </trkpt>
      <trkpt lat="42.47672" lon="2.99221">
        <ele>1042.13</ele>
        <time>2021-10-29T16:57:59Z</time>
      </trkpt>
      <trkpt lat="42.47665" lon="2.99275">
        <ele>1040.11</ele>
        <time>2021-10-29T16:57:59Z</time>
      </trkpt>
      <trkpt lat="42.47657" lon="2.99328">
        <ele>1038.7</ele>
        <time>2021-10-29T16:57:59Z</time>
      </trkpt>
      <trkpt lat="42.4765" lon="2.99381">
        <ele>1039.69</ele>
        <time>2021-10-29T16:57:59Z</time>
      </trkpt>
      <trkpt lat="42.47641" lon="2.99443">
        <ele>1043.16</ele>
        <time>2021-10-29T16:57:59Z</time>
      </trkpt>
      <trkpt lat="42.47668" lon="2.9948">
        <ele>1040.41</ele>
        <time>2021-10-29T16:57:59Z</time>
      </trkpt>
      <trkpt lat="42.47696" lon="2.99517">
        <ele>1040.38</ele>
        <time>2021-10-29T16:57:59Z</time>
      </trkpt>
      <trkpt lat="42.47723" lon="2.99555">
        <ele>1046.67</ele>
        <time>2021-10-29T16:57:59Z</time>
      </trkpt>
      <trkpt lat="42.47742" lon="2.99581">
        <ele>1047.88</ele>
        <time>2021-10-29T16:57:59Z</time>
      </trkpt>
      <trkpt lat="42.47766" lon="2.99613">
        <ele>1041.81</ele>
        <time>2021-10-29T16:57:59Z</time>
      </trkpt>
      <trkpt lat="42.47772" lon="2.99659">
        <ele>1044.02</ele>
        <time>2021-10-29T16:57:59Z</time>
      </trkpt>
      <trkpt lat="42.47778" lon="2.99705">
        <ele>1043.05</ele>
        <time>2021-10-29T16:57:59Z</time>
      </trkpt>
      <trkpt lat="42.47786" lon="2.99765">
        <ele>1040.01</ele>
        <time>2021-10-29T16:57:59Z</time>
      </trkpt>
      <trkpt lat="42.47796" lon="2.99811">
        <ele>1042.45</ele>
        <time>2021-10-29T16:57:59Z</time>
      </trkpt>
      <trkpt lat="42.47806" lon="2.99857">
        <ele>1042.06</ele>
        <time>2021-10-29T16:57:59Z</time>
      </trkpt>
      <trkpt lat="42.47813" lon="2.99889">
        <ele>1040.63</ele>
        <time>2021-10-29T16:57:59Z</time>
      </trkpt>
      <trkpt lat="42.47821" lon="2.99923">
        <ele>1038.79</ele>
        <time>2021-10-29T16:57:59Z</time>
      </trkpt>
      <trkpt lat="42.47852" lon="2.99949">
        <ele>1034.37</ele>
        <time>2021-10-29T16:57:59Z</time>
      </trkpt>
      <trkpt lat="42.47883" lon="2.99974">
        <ele>1029.87</ele>
        <time>2021-10-29T16:57:59Z</time>
      </trkpt>
      <trkpt lat="42.47907" lon="2.99994">
        <ele>1023.41</ele>
        <time>2021-10-29T16:57:59Z</time>
      </trkpt>
      <trkpt lat="42.47939" lon="3.0002">
        <ele>1017.66</ele>
        <time>2021-10-29T16:57:59Z</time>
      </trkpt>
      <trkpt lat="42.47968" lon="3.00052">
        <ele>1017.66</ele>
        <time>2021-10-29T16:57:59Z</time>
      </trkpt>
      <trkpt lat="42.47996" lon="3.00085">
        <ele>1016.25</ele>
        <time>2021-10-29T16:57:59Z</time>
      </trkpt>
      <trkpt lat="42.48025" lon="3.00117">
        <ele>1013.45</ele>
        <time>2021-10-29T16:57:59Z</time>
      </trkpt>
      <trkpt lat="42.48055" lon="3.00151">
        <ele>1008.47</ele>
        <time>2021-10-29T16:57:59Z</time>
      </trkpt>
      <trkpt lat="42.48088" lon="3.00171">
        <ele>1003.03</ele>
        <time>2021-10-29T16:57:59Z</time>
      </trkpt>
      <trkpt lat="42.48122" lon="3.00191">
        <ele>980.22</ele>
        <time>2021-10-29T16:57:59Z</time>
      </trkpt>
      <trkpt lat="42.48148" lon="3.00207">
        <ele>979.64</ele>
        <time>2021-10-29T16:57:59Z</time>
      </trkpt>
      <trkpt lat="42.48183" lon="3.00228">
        <ele>975.73</ele>
        <time>2021-10-29T16:57:59Z</time>
      </trkpt>
      <trkpt lat="42.4822" lon="3.0021">
        <ele>986.83</ele>
        <time>2021-10-29T16:57:59Z</time>
      </trkpt>
      <trkpt lat="42.48257" lon="3.00192">
        <ele>974.19</ele>
        <time>2021-10-29T16:57:59Z</time>
      </trkpt>
      <trkpt lat="42.48294" lon="3.00175">
        <ele>966.53</ele>
        <time>2021-10-29T16:57:59Z</time>
      </trkpt>
      <trkpt lat="42.48321" lon="3.00162">
        <ele>964.18</ele>
        <time>2021-10-29T16:57:59Z</time>
      </trkpt>
      <trkpt lat="42.48358" lon="3.00144">
        <ele>953.01</ele>
        <time>2021-10-29T16:57:59Z</time>
      </trkpt>
      <trkpt lat="42.48393" lon="3.0015">
        <ele>950.21</ele>
        <time>2021-10-29T16:57:59Z</time>
      </trkpt>
      <trkpt lat="42.48429" lon="3.00155">
        <ele>945.78</ele>
        <time>2021-10-29T16:57:59Z</time>
      </trkpt>
      <trkpt lat="42.48455" lon="3.00159">
        <ele>941.49</ele>
        <time>2021-10-29T16:57:59Z</time>
      </trkpt>
      <trkpt lat="42.48483" lon="3.00164">
        <ele>938.64</ele>
        <time>2021-10-29T16:57:59Z</time>
      </trkpt>
      <trkpt lat="42.48516" lon="3.00135">
        <ele>943.73</ele>
        <time>2021-10-29T16:57:59Z</time>
      </trkpt>
      <trkpt lat="42.48549" lon="3.00107">
        <ele>936.11</ele>
        <time>2021-10-29T16:57:59Z</time>
      </trkpt>
      <trkpt lat="42.48583" lon="3.00078">
        <ele>930.57</ele>
        <time>2021-10-29T16:57:59Z</time>
      </trkpt>
      <trkpt lat="42.48608" lon="3.00056">
        <ele>925.71</ele>
        <time>2021-10-29T16:57:59Z</time>
      </trkpt>
      <trkpt lat="42.48644" lon="3.00025">
        <ele>915.05</ele>
        <time>2021-10-29T16:57:59Z</time>
      </trkpt>
      <trkpt lat="42.48676" lon="3.00001">
        <ele>908.29</ele>
        <time>2021-10-29T16:57:59Z</time>
      </trkpt>
      <trkpt lat="42.48708" lon="2.99977">
        <ele>904.06</ele>
        <time>2021-10-29T16:57:59Z</time>
      </trkpt>
      <trkpt lat="42.48733" lon="2.99958">
        <ele>900.92</ele>
        <time>2021-10-29T16:57:59Z</time>
      </trkpt>
      <trkpt lat="42.48766" lon="2.99933">
        <ele>898.68</ele>
        <time>2021-10-29T16:57:59Z</time>
      </trkpt>
      <trkpt lat="42.48803" lon="2.99922">
        <ele>902.31</ele>
        <time>2021-10-29T16:57:59Z</time>
      </trkpt>
      <trkpt lat="42.4884" lon="2.99911">
        <ele>908.15</ele>
        <time>2021-10-29T16:57:59Z</time>
      </trkpt>
      <trkpt lat="42.48878" lon="2.999">
        <ele>918.08</ele>
        <time>2021-10-29T16:57:59Z</time>
      </trkpt>
      <trkpt lat="42.48926" lon="2.99886">
        <ele>930.27</ele>
        <time>2021-10-29T16:57:59Z</time>
      </trkpt>
      <trkpt lat="42.48959" lon="2.99859">
        <ele>930.28</ele>
        <time>2021-10-29T16:57:59Z</time>
      </trkpt>
      <trkpt lat="42.48993" lon="2.99832">
        <ele>922.42</ele>
        <time>2021-10-29T16:57:59Z</time>
      </trkpt>
      <trkpt lat="42.49026" lon="2.99805">
        <ele>920.95</ele>
        <time>2021-10-29T16:57:59Z</time>
      </trkpt>
      <trkpt lat="42.4905" lon="2.99786">
        <ele>918.22</ele>
        <time>2021-10-29T16:57:59Z</time>
      </trkpt>
      <trkpt lat="42.4908" lon="2.99762">
        <ele>911.01</ele>
        <time>2021-10-29T16:57:59Z</time>
      </trkpt>
      <trkpt lat="42.49118" lon="2.99756">
        <ele>901.43</ele>
        <time>2021-10-29T16:57:59Z</time>
      </trkpt>
      <trkpt lat="42.49156" lon="2.99749">
        <ele>892.31</ele>
        <time>2021-10-29T16:57:59Z</time>
      </trkpt>
      <trkpt lat="42.49194" lon="2.99743">
        <ele>880.16</ele>
        <time>2021-10-29T16:57:59Z</time>
      </trkpt>
      <trkpt lat="42.4922" lon="2.99739">
        <ele>874.6</ele>
        <time>2021-10-29T16:57:59Z</time>
      </trkpt>
      <trkpt lat="42.49248" lon="2.99734">
        <ele>872.76</ele>
        <time>2021-10-29T16:57:59Z</time>
      </trkpt>
      <trkpt lat="42.49268" lon="2.99693">
        <ele>871.8</ele>
        <time>2021-10-29T16:57:59Z</time>
      </trkpt>
      <trkpt lat="42.49287" lon="2.99651">
        <ele>866.4</ele>
        <time>2021-10-29T16:57:59Z</time>
      </trkpt>
      <trkpt lat="42.49302" lon="2.9962">
        <ele>861.5</ele>
        <time>2021-10-29T16:57:59Z</time>
      </trkpt>
      <trkpt lat="42.4932" lon="2.99582">
        <ele>850.44</ele>
        <time>2021-10-29T16:57:59Z</time>
      </trkpt>
      <trkpt lat="42.49329" lon="2.99547">
        <ele>840.64</ele>
        <time>2021-10-29T16:57:59Z</time>
      </trkpt>
      <trkpt lat="42.49341" lon="2.99506">
        <ele>828.3</ele>
        <time>2021-10-29T16:57:59Z</time>
      </trkpt>
      <trkpt lat="42.49368" lon="2.99482">
        <ele>818.76</ele>
        <time>2021-10-29T16:57:59Z</time>
      </trkpt>
      <trkpt lat="42.4939" lon="2.99462">
        <ele>810.71</ele>
        <time>2021-10-29T16:57:59Z</time>
      </trkpt>
      <trkpt lat="42.49416" lon="2.99438">
        <ele>800.22</ele>
        <time>2021-10-29T16:57:59Z</time>
      </trkpt>
      <trkpt lat="42.4945" lon="2.99437">
        <ele>786.58</ele>
        <time>2021-10-29T16:57:59Z</time>
      </trkpt>
      <trkpt lat="42.49485" lon="2.99437">
        <ele>770.87</ele>
        <time>2021-10-29T16:57:59Z</time>
      </trkpt>
      <trkpt lat="42.49528" lon="2.99436">
        <ele>756.67</ele>
        <time>2021-10-29T16:57:59Z</time>
      </trkpt>
      <trkpt lat="42.49551" lon="2.99404">
        <ele>746.23</ele>
        <time>2021-10-29T16:57:59Z</time>
      </trkpt>
      <trkpt lat="42.49571" lon="2.99377">
        <ele>736.12</ele>
        <time>2021-10-29T16:57:59Z</time>
      </trkpt>
      <trkpt lat="42.49596" lon="2.99343">
        <ele>723.61</ele>
        <time>2021-10-29T16:57:59Z</time>
      </trkpt>
      <trkpt lat="42.49622" lon="2.99334">
        <ele>714.18</ele>
        <time>2021-10-29T16:57:59Z</time>
      </trkpt>
      <trkpt lat="42.49653" lon="2.99323">
        <ele>703.14</ele>
        <time>2021-10-29T16:57:59Z</time>
      </trkpt>
      <trkpt lat="42.49678" lon="2.99298">
        <ele>694.72</ele>
        <time>2021-10-29T16:57:59Z</time>
      </trkpt>
      <trkpt lat="42.49698" lon="2.99277">
        <ele>687.56</ele>
        <time>2021-10-29T16:57:59Z</time>
      </trkpt>
      <trkpt lat="42.49719" lon="2.99256">
        <ele>678.97</ele>
        <time>2021-10-29T16:57:59Z</time>
      </trkpt>
      <trkpt lat="42.49762" lon="2.99273">
        <ele>664.98</ele>
        <time>2021-10-29T16:57:59Z</time>
      </trkpt>
      <trkpt lat="42.49785" lon="2.99296">
        <ele>652.74</ele>
        <time>2021-10-29T16:57:59Z</time>
      </trkpt>
      <trkpt lat="42.49819" lon="2.9933">
        <ele>632.8</ele>
        <time>2021-10-29T16:57:59Z</time>
      </trkpt>
      <trkpt lat="42.4986" lon="2.99347">
        <ele>616.32</ele>
        <time>2021-10-29T16:57:59Z</time>
      </trkpt>
      <trkpt lat="42.49885" lon="2.99361">
        <ele>601.16</ele>
        <time>2021-10-29T16:57:59Z</time>
      </trkpt>
      <trkpt lat="42.49915" lon="2.99377">
        <ele>585.25</ele>
        <time>2021-10-29T16:57:59Z</time>
      </trkpt>
      <trkpt lat="42.49941" lon="2.99379">
        <ele>575.75</ele>
        <time>2021-10-29T16:57:59Z</time>
      </trkpt>
      <trkpt lat="42.49969" lon="2.99382">
        <ele>563.15</ele>
        <time>2021-10-29T16:57:59Z</time>
      </trkpt>
      <trkpt lat="42.49995" lon="2.99399">
        <ele>553.28</ele>
        <time>2021-10-29T16:57:59Z</time>
      </trkpt>
      <trkpt lat="42.5003" lon="2.99423">
        <ele>542.66</ele>
        <time>2021-10-29T16:57:59Z</time>
      </trkpt>
      <trkpt lat="42.50036" lon="2.99461">
        <ele>528</ele>
        <time>2021-10-29T16:57:59Z</time>
      </trkpt>
      <trkpt lat="42.50044" lon="2.99516">
        <ele>506.2</ele>
        <time>2021-10-29T16:57:59Z</time>
      </trkpt>
      <trkpt lat="42.50043" lon="2.99551">
        <ele>491.74</ele>
        <time>2021-10-29T16:57:59Z</time>
      </trkpt>
      <trkpt lat="42.50042" lon="2.99588">
        <ele>475.89</ele>
        <time>2021-10-29T16:57:59Z</time>
      </trkpt>
      <trkpt lat="42.50069" lon="2.99599">
        <ele>473.47</ele>
        <time>2021-10-29T16:57:59Z</time>
      </trkpt>
      <trkpt lat="42.50103" lon="2.99614">
        <ele>451.65</ele>
        <time>2021-10-29T16:57:59Z</time>
      </trkpt>
      <trkpt lat="42.5013" lon="2.99621">
        <ele>438.56</ele>
        <time>2021-10-29T16:57:59Z</time>
      </trkpt>
      <trkpt lat="42.50172" lon="2.99588">
        <ele>432.82</ele>
        <time>2021-10-29T16:57:59Z</time>
      </trkpt>
      <trkpt lat="42.50196" lon="2.99571">
        <ele>425.62</ele>
        <time>2021-10-29T16:57:59Z</time>
      </trkpt>
      <trkpt lat="42.50225" lon="2.9955">
        <ele>415.34</ele>
        <time>2021-10-29T16:57:59Z</time>
      </trkpt>
      <trkpt lat="42.50253" lon="2.99525">
        <ele>401.98</ele>
        <time>2021-10-29T16:57:59Z</time>
      </trkpt>
      <trkpt lat="42.50281" lon="2.995">
        <ele>387.63</ele>
        <time>2021-10-29T16:57:59Z</time>
      </trkpt>
      <trkpt lat="42.50312" lon="2.99473">
        <ele>367.53</ele>
        <time>2021-10-29T16:57:59Z</time>
      </trkpt>
      <trkpt lat="42.50332" lon="2.99498">
        <ele>353.59</ele>
        <time>2021-10-29T16:57:59Z</time>
      </trkpt>
      <trkpt lat="42.50357" lon="2.9953">
        <ele>343.38</ele>
        <time>2021-10-29T16:57:59Z</time>
      </trkpt>
      <trkpt lat="42.50378" lon="2.99555">
        <ele>334.89</ele>
        <time>2021-10-29T16:57:59Z</time>
      </trkpt>
      <trkpt lat="42.50391" lon="2.99553">
        <ele>330.26</ele>
        <time>2021-10-29T16:57:59Z</time>
      </trkpt>
      <trkpt lat="42.50439" lon="2.9956">
        <ele>312.89</ele>
        <time>2021-10-29T16:57:59Z</time>
      </trkpt>
      <trkpt lat="42.50454" lon="2.9959">
        <ele>309.67</ele>
        <time>2021-10-29T16:57:59Z</time>
      </trkpt>
      <trkpt lat="42.50472" lon="2.99625">
        <ele>304.57</ele>
        <time>2021-10-29T16:57:59Z</time>
      </trkpt>
      <trkpt lat="42.50517" lon="2.99633">
        <ele>299.14</ele>
        <time>2021-10-29T16:57:59Z</time>
      </trkpt>
      <trkpt lat="42.50554" lon="2.99659">
        <ele>292.42</ele>
        <time>2021-10-29T16:57:59Z</time>
      </trkpt>
      <trkpt lat="42.50587" lon="2.99673">
        <ele>280.06</ele>
        <time>2021-10-29T16:57:59Z</time>
      </trkpt>
      <trkpt lat="42.50595" lon="2.99705">
        <ele>273.47</ele>
        <time>2021-10-29T16:57:59Z</time>
      </trkpt>
      <trkpt lat="42.50604" lon="2.99737">
        <ele>262.31</ele>
        <time>2021-10-29T16:57:59Z</time>
      </trkpt>
      <trkpt lat="42.50628" lon="2.99747">
        <ele>256.33</ele>
        <time>2021-10-29T16:57:59Z</time>
      </trkpt>
      <trkpt lat="42.5064" lon="2.99779">
        <ele>249.61</ele>
        <time>2021-10-29T16:57:59Z</time>
      </trkpt>
      <trkpt lat="42.50654" lon="2.99814">
        <ele>239.62</ele>
        <time>2021-10-29T16:57:59Z</time>
      </trkpt>
      <trkpt lat="42.50663" lon="2.99828">
        <ele>234.1</ele>
        <time>2021-10-29T16:57:59Z</time>
      </trkpt>
      <trkpt lat="42.50685" lon="2.99837">
        <ele>222.91</ele>
        <time>2021-10-29T16:57:59Z</time>
      </trkpt>
      <trkpt lat="42.50724" lon="2.99804">
        <ele>204.72</ele>
        <time>2021-10-29T16:57:59Z</time>
      </trkpt>
      <trkpt lat="42.50754" lon="2.99792">
        <ele>194.06</ele>
        <time>2021-10-29T16:57:59Z</time>
      </trkpt>
      <trkpt lat="42.50792" lon="2.99804">
        <ele>197.35</ele>
        <time>2021-10-29T16:57:59Z</time>
      </trkpt>
      <trkpt lat="42.50781" lon="2.99845">
        <ele>199.07</ele>
        <time>2021-10-29T16:57:59Z</time>
      </trkpt>
      <trkpt lat="42.50771" lon="2.9988">
        <ele>199.2</ele>
        <time>2021-10-29T16:57:59Z</time>
      </trkpt>
      <trkpt lat="42.5076" lon="2.99923">
        <ele>199.46</ele>
        <time>2021-10-29T16:57:59Z</time>
      </trkpt>
      <trkpt lat="42.50751" lon="2.99957">
        <ele>200.64</ele>
        <time>2021-10-29T16:57:59Z</time>
      </trkpt>
      <trkpt lat="42.50741" lon="2.99995">
        <ele>199.11</ele>
        <time>2021-10-29T16:57:59Z</time>
      </trkpt>
      <trkpt lat="42.50735" lon="3.00054">
        <ele>202.01</ele>
        <time>2021-10-29T16:57:59Z</time>
      </trkpt>
      <trkpt lat="42.50748" lon="3.00086">
        <ele>205.89</ele>
        <time>2021-10-29T16:57:59Z</time>
      </trkpt>
      <trkpt lat="42.50763" lon="3.00123">
        <ele>208.4</ele>
        <time>2021-10-29T16:57:59Z</time>
      </trkpt>
      <trkpt lat="42.50786" lon="3.00166">
        <ele>218.69</ele>
        <time>2021-10-29T16:57:59Z</time>
      </trkpt>
      <trkpt lat="42.50781" lon="3.00211">
        <ele>223.15</ele>
        <time>2021-10-29T16:57:59Z</time>
      </trkpt>
      <trkpt lat="42.50777" lon="3.00255">
        <ele>228.73</ele>
        <time>2021-10-29T16:57:59Z</time>
      </trkpt>
      <trkpt lat="42.50772" lon="3.00301">
        <ele>227.05</ele>
        <time>2021-10-29T16:57:59Z</time>
      </trkpt>
      <trkpt lat="42.50771" lon="3.00341">
        <ele>230.48</ele>
        <time>2021-10-29T16:57:59Z</time>
      </trkpt>
      <trkpt lat="42.5077" lon="3.00401">
        <ele>233.03</ele>
        <time>2021-10-29T16:57:59Z</time>
      </trkpt>
      <trkpt lat="42.50765" lon="3.0045">
        <ele>233.3</ele>
        <time>2021-10-29T16:57:59Z</time>
      </trkpt>
      <trkpt lat="42.5076" lon="3.00498">
        <ele>235.02</ele>
        <time>2021-10-29T16:57:59Z</time>
      </trkpt>
      <trkpt lat="42.50756" lon="3.00535">
        <ele>235.94</ele>
        <time>2021-10-29T16:57:59Z</time>
      </trkpt>
      <trkpt lat="42.50751" lon="3.00581">
        <ele>239.42</ele>
        <time>2021-10-29T16:57:59Z</time>
      </trkpt>
      <trkpt lat="42.50745" lon="3.00621">
        <ele>244.67</ele>
        <time>2021-10-29T16:57:59Z</time>
      </trkpt>
      <trkpt lat="42.50736" lon="3.00681">
        <ele>237.6</ele>
        <time>2021-10-29T16:57:59Z</time>
      </trkpt>
      <trkpt lat="42.50712" lon="3.00735">
        <ele>239.63</ele>
        <time>2021-10-29T16:57:59Z</time>
      </trkpt>
      <trkpt lat="42.50682" lon="3.00757">
        <ele>239.14</ele>
        <time>2021-10-29T16:57:59Z</time>
      </trkpt>
      <trkpt lat="42.50662" lon="3.00755">
        <ele>235.79</ele>
        <time>2021-10-29T16:57:59Z</time>
      </trkpt>
      <trkpt lat="42.50626" lon="3.00773">
        <ele>238.87</ele>
        <time>2021-10-29T16:57:59Z</time>
      </trkpt>
      <trkpt lat="42.50616" lon="3.00781">
        <ele>241.41</ele>
        <time>2021-10-29T16:57:59Z</time>
      </trkpt>
      <trkpt lat="42.50579" lon="3.00779">
        <ele>240.19</ele>
        <time>2021-10-29T16:57:59Z</time>
      </trkpt>
      <trkpt lat="42.50545" lon="3.0079">
        <ele>240.67</ele>
        <time>2021-10-29T16:57:59Z</time>
      </trkpt>
      <trkpt lat="42.50522" lon="3.00807">
        <ele>241.95</ele>
        <time>2021-10-29T16:57:59Z</time>
      </trkpt>
      <trkpt lat="42.50497" lon="3.00827">
        <ele>243.9</ele>
        <time>2021-10-29T16:57:59Z</time>
      </trkpt>
      <trkpt lat="42.50517" lon="3.00863">
        <ele>251.19</ele>
        <time>2021-10-29T16:57:59Z</time>
      </trkpt>
      <trkpt lat="42.50537" lon="3.00899">
        <ele>265.68</ele>
        <time>2021-10-29T16:57:59Z</time>
      </trkpt>
      <trkpt lat="42.50558" lon="3.00936">
        <ele>271.96</ele>
        <time>2021-10-29T16:57:59Z</time>
      </trkpt>
      <trkpt lat="42.50578" lon="3.00986">
        <ele>281.02</ele>
        <time>2021-10-29T16:57:59Z</time>
      </trkpt>
      <trkpt lat="42.50594" lon="3.01013">
        <ele>281.98</ele>
        <time>2021-10-29T16:57:59Z</time>
      </trkpt>
      <trkpt lat="42.5061" lon="3.0104">
        <ele>288.53</ele>
        <time>2021-10-29T16:57:59Z</time>
      </trkpt>
      <trkpt lat="42.50594" lon="3.01068">
        <ele>299.35</ele>
        <time>2021-10-29T16:57:59Z</time>
      </trkpt>
      <trkpt lat="42.50577" lon="3.01099">
        <ele>311.08</ele>
        <time>2021-10-29T16:57:59Z</time>
      </trkpt>
      <trkpt lat="42.5057" lon="3.01134">
        <ele>323.27</ele>
        <time>2021-10-29T16:57:59Z</time>
      </trkpt>
      <trkpt lat="42.50562" lon="3.01173">
        <ele>334.86</ele>
        <time>2021-10-29T16:57:59Z</time>
      </trkpt>
      <trkpt lat="42.50555" lon="3.01208">
        <ele>349.79</ele>
        <time>2021-10-29T16:57:59Z</time>
      </trkpt>
      <trkpt lat="42.50546" lon="3.01249">
        <ele>367.48</ele>
        <time>2021-10-29T16:57:59Z</time>
      </trkpt>
      <trkpt lat="42.50544" lon="3.01288">
        <ele>377.51</ele>
        <time>2021-10-29T16:57:59Z</time>
      </trkpt>
      <trkpt lat="42.50542" lon="3.01345">
        <ele>396.64</ele>
        <time>2021-10-29T16:57:59Z</time>
      </trkpt>
      <trkpt lat="42.50523" lon="3.01382">
        <ele>416.95</ele>
        <time>2021-10-29T16:57:59Z</time>
      </trkpt>
      <trkpt lat="42.50508" lon="3.01414">
        <ele>432.89</ele>
        <time>2021-10-29T16:57:59Z</time>
      </trkpt>
      <trkpt lat="42.50487" lon="3.01455">
        <ele>449</ele>
        <time>2021-10-29T16:57:59Z</time>
      </trkpt>
      <trkpt lat="42.50494" lon="3.01505">
        <ele>461.37</ele>
        <time>2021-10-29T16:57:59Z</time>
      </trkpt>
      <trkpt lat="42.505" lon="3.01555">
        <ele>472.53</ele>
        <time>2021-10-29T16:57:59Z</time>
      </trkpt>
      <trkpt lat="42.50507" lon="3.01605">
        <ele>482.46</ele>
        <time>2021-10-29T16:57:59Z</time>
      </trkpt>
      <trkpt lat="42.50514" lon="3.01659">
        <ele>492.5</ele>
        <time>2021-10-29T16:57:59Z</time>
      </trkpt>
      <trkpt lat="42.50526" lon="3.01697">
        <ele>500.08</ele>
        <time>2021-10-29T16:57:59Z</time>
      </trkpt>
      <trkpt lat="42.50537" lon="3.01728">
        <ele>503.15</ele>
        <time>2021-10-29T16:57:59Z</time>
      </trkpt>
      <trkpt lat="42.50547" lon="3.0176">
        <ele>512.83</ele>
        <time>2021-10-29T16:57:59Z</time>
      </trkpt>
      <trkpt lat="42.50578" lon="3.01777">
        <ele>515.73</ele>
        <time>2021-10-29T16:57:59Z</time>
      </trkpt>
      <trkpt lat="42.50608" lon="3.01794">
        <ele>523.88</ele>
        <time>2021-10-29T16:57:59Z</time>
      </trkpt>
      <trkpt lat="42.50639" lon="3.01812">
        <ele>534.55</ele>
        <time>2021-10-29T16:57:59Z</time>
      </trkpt>
      <trkpt lat="42.50661" lon="3.01835">
        <ele>540.02</ele>
        <time>2021-10-29T16:57:59Z</time>
      </trkpt>
      <trkpt lat="42.50691" lon="3.01865">
        <ele>546.4</ele>
        <time>2021-10-29T16:57:59Z</time>
      </trkpt>
      <trkpt lat="42.50699" lon="3.01899">
        <ele>558.83</ele>
        <time>2021-10-29T16:57:59Z</time>
      </trkpt>
      <trkpt lat="42.50709" lon="3.01939">
        <ele>561.39</ele>
        <time>2021-10-29T16:57:59Z</time>
      </trkpt>
      <trkpt lat="42.50736" lon="3.01961">
        <ele>555.96</ele>
        <time>2021-10-29T16:57:59Z</time>
      </trkpt>
      <trkpt lat="42.50758" lon="3.01978">
        <ele>556.12</ele>
        <time>2021-10-29T16:57:59Z</time>
      </trkpt>
      <trkpt lat="42.50783" lon="3.01998">
        <ele>556.07</ele>
        <time>2021-10-29T16:57:59Z</time>
      </trkpt>
      <trkpt lat="42.50807" lon="3.01959">
        <ele>565.34</ele>
        <time>2021-10-29T16:57:59Z</time>
      </trkpt>
      <trkpt lat="42.50831" lon="3.0192">
        <ele>558.41</ele>
        <time>2021-10-29T16:57:59Z</time>
      </trkpt>
      <trkpt lat="42.50856" lon="3.0188">
        <ele>553.78</ele>
        <time>2021-10-29T16:57:59Z</time>
      </trkpt>
      <trkpt lat="42.50884" lon="3.01835">
        <ele>551.76</ele>
        <time>2021-10-29T16:57:59Z</time>
      </trkpt>
      <trkpt lat="42.50913" lon="3.01828">
        <ele>548.99</ele>
        <time>2021-10-29T16:57:59Z</time>
      </trkpt>
      <trkpt lat="42.50958" lon="3.01817">
        <ele>551.11</ele>
        <time>2021-10-29T16:57:59Z</time>
      </trkpt>
      <trkpt lat="42.50973" lon="3.01789">
        <ele>552.53</ele>
        <time>2021-10-29T16:57:59Z</time>
      </trkpt>
      <trkpt lat="42.50989" lon="3.0176">
        <ele>545.97</ele>
        <time>2021-10-29T16:57:59Z</time>
      </trkpt>
      <trkpt lat="42.50992" lon="3.01735">
        <ele>543.42</ele>
        <time>2021-10-29T16:57:59Z</time>
      </trkpt>
      <trkpt lat="42.5102" lon="3.01693">
        <ele>541.97</ele>
        <time>2021-10-29T16:57:59Z</time>
      </trkpt>
      <trkpt lat="42.51048" lon="3.01674">
        <ele>543.15</ele>
        <time>2021-10-29T16:57:59Z</time>
      </trkpt>
      <trkpt lat="42.51068" lon="3.01653">
        <ele>543.52</ele>
        <time>2021-10-29T16:57:59Z</time>
      </trkpt>
      <trkpt lat="42.51081" lon="3.01639">
        <ele>543.16</ele>
        <time>2021-10-29T16:57:59Z</time>
      </trkpt>
      <trkpt lat="42.51092" lon="3.01618">
        <ele>543.5</ele>
        <time>2021-10-29T16:57:59Z</time>
      </trkpt>
      <trkpt lat="42.51099" lon="3.016">
        <ele>543.25</ele>
        <time>2021-10-29T16:57:59Z</time>
      </trkpt>
      <trkpt lat="42.51105" lon="3.01568">
        <ele>541.12</ele>
        <time>2021-10-29T16:57:59Z</time>
      </trkpt>
      <trkpt lat="42.51109" lon="3.01541">
        <ele>539.09</ele>
        <time>2021-10-29T16:57:59Z</time>
      </trkpt>
      <trkpt lat="42.51104" lon="3.01515">
        <ele>539.8</ele>
        <time>2021-10-29T16:57:59Z</time>
      </trkpt>
      <trkpt lat="42.51105" lon="3.01491">
        <ele>538.96</ele>
        <time>2021-10-29T16:57:59Z</time>
      </trkpt>
      <trkpt lat="42.51122" lon="3.01502">
        <ele>536.16</ele>
        <time>2021-10-29T16:57:59Z</time>
      </trkpt>
      <trkpt lat="42.51129" lon="3.01526">
        <ele>533</ele>
        <time>2021-10-29T16:57:59Z</time>
      </trkpt>
      <trkpt lat="42.51143" lon="3.01563">
        <ele>527.15</ele>
        <time>2021-10-29T16:57:59Z</time>
      </trkpt>
      <trkpt lat="42.51156" lon="3.01617">
        <ele>517.53</ele>
        <time>2021-10-29T16:57:59Z</time>
      </trkpt>
      <trkpt lat="42.51162" lon="3.01635">
        <ele>511.12</ele>
        <time>2021-10-29T16:57:59Z</time>
      </trkpt>
      <trkpt lat="42.51177" lon="3.01659">
        <ele>504.13</ele>
        <time>2021-10-29T16:57:59Z</time>
      </trkpt>
      <trkpt lat="42.51182" lon="3.01687">
        <ele>502.62</ele>
        <time>2021-10-29T16:57:59Z</time>
      </trkpt>
      <trkpt lat="42.51187" lon="3.01707">
        <ele>498.45</ele>
        <time>2021-10-29T16:57:59Z</time>
      </trkpt>
      <trkpt lat="42.5122" lon="3.01751">
        <ele>486.54</ele>
        <time>2021-10-29T16:57:59Z</time>
      </trkpt>
      <trkpt lat="42.51244" lon="3.0175">
        <ele>480.08</ele>
        <time>2021-10-29T16:57:59Z</time>
      </trkpt>
      <trkpt lat="42.51264" lon="3.01773">
        <ele>476.27</ele>
        <time>2021-10-29T16:57:59Z</time>
      </trkpt>
      <trkpt lat="42.51279" lon="3.01787">
        <ele>475.78</ele>
        <time>2021-10-29T16:57:59Z</time>
      </trkpt>
      <trkpt lat="42.51293" lon="3.01787">
        <ele>473.64</ele>
        <time>2021-10-29T16:57:59Z</time>
      </trkpt>
      <trkpt lat="42.51306" lon="3.01773">
        <ele>466.74</ele>
        <time>2021-10-29T16:57:59Z</time>
      </trkpt>
      <trkpt lat="42.51355" lon="3.01789">
        <ele>455.15</ele>
        <time>2021-10-29T16:57:59Z</time>
      </trkpt>
      <trkpt lat="42.5137" lon="3.01795">
        <ele>452.88</ele>
        <time>2021-10-29T16:57:59Z</time>
      </trkpt>
      <trkpt lat="42.51392" lon="3.01792">
        <ele>449.66</ele>
        <time>2021-10-29T16:57:59Z</time>
      </trkpt>
      <trkpt lat="42.51407" lon="3.01792">
        <ele>446.5</ele>
        <time>2021-10-29T16:57:59Z</time>
      </trkpt>
      <trkpt lat="42.51461" lon="3.01791">
        <ele>437.19</ele>
        <time>2021-10-29T16:57:59Z</time>
      </trkpt>
      <trkpt lat="42.51475" lon="3.01791">
        <ele>434.93</ele>
        <time>2021-10-29T16:57:59Z</time>
      </trkpt>
      <trkpt lat="42.51507" lon="3.0177">
        <ele>428.48</ele>
        <time>2021-10-29T16:57:59Z</time>
      </trkpt>
      <trkpt lat="42.51524" lon="3.01767">
        <ele>428.36</ele>
        <time>2021-10-29T16:57:59Z</time>
      </trkpt>
      <trkpt lat="42.51557" lon="3.01765">
        <ele>425.94</ele>
        <time>2021-10-29T16:57:59Z</time>
      </trkpt>
      <trkpt lat="42.51579" lon="3.01755">
        <ele>419.33</ele>
        <time>2021-10-29T16:57:59Z</time>
      </trkpt>
      <trkpt lat="42.51603" lon="3.01753">
        <ele>414.58</ele>
        <time>2021-10-29T16:57:59Z</time>
      </trkpt>
      <trkpt lat="42.51613" lon="3.01756">
        <ele>415.75</ele>
        <time>2021-10-29T16:57:59Z</time>
      </trkpt>
      <trkpt lat="42.51629" lon="3.01743">
        <ele>410.39</ele>
        <time>2021-10-29T16:57:59Z</time>
      </trkpt>
      <trkpt lat="42.51643" lon="3.01741">
        <ele>408.88</ele>
        <time>2021-10-29T16:57:59Z</time>
      </trkpt>
      <trkpt lat="42.51687" lon="3.01733">
        <ele>396.56</ele>
        <time>2021-10-29T16:57:59Z</time>
      </trkpt>
      <trkpt lat="42.51696" lon="3.01738">
        <ele>394.73</ele>
        <time>2021-10-29T16:57:59Z</time>
      </trkpt>
      <trkpt lat="42.51707" lon="3.01734">
        <ele>390.09</ele>
        <time>2021-10-29T16:57:59Z</time>
      </trkpt>
      <trkpt lat="42.51717" lon="3.0174">
        <ele>387.92</ele>
        <time>2021-10-29T16:57:59Z</time>
      </trkpt>
      <trkpt lat="42.51737" lon="3.01736">
        <ele>384.41</ele>
        <time>2021-10-29T16:57:59Z</time>
      </trkpt>
      <trkpt lat="42.51761" lon="3.01722">
        <ele>382.6</ele>
        <time>2021-10-29T16:57:59Z</time>
      </trkpt>
      <trkpt lat="42.5177" lon="3.0172">
        <ele>381.45</ele>
        <time>2021-10-29T16:57:59Z</time>
      </trkpt>
      <trkpt lat="42.51782" lon="3.019">
        <ele>326.45</ele>
        <time>2021-10-29T16:57:59Z</time>
      </trkpt>
      <trkpt lat="42.5179" lon="3.01926">
        <ele>316.46</ele>
        <time>2021-10-29T16:57:59Z</time>
      </trkpt>
      <trkpt lat="42.51813" lon="3.01918">
        <ele>311.99</ele>
        <time>2021-10-29T16:57:59Z</time>
      </trkpt>
      <trkpt lat="42.51841" lon="3.01915">
        <ele>312.9</ele>
        <time>2021-10-29T16:57:59Z</time>
      </trkpt>
      <trkpt lat="42.51879" lon="3.01911">
        <ele>312.38</ele>
        <time>2021-10-29T16:57:59Z</time>
      </trkpt>
      <trkpt lat="42.51904" lon="3.01921">
        <ele>312.06</ele>
        <time>2021-10-29T16:57:59Z</time>
      </trkpt>
      <trkpt lat="42.51932" lon="3.01933">
        <ele>310.32</ele>
        <time>2021-10-29T16:57:59Z</time>
      </trkpt>
      <trkpt lat="42.51957" lon="3.01911">
        <ele>311.52</ele>
        <time>2021-10-29T16:57:59Z</time>
      </trkpt>
      <trkpt lat="42.51994" lon="3.01878">
        <ele>310.22</ele>
        <time>2021-10-29T16:57:59Z</time>
      </trkpt>
      <trkpt lat="42.52028" lon="3.01891">
        <ele>305.44</ele>
        <time>2021-10-29T16:57:59Z</time>
      </trkpt>
      <trkpt lat="42.52063" lon="3.01904">
        <ele>301.77</ele>
        <time>2021-10-29T16:57:59Z</time>
      </trkpt>
      <trkpt lat="42.52088" lon="3.01914">
        <ele>300.13</ele>
        <time>2021-10-29T16:57:59Z</time>
      </trkpt>
      <trkpt lat="42.52116" lon="3.01925">
        <ele>295.85</ele>
        <time>2021-10-29T16:57:59Z</time>
      </trkpt>
      <trkpt lat="42.52112" lon="3.01959">
        <ele>294.59</ele>
        <time>2021-10-29T16:57:59Z</time>
      </trkpt>
      <trkpt lat="42.52089" lon="3.01974">
        <ele>293.65</ele>
        <time>2021-10-29T16:57:59Z</time>
      </trkpt>
      <trkpt lat="42.52065" lon="3.01989">
        <ele>285.14</ele>
        <time>2021-10-29T16:57:59Z</time>
      </trkpt>
      <trkpt lat="42.5204" lon="3.01989">
        <ele>280.45</ele>
        <time>2021-10-29T16:57:59Z</time>
      </trkpt>
      <trkpt lat="42.52013" lon="3.01989">
        <ele>275.76</ele>
        <time>2021-10-29T16:57:59Z</time>
      </trkpt>
      <trkpt lat="42.51995" lon="3.02024">
        <ele>269.93</ele>
        <time>2021-10-29T16:57:59Z</time>
      </trkpt>
      <trkpt lat="42.5198" lon="3.02054">
        <ele>263.46</ele>
        <time>2021-10-29T16:57:59Z</time>
      </trkpt>
      <trkpt lat="42.51963" lon="3.02087">
        <ele>254.64</ele>
        <time>2021-10-29T16:57:59Z</time>
      </trkpt>
      <trkpt lat="42.51992" lon="3.02087">
        <ele>246.94</ele>
        <time>2021-10-29T16:57:59Z</time>
      </trkpt>
      <trkpt lat="42.52033" lon="3.02086">
        <ele>241.57</ele>
        <time>2021-10-29T16:57:59Z</time>
      </trkpt>
      <trkpt lat="42.52055" lon="3.02105">
        <ele>237.96</ele>
        <time>2021-10-29T16:57:59Z</time>
      </trkpt>
      <trkpt lat="42.52079" lon="3.02126">
        <ele>235.38</ele>
        <time>2021-10-29T16:57:59Z</time>
      </trkpt>
      <trkpt lat="42.52084" lon="3.02138">
        <ele>233.16</ele>
        <time>2021-10-29T16:57:59Z</time>
      </trkpt>
      <trkpt lat="42.52099" lon="3.02154">
        <ele>234.67</ele>
        <time>2021-10-29T16:57:59Z</time>
      </trkpt>
      <trkpt lat="42.52111" lon="3.02183">
        <ele>233.02</ele>
        <time>2021-10-29T16:57:59Z</time>
      </trkpt>
      <trkpt lat="42.52123" lon="3.02213">
        <ele>232.53</ele>
        <time>2021-10-29T16:57:59Z</time>
      </trkpt>
      <trkpt lat="42.5214" lon="3.02245">
        <ele>230</ele>
        <time>2021-10-29T16:57:59Z</time>
      </trkpt>
      <trkpt lat="42.52169" lon="3.02256">
        <ele>231.23</ele>
        <time>2021-10-29T16:57:59Z</time>
      </trkpt>
      <trkpt lat="42.522" lon="3.02297">
        <ele>224.16</ele>
        <time>2021-10-29T16:57:59Z</time>
      </trkpt>
      <trkpt lat="42.52218" lon="3.02312">
        <ele>222.14</ele>
        <time>2021-10-29T16:57:59Z</time>
      </trkpt>
      <trkpt lat="42.52264" lon="3.02311">
        <ele>218.3</ele>
        <time>2021-10-29T16:57:59Z</time>
      </trkpt>
      <trkpt lat="42.52282" lon="3.02297">
        <ele>216.72</ele>
        <time>2021-10-29T16:57:59Z</time>
      </trkpt>
      <trkpt lat="42.52309" lon="3.02251">
        <ele>215.77</ele>
        <time>2021-10-29T16:57:59Z</time>
      </trkpt>
      <trkpt lat="42.52327" lon="3.02234">
        <ele>214.1</ele>
        <time>2021-10-29T16:57:59Z</time>
      </trkpt>
      <trkpt lat="42.52341" lon="3.02232">
        <ele>211.25</ele>
        <time>2021-10-29T16:57:59Z</time>
      </trkpt>
      <trkpt lat="42.52378" lon="3.02262">
        <ele>198.74</ele>
        <time>2021-10-29T16:57:59Z</time>
      </trkpt>
      <trkpt lat="42.52385" lon="3.02277">
        <ele>194.16</ele>
        <time>2021-10-29T16:57:59Z</time>
      </trkpt>
      <trkpt lat="42.52357" lon="3.02265">
        <ele>195.42</ele>
        <time>2021-10-29T16:57:59Z</time>
      </trkpt>
      <trkpt lat="42.5235" lon="3.02272">
        <ele>193.97</ele>
        <time>2021-10-29T16:57:59Z</time>
      </trkpt>
      <trkpt lat="42.52376" lon="3.02293">
        <ele>191.47</ele>
        <time>2021-10-29T16:57:59Z</time>
      </trkpt>
      <trkpt lat="42.52408" lon="3.02332">
        <ele>182.67</ele>
        <time>2021-10-29T16:57:59Z</time>
      </trkpt>
      <trkpt lat="42.52433" lon="3.02339">
        <ele>183.97</ele>
        <time>2021-10-29T16:57:59Z</time>
      </trkpt>
      <trkpt lat="42.52459" lon="3.02347">
        <ele>177.91</ele>
        <time>2021-10-29T16:57:59Z</time>
      </trkpt>
      <trkpt lat="42.52489" lon="3.02346">
        <ele>171.98</ele>
        <time>2021-10-29T16:57:59Z</time>
      </trkpt>
      <trkpt lat="42.52499" lon="3.0233">
        <ele>169.1</ele>
        <time>2021-10-29T16:57:59Z</time>
      </trkpt>
      <trkpt lat="42.52513" lon="3.02312">
        <ele>168.3</ele>
        <time>2021-10-29T16:57:59Z</time>
      </trkpt>
      <trkpt lat="42.5252" lon="3.02331">
        <ele>164.33</ele>
        <time>2021-10-29T16:57:59Z</time>
      </trkpt>
      <trkpt lat="42.52517" lon="3.02358">
        <ele>162.88</ele>
        <time>2021-10-29T16:57:59Z</time>
      </trkpt>
      <trkpt lat="42.5253" lon="3.02393">
        <ele>158.9</ele>
        <time>2021-10-29T16:57:59Z</time>
      </trkpt>
      <trkpt lat="42.52551" lon="3.02412">
        <ele>156.03</ele>
        <time>2021-10-29T16:57:59Z</time>
      </trkpt>
      <trkpt lat="42.52581" lon="3.02431">
        <ele>150.39</ele>
        <time>2021-10-29T16:57:59Z</time>
      </trkpt>
      <trkpt lat="42.52597" lon="3.02434">
        <ele>146.77</ele>
        <time>2021-10-29T16:57:59Z</time>
      </trkpt>
      <trkpt lat="42.52627" lon="3.02477">
        <ele>140.08</ele>
        <time>2021-10-29T16:57:59Z</time>
      </trkpt>
      <trkpt lat="42.52642" lon="3.0248">
        <ele>137.33</ele>
        <time>2021-10-29T16:57:59Z</time>
      </trkpt>
      <trkpt lat="42.52659" lon="3.02471">
        <ele>134.33</ele>
        <time>2021-10-29T16:57:59Z</time>
      </trkpt>
      <trkpt lat="42.52671" lon="3.02465">
        <ele>133.37</ele>
        <time>2021-10-29T16:57:59Z</time>
      </trkpt>
      <trkpt lat="42.52687" lon="3.02471">
        <ele>131.2</ele>
        <time>2021-10-29T16:57:59Z</time>
      </trkpt>
      <trkpt lat="42.52704" lon="3.02503">
        <ele>126.8</ele>
        <time>2021-10-29T16:57:59Z</time>
      </trkpt>
      <trkpt lat="42.52705" lon="3.02521">
        <ele>124.69</ele>
        <time>2021-10-29T16:57:59Z</time>
      </trkpt>
      <trkpt lat="42.52704" lon="3.02533">
        <ele>123.34</ele>
        <time>2021-10-29T16:57:59Z</time>
      </trkpt>
      <trkpt lat="42.52725" lon="3.02511">
        <ele>120.78</ele>
        <time>2021-10-29T16:57:59Z</time>
      </trkpt>
      <trkpt lat="42.52727" lon="3.02489">
        <ele>119.96</ele>
        <time>2021-10-29T16:57:59Z</time>
      </trkpt>
      <trkpt lat="42.52726" lon="3.02471">
        <ele>118.47</ele>
        <time>2021-10-29T16:57:59Z</time>
      </trkpt>
      <trkpt lat="42.52722" lon="3.02448">
        <ele>116.24</ele>
        <time>2021-10-29T16:57:59Z</time>
      </trkpt>
      <trkpt lat="42.52727" lon="3.02435">
        <ele>113.83</ele>
        <time>2021-10-29T16:57:59Z</time>
      </trkpt>
      <trkpt lat="42.52771" lon="3.02472">
        <ele>104.25</ele>
        <time>2021-10-29T16:57:59Z</time>
      </trkpt>
      <trkpt lat="42.52783" lon="3.025">
        <ele>100.57</ele>
        <time>2021-10-29T16:57:59Z</time>
      </trkpt>
      <trkpt lat="42.52791" lon="3.02522">
        <ele>97.17</ele>
        <time>2021-10-29T16:57:59Z</time>
      </trkpt>
      <trkpt lat="42.52808" lon="3.0255">
        <ele>97.3</ele>
        <time>2021-10-29T16:57:59Z</time>
      </trkpt>
      <trkpt lat="42.5283" lon="3.02573">
        <ele>98.67</ele>
        <time>2021-10-29T16:57:59Z</time>
      </trkpt>
      <trkpt lat="42.52848" lon="3.02587">
        <ele>95.83</ele>
        <time>2021-10-29T16:57:59Z</time>
      </trkpt>
      <trkpt lat="42.52868" lon="3.02618">
        <ele>90.27</ele>
        <time>2021-10-29T16:57:59Z</time>
      </trkpt>
      <trkpt lat="42.52893" lon="3.02637">
        <ele>85.6</ele>
        <time>2021-10-29T16:57:59Z</time>
      </trkpt>
      <trkpt lat="42.52936" lon="3.02649">
        <ele>82.5</ele>
        <time>2021-10-29T16:57:59Z</time>
      </trkpt>
      <trkpt lat="42.52977" lon="3.02637">
        <ele>75.66</ele>
        <time>2021-10-29T16:57:59Z</time>
      </trkpt>
      <trkpt lat="42.53003" lon="3.02627">
        <ele>72.7</ele>
        <time>2021-10-29T16:57:59Z</time>
      </trkpt>
      <trkpt lat="42.5303" lon="3.02628">
        <ele>69.43</ele>
        <time>2021-10-29T16:57:59Z</time>
      </trkpt>
      <trkpt lat="42.53071" lon="3.02618">
        <ele>64.88</ele>
        <time>2021-10-29T16:57:59Z</time>
      </trkpt>
      <trkpt lat="42.53084" lon="3.0261">
        <ele>63.52</ele>
        <time>2021-10-29T16:57:59Z</time>
      </trkpt>
      <trkpt lat="42.53109" lon="3.02618">
        <ele>62.19</ele>
        <time>2021-10-29T16:57:59Z</time>
      </trkpt>
      <trkpt lat="42.53119" lon="3.02615">
        <ele>61.42</ele>
        <time>2021-10-29T16:57:59Z</time>
      </trkpt>
      <trkpt lat="42.53136" lon="3.02626">
        <ele>61.52</ele>
        <time>2021-10-29T16:57:59Z</time>
      </trkpt>
      <trkpt lat="42.5316" lon="3.02679">
        <ele>56.74</ele>
        <time>2021-10-29T16:57:59Z</time>
      </trkpt>
      <trkpt lat="42.53173" lon="3.02687">
        <ele>56.06</ele>
        <time>2021-10-29T16:57:59Z</time>
      </trkpt>
      <trkpt lat="42.53193" lon="3.02705">
        <ele>52.96</ele>
        <time>2021-10-29T16:57:59Z</time>
      </trkpt>
      <trkpt lat="42.53213" lon="3.02757">
        <ele>48.53</ele>
        <time>2021-10-29T16:57:59Z</time>
      </trkpt>
      <trkpt lat="42.53237" lon="3.02773">
        <ele>46.21</ele>
        <time>2021-10-29T16:57:59Z</time>
      </trkpt>
      <trkpt lat="42.53266" lon="3.02793">
        <ele>48.18</ele>
        <time>2021-10-29T16:57:59Z</time>
      </trkpt>
      <trkpt lat="42.53294" lon="3.02825">
        <ele>50.7</ele>
        <time>2021-10-29T16:57:59Z</time>
      </trkpt>
      <trkpt lat="42.53315" lon="3.02833">
        <ele>50.19</ele>
        <time>2021-10-29T16:57:59Z</time>
      </trkpt>
      <trkpt lat="42.53338" lon="3.02856">
        <ele>49.05</ele>
        <time>2021-10-29T16:57:59Z</time>
      </trkpt>
      <trkpt lat="42.53368" lon="3.02888">
        <ele>46.4</ele>
        <time>2021-10-29T16:57:59Z</time>
      </trkpt>
      <trkpt lat="42.53386" lon="3.02912">
        <ele>45.23</ele>
        <time>2021-10-29T16:57:59Z</time>
      </trkpt>
      <trkpt lat="42.53403" lon="3.02972">
        <ele>43.09</ele>
        <time>2021-10-29T16:57:59Z</time>
      </trkpt>
      <trkpt lat="42.53425" lon="3.02994">
        <ele>40.62</ele>
        <time>2021-10-29T16:57:59Z</time>
      </trkpt>
      <trkpt lat="42.53452" lon="3.0302">
        <ele>40.06</ele>
        <time>2021-10-29T16:57:59Z</time>
      </trkpt>
      <trkpt lat="42.53478" lon="3.03056">
        <ele>38.24</ele>
        <time>2021-10-29T16:57:59Z</time>
      </trkpt>
      <trkpt lat="42.53503" lon="3.03092">
        <ele>36.88</ele>
        <time>2021-10-29T16:57:59Z</time>
      </trkpt>
      <trkpt lat="42.53523" lon="3.03121">
        <ele>36.73</ele>
        <time>2021-10-29T16:57:59Z</time>
      </trkpt>
      <trkpt lat="42.53552" lon="3.03161">
        <ele>33.29</ele>
        <time>2021-10-29T16:57:59Z</time>
      </trkpt>
      <trkpt lat="42.53581" lon="3.03198">
        <ele>31.76</ele>
        <time>2021-10-29T16:57:59Z</time>
      </trkpt>
      <trkpt lat="42.5361" lon="3.03235">
        <ele>30.31</ele>
        <time>2021-10-29T16:57:59Z</time>
      </trkpt>
      <trkpt lat="42.53639" lon="3.03272">
        <ele>28.72</ele>
        <time>2021-10-29T16:57:59Z</time>
      </trkpt>
      <trkpt lat="42.53669" lon="3.03309">
        <ele>30.1</ele>
        <time>2021-10-29T16:57:59Z</time>
      </trkpt>
      <trkpt lat="42.53701" lon="3.0335">
        <ele>28.68</ele>
        <time>2021-10-29T16:57:59Z</time>
      </trkpt>
      <trkpt lat="42.53731" lon="3.03379">
        <ele>27.01</ele>
        <time>2021-10-29T16:57:59Z</time>
      </trkpt>
      <trkpt lat="42.53761" lon="3.03408">
        <ele>25.84</ele>
        <time>2021-10-29T16:57:59Z</time>
      </trkpt>
      <trkpt lat="42.53785" lon="3.0343">
        <ele>24.38</ele>
        <time>2021-10-29T16:57:59Z</time>
      </trkpt>
      <trkpt lat="42.53818" lon="3.03462">
        <ele>23.71</ele>
        <time>2021-10-29T16:57:59Z</time>
      </trkpt>
      <trkpt lat="42.53848" lon="3.03495">
        <ele>22.46</ele>
        <time>2021-10-29T16:57:59Z</time>
      </trkpt>
      <trkpt lat="42.53879" lon="3.03529">
        <ele>20.68</ele>
        <time>2021-10-29T16:57:59Z</time>
      </trkpt>
      <trkpt lat="42.53909" lon="3.03563">
        <ele>19.35</ele>
        <time>2021-10-29T16:57:59Z</time>
      </trkpt>
      <trkpt lat="42.53932" lon="3.03587">
        <ele>16.37</ele>
        <time>2021-10-29T16:57:59Z</time>
      </trkpt>
      <trkpt lat="42.53963" lon="3.03622">
        <ele>14.1</ele>
        <time>2021-10-29T16:57:59Z</time>
      </trkpt>
      <trkpt lat="42.5397" lon="3.03655">
        <ele>13.47</ele>
        <time>2021-10-29T16:57:59Z</time>
      </trkpt>
      <trkpt lat="42.53977" lon="3.03689">
        <ele>12.57</ele>
        <time>2021-10-29T16:57:59Z</time>
      </trkpt>
      <trkpt lat="42.5402" lon="3.03675">
        <ele>11.7</ele>
        <time>2021-10-29T16:57:59Z</time>
      </trkpt>
      <trkpt lat="42.54046" lon="3.03698">
        <ele>11.01</ele>
        <time>2021-10-29T16:57:59Z</time>
      </trkpt>
      <trkpt lat="42.54067" lon="3.03716">
        <ele>10.41</ele>
        <time>2021-10-29T16:57:59Z</time>
      </trkpt>
      <trkpt lat="42.5409" lon="3.03736">
        <ele>10.14</ele>
        <time>2021-10-29T16:57:59Z</time>
      </trkpt>
      <trkpt lat="42.54107" lon="3.0377">
        <ele>8.9</ele>
        <time>2021-10-29T16:57:59Z</time>
      </trkpt>
      <trkpt lat="42.54134" lon="3.03823">
        <ele>8.45</ele>
        <time>2021-10-29T16:57:59Z</time>
      </trkpt>
      <trkpt lat="42.54128" lon="3.03873">
        <ele>7.21</ele>
        <time>2021-10-29T16:57:59Z</time>
      </trkpt>
      <trkpt lat="42.54122" lon="3.03923">
        <ele>6.27</ele>
        <time>2021-10-29T16:57:59Z</time>
      </trkpt>
      <trkpt lat="42.54116" lon="3.03973">
        <ele>6.06</ele>
        <time>2021-10-29T16:57:59Z</time>
      </trkpt>
      <trkpt lat="42.5411" lon="3.04025">
        <ele>6.27</ele>
        <time>2021-10-29T16:57:59Z</time>
      </trkpt>
      <trkpt lat="42.54109" lon="3.0407">
        <ele>4.99</ele>
        <time>2021-10-29T16:57:59Z</time>
      </trkpt>
      <trkpt lat="42.54109" lon="3.04115">
        <ele>4.2</ele>
        <time>2021-10-29T16:57:59Z</time>
      </trkpt>
      <trkpt lat="42.54108" lon="3.0416">
        <ele>4.59</ele>
        <time>2021-10-29T16:57:59Z</time>
      </trkpt>
      <trkpt lat="42.54095" lon="3.04212">
        <ele>6.14</ele>
        <time>2021-10-29T16:57:59Z</time>
      </trkpt>
      <trkpt lat="42.54083" lon="3.04264">
        <ele>4.86</ele>
        <time>2021-10-29T16:57:59Z</time>
      </trkpt>
      <trkpt lat="42.5407" lon="3.04316">
        <ele>5.17</ele>
        <time>2021-10-29T16:57:59Z</time>
      </trkpt>
      <trkpt lat="42.54057" lon="3.04368">
        <ele>4.82</ele>
        <time>2021-10-29T16:57:59Z</time>
      </trkpt>
      <trkpt lat="42.54049" lon="3.04402">
        <ele>4.69</ele>
        <time>2021-10-29T16:57:59Z</time>
      </trkpt>
      <trkpt lat="42.5404" lon="3.04441">
        <ele>4.84</ele>
        <time>2021-10-29T16:57:59Z</time>
      </trkpt>
      <trkpt lat="42.54028" lon="3.04489">
        <ele>4.52</ele>
        <time>2021-10-29T16:57:59Z</time>
      </trkpt>
      <trkpt lat="42.54017" lon="3.04537">
        <ele>4.4</ele>
        <time>2021-10-29T16:57:59Z</time>
      </trkpt>
      <trkpt lat="42.54005" lon="3.04585">
        <ele>3.57</ele>
        <time>2021-10-29T16:57:59Z</time>
      </trkpt>
      <trkpt lat="42.53993" lon="3.04634">
        <ele>4.63</ele>
        <time>2021-10-29T16:57:59Z</time>
      </trkpt>
      <trkpt lat="42.54" lon="3.04676">
        <ele>3.32</ele>
        <time>2021-10-29T16:57:59Z</time>
      </trkpt>
      <trkpt lat="42.54007" lon="3.04711">
        <ele>3.15</ele>
        <time>2021-10-29T16:57:59Z</time>
      </trkpt>
      <trkpt lat="42.54014" lon="3.04751">
        <ele>2.15</ele>
        <time>2021-10-29T16:57:59Z</time>
      </trkpt>
      <trkpt lat="42.54024" lon="3.0479">
        <ele>2.18</ele>
        <time>2021-10-29T16:57:59Z</time>
      </trkpt>
      <trkpt lat="42.54043" lon="3.04779">
        <ele>0.71</ele>
        <time>2021-10-29T16:57:59Z</time>
      </trkpt>
      <trkpt lat="42.54069" lon="3.04758">
        <ele>0.64</ele>
        <time>2021-10-29T16:57:59Z</time>
      </trkpt>
      <trkpt lat="42.54082" lon="3.04753">
        <ele>0.79</ele>
        <time>2021-10-29T16:57:59Z</time>
      </trkpt>
      <trkpt lat="42.54099" lon="3.04761">
        <ele>1.4</ele>
        <time>2021-10-29T16:57:59Z</time>
      </trkpt>
      <trkpt lat="42.54111" lon="3.04793">
        <ele>1.45</ele>
        <time>2021-10-29T16:57:59Z</time>
      </trkpt>
      <trkpt lat="42.54125" lon="3.04831">
        <ele>1.15</ele>
        <time>2021-10-29T16:57:59Z</time>
      </trkpt>
      <trkpt lat="42.5416" lon="3.04818">
        <ele>1.72</ele>
        <time>2021-10-29T16:57:59Z</time>
      </trkpt>
      <trkpt lat="42.54174" lon="3.04804">
        <ele>1.48</ele>
        <time>2021-10-29T16:57:59Z</time>
      </trkpt>
      <trkpt lat="42.54193" lon="3.04817">
        <ele>0.37</ele>
        <time>2021-10-29T16:57:59Z</time>
      </trkpt>
      <trkpt lat="42.54208" lon="3.04863">
        <ele>0.39</ele>
        <time>2021-10-29T16:57:59Z</time>
      </trkpt>
      <trkpt lat="42.54223" lon="3.04908">
        <ele>0.69</ele>
        <time>2021-10-29T16:57:59Z</time>
      </trkpt>
      <trkpt lat="42.54235" lon="3.04944">
        <ele>0.7</ele>
        <time>2021-10-29T16:57:59Z</time>
      </trkpt>
      <trkpt lat="42.54251" lon="3.04994">
        <ele>1.35</ele>
        <time>2021-10-29T16:57:59Z</time>
      </trkpt>
      <trkpt lat="42.54223" lon="3.05011">
        <ele>0.45</ele>
        <time>2021-10-29T16:57:59Z</time>
      </trkpt>
      <trkpt lat="42.54201" lon="3.05026">
        <ele>1.12</ele>
        <time>2021-10-29T16:57:59Z</time>
      </trkpt>
      <trkpt lat="42.54178" lon="3.0504">
        <ele>1.34</ele>
        <time>2021-10-29T16:57:59Z</time>
      </trkpt>
      <trkpt lat="42.54163" lon="3.05054">
        <ele>0.93</ele>
        <time>2021-10-29T16:57:59Z</time>
      </trkpt>
      <trkpt lat="42.54175" lon="3.05086">
        <ele>0.56</ele>
        <time>2021-10-29T16:57:59Z</time>
      </trkpt>
      <trkpt lat="42.54191" lon="3.05096">
        <ele>1.53</ele>
        <time>2021-10-29T16:57:59Z</time>
      </trkpt>
      <trkpt lat="42.54244" lon="3.05109">
        <ele>1.99</ele>
        <time>2021-10-29T16:57:59Z</time>
      </trkpt>
      <trkpt lat="42.54283" lon="3.0511">
        <ele>2.55</ele>
        <time>2021-10-29T16:57:59Z</time>
      </trkpt>
      <trkpt lat="42.54323" lon="3.05111">
        <ele>0.71</ele>
        <time>2021-10-29T16:57:59Z</time>
      </trkpt>
      <trkpt lat="42.54362" lon="3.05113">
        <ele>2.63</ele>
        <time>2021-10-29T16:57:59Z</time>
      </trkpt>
      <trkpt lat="42.54392" lon="3.05113">
        <ele>2.94</ele>
        <time>2021-10-29T16:57:59Z</time>
      </trkpt>
      <trkpt lat="42.54438" lon="3.05115">
        <ele>3.06</ele>
        <time>2021-10-29T16:57:59Z</time>
      </trkpt>
      <trkpt lat="42.54462" lon="3.05101">
        <ele>3.03</ele>
        <time>2021-10-29T16:57:59Z</time>
      </trkpt>
      <trkpt lat="42.5449" lon="3.05085">
        <ele>3.05</ele>
        <time>2021-10-29T16:57:59Z</time>
      </trkpt>
      <trkpt lat="42.54521" lon="3.05066">
        <ele>3.2</ele>
        <time>2021-10-29T16:57:59Z</time>
      </trkpt>
      <trkpt lat="42.54551" lon="3.05047">
        <ele>3.92</ele>
        <time>2021-10-29T16:57:59Z</time>
      </trkpt>
      <trkpt lat="42.54586" lon="3.05025">
        <ele>3.5</ele>
        <time>2021-10-29T16:57:59Z</time>
      </trkpt>
      <trkpt lat="42.54618" lon="3.05004">
        <ele>2.83</ele>
        <time>2021-10-29T16:57:59Z</time>
      </trkpt>
      <trkpt lat="42.5465" lon="3.04984">
        <ele>3.41</ele>
        <time>2021-10-29T16:57:59Z</time>
      </trkpt>
      <trkpt lat="42.54674" lon="3.04969">
        <ele>3.41</ele>
        <time>2021-10-29T16:57:59Z</time>
      </trkpt>
      <trkpt lat="42.547" lon="3.04952">
        <ele>3.58</ele>
        <time>2021-10-29T16:57:59Z</time>
      </trkpt>
      <trkpt lat="42.5473" lon="3.04935">
        <ele>3.45</ele>
        <time>2021-10-29T16:57:59Z</time>
      </trkpt>
      <trkpt lat="42.54756" lon="3.0492">
        <ele>3.56</ele>
        <time>2021-10-29T16:57:59Z</time>
      </trkpt>
      <trkpt lat="42.54789" lon="3.04901">
        <ele>3.33</ele>
        <time>2021-10-29T16:57:59Z</time>
      </trkpt>
      <trkpt lat="42.54832" lon="3.04893">
        <ele>4</ele>
        <time>2021-10-29T16:57:59Z</time>
      </trkpt>
      <trkpt lat="42.54874" lon="3.04884">
        <ele>3.86</ele>
        <time>2021-10-29T16:57:59Z</time>
      </trkpt>
      <trkpt lat="42.54917" lon="3.04876">
        <ele>3.95</ele>
        <time>2021-10-29T16:57:59Z</time>
      </trkpt>
      <trkpt lat="42.5496" lon="3.04867">
        <ele>3.45</ele>
        <time>2021-10-29T16:57:59Z</time>
      </trkpt>
      <trkpt lat="42.55002" lon="3.04859">
        <ele>3.4</ele>
        <time>2021-10-29T16:57:59Z</time>
      </trkpt>
      <trkpt lat="42.55045" lon="3.0485">
        <ele>3.3</ele>
        <time>2021-10-29T16:57:59Z</time>
      </trkpt>
      <trkpt lat="42.55074" lon="3.04845">
        <ele>3.03</ele>
        <time>2021-10-29T16:57:59Z</time>
      </trkpt>
      <trkpt lat="42.55114" lon="3.04837">
        <ele>3.01</ele>
        <time>2021-10-29T16:57:59Z</time>
      </trkpt>
    </trkseg>
  </trk>
</gpx>